# Wetter Temperatur Luftdruck Luftfeuchtigkeit Sichtweite Windgeschwindigkeit Windrichtung Zeit
1 Rain 23 1016 83 10000 3.1 90 19:42 17.10.2019
2 Rain 23 1016 88 10000 3.6 90 19:20 17.10.2019
3 Rain 23 1016 88 10000 4.6 90 18:59 17.10.2019
4 Rain 23 1016 88 10000 4.6 90 18:39 17.10.2019
5 Rain 23 1016 83 10000 3.6 90 18:20 17.10.2019
6 Clouds 23 1016 83 10000 4.1 90 17:43 17.10.2019
7 Clouds 23 1016 83 10000 4.1 90 17:43 17.10.2019
8 Clouds 23 1015 83 10000 3.6 90 17:24 17.10.2019
9 Clouds 23 1015 83 10000 5.7 70 16:58 17.10.2019
10 Clouds 23 1015 83 10000 5.7 70 16:40 17.10.2019
11 Clouds 23 1015 83 10000 5.7 70 16:40 17.10.2019
12 Clouds 22 1015 94 10000 3.1 90 16:18 17.10.2019
13 Rain 22 1015 94 9000 4.6 80 15:56 17.10.2019
14 Rain 22 1015 94 9000 4.6 80 15:38 17.10.2019
15 Rain 23 1016 88 10000 4.1 90 15:20 17.10.2019
16 Rain 23 1016 88 10000 3.6 90 14:55 17.10.2019
17 Clouds 23 1016 88 10000 3.6 90 14:37 17.10.2019
18 Clouds 23 1017 83 10000 4.1 90 14:18 17.10.2019
19 Clouds 22 1017 94 10000 3.1 90 13:39 17.10.2019
20 Rain 21 1017 94 5000 3.1 90 13:19 17.10.2019
21 Clouds 23 1017 83 10000 4.1 90 12:55 17.10.2019
22 Clouds 23 1017 83 10000 4.1 90 12:55 17.10.2019
23 Clouds 23 1017 83 10000 4.1 90 12:36 17.10.2019
24 Clouds 23 1017 83 10000 5.1 90 12:18 17.10.2019
25 -273 0 0 0 0 0 11:41 17.10.2019
26 Clouds 23 1018 78 10000 2.6 100 11:21 17.10.2019
27 Clouds 23 1018 78 10000 3.6 100 10:57 17.10.2019
28 Clouds 23 1018 78 10000 3.6 100 10:39 17.10.2019
29 Clouds 23 1018 78 10000 4.1 90 10:19 17.10.2019
30 Clouds 23 1018 78 10000 3.6 100 09:55 17.10.2019
31 Clouds 23 1018 78 10000 3.6 100 09:36 17.10.2019
32 Clouds 23 1018 78 10000 3.6 100 09:18 17.10.2019
33 Clouds 23 1018 78 10000 3.1 100 08:46 17.10.2019
34 Clouds 23 1017 78 10000 3.6 100 08:26 17.10.2019
35 Clouds 23 1017 78 10000 3.6 100 07:56 17.10.2019
36 Clouds 23 1017 78 10000 3.6 100 07:38 17.10.2019
37 Clouds 23 1017 78 10000 3.1 100 07:18 17.10.2019
38 Clouds 23 1017 78 10000 3.1 100 07:18 17.10.2019
39 Clouds 24 1016 73 10000 3.6 100 06:40 17.10.2019
40 Clouds 24 1016 73 10000 3.6 100 06:21 17.10.2019
41 Clouds 24 1016 73 10000 3.6 110 05:57 17.10.2019
42 Clouds 25 1015 69 10000 5.1 100 05:32 17.10.2019
43 Clouds 25 1015 69 10000 3.6 100 04:55 17.10.2019
44 Clouds 25 1015 73 10000 5.7 90 03:55 17.10.2019
45 Clouds 26 1016 69 10000 5.7 90 02:37 17.10.2019
46 Clouds 25 1016 69 10000 5.1 100 01:27 17.10.2019
47 Clouds 25 1017 69 10000 6.7 90 00:38 17.10.2019
48 Clouds 25 1017 73 10000 6.7 80 00:19 17.10.2019
49 Clouds 25 1017 73 10000 6.7 80 23:42 16.10.2019
50 Clouds 25 1018 73 10000 6.2 90 23:21 16.10.2019
51 Clouds 25 1018 73 10000 6.2 90 22:56 16.10.2019
52 Clouds 25 1018 73 10000 6.2 90 22:37 16.10.2019
53 Clouds 25 1018 73 10000 5.1 90 22:18 16.10.2019
54 Clouds 24 1018 78 10000 5.1 100 21:56 16.10.2019
55 Clouds 24 1018 78 10000 5.1 100 21:37 16.10.2019
56 Clouds 24 1018 78 10000 5.1 100 21:18 16.10.2019
57 Rain 24 1018 78 10000 3.6 100 20:57 16.10.2019
58 Rain 24 1018 78 10000 3.6 100 20:38 16.10.2019
59 Clouds 23 1018 78 10000 4.1 100 20:20 16.10.2019
60 Clouds 23 1018 78 10000 4.1 100 20:20 16.10.2019
61 Clouds 23 1018 78 10000 4.1 100 19:57 16.10.2019
62 Clouds 23 1018 78 10000 4.1 100 19:38 16.10.2019
63 Rain 22 1017 88 10000 2.6 110 19:20 16.10.2019
64 Clouds 22 1017 83 10000 3.6 100 18:39 16.10.2019
65 Clouds 22 1017 83 10000 3.6 100 18:39 16.10.2019
66 Rain 22 1017 83 10000 3.6 100 18:19 16.10.2019
67 Rain 21 1017 88 10000 1.5 110 17:56 16.10.2019
68 Rain 21 1017 88 10000 1.5 110 17:38 16.10.2019
69 Rain 21 1017 88 10000 2.1 110 17:19 16.10.2019
70 Rain 21 1017 94 10000 1.5 120 16:58 16.10.2019
71 Rain 21 1017 94 10000 1.5 120 16:58 16.10.2019
72 Rain 21 1017 94 10000 1.5 120 16:39 16.10.2019
73 Rain 21 1017 94 10000 2.1 90 16:20 16.10.2019
74 Rain 21 1016 94 8000 1.5 90 15:55 16.10.2019
75 Rain 21 1016 94 8000 1.5 90 15:36 16.10.2019
76 Clouds 22 1016 83 10000 2.1 110 15:18 16.10.2019
77 Clouds 22 1016 83 10000 2.1 110 15:18 16.10.2019
78 Clouds 22 1016 83 10000 2.1 110 14:55 16.10.2019
79 Clouds 22 1016 83 10000 2.1 110 14:55 16.10.2019
80 Clouds 22 1016 83 10000 2.1 110 14:36 16.10.2019
81 Clouds 22 1017 83 10000 1 120 14:18 16.10.2019
82 Clouds 21 1017 88 10000 1 120 13:42 16.10.2019
83 Clouds 21 1017 88 10000 1 120 13:23 16.10.2019
84 Clouds 22 1017 83 10000 1 120 12:44 16.10.2019
85 Clouds 22 1018 83 10000 2.1 100 12:20 16.10.2019
86 Clouds 22 1018 78 10000 1 130 11:59 16.10.2019
87 Clouds 22 1018 78 10000 1 130 11:41 16.10.2019
88 Clouds 22 1018 78 10000 1 80 11:18 16.10.2019
89 Clouds 23 1018 78 10000 3.6 100 10:37 16.10.2019
90 Clouds 23 1018 78 10000 3.1 100 10:19 16.10.2019
91 Clouds 23 1018 73 10000 2.6 100 09:41 16.10.2019
92 Clouds 23 1017 73 10000 2.6 120 09:22 16.10.2019
93 Clouds 23 1017 73 10000 2.6 110 08:58 16.10.2019
94 Clouds 23 1017 73 10000 2.6 110 08:40 16.10.2019
95 Clouds 23 1017 73 10000 2.6 110 08:21 16.10.2019
96 Clouds 23 1016 73 10000 2.6 100 07:45 16.10.2019
97 Clouds 23 1016 73 10000 3.6 100 07:24 16.10.2019
98 Clouds 24 1016 69 10000 3.6 100 06:56 16.10.2019
99 Clouds 24 1016 69 10000 3.6 100 06:56 16.10.2019
100 Clouds 24 1016 69 10000 4.1 100 06:35 16.10.2019
101 Clouds 25 1015 65 10000 4.1 100 05:23 16.10.2019
102 Clouds 26 1016 65 10000 5.1 80 02:57 16.10.2019
103 Clouds 26 1016 57 10000 5.1 100 01:39 16.10.2019
104 Clouds 26 1017 57 10000 4.1 100 01:18 16.10.2019
105 Clouds 26 1017 61 10000 5.1 80 00:45 16.10.2019
106 Clouds 26 1017 61 10000 4.6 90 23:59 15.10.2019
107 Clouds 26 1017 61 10000 4.6 90 23:39 15.10.2019
108 Clouds 25 1017 65 10000 5.1 90 23:21 15.10.2019
109 Clouds 25 1017 65 10000 5.1 90 23:21 15.10.2019
110 Clouds 25 1017 65 10000 5.7 90 22:55 15.10.2019
111 Clouds 25 1017 65 10000 5.7 90 22:55 15.10.2019
112 Clouds 25 1017 65 10000 5.7 90 22:55 15.10.2019
113 Clouds 25 1017 65 10000 5.7 90 22:37 15.10.2019
114 Clouds 25 1017 65 10000 4.6 90 22:19 15.10.2019
115 Clouds 25 1018 65 10000 4.1 100 21:55 15.10.2019
116 Clear 25 1018 65 10000 4.1 100 21:36 15.10.2019
117 Clear 24 1018 69 10000 3.6 90 21:18 15.10.2019
118 Clear 23 1018 78 10000 2.6 110 20:55 15.10.2019
119 Clear 23 1018 78 10000 2.6 110 20:37 15.10.2019
120 Clear 23 1017 78 10000 1.5 100 20:19 15.10.2019
121 Clear 21 1017 88 10000 0.5 200 19:55 15.10.2019
122 Clear 21 1017 88 10000 0.5 200 19:55 15.10.2019
123 Clear 21 1017 88 10000 0.5 200 19:55 15.10.2019
124 Clear 21 1017 88 10000 0.5 200 19:36 15.10.2019
125 Clear 20 1017 88 10000 1 170 19:18 15.10.2019
126 Clear 19 1017 93 10000 1 170 18:43 15.10.2019
127 -273 0 0 0 0 0 18:25 15.10.2019
128 Clear 19 1016 93 10000 1 170 17:55 15.10.2019
129 Clear 19 1016 93 10000 1 170 17:37 15.10.2019
130 Clear 20 1016 88 10000 1 170 17:18 15.10.2019
131 Clear 21 1015 83 10000 1 130 16:43 15.10.2019
132 Clear 21 1015 83 10000 1 130 16:22 15.10.2019
133 Clear 21 1015 83 10000 1.5 100 15:57 15.10.2019
134 Clear 21 1015 83 10000 1.5 100 15:57 15.10.2019
135 Clear 21 1015 83 10000 1.5 100 15:39 15.10.2019
136 Clear 21 1016 88 10000 1.5 130 15:19 15.10.2019
137 Clear 21 1016 88 10000 2.1 110 14:55 15.10.2019
138 Clear 21 1016 88 10000 2.1 110 14:36 15.10.2019
139 Clear 21 1016 88 10000 1.5 110 14:18 15.10.2019
140 Clear 21 1016 88 10000 2.6 100 13:43 15.10.2019
141 Clear 21 1016 88 10000 2.6 100 13:43 15.10.2019
142 Clear 21 1016 88 10000 3.1 90 13:20 15.10.2019
143 Clear 21 1016 88 10000 3.1 90 13:20 15.10.2019
144 Clear 21 1016 88 10000 2.1 100 12:56 15.10.2019
145 Clear 21 1016 88 10000 2.1 100 12:37 15.10.2019
146 Clear 21 1016 88 10000 2.1 100 12:37 15.10.2019
147 Clear 20 1017 88 10000 1 110 12:18 15.10.2019
148 Clear 20 1017 88 10000 0.5 180 11:42 15.10.2019
149 Clear 21 1017 83 10000 1 120 11:20 15.10.2019
150 Clear 21 1017 83 10000 1 130 10:55 15.10.2019
151 Clear 21 1017 83 10000 1 130 10:37 15.10.2019
152 Clear 22 1017 78 10000 1 130 10:18 15.10.2019
153 Clear 22 1017 78 10000 1.5 100 09:40 15.10.2019
154 Clear 22 1017 78 10000 1.5 100 09:40 15.10.2019
155 Clouds 22 1017 78 10000 2.1 100 09:21 15.10.2019
156 Clear 22 1016 78 10000 2.6 90 08:58 15.10.2019
157 -273 0 0 0 0 0 08:58 15.10.2019
158 Clear 23 1016 73 10000 1.5 110 08:40 15.10.2019
159 Clear 23 1016 73 10000 1.5 110 08:20 15.10.2019
160 Clear 23 1016 73 10000 2.1 100 07:44 15.10.2019
161 Clear 23 1015 78 10000 3.6 100 07:23 15.10.2019
162 Clear 24 1015 73 10000 3.1 90 06:57 15.10.2019
163 Clear 24 1015 73 10000 3.1 90 06:39 15.10.2019
164 Clear 25 1015 65 10000 4.6 80 05:56 15.10.2019
165 Clear 25 1015 65 10000 4.6 80 05:36 15.10.2019
166 Clear 25 1014 69 10000 6.2 70 04:48 15.10.2019
167 Clear 25 1014 69 10000 6.2 80 04:18 15.10.2019
168 Clear 26 1014 65 10000 6.2 70 03:35 15.10.2019
169 Clear 26 1014 65 10000 6.2 70 03:35 15.10.2019
170 Rain 25 1015 69 10000 5.7 80 01:52 15.10.2019
171 Rain 25 1015 69 10000 5.7 80 01:52 15.10.2019
172 Rain 25 1015 73 10000 5.7 90 01:31 15.10.2019
173 Rain 25 1015 69 10000 5.1 100 00:59 15.10.2019
174 Rain 25 1016 73 10000 5.1 90 00:25 15.10.2019
175 Rain 25 1016 73 10000 5.7 80 23:58 14.10.2019
176 Rain 25 1016 73 10000 5.7 80 23:37 14.10.2019
177 Rain 25 1016 73 10000 5.7 80 23:37 14.10.2019
178 Rain 25 1016 73 10000 5.7 80 23:37 14.10.2019
179 Rain 25 1016 69 10000 4.1 90 23:18 14.10.2019
180 Rain 25 1016 73 10000 4.1 110 22:39 14.10.2019
181 Rain 24 1016 78 10000 4.6 100 22:20 14.10.2019
182 Rain 23 1016 83 10000 4.1 90 21:57 14.10.2019
183 Rain 23 1016 83 10000 4.1 90 21:39 14.10.2019
184 Rain 23 1016 83 10000 3.6 90 21:20 14.10.2019
185 Rain 23 1016 83 10000 4.1 80 20:56 14.10.2019
186 Rain 23 1016 83 10000 4.1 80 20:38 14.10.2019
187 Rain 23 1016 83 10000 4.1 80 20:38 14.10.2019
188 Rain 22 1016 88 10000 3.1 80 20:18 14.10.2019
189 Clouds 22 1015 88 10000 2.1 100 19:43 14.10.2019
190 Rain 21 1015 94 10000 2.1 110 19:24 14.10.2019
191 Rain 21 1015 94 10000 2.1 110 19:24 14.10.2019
192 Rain 21 1015 88 9000 2.6 60 18:59 14.10.2019
193 Rain 21 1015 88 9000 2.6 60 18:39 14.10.2019
194 Clouds 21 1014 88 10000 2.6 110 18:20 14.10.2019
195 Clouds 21 1014 88 10000 2.6 110 18:20 14.10.2019
196 Clouds 21 1014 88 10000 2.6 110 18:20 14.10.2019
197 Clouds 21 1014 88 10000 2.1 90 17:58 14.10.2019
198 Clouds 21 1014 88 10000 2.1 90 17:39 14.10.2019
199 Clouds 21 1014 88 10000 2.1 100 17:21 14.10.2019
200 Rain 21 1014 88 10000 2.1 100 16:44 14.10.2019
201 Clouds 22 1014 78 10000 2.1 100 16:21 14.10.2019
202 Clouds 22 1014 78 10000 2.6 90 15:54 14.10.2019
203 Clouds 22 1014 78 10000 2.6 90 15:36 14.10.2019
204 Clouds 22 1014 78 10000 2.6 90 15:18 14.10.2019
205 Clouds 22 1014 78 10000 2.6 90 14:43 14.10.2019
206 Clouds 22 1014 78 10000 2.1 100 14:23 14.10.2019
207 Clouds 22 1014 78 10000 2.1 100 13:45 14.10.2019
208 Clouds 22 1014 78 10000 1.5 110 13:22 14.10.2019
209 Clouds 22 1015 73 10000 2.1 110 12:59 14.10.2019
210 Clouds 22 1015 73 10000 2.1 110 12:40 14.10.2019
211 Clouds 23 1014 69 10000 3.1 90 12:19 14.10.2019
212 Clouds 23 1015 69 10000 2.6 100 11:46 14.10.2019
213 Clouds 22 1015 68 10000 3.6 90 11:26 14.10.2019
214 Clouds 22 1015 68 10000 3.6 90 11:26 14.10.2019
215 Clouds 22 1015 68 10000 3.1 100 10:58 14.10.2019
216 Clouds 22 1015 68 10000 3.1 100 10:58 14.10.2019
217 Clouds 22 1015 68 10000 3.1 100 10:38 14.10.2019
218 Clouds 22 1015 73 10000 2.6 100 10:20 14.10.2019
219 Clouds 22 1015 73 10000 3.1 100 09:55 14.10.2019
220 Clouds 22 1015 73 10000 2.6 100 09:36 14.10.2019
221 Clouds 22 1015 73 10000 2.6 100 09:18 14.10.2019
222 Clouds 22 1015 78 10000 3.6 90 08:43 14.10.2019
223 Clouds 22 1014 78 10000 4.1 90 08:22 14.10.2019
224 Clouds 22 1014 73 10000 4.1 90 07:42 14.10.2019
225 Clouds 23 1014 69 10000 4.6 90 07:19 14.10.2019
226 Clouds 23 1013 69 10000 4.6 90 06:38 14.10.2019
227 Clouds 24 1013 64 10000 4.6 100 06:20 14.10.2019
228 Clouds 23 1013 64 10000 4.1 90 05:46 14.10.2019
229 Clouds 24 1013 64 10000 6.2 80 04:42 14.10.2019
230 Clouds 25 1013 61 10000 6.7 70 03:27 14.10.2019
231 Clouds 24 1014 64 10000 6.7 80 02:42 14.10.2019
232 Clear 25 1015 61 10000 5.1 90 01:23 14.10.2019
233 Clear 25 1015 65 10000 6.2 90 00:53 14.10.2019
234 Clear 25 1015 65 10000 6.2 90 00:53 14.10.2019
235 Clear 25 1015 61 10000 5.1 80 00:19 14.10.2019
236 Clear 26 1015 57 10000 6.2 70 23:44 13.10.2019
237 Clear 25 1016 61 10000 6.2 70 23:20 13.10.2019
238 Clear 25 1016 61 10000 4.1 80 22:58 13.10.2019
239 Clear 25 1016 61 10000 4.1 80 22:40 13.10.2019
240 Clear 24 1016 60 10000 6.2 80 22:21 13.10.2019
241 Clear 24 1016 60 10000 4.6 90 21:58 13.10.2019
242 Clear 24 1016 60 10000 4.6 90 21:37 13.10.2019
243 Clear 24 1016 60 10000 4.6 90 21:37 13.10.2019
244 Rain 24 1017 64 10000 5.1 80 21:18 13.10.2019
245 Rain 24 1017 64 10000 5.1 80 21:18 13.10.2019
246 Rain 24 1017 64 10000 5.1 80 21:18 13.10.2019
247 Rain 23 1017 69 10000 6.2 80 20:57 13.10.2019
248 Rain 23 1017 69 10000 6.2 80 20:57 13.10.2019
249 Rain 23 1017 69 10000 6.2 80 20:38 13.10.2019
250 Rain 23 1016 69 10000 5.1 90 20:19 13.10.2019
251 Rain 22 1016 73 10000 2.6 100 19:57 13.10.2019
252 Rain 22 1016 73 10000 2.6 100 19:39 13.10.2019
253 Rain 20 1016 82 10000 0.5 150 19:20 13.10.2019
254 Rain 20 1016 82 10000 1 150 18:55 13.10.2019
255 Rain 21 1016 77 10000 2.1 110 18:36 13.10.2019
256 Rain 21 1016 77 10000 2.1 110 18:18 13.10.2019
257 Rain 21 1016 77 10000 1.5 120 17:44 13.10.2019
258 Rain 20 1016 82 10000 1.5 160 17:25 13.10.2019
259 Rain 20 1016 82 10000 1.5 160 17:25 13.10.2019
260 Rain 20 1016 82 10000 1.5 160 17:25 13.10.2019
261 Rain 21 1016 73 10000 1.5 140 16:54 13.10.2019
262 Rain 21 1015 77 10000 1.5 120 16:36 13.10.2019
263 Rain 21 1015 77 10000 1.5 120 16:18 13.10.2019
264 Rain 21 1016 77 10000 2.6 80 15:40 13.10.2019
265 Rain 21 1016 73 10000 2.6 110 15:22 13.10.2019
266 Rain 21 1016 73 10000 2.6 100 14:59 13.10.2019
267 Rain 21 1016 73 10000 2.6 100 14:40 13.10.2019
268 Rain 21 1016 73 10000 3.1 110 14:22 13.10.2019
269 Rain 21 1016 73 10000 2.1 110 13:59 13.10.2019
270 Rain 21 1016 73 10000 2.1 110 13:38 13.10.2019
271 Rain 21 1016 73 10000 2.1 110 13:38 13.10.2019
272 Rain 21 1017 77 10000 2.1 120 13:20 13.10.2019
273 Rain 21 1017 77 10000 3.1 100 12:56 13.10.2019
274 Rain 21 1017 77 10000 3.1 100 12:38 13.10.2019
275 Rain 21 1017 77 10000 3.1 100 12:19 13.10.2019
276 Rain 21 1017 77 10000 3.6 110 11:56 13.10.2019
277 Rain 21 1017 77 10000 3.6 110 11:38 13.10.2019
278 Rain 21 1017 77 10000 3.6 110 11:18 13.10.2019
279 Rain 21 1017 77 10000 3.1 110 10:41 13.10.2019
280 Rain 21 1017 73 10000 2.6 110 10:23 13.10.2019
281 Rain 21 1017 73 10000 4.6 100 09:41 13.10.2019
282 Clouds 21 1017 73 10000 3.1 110 09:22 13.10.2019
283 Clouds 21 1017 73 10000 3.1 110 08:59 13.10.2019
284 Clouds 21 1017 73 10000 3.1 110 08:40 13.10.2019
285 Clouds 21 1017 73 10000 2.6 110 08:21 13.10.2019
286 Clouds 21 1017 73 10000 2.1 120 07:46 13.10.2019
287 Clouds 21 1017 73 10000 2.1 120 07:21 13.10.2019
288 Clouds 22 1017 68 10000 3.1 130 06:41 13.10.2019
289 Clouds 22 1017 68 10000 3.1 130 06:41 13.10.2019
290 Clouds 23 1016 64 10000 3.1 110 05:46 13.10.2019
291 Clouds 23 1016 60 10000 5.1 90 04:46 13.10.2019
292 Clouds 23 1016 60 10000 5.1 90 03:51 13.10.2019
293 Clouds 24 1016 53 10000 4.6 90 02:41 13.10.2019
294 Clouds 24 1017 57 10000 4.6 100 01:53 13.10.2019
295 Clouds 24 1018 50 10000 5.1 80 01:26 13.10.2019
296 Clouds 24 1018 53 10000 4.6 90 00:47 13.10.2019
297 Clouds 24 1019 53 10000 4.1 80 00:21 13.10.2019
298 Clouds 24 1019 47 10000 3.6 90 23:55 12.10.2019
299 Clouds 24 1019 47 10000 3.6 90 23:36 12.10.2019
300 Clouds 24 1019 50 10000 4.6 90 23:18 12.10.2019
301 Clouds 24 1019 50 10000 4.1 100 22:56 12.10.2019
302 Clouds 24 1019 50 10000 4.1 100 22:37 12.10.2019
303 Clouds 24 1019 50 10000 4.1 100 22:37 12.10.2019
304 Clouds 24 1020 47 10000 4.6 100 22:19 12.10.2019
305 Clouds 24 1020 47 10000 4.1 100 21:42 12.10.2019
306 Clouds 22 1020 49 10000 4.6 110 21:24 12.10.2019
307 Clouds 22 1020 53 10000 2.6 110 20:58 12.10.2019
308 Clouds 22 1020 53 10000 2.6 110 20:58 12.10.2019
309 Clouds 22 1020 53 10000 2.6 110 20:39 12.10.2019
310 Clouds 21 1020 60 10000 2.1 130 20:20 12.10.2019
311 Clouds 21 1020 56 10000 2.1 140 19:37 12.10.2019
312 Clouds 21 1020 56 10000 2.1 150 19:19 12.10.2019
313 Clouds 21 1019 52 10000 2.6 160 18:46 12.10.2019
314 Clouds 20 1019 56 10000 2.1 140 18:27 12.10.2019
315 Clouds 20 1019 60 10000 2.1 140 17:58 12.10.2019
316 Clouds 20 1019 60 10000 2.1 140 17:40 12.10.2019
317 Clouds 20 1018 60 10000 2.1 140 17:18 12.10.2019
318 Clouds 20 1018 60 10000 2.1 130 16:41 12.10.2019
319 Clouds 20 1018 60 10000 2.1 130 16:41 12.10.2019
320 Clouds 20 1018 60 10000 2.1 140 16:21 12.10.2019
321 Clouds 20 1018 56 10000 2.6 150 15:58 12.10.2019
322 Clouds 20 1018 56 10000 2.6 150 15:38 12.10.2019
323 Clouds 20 1018 56 10000 3.6 120 15:19 12.10.2019
324 Clouds 20 1019 60 10000 2.1 120 14:41 12.10.2019
325 Clouds 21 1019 56 10000 3.1 130 14:21 12.10.2019
326 Clouds 21 1019 60 10000 2.1 130 13:52 12.10.2019
327 Clouds 21 1020 60 10000 2.6 130 13:33 12.10.2019
328 Clouds 21 1020 60 10000 2.1 130 12:59 12.10.2019
329 Clouds 21 1020 60 10000 2.1 130 12:38 12.10.2019
330 Clouds 20 1020 64 10000 2.1 110 12:20 12.10.2019
331 Clouds 21 1020 56 10000 2.6 110 11:47 12.10.2019
332 Clouds 21 1020 56 10000 3.6 110 11:24 12.10.2019
333 Clouds 21 1020 56 10000 2.6 110 10:58 12.10.2019
334 Clouds 21 1020 56 10000 2.6 110 10:40 12.10.2019
335 Clouds 21 1020 60 10000 3.1 120 10:20 12.10.2019
336 Clouds 21 1020 60 10000 2.1 120 09:57 12.10.2019
337 -273 0 0 0 0 0 09:57 12.10.2019
338 Clouds 21 1020 60 10000 2.1 120 09:38 12.10.2019
339 Clear 21 1020 60 10000 3.6 110 09:19 12.10.2019
340 Clear 21 1020 60 10000 3.6 110 08:44 12.10.2019
341 Clear 21 1020 60 10000 3.1 110 08:25 12.10.2019
342 Clear 21 1019 60 10000 3.6 110 07:57 12.10.2019
343 Clear 21 1019 64 10000 2.6 110 07:31 12.10.2019
344 Clear 22 1019 60 10000 4.1 110 06:28 12.10.2019
345 Clear 22 1018 60 10000 5.7 90 05:43 12.10.2019
346 Clear 23 1018 56 10000 5.1 100 04:34 12.10.2019
347 Clear 24 1018 53 10000 4.1 120 03:54 12.10.2019
348 Clear 24 1018 50 10000 4.6 110 02:50 12.10.2019
349 Clear 23 1019 53 10000 7.7 90 01:33 12.10.2019
350 Clear 24 1019 50 10000 6.7 100 00:56 12.10.2019
351 Clear 24 1019 50 10000 6.7 100 00:37 12.10.2019
352 Clouds 23 1020 53 10000 4.1 120 23:55 11.10.2019
353 Clouds 23 1020 53 10000 4.1 120 23:36 11.10.2019
354 Clouds 23 1020 56 10000 3.6 120 23:18 11.10.2019
355 Clouds 23 1020 56 10000 4.1 120 22:37 11.10.2019
356 Clouds 23 1020 56 10000 5.1 130 22:19 11.10.2019
357 Clouds 23 1020 56 10000 5.1 120 21:42 11.10.2019
358 Rain 23 1021 56 10000 4.1 130 21:21 11.10.2019
359 Rain 22 1020 60 10000 3.6 140 20:57 11.10.2019
360 Rain 22 1020 60 10000 3.6 140 20:38 11.10.2019
361 Rain 22 1020 64 10000 3.6 120 20:19 11.10.2019
362 Rain 21 1020 68 10000 3.1 130 19:55 11.10.2019
363 Rain 21 1020 68 10000 3.1 130 19:36 11.10.2019
364 Rain 21 1019 64 10000 3.1 140 19:18 11.10.2019
365 Rain 21 1019 68 10000 3.1 120 18:39 11.10.2019
366 Rain 21 1019 68 10000 3.6 110 18:19 11.10.2019
367 Rain 21 1018 64 10000 2.1 130 17:59 11.10.2019
368 Rain 21 1018 64 10000 2.1 130 17:38 11.10.2019
369 Rain 20 1018 68 10000 2.1 130 17:20 11.10.2019
370 Rain 21 1018 64 10000 2.6 120 16:59 11.10.2019
371 Rain 21 1018 64 10000 2.6 120 16:39 11.10.2019
372 Rain 21 1018 64 10000 2.6 120 16:19 11.10.2019
373 Rain 21 1018 64 10000 3.1 120 15:55 11.10.2019
374 Rain 21 1018 64 10000 3.1 120 15:36 11.10.2019
375 Drizzle 21 1018 68 10000 2.1 130 15:18 11.10.2019
376 Drizzle 21 1018 68 10000 2.1 130 15:18 11.10.2019
377 Rain 21 1018 68 10000 2.6 120 14:42 11.10.2019
378 Rain 21 1018 68 10000 2.6 110 14:21 11.10.2019
379 Rain 21 1019 68 10000 2.1 120 13:46 11.10.2019
380 Rain 21 1019 68 10000 3.1 120 13:26 11.10.2019
381 Rain 20 1019 72 10000 1.5 130 12:58 11.10.2019
382 Rain 20 1019 72 10000 1.5 130 12:39 11.10.2019
383 Clear 20 1019 72 10000 2.1 130 12:20 11.10.2019
384 Clear 21 1019 64 10000 2.1 120 11:58 11.10.2019
385 Clear 21 1019 64 10000 2.1 120 11:39 11.10.2019
386 Clear 21 1019 64 10000 2.1 120 11:38 11.10.2019
387 Clear 21 1019 64 10000 2.1 120 11:38 11.10.2019
388 Clear 21 1020 64 10000 2.6 110 11:20 11.10.2019
389 Clear 21 1020 64 10000 2.1 120 10:55 11.10.2019
390 Clear 21 1020 64 10000 2.1 120 10:36 11.10.2019
391 Clear 21 1020 68 10000 1.5 120 10:18 11.10.2019
392 Clear 21 1019 68 10000 2.6 130 09:42 11.10.2019
393 Clear 21 1019 68 10000 2.1 120 09:21 11.10.2019
394 Clear 21 1019 68 10000 2.1 130 08:57 11.10.2019
395 Clear 21 1019 68 10000 2.1 130 08:38 11.10.2019
396 Clear 21 1019 68 10000 2.1 120 08:20 11.10.2019
397 Clear 21 1018 68 10000 1.5 120 07:51 11.10.2019
398 Clear 21 1018 68 10000 2.1 110 07:33 11.10.2019
399 Clear 22 1018 64 10000 3.6 90 06:50 11.10.2019
400 Clear 22 1017 60 10000 5.7 90 06:25 11.10.2019
401 Clear 23 1017 60 10000 4.1 90 05:46 11.10.2019
402 Clear 23 1017 60 10000 4.1 120 05:27 11.10.2019
403 Clear 23 1017 56 10000 5.7 110 04:47 11.10.2019
404 Clouds 24 1017 60 10000 5.1 130 02:59 11.10.2019
405 Clouds 24 1018 60 10000 7.2 90 00:52 11.10.2019
406 Clouds 24 1018 60 10000 5.7 100 00:30 11.10.2019
407 Clear 23 1018 64 10000 5.7 100 23:50 10.10.2019
408 Clear 23 1018 64 10000 6.7 90 23:24 10.10.2019
409 Clear 23 1019 64 10000 5.7 100 22:59 10.10.2019
410 Clear 23 1019 64 10000 5.7 100 22:40 10.10.2019
411 Clear 23 1019 69 10000 4.6 110 22:21 10.10.2019
412 Clear 23 1019 69 10000 4.6 110 22:21 10.10.2019
413 Clear 23 1019 69 10000 4.6 100 21:59 10.10.2019
414 Clear 23 1019 69 10000 4.6 100 21:40 10.10.2019
415 Clear 23 1019 69 10000 4.6 100 21:40 10.10.2019
416 Clouds 23 1019 69 10000 5.1 110 21:22 10.10.2019
417 Clouds 22 1018 73 10000 5.1 100 20:57 10.10.2019
418 Clouds 22 1018 73 10000 5.1 100 20:39 10.10.2019
419 Clouds 22 1018 73 10000 5.1 100 20:18 10.10.2019
420 Clouds 22 1018 73 10000 5.1 100 20:18 10.10.2019
421 Clouds 21 1018 77 10000 3.6 100 19:54 10.10.2019
422 Clouds 21 1018 77 10000 3.6 100 19:54 10.10.2019
423 Clouds 21 1018 77 10000 3.6 100 19:36 10.10.2019
424 Clouds 21 1017 77 10000 3.1 100 19:18 10.10.2019
425 Clouds 21 1017 77 10000 3.1 110 18:41 10.10.2019
426 Clouds 21 1017 73 10000 3.1 100 18:20 10.10.2019
427 Clouds 21 1016 73 10000 4.1 110 17:55 10.10.2019
428 Clouds 21 1016 73 10000 4.1 110 17:55 10.10.2019
429 Clouds 21 1016 73 10000 4.1 110 17:37 10.10.2019
430 Clouds 21 1016 77 10000 3.1 110 17:18 10.10.2019
431 Clouds 21 1016 77 10000 3.1 100 16:46 10.10.2019
432 Clouds 21 1016 77 10000 3.1 100 16:26 10.10.2019
433 Clouds 21 1016 77 10000 3.6 100 15:57 10.10.2019
434 Clouds 21 1016 77 10000 3.6 100 15:37 10.10.2019
435 Clouds 21 1016 77 10000 3.1 100 15:19 10.10.2019
436 Clouds 21 1016 77 10000 3.1 100 14:55 10.10.2019
437 Clouds 21 1016 77 10000 3.1 100 14:36 10.10.2019
438 Clouds 22 1016 73 10000 3.6 100 14:18 10.10.2019
439 Clouds 22 1017 73 10000 4.1 100 13:41 10.10.2019
440 Clouds 22 1017 73 10000 3.6 100 13:23 10.10.2019
441 Clouds 22 1017 73 10000 3.6 100 12:57 10.10.2019
442 Clouds 22 1017 73 10000 3.6 100 12:39 10.10.2019
443 Clouds 22 1017 73 10000 3.1 100 12:20 10.10.2019
444 Clouds 22 1018 73 10000 5.1 100 11:55 10.10.2019
445 Clouds 22 1018 73 10000 5.1 100 11:37 10.10.2019
446 Clouds 22 1018 73 10000 4.6 100 11:18 10.10.2019
447 Clouds 22 1018 73 10000 4.1 100 10:44 10.10.2019
448 Clouds 22 1018 73 10000 4.6 100 10:25 10.10.2019
449 Clouds 22 1018 73 10000 4.6 100 09:56 10.10.2019
450 Clouds 22 1018 73 10000 4.6 100 09:37 10.10.2019
451 Clouds 22 1018 73 10000 4.6 100 09:19 10.10.2019
452 Clouds 22 1017 73 10000 5.7 100 08:41 10.10.2019
453 Clouds 22 1017 73 10000 5.1 100 08:23 10.10.2019
454 Clouds 22 1017 73 10000 4.1 110 07:58 10.10.2019
455 Clouds 22 1017 73 10000 4.1 110 07:38 10.10.2019
456 Clouds 21 1016 77 10000 5.1 100 07:19 10.10.2019
457 Clouds 21 1016 77 10000 4.1 100 06:45 10.10.2019
458 Rain 21 1015 83 10000 4.6 100 05:57 10.10.2019
459 Clouds 21 1015 83 10000 5.1 110 05:23 10.10.2019
460 Rain 22 1015 83 10000 4.6 100 04:37 10.10.2019
461 Clouds 23 1016 73 10000 6.2 100 02:49 10.10.2019
462 Clouds 22 1016 78 10000 5.7 100 01:41 10.10.2019
463 Clouds 22 1017 78 10000 5.7 100 01:22 10.10.2019
464 Rain 22 1017 78 10000 5.1 110 00:41 10.10.2019
465 Rain 20 1017 88 5000 6.2 90 00:19 10.10.2019
466 Rain 22 1018 73 10000 4.1 110 23:38 09.10.2019
467 Clouds 23 1018 69 10000 4.6 100 23:18 09.10.2019
468 Clouds 22 1017 73 10000 5.7 110 22:42 09.10.2019
469 Clouds 22 1017 73 10000 5.7 100 22:23 09.10.2019
470 Clouds 22 1017 78 10000 3.6 100 21:58 09.10.2019
471 Clouds 22 1017 78 10000 3.6 100 21:39 09.10.2019
472 Rain 21 1018 83 10000 2.6 140 21:19 09.10.2019
473 Rain 20 1017 82 10000 3.1 110 20:55 09.10.2019
474 Rain 20 1017 82 10000 3.1 110 20:37 09.10.2019
475 Rain 20 1017 82 10000 4.6 100 20:18 09.10.2019
476 Rain 20 1017 82 10000 3.1 110 19:44 09.10.2019
477 Rain 20 1017 88 5000 2.6 110 19:23 09.10.2019
478 Rain 20 1017 88 6000 1.5 120 18:56 09.10.2019
479 Rain 20 1017 88 6000 1.5 120 18:37 09.10.2019
480 Rain 21 1016 77 10000 2.1 120 18:18 09.10.2019
481 Rain 21 1016 77 10000 2.6 110 17:40 09.10.2019
482 Rain 21 1016 77 10000 3.6 110 17:22 09.10.2019
483 Rain 22 1015 73 10000 3.6 100 16:58 09.10.2019
484 Rain 22 1015 73 10000 3.6 100 16:40 09.10.2019
485 Rain 21 1015 68 10000 2.6 110 16:21 09.10.2019
486 Rain 22 1016 64 10000 2.1 100 15:57 09.10.2019
487 Rain 22 1016 64 10000 2.1 100 15:38 09.10.2019
488 Rain 22 1016 64 10000 2.1 100 15:38 09.10.2019
489 Rain 22 1016 64 10000 2.6 100 15:19 09.10.2019
490 Rain 22 1016 64 10000 3.1 90 14:55 09.10.2019
491 Rain 22 1016 64 10000 3.1 90 14:36 09.10.2019
492 Rain 22 1016 64 10000 3.1 90 14:36 09.10.2019
493 Rain 22 1016 64 10000 2.6 100 14:18 09.10.2019
494 Rain 22 1017 64 10000 3.1 100 13:38 09.10.2019
495 Clouds 22 1017 64 10000 3.1 90 13:19 09.10.2019
496 Clouds 22 1017 64 10000 3.1 90 12:55 09.10.2019
497 Clouds 22 1017 64 10000 3.1 90 12:37 09.10.2019
498 Clouds 22 1017 64 10000 4.6 90 12:18 09.10.2019
499 Clouds 22 1018 60 10000 4.1 90 11:40 09.10.2019
500 Clouds 22 1018 60 10000 4.1 90 11:40 09.10.2019
501 Clouds 22 1018 64 10000 2.1 110 11:21 09.10.2019
502 Clouds 22 1018 64 10000 3.6 90 10:59 09.10.2019
503 Clouds 22 1018 64 10000 3.6 90 10:40 09.10.2019
504 Clouds 22 1017 64 10000 3.6 90 10:19 09.10.2019
505 Clouds 22 1017 64 10000 3.6 90 10:19 09.10.2019
506 Clouds 22 1017 64 10000 5.7 90 09:43 09.10.2019
507 Clouds 21 1017 64 10000 4.6 90 09:20 09.10.2019
508 Clouds 21 1017 60 10000 3.6 100 08:58 09.10.2019
509 Clouds 21 1017 60 10000 3.6 100 08:39 09.10.2019
510 Clouds 21 1017 60 10000 3.1 100 08:19 09.10.2019
511 Clouds 21 1017 60 10000 3.1 100 08:19 09.10.2019
512 Clouds 21 1017 60 10000 2.6 110 07:47 09.10.2019
513 Clouds 21 1017 56 10000 3.1 100 07:24 09.10.2019
514 Clouds 22 1016 60 10000 4.6 120 06:56 09.10.2019
515 Clouds 22 1016 60 10000 4.6 120 06:34 09.10.2019
516 Clouds 22 1017 60 10000 3.1 130 05:51 09.10.2019
517 Clouds 22 1016 64 10000 4.1 110 04:41 09.10.2019
518 Clouds 23 1016 60 10000 5.1 110 03:43 09.10.2019
519 Clouds 23 1016 60 10000 5.1 110 03:43 09.10.2019
520 Rain 23 1017 56 10000 4.6 110 01:55 09.10.2019
521 Rain 24 1017 53 10000 5.1 90 01:22 09.10.2019
522 Rain 23 1018 56 10000 6.7 80 00:59 09.10.2019
523 Rain 23 1018 56 10000 6.7 80 00:40 09.10.2019
524 Rain 24 1018 57 10000 4.1 110 00:22 09.10.2019
525 Rain 24 1018 57 10000 4.1 110 00:22 09.10.2019
526 Rain 23 1018 56 10000 7.2 80 23:57 08.10.2019
527 Rain 23 1018 56 10000 7.2 80 23:37 08.10.2019
528 Rain 23 1019 60 10000 5.1 110 23:18 08.10.2019
529 Rain 23 1019 60 10000 5.1 90 22:39 08.10.2019
530 Rain 23 1019 56 10000 5.1 110 22:20 08.10.2019
531 Rain 22 1019 60 10000 5.1 110 21:58 08.10.2019
532 Rain 22 1019 60 10000 5.1 110 21:39 08.10.2019
533 Rain 23 1019 53 10000 4.1 120 21:19 08.10.2019
534 Rain 22 1019 56 10000 5.1 100 20:57 08.10.2019
535 Rain 22 1019 56 10000 5.1 100 20:57 08.10.2019
536 Rain 22 1019 56 10000 5.1 100 20:57 08.10.2019
537 Clouds 22 1019 56 10000 5.1 100 20:39 08.10.2019
538 Clouds 22 1019 56 10000 4.1 110 20:21 08.10.2019
539 Clouds 21 1018 60 10000 3.6 100 19:58 08.10.2019
540 Clouds 21 1018 60 10000 3.6 100 19:40 08.10.2019
541 Clouds 21 1018 60 10000 4.1 100 19:21 08.10.2019
542 Clouds 21 1018 60 10000 4.1 100 19:21 08.10.2019
543 -273 0 0 0 0 0 18:55 08.10.2019
544 Clouds 21 1017 60 10000 4.6 100 18:55 08.10.2019
545 Clouds 21 1017 60 10000 4.6 100 18:36 08.10.2019
546 Clouds 21 1018 60 10000 2.6 110 18:18 08.10.2019
547 Clouds 21 1018 60 10000 2.6 110 17:40 08.10.2019
548 Clouds 21 1018 60 10000 2.1 120 17:21 08.10.2019
549 Clouds 21 1017 60 10000 2.6 120 16:58 08.10.2019
550 Clouds 21 1017 60 10000 2.6 120 16:39 08.10.2019
551 Clouds 21 1017 60 10000 2.6 130 16:21 08.10.2019
552 Clouds 21 1017 64 10000 3.1 120 15:41 08.10.2019
553 Clouds 21 1017 64 10000 3.1 120 15:41 08.10.2019
554 Clouds 20 1018 68 10000 2.6 120 15:21 08.10.2019
555 Clouds 21 1018 60 10000 2.6 120 14:58 08.10.2019
556 Clouds 21 1018 60 10000 2.6 120 14:58 08.10.2019
557 Clouds 21 1018 60 10000 2.6 120 14:39 08.10.2019
558 Clouds 20 1018 64 10000 2.6 120 14:20 08.10.2019
559 Clouds 21 1019 60 10000 3.1 110 13:57 08.10.2019
560 Clouds 21 1019 60 10000 3.1 110 13:38 08.10.2019
561 Clouds 21 1019 60 10000 2.6 120 13:19 08.10.2019
562 Clouds 21 1019 60 10000 2.6 120 13:19 08.10.2019
563 Clouds 21 1019 60 10000 2.6 110 12:58 08.10.2019
564 Clouds 21 1019 60 10000 2.6 110 12:37 08.10.2019
565 Clouds 21 1019 60 10000 2.6 110 12:37 08.10.2019
566 Clouds 20 1019 64 10000 3.1 110 12:18 08.10.2019
567 Clouds 20 1019 64 10000 3.1 110 11:41 08.10.2019
568 Clouds 20 1019 64 10000 3.1 110 11:41 08.10.2019
569 Clouds 20 1019 64 10000 2.1 120 11:23 08.10.2019
570 Clouds 20 1019 60 10000 1.5 110 10:56 08.10.2019
571 Clouds 20 1019 60 10000 1.5 110 10:36 08.10.2019
572 Clouds 20 1019 60 10000 2.6 110 10:18 08.10.2019
573 Clouds 21 1019 56 10000 3.1 110 09:41 08.10.2019
574 Clouds 20 1019 60 10000 2.1 130 09:23 08.10.2019
575 Clouds 20 1019 60 10000 2.6 110 08:59 08.10.2019
576 Clouds 20 1019 60 10000 2.6 110 08:41 08.10.2019
577 Clouds 21 1019 56 10000 3.1 100 08:22 08.10.2019
578 Clouds 21 1019 60 10000 3.1 120 07:42 08.10.2019
579 Clouds 21 1018 60 10000 3.1 130 07:21 08.10.2019
580 Clouds 21 1018 60 10000 3.6 120 06:49 08.10.2019
581 Clouds 21 1018 60 10000 3.1 110 06:26 08.10.2019
582 Clouds 22 1018 56 10000 3.6 120 05:45 08.10.2019
583 Clouds 23 1017 56 10000 4.6 130 05:24 08.10.2019
584 Clouds 22 1017 60 10000 5.7 100 03:32 08.10.2019
585 Clouds 22 1017 56 10000 5.7 90 02:46 08.10.2019
586 Clouds 23 1018 53 10000 6.7 90 02:26 08.10.2019
587 Clouds 23 1018 49 10000 5.1 100 01:42 08.10.2019
588 Clouds 23 1018 49 10000 6.2 100 01:19 08.10.2019
589 Clouds 23 1019 46 10000 5.7 100 00:36 08.10.2019
590 Clouds 23 1019 53 10000 5.1 90 00:18 08.10.2019
591 Clouds 23 1019 53 10000 5.1 90 23:38 07.10.2019
592 Clouds 23 1020 49 10000 5.7 90 23:19 07.10.2019
593 Clouds 22 1020 56 10000 2.6 140 22:55 07.10.2019
594 Clouds 22 1020 56 10000 2.6 140 22:37 07.10.2019
595 Clouds 22 1020 53 10000 4.1 100 22:19 07.10.2019
596 Clouds 23 1020 56 10000 3.1 110 21:54 07.10.2019
597 Clouds 23 1020 56 10000 3.1 110 21:36 07.10.2019
598 Clouds 22 1020 56 10000 6.2 100 21:18 07.10.2019
599 Clouds 22 1020 56 10000 4.1 120 20:56 07.10.2019
600 Clouds 22 1020 56 10000 4.1 120 20:56 07.10.2019
601 Clouds 22 1020 56 10000 4.1 120 20:37 07.10.2019
602 Clouds 21 1019 60 10000 3.6 130 20:18 07.10.2019
603 Clouds 21 1019 64 10000 3.1 110 19:42 07.10.2019
604 Clouds 20 1019 68 10000 3.1 130 19:21 07.10.2019
605 Clouds 20 1018 64 10000 2.6 140 18:59 07.10.2019
606 Clouds 20 1018 64 10000 2.6 140 18:59 07.10.2019
607 Clouds 20 1018 64 10000 2.6 140 18:40 07.10.2019
608 Clouds 20 1018 64 10000 3.1 120 18:19 07.10.2019
609 Clouds 20 1018 64 10000 3.1 120 18:19 07.10.2019
610 Clouds 20 1018 64 10000 3.1 120 17:55 07.10.2019
611 Clouds 20 1018 64 10000 3.1 120 17:37 07.10.2019
612 Clouds 20 1018 64 10000 2.6 130 17:18 07.10.2019
613 Clouds 20 1018 64 10000 3.1 130 16:43 07.10.2019
614 Clouds 20 1018 64 10000 3.1 140 16:25 07.10.2019
615 Clouds 20 1018 60 10000 3.1 140 15:46 07.10.2019
616 Clouds 20 1019 64 10000 2.1 130 15:27 07.10.2019
617 Rain 20 1018 64 10000 3.1 120 14:59 07.10.2019
618 Rain 20 1018 64 10000 3.1 120 14:59 07.10.2019
619 Rain 20 1018 64 10000 3.1 120 14:41 07.10.2019
620 Rain 20 1019 64 10000 3.1 110 14:22 07.10.2019
621 Rain 20 1020 60 10000 2.1 130 13:44 07.10.2019
622 Rain 20 1020 60 10000 2.6 120 13:21 07.10.2019
623 Rain 20 1020 60 10000 3.1 120 12:57 07.10.2019
624 Rain 20 1020 60 10000 3.1 120 12:39 07.10.2019
625 Clouds 20 1020 64 10000 2.6 110 12:20 07.10.2019
626 Clouds 20 1020 64 10000 2.6 110 12:20 07.10.2019
627 Clouds 21 1020 56 10000 3.6 120 11:59 07.10.2019
628 Clouds 21 1020 56 10000 3.6 120 11:39 07.10.2019
629 Clouds 21 1020 60 10000 2.6 130 11:20 07.10.2019
630 Clouds 20 1020 64 10000 1.5 110 10:42 07.10.2019
631 Clouds 20 1020 64 10000 2.1 110 10:21 07.10.2019
632 Clouds 21 1020 60 10000 2.1 130 09:56 07.10.2019
633 Clouds 21 1020 60 10000 2.1 130 09:38 07.10.2019
634 Clouds 21 1020 60 10000 3.1 120 09:19 07.10.2019
635 Rain 21 1020 64 10000 1.5 120 08:42 07.10.2019
636 Rain 21 1019 64 10000 2.6 120 08:20 07.10.2019
637 Rain 21 1019 56 10000 3.1 110 07:46 07.10.2019
638 Rain 20 1019 64 10000 2.6 110 07:27 07.10.2019
639 Rain 21 1019 60 10000 4.1 110 06:56 07.10.2019
640 Rain 21 1019 60 10000 4.1 110 06:37 07.10.2019
641 Rain 22 1018 53 10000 4.1 100 05:54 07.10.2019
642 Rain 22 1018 56 10000 5.7 100 05:25 07.10.2019
643 Rain 23 1018 49 10000 5.1 120 04:44 07.10.2019
644 Rain 24 1018 53 10000 4.6 100 03:45 07.10.2019
645 Rain 24 1018 53 10000 4.6 100 03:45 07.10.2019
646 Clouds 24 1018 53 10000 4.6 100 03:23 07.10.2019
647 Clouds 23 1019 53 10000 4.6 130 02:23 07.10.2019
648 Clouds 24 1019 47 10000 4.1 120 01:57 07.10.2019
649 Clouds 22 1019 53 10000 4.6 110 01:22 07.10.2019
650 Clouds 23 1019 49 10000 4.6 110 00:45 07.10.2019
651 Clouds 22 1019 53 10000 3.6 130 00:23 07.10.2019
652 Clouds 22 1020 53 10000 3.6 150 23:56 06.10.2019
653 Clouds 22 1020 53 10000 3.6 150 23:38 06.10.2019
654 Clouds 23 1020 49 10000 3.6 140 23:18 06.10.2019
655 Clouds 23 1019 46 10000 3.1 110 22:42 06.10.2019
656 Clouds 22 1020 49 10000 4.1 120 22:22 06.10.2019
657 Clouds 23 1020 53 10000 3.6 110 21:58 06.10.2019
658 Clouds 23 1020 53 10000 3.6 110 21:58 06.10.2019
659 Clouds 23 1020 53 10000 3.6 110 21:38 06.10.2019
660 Clouds 22 1020 56 10000 3.6 130 21:19 06.10.2019
661 Clouds 22 1019 56 10000 3.6 110 20:59 06.10.2019
662 Clouds 22 1019 56 10000 3.6 110 20:59 06.10.2019
663 Clouds 22 1019 56 10000 3.6 110 20:40 06.10.2019
664 Clouds 21 1019 60 10000 3.6 130 20:21 06.10.2019
665 Clouds 21 1019 49 10000 2.6 130 19:58 06.10.2019
666 Clouds 21 1019 49 10000 2.6 130 19:38 06.10.2019
667 Clouds 19 1019 59 10000 1.5 110 19:20 06.10.2019
668 Clouds 20 1018 49 10000 1.5 160 18:57 06.10.2019
669 Clouds 20 1018 49 10000 1.5 160 18:39 06.10.2019
670 Clouds 20 1018 49 10000 2.1 130 18:20 06.10.2019
671 Clouds 19 1018 55 10000 1.5 110 17:59 06.10.2019
672 Clouds 19 1018 55 10000 1.5 110 17:39 06.10.2019
673 Clouds 20 1018 52 10000 2.1 140 17:19 06.10.2019
674 Clouds 20 1018 52 10000 2.6 140 16:43 06.10.2019
675 Clouds 20 1018 56 10000 3.6 140 16:24 06.10.2019
676 Clouds 20 1018 56 10000 3.6 140 16:24 06.10.2019
677 Clouds 20 1018 56 10000 3.1 140 15:59 06.10.2019
678 Clouds 20 1018 56 10000 3.1 140 15:41 06.10.2019
679 Clouds 18 1018 72 10000 1 160 15:18 06.10.2019
680 Clouds 19 1018 68 10000 1 110 14:43 06.10.2019
681 Clouds 18 1018 72 10000 1.5 140 14:24 06.10.2019
682 Clouds 16 1018 77 10000 1 160 13:58 06.10.2019
683 Clouds 16 1018 77 10000 1 160 13:39 06.10.2019
684 Clouds 17 1018 72 10000 1.5 160 13:20 06.10.2019
685 Clouds 16 1019 77 10000 1 150 12:57 06.10.2019
686 Clouds 16 1019 77 10000 1 150 12:57 06.10.2019
687 Clouds 16 1019 77 10000 1 150 12:57 06.10.2019
688 Clouds 16 1019 77 10000 1 150 12:39 06.10.2019
689 Clouds 16 1019 72 10000 1 140 12:20 06.10.2019
690 Clouds 18 1019 59 10000 1.5 150 11:56 06.10.2019
691 Clouds 18 1019 59 10000 1.5 150 11:37 06.10.2019
692 Clouds 19 1019 52 10000 2.1 130 11:18 06.10.2019
693 Clouds 17 1019 63 10000 1 150 10:43 06.10.2019
694 Clouds 19 1019 52 10000 1.5 130 10:25 06.10.2019
695 Clouds 19 1019 52 10000 1.5 130 09:58 06.10.2019
696 Clouds 19 1019 52 10000 1.5 130 09:39 06.10.2019
697 Clouds 19 1019 52 10000 1.5 140 09:18 06.10.2019
698 Clouds 20 1019 49 10000 2.1 130 08:43 06.10.2019
699 Clouds 20 1018 56 10000 2.1 130 08:20 06.10.2019
700 Haze 19 1018 63 4000 1 160 07:44 06.10.2019
701 Clouds 20 1018 52 10000 1.5 150 07:19 06.10.2019
702 Clouds 21 1017 49 10000 2.1 140 06:20 06.10.2019
703 Clouds 22 1017 49 10000 2.6 120 05:33 06.10.2019
704 Clouds 22 1017 56 10000 2.6 130 03:41 06.10.2019
705 Clouds 23 1017 46 10000 3.6 110 02:42 06.10.2019
706 Clouds 23 1017 49 10000 3.6 150 02:20 06.10.2019
707 Clouds 23 1017 49 10000 3.6 150 01:40 06.10.2019
708 Clouds 23 1017 49 10000 3.1 130 01:21 06.10.2019
709 Clouds 23 1018 53 10000 3.6 120 00:46 06.10.2019
710 Clouds 23 1018 56 10000 4.1 120 00:25 06.10.2019
711 Clouds 23 1018 53 10000 3.1 120 23:44 05.10.2019
712 Clouds 23 1018 49 10000 4.1 100 23:22 05.10.2019
713 Clouds 23 1018 49 10000 2.6 130 22:58 05.10.2019
714 Clouds 23 1018 49 10000 2.6 130 22:39 05.10.2019
715 Clouds 24 1018 47 10000 2.1 130 22:20 05.10.2019
716 Clouds 23 1018 49 10000 3.1 120 21:43 05.10.2019
717 Clouds 22 1018 49 10000 1.5 140 21:24 05.10.2019
718 Clouds 22 1018 49 10000 1.5 140 20:59 05.10.2019
719 Clouds 22 1018 49 10000 1.5 140 20:40 05.10.2019
720 Clouds 21 1018 52 10000 2.6 160 20:20 05.10.2019
721 Clouds 21 1018 56 10000 2.1 150 19:58 05.10.2019
722 Clouds 21 1017 56 10000 2.6 160 19:37 05.10.2019
723 Clouds 21 1017 56 10000 2.6 160 19:18 05.10.2019
724 Clouds 21 1017 60 10000 3.6 150 18:55 05.10.2019
725 Clouds 21 1017 60 10000 3.6 150 18:36 05.10.2019
726 Rain 21 1016 60 10000 3.6 150 18:18 05.10.2019
727 Rain 21 1016 60 10000 2.6 150 17:42 05.10.2019
728 Rain 21 1016 60 10000 3.6 160 17:22 05.10.2019
729 Rain 21 1016 64 10000 3.1 170 16:56 05.10.2019
730 Rain 20 1016 68 10000 2.1 170 16:37 05.10.2019
731 Rain 20 1016 68 10000 2.1 170 16:18 05.10.2019
732 Rain 20 1016 68 10000 2.1 170 16:18 05.10.2019
733 Rain 21 1016 60 10000 2.6 160 15:55 05.10.2019
734 Rain 21 1016 60 10000 2.6 160 15:37 05.10.2019
735 Clouds 21 1016 64 10000 3.1 160 15:18 05.10.2019
736 Clouds 21 1016 64 10000 3.6 160 14:42 05.10.2019
737 Rain 21 1016 68 10000 4.1 160 14:23 05.10.2019
738 Clouds 21 1016 64 10000 2.6 160 13:44 05.10.2019
739 Clouds 21 1016 64 10000 3.1 160 13:26 05.10.2019
740 Clouds 22 1017 60 10000 3.6 170 12:58 05.10.2019
741 Clouds 22 1017 60 10000 3.6 170 12:40 05.10.2019
742 Clouds 22 1017 64 10000 1.5 180 12:19 05.10.2019
743 Clouds 22 1017 60 10000 1.5 180 11:39 05.10.2019
744 Clouds 22 1017 64 10000 1.5 190 11:20 05.10.2019
745 Clouds 22 1017 60 10000 1.5 170 10:55 05.10.2019
746 Clouds 22 1016 60 10000 1.5 180 10:37 05.10.2019
747 Clouds 22 1016 60 10000 1.5 180 10:18 05.10.2019
748 Clouds 22 1016 64 10000 2.6 180 09:40 05.10.2019
749 Clouds 22 1016 64 10000 1 140 09:22 05.10.2019
750 Clouds 22 1016 64 10000 4.1 180 08:42 05.10.2019
751 Clouds 22 1015 73 10000 2.6 180 08:22 05.10.2019
752 Clouds 22 1015 68 10000 3.1 170 07:59 05.10.2019
753 Clouds 22 1015 68 10000 3.1 170 07:38 05.10.2019
754 Rain 22 1015 68 10000 4.1 170 07:19 05.10.2019
755 Clouds 21 1014 73 10000 2.1 180 06:29 05.10.2019
756 Rain 21 1014 77 10000 2.6 170 05:59 05.10.2019
757 Drizzle 21 1013 83 10000 4.1 180 04:42 05.10.2019
758 Clouds 21 1013 88 10000 4.6 190 03:29 05.10.2019
759 Rain 21 1013 94 6000 5.1 190 01:55 05.10.2019
760 Rain 22 1013 94 4500 4.1 200 01:23 05.10.2019
761 Rain 23 1014 88 8000 3.1 200 00:46 05.10.2019
762 Rain 22 1014 94 5000 3.1 220 00:27 05.10.2019
763 Rain 23 1014 94 3100 3.1 250 23:45 04.10.2019
764 Rain 23 1014 94 10000 2.6 220 23:26 04.10.2019
765 Rain 23 1014 94 7000 3.1 230 22:59 04.10.2019
766 Rain 23 1014 94 7000 3.1 230 22:40 04.10.2019
767 Drizzle 23 1014 94 2900 2.6 220 22:22 04.10.2019
768 Rain 25 1014 78 10000 4.6 300 21:57 04.10.2019
769 Rain 25 1014 78 10000 4.6 300 21:39 04.10.2019
770 Clouds 25 1014 78 10000 4.1 310 21:20 04.10.2019
771 Clouds 25 1014 78 10000 4.1 320 20:57 04.10.2019
772 Clouds 25 1014 78 10000 4.1 320 20:57 04.10.2019
773 Clouds 25 1014 78 10000 4.1 320 20:38 04.10.2019
774 Clouds 24 1014 78 10000 4.1 320 20:20 04.10.2019
775 Clouds 24 1014 83 10000 5.1 320 19:48 04.10.2019
776 Clouds 24 1013 83 10000 4.1 340 19:29 04.10.2019
777 Clouds 24 1013 78 10000 3.6 330 18:59 04.10.2019
778 Clouds 24 1013 78 10000 3.6 330 18:38 04.10.2019
779 Clouds 24 1013 78 10000 3.6 330 18:19 04.10.2019
780 Clouds 24 1013 78 10000 3.6 340 17:54 04.10.2019
781 Clouds 24 1012 78 10000 4.1 330 17:36 04.10.2019
782 Clouds 24 1012 78 10000 4.1 330 17:18 04.10.2019
783 Clouds 24 1012 78 10000 3.6 320 16:41 04.10.2019
784 Clouds 24 1012 78 10000 3.1 320 16:19 04.10.2019
785 Clouds 24 1012 78 10000 3.1 320 16:19 04.10.2019
786 Clouds 24 1012 78 10000 2.6 340 15:58 04.10.2019
787 Clouds 24 1012 78 10000 2.6 340 15:39 04.10.2019
788 Clouds 24 1012 78 10000 3.1 350 15:21 04.10.2019
789 Clouds 24 1013 78 10000 2.6 340 14:58 04.10.2019
790 Clouds 24 1013 78 10000 2.6 340 14:58 04.10.2019
791 Clouds 24 1013 78 10000 2.6 340 14:39 04.10.2019
792 Clouds 24 1013 78 10000 2.6 340 14:21 04.10.2019
793 Clouds 24 1013 78 10000 3.1 340 13:45 04.10.2019
794 Clouds 24 1013 78 10000 2.6 340 13:23 04.10.2019
795 Clouds 24 1013 78 10000 2.1 10 12:58 04.10.2019
796 Clouds 24 1013 78 10000 2.1 10 12:40 04.10.2019
797 Clouds 24 1013 78 10000 2.6 20 12:21 04.10.2019
798 Clouds 24 1013 78 10000 2.6 30 11:42 04.10.2019
799 Clouds 24 1013 78 10000 2.6 30 11:42 04.10.2019
800 Clouds 24 1014 78 10000 2.1 30 11:21 04.10.2019
801 Clouds 24 1014 73 10000 2.1 30 10:42 04.10.2019
802 Clouds 24 1014 73 10000 2.1 10 10:21 04.10.2019
803 Clouds 24 1014 73 10000 2.1 10 10:21 04.10.2019
804 Clouds 24 1014 73 10000 2.1 20 09:58 04.10.2019
805 Clouds 24 1014 73 10000 2.1 20 09:58 04.10.2019
806 Clouds 24 1014 73 10000 2.1 20 09:40 04.10.2019
807 Clouds 24 1014 73 10000 2.1 10 09:22 04.10.2019
808 Clouds 24 1013 73 10000 2.1 10 08:44 04.10.2019
809 Clouds 24 1013 73 10000 2.1 350 08:25 04.10.2019
810 Clouds 24 1013 73 10000 2.1 350 07:47 04.10.2019
811 Clouds 24 1013 73 10000 2.6 350 07:24 04.10.2019
812 Clouds 25 1013 69 10000 2.6 350 06:56 04.10.2019
813 Clouds 25 1013 69 10000 2.6 350 06:56 04.10.2019
814 Clouds 25 1013 69 10000 2.6 350 06:37 04.10.2019
815 Clouds 25 1012 69 10000 2.6 350 06:18 04.10.2019
816 Clouds 25 1012 69 10000 3.1 360 05:19 04.10.2019
817 Clouds 25 1012 69 10000 3.1 10 04:25 04.10.2019
818 Clouds 26 1013 65 10000 3.6 360 02:56 04.10.2019
819 Clouds 26 1013 65 10000 3.6 360 02:56 04.10.2019
820 Clouds 26 1013 65 10000 3.6 360 02:37 04.10.2019
821 Clouds 26 1013 69 10000 3.6 360 01:43 04.10.2019
822 Clouds 26 1013 69 10000 3.6 10 01:24 04.10.2019
823 Clouds 26 1014 65 10000 3.6 360 00:24 04.10.2019
824 Clouds 25 1014 69 10000 3.6 10 23:38 03.10.2019
825 Clouds 26 1014 65 10000 3.6 10 23:18 03.10.2019
826 Clouds 25 1015 69 10000 4.6 20 22:57 03.10.2019
827 Clouds 25 1015 69 10000 4.6 20 22:57 03.10.2019
828 Clouds 25 1015 69 10000 4.6 20 22:39 03.10.2019
829 Clouds 26 1015 69 10000 4.6 20 22:21 03.10.2019
830 Clouds 26 1015 69 10000 4.6 20 22:21 03.10.2019
831 Clouds 25 1015 69 10000 3.6 20 21:56 03.10.2019
832 Clouds 25 1015 69 10000 3.6 20 21:37 03.10.2019
833 Clouds 25 1015 69 10000 3.6 10 21:19 03.10.2019
834 Clouds 25 1015 69 10000 3.1 20 20:56 03.10.2019
835 Clouds 25 1015 69 10000 3.1 20 20:37 03.10.2019
836 Clouds 24 1015 73 10000 3.1 20 20:19 03.10.2019
837 Clouds 24 1014 73 10000 3.1 20 19:54 03.10.2019
838 -273 0 0 0 0 0 19:54 03.10.2019
839 Clouds 24 1014 73 10000 3.1 20 19:36 03.10.2019
840 Clouds 23 1014 73 10000 2.1 60 19:18 03.10.2019
841 Clouds 22 1014 78 10000 2.1 90 18:40 03.10.2019
842 Clouds 20 1014 82 10000 2.1 80 18:19 03.10.2019
843 Clouds 20 1014 88 10000 1.5 90 17:59 03.10.2019
844 Clouds 20 1014 88 10000 1.5 90 17:59 03.10.2019
845 Clouds 20 1014 88 10000 1.5 90 17:41 03.10.2019
846 Clouds 21 1013 77 10000 2.1 80 17:19 03.10.2019
847 Clouds 23 1013 73 10000 3.6 50 16:43 03.10.2019
848 Clouds 23 1013 73 10000 3.6 50 16:25 03.10.2019
849 Clouds 20 1013 82 10000 2.6 70 15:56 03.10.2019
850 Clouds 20 1013 82 10000 2.6 70 15:38 03.10.2019
851 Clouds 20 1014 82 10000 2.6 80 15:38 03.10.2019
852 Clouds 20 1014 82 10000 2.6 80 15:19 03.10.2019
853 Clouds 20 1014 82 10000 2.6 80 14:45 03.10.2019
854 Clouds 21 1014 77 10000 2.6 90 14:26 03.10.2019
855 Clouds 21 1014 77 10000 3.1 90 13:57 03.10.2019
856 Clouds 21 1014 77 10000 3.1 90 13:39 03.10.2019
857 Clouds 21 1015 77 10000 3.1 90 13:19 03.10.2019
858 Clouds 21 1015 77 10000 2.6 80 12:55 03.10.2019
859 Clouds 21 1015 77 10000 2.6 80 12:36 03.10.2019
860 Clouds 21 1015 77 10000 2.6 80 12:18 03.10.2019
861 Clouds 22 1015 78 10000 2.6 80 11:41 03.10.2019
862 Clouds 21 1015 77 10000 3.6 80 11:22 03.10.2019
863 Clouds 20 1016 82 10000 3.1 80 10:58 03.10.2019
864 Clouds 20 1016 82 10000 3.1 80 10:40 03.10.2019
865 Clouds 21 1016 77 10000 2.6 90 10:18 03.10.2019
866 Clouds 21 1016 77 10000 2.6 90 09:57 03.10.2019
867 Clouds 21 1016 77 10000 2.6 90 09:39 03.10.2019
868 Clouds 20 1015 82 10000 2.6 80 09:20 03.10.2019
869 Clouds 21 1016 77 10000 1.5 90 08:43 03.10.2019
870 Clouds 22 1015 73 10000 1.5 100 08:25 03.10.2019
871 Clouds 22 1015 73 10000 1.5 100 07:56 03.10.2019
872 Clouds 22 1015 73 10000 1.5 100 07:37 03.10.2019
873 Clouds 22 1015 73 10000 1.5 100 07:37 03.10.2019
874 Clouds 22 1015 73 10000 3.1 70 07:19 03.10.2019
875 Clouds 24 1015 64 10000 3.1 60 06:35 03.10.2019
876 Clouds 25 1014 61 10000 3.1 60 05:55 03.10.2019
877 Clouds 25 1014 61 10000 4.1 50 05:37 03.10.2019
878 Clouds 25 1014 57 10000 3.6 50 04:48 03.10.2019
879 Clouds 25 1014 57 10000 3.6 60 04:24 03.10.2019
880 Clouds 25 1014 57 10000 4.1 40 03:20 03.10.2019
881 Clouds 26 1015 57 10000 4.1 40 02:33 03.10.2019
882 Clouds 25 1015 57 10000 4.6 40 01:42 03.10.2019
883 Clouds 25 1016 61 10000 4.1 50 01:20 03.10.2019
884 Clouds 25 1016 57 10000 3.6 40 00:41 03.10.2019
885 Clouds 25 1016 61 10000 4.1 50 23:58 02.10.2019
886 Clouds 25 1016 61 10000 4.1 50 23:38 02.10.2019
887 Clouds 25 1016 61 10000 4.1 50 23:38 02.10.2019
888 Clouds 25 1016 61 10000 5.1 50 23:19 02.10.2019
889 Clouds 25 1017 61 10000 4.6 50 22:42 02.10.2019
890 Clouds 25 1016 61 10000 4.6 50 22:20 02.10.2019
891 Clouds 25 1016 65 10000 4.6 60 21:55 02.10.2019
892 Clouds 25 1016 65 10000 4.6 60 21:37 02.10.2019
893 Clouds 24 1017 64 10000 4.1 60 21:18 02.10.2019
894 Clouds 24 1017 64 10000 2.6 80 20:55 02.10.2019
895 Clouds 24 1017 64 10000 2.6 80 20:55 02.10.2019
896 Clouds 24 1017 64 10000 2.6 80 20:55 02.10.2019
897 Clouds 24 1017 64 10000 2.6 80 20:37 02.10.2019
898 Clouds 24 1016 64 10000 1.5 90 20:19 02.10.2019
899 Clouds 22 1016 73 10000 1.5 100 19:44 02.10.2019
900 Clouds 22 1016 68 10000 2.1 60 19:23 02.10.2019
901 Clouds 21 1016 73 10000 1 100 18:58 02.10.2019
902 Clouds 21 1016 73 10000 1 100 18:39 02.10.2019
903 Clouds 21 1015 73 10000 2.1 90 18:21 02.10.2019
904 Clouds 21 1015 73 10000 1.5 90 17:58 02.10.2019
905 Clouds 21 1015 73 10000 1.5 90 17:38 02.10.2019
906 Clouds 21 1015 73 10000 1.5 90 17:20 02.10.2019
907 Clouds 22 1015 68 10000 4.6 50 16:56 02.10.2019
908 Clouds 22 1015 68 10000 4.6 50 16:36 02.10.2019
909 Clouds 22 1015 68 10000 4.6 50 16:18 02.10.2019
910 Clouds 22 1015 64 10000 5.1 60 15:41 02.10.2019
911 Clear 22 1015 64 10000 5.1 60 15:23 02.10.2019
912 Clear 22 1015 64 10000 5.1 50 14:58 02.10.2019
913 Clear 22 1016 64 10000 6.2 60 14:40 02.10.2019
914 Clear 22 1016 64 10000 6.2 60 14:20 02.10.2019
915 Clear 22 1016 60 10000 6.7 70 13:45 02.10.2019
916 Clear 22 1016 64 10000 6.7 60 13:26 02.10.2019
917 Clear 22 1016 60 10000 6.7 60 12:58 02.10.2019
918 Clear 22 1016 64 10000 7.2 60 12:37 02.10.2019
919 Clear 22 1016 64 10000 7.2 60 12:19 02.10.2019
920 Clear 22 1017 64 10000 4.6 80 11:44 02.10.2019
921 Clear 22 1017 64 10000 4.6 80 11:23 02.10.2019
922 Clear 22 1017 60 10000 4.6 80 10:42 02.10.2019
923 Clear 22 1017 64 10000 3.6 80 10:20 02.10.2019
924 Clear 22 1017 64 10000 3.1 90 09:59 02.10.2019
925 Clear 21 1017 68 10000 3.1 100 09:37 02.10.2019
926 Clouds 21 1017 68 10000 3.1 100 09:18 02.10.2019
927 Clouds 21 1017 68 10000 3.1 100 09:18 02.10.2019
928 Clouds 22 1017 64 10000 3.6 90 08:44 02.10.2019
929 Clouds 22 1017 64 10000 4.1 90 08:23 02.10.2019
930 Clouds 22 1017 64 10000 3.1 100 07:57 02.10.2019
931 Clouds 22 1017 68 10000 3.6 100 07:38 02.10.2019
932 Clouds 22 1017 68 10000 3.6 100 07:19 02.10.2019
933 Clouds 23 1017 64 10000 4.1 100 06:31 02.10.2019
934 Clouds 23 1017 64 10000 4.1 100 06:31 02.10.2019
935 Clouds 23 1017 64 10000 4.1 100 05:52 02.10.2019
936 Clouds 24 1016 60 10000 6.2 100 05:23 02.10.2019
937 Clouds 23 1016 64 10000 4.6 90 04:43 02.10.2019
938 Clouds 24 1017 64 10000 6.2 90 03:51 02.10.2019
939 Clouds 24 1017 64 10000 7.2 80 02:39 02.10.2019
940 Clouds 24 1017 64 10000 7.2 80 02:21 02.10.2019
941 Clouds 24 1017 64 10000 6.7 90 01:19 02.10.2019
942 Clouds 24 1018 64 10000 5.7 90 00:43 02.10.2019
943 Clear 24 1018 64 10000 5.7 90 00:23 02.10.2019
944 Clear 25 1019 61 10000 6.7 80 23:42 01.10.2019
945 Clear 25 1019 61 10000 6.7 80 23:24 01.10.2019
946 Clear 24 1019 60 10000 5.1 90 22:58 01.10.2019
947 Clear 23 1019 64 10000 4.6 90 22:38 01.10.2019
948 Clear 23 1019 64 10000 4.6 90 22:18 01.10.2019
949 Clear 24 1019 60 10000 6.2 90 21:44 01.10.2019
950 Clear 23 1020 60 10000 4.6 90 21:25 01.10.2019
951 Rain 23 1020 64 10000 3.1 110 20:59 01.10.2019
952 Rain 22 1020 68 10000 2.1 110 20:39 01.10.2019
953 Rain 22 1020 68 10000 2.1 110 20:21 01.10.2019
954 Rain 22 1019 68 10000 3.1 110 19:59 01.10.2019
955 Rain 21 1019 73 10000 2.1 120 19:41 01.10.2019
956 Rain 21 1019 73 10000 2.1 120 19:41 01.10.2019
957 Rain 21 1019 73 10000 2.1 120 19:23 01.10.2019
958 Rain 21 1019 73 10000 2.1 120 18:58 01.10.2019
959 Rain 21 1019 73 10000 2.6 120 18:38 01.10.2019
960 Clouds 21 1019 73 10000 2.6 120 18:19 01.10.2019
961 Clouds 21 1018 73 10000 2.6 120 17:43 01.10.2019
962 Clouds 21 1018 73 10000 2.6 120 17:25 01.10.2019
963 Clouds 21 1018 73 10000 2.1 130 16:59 01.10.2019
964 Clouds 21 1018 68 10000 2.1 130 16:41 01.10.2019
965 Clouds 21 1018 68 10000 2.1 130 16:22 01.10.2019
966 Clouds 21 1018 68 10000 2.6 120 15:49 01.10.2019
967 Clouds 21 1019 73 10000 2.1 130 15:25 01.10.2019
968 Clouds 21 1019 73 10000 2.1 130 15:25 01.10.2019
969 Clouds 21 1019 73 10000 2.1 120 14:58 01.10.2019
970 Clouds 21 1019 73 10000 2.1 130 14:40 01.10.2019
971 Clouds 21 1019 73 10000 2.1 130 14:20 01.10.2019
972 -273 0 0 0 0 0 13:56 01.10.2019
973 Clouds 21 1020 73 10000 2.1 120 13:37 01.10.2019
974 Clouds 21 1020 73 10000 2.1 120 13:37 01.10.2019
975 Rain 21 1020 73 10000 2.1 120 13:18 01.10.2019
976 Rain 21 1020 73 10000 2.1 130 12:55 01.10.2019
977 -273 0 0 0 0 0 12:55 01.10.2019
978 Rain 22 1020 68 10000 3.1 110 12:37 01.10.2019
979 Clear 22 1020 68 10000 3.1 110 12:18 01.10.2019
980 Clear 22 1020 68 10000 2.6 110 11:54 01.10.2019
981 Clear 22 1020 68 10000 3.6 130 11:36 01.10.2019
982 Clear 22 1020 68 10000 3.6 130 11:18 01.10.2019
983 Clear 22 1021 68 10000 4.1 120 10:44 01.10.2019
984 Clear 22 1021 68 10000 3.1 120 10:25 01.10.2019
985 Clear 22 1021 64 10000 3.1 130 09:44 01.10.2019
986 Clear 21 1020 68 10000 2.6 130 09:26 01.10.2019
987 Clouds 22 1020 64 10000 3.6 110 08:44 01.10.2019
988 Clouds 22 1020 68 10000 3.6 110 08:25 01.10.2019
989 Clouds 22 1020 68 10000 3.6 120 07:50 01.10.2019
990 Clouds 22 1020 64 10000 3.1 110 07:26 01.10.2019
991 Clouds 22 1019 64 10000 4.1 110 06:51 01.10.2019
992 Clouds 22 1019 64 10000 4.1 110 06:51 01.10.2019
993 Clouds 22 1019 68 10000 3.6 120 06:25 01.10.2019
994 Clouds 23 1019 69 10000 3.6 100 05:46 01.10.2019
995 Clouds 23 1019 69 10000 3.6 100 05:20 01.10.2019
996 Clouds 23 1019 64 10000 4.6 100 04:35 01.10.2019
997 Clouds 23 1019 64 10000 4.6 100 04:35 01.10.2019
998 Clouds 24 1020 60 10000 4.6 110 03:25 01.10.2019
999 Clouds 24 1020 60 10000 5.1 100 02:18 01.10.2019
1000 Clouds 24 1020 60 10000 4.1 110 01:28 01.10.2019
1001 Clouds 24 1021 60 10000 5.1 110 00:40 01.10.2019
1002 Clouds 24 1021 60 10000 5.1 110 00:40 01.10.2019
1003 Clouds 24 1021 60 10000 5.1 110 00:22 01.10.2019
1004 Clouds 23 1021 64 10000 5.7 100 23:41 30.09.2019
1005 Clouds 23 1021 64 10000 5.7 100 23:41 30.09.2019
1006 Clouds 23 1021 64 10000 5.7 100 23:41 30.09.2019
1007 Clouds 23 1021 64 10000 5.7 100 23:21 30.09.2019
1008 Clouds 23 1021 64 10000 4.6 90 22:45 30.09.2019
1009 Clouds 23 1021 64 10000 4.1 90 22:26 30.09.2019
1010 Clouds 24 1021 57 10000 4.6 110 21:58 30.09.2019
1011 Clouds 24 1022 60 10000 4.6 100 21:39 30.09.2019
1012 Clouds 24 1022 60 10000 4.6 100 21:39 30.09.2019
1013 Clouds 24 1022 60 10000 4.6 100 21:19 30.09.2019
1014 Clouds 23 1021 64 10000 3.6 110 20:58 30.09.2019
1015 Clouds 23 1021 64 10000 2.6 100 20:39 30.09.2019
1016 Clouds 23 1021 64 10000 2.6 100 20:39 30.09.2019
1017 Clouds 23 1021 64 10000 2.6 100 20:20 30.09.2019
1018 Clouds 23 1021 64 10000 2.6 100 20:20 30.09.2019
1019 Clouds 22 1021 64 10000 2.1 110 19:57 30.09.2019
1020 Clouds 22 1021 64 10000 2.1 110 19:57 30.09.2019
1021 Clouds 21 1021 68 10000 2.6 130 19:39 30.09.2019
1022 Clouds 21 1021 68 10000 2.6 130 19:19 30.09.2019
1023 Clouds 21 1020 68 10000 3.1 110 18:57 30.09.2019
1024 Clouds 21 1020 68 10000 3.1 110 18:57 30.09.2019
1025 Clouds 21 1020 68 10000 3.1 110 18:57 30.09.2019
1026 Clouds 21 1021 68 10000 2.6 140 18:37 30.09.2019
1027 Clouds 21 1021 68 10000 2.6 140 18:19 30.09.2019
1028 Clouds 21 1020 68 10000 1.5 140 17:43 30.09.2019
1029 Clouds 21 1020 68 10000 1.5 140 17:23 30.09.2019
1030 Clouds 21 1020 68 10000 1.5 140 16:57 30.09.2019
1031 Clouds 20 1020 68 10000 1.5 140 16:39 30.09.2019
1032 Clouds 20 1020 68 10000 1.5 140 16:19 30.09.2019
1033 Clouds 20 1020 68 10000 1.5 110 15:58 30.09.2019
1034 Clouds 21 1020 68 10000 2.1 120 15:37 30.09.2019
1035 Clouds 21 1020 68 10000 2.1 120 15:19 30.09.2019
1036 Clouds 21 1020 64 10000 2.1 130 14:57 30.09.2019
1037 Clouds 21 1021 64 10000 2.1 120 14:37 30.09.2019
1038 Clouds 21 1021 64 10000 2.1 120 14:18 30.09.2019
1039 Clouds 21 1021 64 10000 2.1 120 14:18 30.09.2019
1040 Clouds 21 1021 64 10000 1.5 120 13:56 30.09.2019
1041 Clouds 21 1022 64 10000 3.1 110 13:37 30.09.2019
1042 Clouds 21 1022 64 10000 3.1 110 13:19 30.09.2019
1043 Clouds 22 1022 64 10000 2.1 110 12:41 30.09.2019
1044 Clouds 22 1022 64 10000 2.1 110 12:21 30.09.2019
1045 Clouds 22 1022 64 10000 3.1 110 11:56 30.09.2019
1046 Clouds 22 1022 64 10000 3.1 110 11:56 30.09.2019
1047 Clouds 22 1022 64 10000 2.1 110 11:37 30.09.2019
1048 Clouds 22 1022 64 10000 2.1 110 11:18 30.09.2019
1049 Clouds 21 1022 64 10000 2.1 110 10:40 30.09.2019
1050 Clouds 21 1022 64 10000 2.1 110 10:19 30.09.2019
1051 Clouds 21 1022 68 10000 2.1 120 09:58 30.09.2019
1052 Clouds 21 1022 68 10000 2.1 120 09:58 30.09.2019
1053 Clouds 21 1022 68 10000 2.1 120 09:58 30.09.2019
1054 Clouds 21 1022 68 10000 2.1 120 09:39 30.09.2019
1055 Clouds 21 1022 68 10000 2.1 120 09:20 30.09.2019
1056 Clouds 22 1022 64 10000 2.1 130 08:46 30.09.2019
1057 Clouds 21 1022 73 10000 1 140 08:28 30.09.2019
1058 Clouds 21 1022 68 10000 2.1 120 07:45 30.09.2019
1059 Clouds 22 1021 68 10000 2.1 120 07:27 30.09.2019
1060 Clouds 22 1021 68 10000 2.1 120 07:27 30.09.2019
1061 Clouds 22 1021 68 10000 2.6 110 06:56 30.09.2019
1062 Clouds 23 1021 64 10000 3.1 100 06:33 30.09.2019
1063 Clouds 23 1021 60 10000 4.1 100 05:47 30.09.2019
1064 Clouds 24 1021 57 10000 5.1 90 04:32 30.09.2019
1065 Clouds 24 1021 57 10000 5.1 90 04:32 30.09.2019
1066 Clouds 24 1021 64 10000 7.7 90 02:48 30.09.2019
1067 Clouds 24 1021 57 10000 6.7 90 01:37 30.09.2019
1068 Clouds 24 1022 60 10000 6.7 90 00:42 30.09.2019
1069 Clouds 24 1022 60 10000 6.7 90 00:21 30.09.2019
1070 Clouds 24 1022 64 10000 7.2 90 23:46 29.09.2019
1071 Clouds 24 1022 64 10000 7.2 90 23:23 29.09.2019
1072 Clouds 23 1022 64 10000 6.7 90 22:56 29.09.2019
1073 Clouds 23 1022 64 10000 6.2 100 22:38 29.09.2019
1074 Clouds 23 1022 64 10000 6.2 100 22:19 29.09.2019
1075 Clouds 23 1022 69 10000 5.7 90 21:57 29.09.2019
1076 Clouds 23 1022 69 10000 5.1 100 21:37 29.09.2019
1077 Clouds 23 1022 69 10000 5.1 100 21:19 29.09.2019
1078 Clouds 22 1022 73 10000 6.2 90 20:44 29.09.2019
1079 Clouds 22 1022 73 10000 5.7 90 20:20 29.09.2019
1080 Clouds 22 1022 73 10000 4.1 100 19:59 29.09.2019
1081 Clouds 22 1021 73 10000 5.1 100 19:38 29.09.2019
1082 Clouds 22 1021 73 10000 5.1 100 19:19 29.09.2019
1083 Clouds 21 1021 77 10000 3.6 110 18:56 29.09.2019
1084 Clouds 21 1021 77 10000 3.6 110 18:56 29.09.2019
1085 Clouds 22 1021 73 10000 3.6 120 18:38 29.09.2019
1086 Clouds 22 1021 73 10000 3.6 120 18:19 29.09.2019
1087 Clouds 21 1020 77 10000 3.1 100 17:58 29.09.2019
1088 Clouds 21 1020 77 10000 4.1 100 17:38 29.09.2019
1089 Clouds 21 1020 77 10000 4.1 100 17:19 29.09.2019
1090 Clouds 21 1020 77 10000 4.1 90 16:58 29.09.2019
1091 Clouds 21 1020 77 10000 4.1 90 16:58 29.09.2019
1092 Clouds 21 1020 83 10000 4.1 80 16:39 29.09.2019
1093 Clouds 21 1020 83 10000 4.1 80 16:19 29.09.2019
1094 Clouds 21 1021 83 10000 4.1 90 15:42 29.09.2019
1095 Clouds 21 1021 83 10000 4.1 90 15:20 29.09.2019
1096 Clouds 21 1021 83 10000 3.1 100 14:59 29.09.2019
1097 Clouds 21 1021 83 10000 3.1 90 14:40 29.09.2019
1098 Clouds 21 1021 83 10000 3.1 90 14:20 29.09.2019
1099 Clouds 21 1021 83 10000 3.1 90 13:57 29.09.2019
1100 Clouds 21 1021 83 10000 2.6 100 13:39 29.09.2019
1101 Clouds 21 1021 83 10000 2.6 100 13:19 29.09.2019
1102 Clouds 21 1022 88 10000 1.5 80 12:57 29.09.2019
1103 Clouds 21 1022 88 10000 1.5 110 12:39 29.09.2019
1104 Clouds 21 1022 88 10000 1.5 110 12:21 29.09.2019
1105 Clouds 21 1022 88 10000 2.1 120 11:55 29.09.2019
1106 Clouds 21 1022 88 10000 3.1 90 11:37 29.09.2019
1107 Clouds 21 1022 88 10000 3.1 90 11:18 29.09.2019
1108 Clouds 21 1022 88 10000 1 100 10:55 29.09.2019
1109 Clouds 21 1022 88 10000 3.1 90 10:36 29.09.2019
1110 Clouds 21 1022 88 10000 3.1 90 10:18 29.09.2019
1111 Clouds 22 1022 83 10000 2.6 110 09:43 29.09.2019
1112 Clouds 22 1022 83 10000 2.6 110 09:20 29.09.2019
1113 Clouds 22 1022 83 10000 2.6 110 09:20 29.09.2019
1114 Clouds 21 1021 83 10000 2.6 110 08:55 29.09.2019
1115 Clouds 22 1021 83 10000 3.6 100 08:37 29.09.2019
1116 Clouds 22 1021 83 10000 3.6 100 08:18 29.09.2019
1117 Clouds 22 1021 78 10000 3.1 110 07:41 29.09.2019
1118 Clouds 22 1021 78 10000 3.1 110 07:22 29.09.2019
1119 Clouds 22 1020 83 10000 2.6 100 06:41 29.09.2019
1120 Clouds 24 1019 73 10000 3.1 100 04:55 29.09.2019
1121 Clouds 24 1019 73 10000 3.1 120 04:24 29.09.2019
1122 Clouds 24 1019 73 10000 5.1 90 03:47 29.09.2019
1123 Clouds 23 1020 78 10000 4.6 100 02:28 29.09.2019
1124 Clouds 24 1020 73 10000 4.6 100 01:46 29.09.2019
1125 Clouds 24 1020 73 10000 5.1 80 01:23 29.09.2019
1126 Clouds 23 1021 78 10000 3.1 110 00:41 29.09.2019
1127 Clouds 23 1021 78 10000 3.1 110 00:19 29.09.2019
1128 Clouds 23 1021 78 10000 4.1 90 23:39 28.09.2019
1129 Clouds 23 1021 78 10000 4.1 90 23:39 28.09.2019
1130 Clouds 23 1021 78 10000 4.1 90 23:21 28.09.2019
1131 Clouds 22 1021 83 10000 3.1 110 22:41 28.09.2019
1132 Clouds 22 1021 83 10000 3.1 110 22:23 28.09.2019
1133 Clouds 22 1021 83 10000 3.6 80 21:59 28.09.2019
1134 Clouds 22 1021 88 10000 3.1 90 21:40 28.09.2019
1135 Rain 22 1021 88 10000 3.1 90 21:21 28.09.2019
1136 Rain 22 1021 83 10000 1.5 110 20:59 28.09.2019
1137 Rain 22 1021 88 10000 0.5 50 20:40 28.09.2019
1138 Rain 22 1021 88 10000 0.5 50 20:20 28.09.2019
1139 Drizzle 21 1021 88 10000 1 90 19:57 28.09.2019
1140 Rain 21 1020 88 10000 0.5 230 19:38 28.09.2019
1141 Rain 21 1020 88 10000 0.5 230 19:20 28.09.2019
1142 Rain 21 1020 88 10000 0.5 170 18:57 28.09.2019
1143 Rain 21 1019 88 10000 2.1 130 18:39 28.09.2019
1144 Rain 21 1019 88 10000 2.1 130 18:20 28.09.2019
1145 Rain 21 1019 88 10000 2.6 110 17:56 28.09.2019
1146 Rain 21 1019 88 10000 2.6 100 17:37 28.09.2019
1147 Rain 21 1019 88 10000 2.6 100 17:19 28.09.2019
1148 Rain 21 1019 88 10000 1.5 110 16:41 28.09.2019
1149 Rain 21 1019 88 10000 1.5 110 16:23 28.09.2019
1150 Rain 21 1019 88 10000 1 150 15:42 28.09.2019
1151 Rain 21 1019 88 10000 1 150 15:23 28.09.2019
1152 Rain 20 1019 94 10000 2.1 100 14:57 28.09.2019
1153 Rain 21 1020 94 10000 1 110 14:38 28.09.2019
1154 Rain 21 1020 94 10000 1 110 14:20 28.09.2019
1155 Rain 21 1020 88 10000 2.1 70 13:56 28.09.2019
1156 Rain 21 1020 94 10000 0.5 50 13:37 28.09.2019
1157 Rain 21 1020 94 10000 0.5 50 13:37 28.09.2019
1158 Rain 21 1020 94 10000 0.5 50 13:19 28.09.2019
1159 Drizzle 21 1020 94 10000 1.5 100 12:40 28.09.2019
1160 Drizzle 21 1020 94 10000 1.5 100 12:19 28.09.2019
1161 Drizzle 22 1020 83 10000 1.5 120 11:54 28.09.2019
1162 Rain 22 1020 83 10000 1.5 150 11:36 28.09.2019
1163 Rain 22 1020 83 10000 1.5 150 11:18 28.09.2019
1164 Rain 22 1020 88 10000 2.1 120 10:40 28.09.2019
1165 Rain 22 1020 88 10000 2.1 120 10:20 28.09.2019
1166 Rain 23 1020 78 10000 2.1 140 09:42 28.09.2019
1167 Clouds 23 1020 78 10000 2.1 140 09:23 28.09.2019
1168 Clouds 23 1019 78 10000 3.6 100 08:55 28.09.2019
1169 Clouds 23 1019 78 10000 3.1 100 08:37 28.09.2019
1170 Clouds 23 1019 78 10000 3.1 100 08:18 28.09.2019
1171 Clouds 23 1018 73 10000 3.6 110 07:43 28.09.2019
1172 Clouds 23 1018 73 10000 3.6 110 07:19 28.09.2019
1173 Clouds 23 1018 73 10000 3.1 120 06:52 28.09.2019
1174 Clouds 23 1018 73 10000 3.6 110 06:30 28.09.2019
1175 Clouds 24 1017 69 10000 4.1 130 05:43 28.09.2019
1176 Clouds 24 1017 69 10000 4.1 130 05:20 28.09.2019
1177 Clouds 24 1017 73 10000 3.6 120 04:38 28.09.2019
1178 Clouds 25 1017 69 10000 2.6 130 03:48 28.09.2019
1179 Clouds 24 1018 73 10000 3.1 120 03:20 28.09.2019
1180 Clouds 24 1018 73 10000 2.1 120 02:43 28.09.2019
1181 Clouds 24 1018 73 10000 2.1 120 02:43 28.09.2019
1182 Clouds 24 1018 73 10000 1.5 140 02:25 28.09.2019
1183 Clouds 24 1018 73 10000 2.1 140 01:46 28.09.2019
1184 Clouds 24 1018 73 10000 6.2 70 01:24 28.09.2019
1185 Clouds 26 1019 69 10000 6.2 60 00:49 28.09.2019
1186 Clouds 26 1019 69 10000 6.2 60 00:30 28.09.2019
1187 Clouds 25 1019 69 10000 5.1 80 23:41 27.09.2019
1188 Clouds 25 1019 69 10000 5.1 80 23:22 27.09.2019
1189 Clouds 25 1020 69 10000 5.1 80 22:59 27.09.2019
1190 Clouds 25 1020 69 10000 3.6 100 22:41 27.09.2019
1191 Clouds 25 1020 69 10000 3.6 100 22:18 27.09.2019
1192 Clouds 25 1019 73 10000 4.1 90 21:55 27.09.2019
1193 Clouds 25 1019 73 10000 4.1 80 21:36 27.09.2019
1194 Clouds 25 1019 73 10000 4.1 80 21:18 27.09.2019
1195 Clouds 22 1019 83 10000 1 180 20:41 27.09.2019
1196 Clouds 22 1019 83 10000 1 180 20:20 27.09.2019
1197 Clouds 22 1018 83 10000 1 140 19:59 27.09.2019
1198 Clouds 21 1018 88 10000 2.1 100 19:41 27.09.2019
1199 Clouds 21 1018 88 10000 2.1 100 19:23 27.09.2019
1200 Clouds 20 1018 88 10000 1 150 18:55 27.09.2019
1201 Clouds 20 1017 88 10000 0.5 240 18:37 27.09.2019
1202 Clouds 20 1017 88 10000 0.5 240 18:19 27.09.2019
1203 Clouds 20 1017 88 10000 0.5 290 17:40 27.09.2019
1204 Clouds 20 1017 88 10000 0.5 290 17:40 27.09.2019
1205 Clouds 20 1017 88 10000 0.5 290 17:20 27.09.2019
1206 Clouds 19 1017 93 10000 1 130 16:58 27.09.2019
1207 Clouds 20 1017 88 10000 0.5 140 16:40 27.09.2019
1208 Clouds 20 1017 88 10000 0.5 140 16:19 27.09.2019
1209 Clouds 21 1017 83 10000 0.5 110 15:55 27.09.2019
1210 Clouds 22 1017 78 10000 1.5 120 15:37 27.09.2019
1211 Clouds 22 1017 78 10000 1.5 120 15:19 27.09.2019
1212 Clouds 22 1018 83 10000 1 160 14:42 27.09.2019
1213 Clouds 22 1018 83 10000 1 160 14:23 27.09.2019
1214 Clouds 22 1018 83 10000 1 150 13:59 27.09.2019
1215 Clouds 22 1018 83 10000 1 150 13:59 27.09.2019
1216 Clouds 23 1018 78 10000 0.5 20 13:40 27.09.2019
1217 Clouds 23 1018 78 10000 0.5 20 13:21 27.09.2019
1218 Clouds 23 1018 78 10000 1.5 80 12:57 27.09.2019
1219 Clouds 23 1019 78 10000 1 90 12:38 27.09.2019
1220 Clouds 23 1019 78 10000 1 90 12:19 27.09.2019
1221 Clouds 23 1019 78 10000 1.5 50 11:39 27.09.2019
1222 Clouds 23 1019 78 10000 1.5 50 11:39 27.09.2019
1223 Clouds 23 1019 78 10000 1.5 50 11:20 27.09.2019
1224 Clouds 23 1019 78 10000 1.5 50 11:20 27.09.2019
1225 Clouds 23 1019 78 10000 1.5 60 10:55 27.09.2019
1226 Clouds 23 1019 78 10000 1.5 90 10:37 27.09.2019
1227 Clouds 23 1019 78 10000 1.5 90 10:37 27.09.2019
1228 Clouds 23 1019 78 10000 1.5 90 10:37 27.09.2019
1229 Clouds 23 1019 78 10000 1.5 90 10:18 27.09.2019
1230 Clouds 24 1018 73 10000 1 20 09:41 27.09.2019
1231 Clouds 24 1018 73 10000 1 20 09:20 27.09.2019
1232 Clouds 24 1018 73 10000 2.6 80 08:57 27.09.2019
1233 Clouds 24 1018 73 10000 2.6 10 08:37 27.09.2019
1234 Clouds 24 1018 73 10000 2.6 10 08:19 27.09.2019
1235 Clouds 24 1017 73 10000 3.1 40 07:45 27.09.2019
1236 Clouds 24 1017 73 10000 0.5 130 07:21 27.09.2019
1237 Clouds 24 1017 73 10000 1 300 06:41 27.09.2019
1238 Rain 24 1017 73 10000 1 300 06:22 27.09.2019
1239 Rain 25 1016 73 10000 2.1 130 05:49 27.09.2019
1240 Rain 25 1016 73 10000 2.1 100 05:30 27.09.2019
1241 Rain 25 1016 78 10000 2.1 10 03:53 27.09.2019
1242 Clouds 26 1017 78 10000 2.6 330 01:58 27.09.2019
1243 Clouds 26 1017 78 10000 2.6 330 01:58 27.09.2019
1244 Clouds 26 1017 78 10000 2.1 350 01:35 27.09.2019
1245 Clouds 25 1017 83 10000 2.1 350 00:44 27.09.2019
1246 Rain 26 1018 78 10000 2.1 20 23:59 26.09.2019
1247 Rain 25 1018 83 10000 2.6 40 23:41 26.09.2019
1248 Rain 25 1018 83 10000 2.6 40 23:22 26.09.2019
1249 Rain 25 1018 83 10000 2.1 30 22:59 26.09.2019
1250 Rain 25 1018 78 10000 2.6 20 22:40 26.09.2019
1251 Rain 25 1018 78 10000 2.6 20 22:19 26.09.2019
1252 Rain 25 1018 78 10000 1 360 21:59 26.09.2019
1253 Rain 25 1018 78 10000 1 360 21:59 26.09.2019
1254 Rain 24 1018 88 10000 1.5 60 21:38 26.09.2019
1255 Rain 24 1018 88 10000 1.5 60 21:20 26.09.2019
1256 Rain 23 1018 94 10000 2.1 270 20:59 26.09.2019
1257 Rain 23 1017 94 10000 0.5 210 20:40 26.09.2019
1258 Rain 23 1017 94 10000 0.5 210 20:21 26.09.2019
1259 Rain 22 1017 94 10000 0.5 150 19:59 26.09.2019
1260 Rain 21 1017 94 10000 1.5 200 19:40 26.09.2019
1261 Rain 21 1017 94 10000 1.5 200 19:18 26.09.2019
1262 Rain 20 1016 94 10000 1.5 80 18:56 26.09.2019
1263 Rain 21 1016 94 10000 1 190 18:36 26.09.2019
1264 Rain 21 1016 94 10000 1 190 18:18 26.09.2019
1265 Rain 21 1015 94 10000 1 40 17:38 26.09.2019
1266 Rain 21 1015 94 10000 1 40 17:38 26.09.2019
1267 Rain 21 1015 94 10000 1 40 17:38 26.09.2019
1268 Rain 21 1015 94 10000 1 40 17:38 26.09.2019
1269 Rain 21 1015 94 10000 1 40 17:19 26.09.2019
1270 Rain 21 1015 94 10000 1.5 250 16:56 26.09.2019
1271 Rain 21 1015 94 10000 1 180 16:37 26.09.2019
1272 Rain 21 1015 94 10000 1 180 16:19 26.09.2019
1273 Rain 21 1015 94 10000 2.1 210 15:55 26.09.2019
1274 Rain 22 1015 94 10000 1.5 220 15:36 26.09.2019
1275 Rain 22 1015 94 10000 1.5 220 15:18 26.09.2019
1276 Rain 21 1016 100 9000 3.6 180 14:41 26.09.2019
1277 Rain 21 1016 100 9000 3.6 180 14:41 26.09.2019
1278 Rain 21 1016 100 9000 3.6 180 14:22 26.09.2019
1279 Rain 22 1017 94 3900 3.6 240 13:58 26.09.2019
1280 Rain 22 1017 94 5000 1.5 220 13:39 26.09.2019
1281 Rain 22 1017 94 5000 1.5 220 13:19 26.09.2019
1282 Rain 22 1017 100 10000 0.5 240 12:44 26.09.2019
1283 Rain 22 1017 100 10000 0.5 240 12:23 26.09.2019
1284 Rain 22 1017 94 1900 2.6 210 11:57 26.09.2019
1285 Rain 24 1017 88 7000 3.1 160 11:39 26.09.2019
1286 Rain 24 1017 88 7000 3.1 160 11:19 26.09.2019
1287 Rain 24 1018 88 10000 1.5 110 10:42 26.09.2019
1288 Rain 24 1018 88 10000 1.5 110 10:23 26.09.2019
1289 Rain 24 1017 88 10000 2.1 80 09:59 26.09.2019
1290 Rain 24 1017 88 10000 1 120 09:40 26.09.2019
1291 Rain 24 1017 88 10000 1 120 09:19 26.09.2019
1292 Rain 24 1017 88 10000 1.5 100 08:51 26.09.2019
1293 Rain 24 1017 88 10000 2.1 90 08:31 26.09.2019
1294 Rain 24 1017 88 10000 3.1 90 07:47 26.09.2019
1295 Rain 24 1017 88 10000 3.6 80 07:22 26.09.2019
1296 Rain 24 1016 88 10000 4.6 70 06:53 26.09.2019
1297 Rain 25 1016 83 10000 5.1 80 06:28 26.09.2019
1298 Rain 25 1016 83 10000 5.1 70 05:52 26.09.2019
1299 Rain 25 1016 83 10000 5.1 70 05:29 26.09.2019
1300 Rain 26 1016 74 10000 5.7 60 03:33 26.09.2019
1301 Rain 26 1016 74 10000 5.7 60 02:19 26.09.2019
1302 Rain 25 1017 78 10000 6.2 70 01:40 26.09.2019
1303 Rain 25 1017 78 10000 6.2 70 01:22 26.09.2019
1304 Rain 25 1018 83 10000 6.2 80 00:45 26.09.2019
1305 Rain 25 1018 83 10000 6.2 80 00:25 26.09.2019
1306 Rain 25 1019 83 10000 7.2 70 23:43 25.09.2019
1307 Rain 25 1019 83 10000 7.2 70 23:22 25.09.2019
1308 Rain 25 1019 83 10000 7.2 70 22:55 25.09.2019
1309 Rain 25 1019 83 10000 7.2 70 22:55 25.09.2019
1310 Rain 25 1019 83 10000 7.2 70 22:55 25.09.2019
1311 Rain 24 1019 83 10000 6.2 70 22:36 25.09.2019
1312 Rain 24 1019 83 10000 6.2 70 22:18 25.09.2019
1313 Rain 25 1019 83 10000 6.7 80 21:55 25.09.2019
1314 Rain 24 1019 88 10000 5.7 80 21:36 25.09.2019
1315 Rain 24 1019 88 10000 5.7 80 21:18 25.09.2019
1316 Rain 24 1019 83 10000 4.6 80 20:55 25.09.2019
1317 Rain 23 1019 88 10000 4.1 90 20:37 25.09.2019
1318 Rain 23 1019 88 10000 4.1 90 20:18 25.09.2019
1319 Rain 22 1018 94 10000 3.1 90 19:39 25.09.2019
1320 Rain 22 1018 94 10000 3.1 90 19:20 25.09.2019
1321 Rain 22 1018 94 10000 3.1 80 18:56 25.09.2019
1322 Rain 22 1018 94 10000 2.6 90 18:37 25.09.2019
1323 Rain 22 1018 94 10000 2.6 90 18:18 25.09.2019
1324 Rain 22 1017 88 10000 2.1 90 17:40 25.09.2019
1325 Rain 22 1017 88 10000 2.1 90 17:21 25.09.2019
1326 Drizzle 22 1017 88 10000 2.1 100 16:57 25.09.2019
1327 Drizzle 22 1017 88 10000 2.1 100 16:57 25.09.2019
1328 Rain 22 1017 88 10000 2.6 90 16:37 25.09.2019
1329 Rain 22 1017 88 10000 2.6 90 16:19 25.09.2019
1330 Rain 22 1018 88 10000 3.6 90 15:42 25.09.2019
1331 Rain 22 1018 88 10000 3.6 90 15:23 25.09.2019
1332 Rain 22 1018 88 10000 3.6 90 14:59 25.09.2019
1333 Rain 22 1018 88 10000 3.6 90 14:59 25.09.2019
1334 Rain 22 1018 88 10000 3.6 90 14:41 25.09.2019
1335 Rain 22 1018 88 10000 3.6 90 14:21 25.09.2019
1336 Rain 22 1019 88 10000 3.1 90 13:56 25.09.2019
1337 Rain 22 1019 88 10000 3.1 90 13:56 25.09.2019
1338 Rain 22 1019 88 10000 4.6 90 13:38 25.09.2019
1339 Clouds 22 1019 88 10000 4.6 90 13:19 25.09.2019
1340 Rain 22 1019 88 7000 4.6 90 12:42 25.09.2019
1341 Rain 22 1019 88 7000 4.6 90 12:23 25.09.2019
1342 Clouds 22 1019 83 10000 4.1 90 11:58 25.09.2019
1343 Clouds 22 1019 83 10000 5.1 80 11:40 25.09.2019
1344 Clouds 22 1019 83 10000 5.1 80 11:19 25.09.2019
1345 Clouds 22 1020 78 10000 5.1 80 10:45 25.09.2019
1346 Clouds 22 1020 78 10000 3.1 90 10:26 25.09.2019
1347 Clouds 22 1020 78 10000 3.1 100 09:58 25.09.2019
1348 Clouds 22 1020 78 10000 3.1 100 09:58 25.09.2019
1349 Clouds 22 1020 78 10000 4.1 90 09:37 25.09.2019
1350 Clouds 22 1020 78 10000 4.1 90 09:19 25.09.2019
1351 Clouds 22 1020 78 10000 3.6 90 08:44 25.09.2019
1352 Clouds 22 1019 78 10000 4.1 90 08:21 25.09.2019
1353 Clouds 22 1020 78 10000 4.1 90 07:57 25.09.2019
1354 Clouds 22 1019 73 10000 4.6 90 07:38 25.09.2019
1355 Clouds 22 1019 73 10000 4.6 90 07:20 25.09.2019
1356 Clouds 23 1018 69 10000 4.1 90 06:43 25.09.2019
1357 Clouds 23 1018 69 10000 4.1 90 06:22 25.09.2019
1358 Clouds 23 1018 69 10000 4.6 90 05:35 25.09.2019
1359 Clouds 23 1018 69 10000 5.7 90 04:55 25.09.2019
1360 Clouds 24 1019 64 10000 6.2 80 02:19 25.09.2019
1361 Clouds 23 1020 60 10000 6.2 90 00:46 25.09.2019
1362 Clouds 23 1020 60 10000 6.2 90 00:26 25.09.2019
1363 Clear 23 1021 60 10000 7.2 80 23:58 24.09.2019
1364 Clear 23 1021 56 10000 6.7 70 23:39 24.09.2019
1365 Clear 23 1021 56 10000 6.7 70 23:20 24.09.2019
1366 Clear 23 1021 60 10000 5.1 90 22:39 24.09.2019
1367 Clear 23 1021 60 10000 5.1 90 22:21 24.09.2019
1368 Clear 22 1022 60 10000 4.1 90 21:58 24.09.2019
1369 Clear 22 1022 60 10000 4.1 90 21:58 24.09.2019
1370 Clear 22 1022 60 10000 3.6 90 21:37 24.09.2019
1371 Clouds 22 1022 60 10000 3.6 90 21:19 24.09.2019
1372 Clouds 22 1022 56 10000 2.6 100 20:58 24.09.2019
1373 Clouds 21 1021 60 10000 1 90 20:40 24.09.2019
1374 Clouds 21 1021 60 10000 1 90 20:21 24.09.2019
1375 Clouds 19 1021 72 10000 1 110 19:55 24.09.2019
1376 Clouds 16 1021 82 10000 1.5 150 19:36 24.09.2019
1377 Clouds 18 1020 72 10000 2.1 120 19:18 24.09.2019
1378 Clouds 17 1020 77 10000 2.1 140 18:42 24.09.2019
1379 Clouds 17 1020 77 10000 2.1 140 18:22 24.09.2019
1380 Clouds 17 1020 77 10000 2.1 140 18:22 24.09.2019
1381 Clouds 15 1020 87 10000 1 130 17:58 24.09.2019
1382 Clouds 15 1020 87 10000 1 170 17:39 24.09.2019
1383 Clouds 15 1020 87 10000 1 170 17:39 24.09.2019
1384 Clouds 15 1020 87 10000 1 170 17:21 24.09.2019
1385 Clouds 15 1020 87 10000 0.5 160 16:59 24.09.2019
1386 Clouds 16 1020 87 10000 1 150 16:40 24.09.2019
1387 Clouds 16 1020 87 10000 1 150 16:19 24.09.2019
1388 Clouds 17 1021 77 10000 1 150 15:42 24.09.2019
1389 Clouds 17 1021 77 10000 1 150 15:23 24.09.2019
1390 Clouds 19 1021 68 10000 2.1 140 14:45 24.09.2019
1391 Clouds 18 1021 77 10000 1.5 160 14:20 24.09.2019
1392 Clouds 18 1021 72 10000 1.5 130 13:57 24.09.2019
1393 Clouds 19 1021 68 10000 2.1 150 13:38 24.09.2019
1394 Clouds 20 1022 68 10000 2.1 150 13:20 24.09.2019
1395 Clouds 19 1021 77 10000 1 150 12:40 24.09.2019
1396 Clouds 19 1021 77 10000 1 150 12:21 24.09.2019
1397 Clouds 19 1022 77 10000 1 160 11:55 24.09.2019
1398 Clouds 19 1022 77 10000 1 160 11:55 24.09.2019
1399 Clouds 20 1022 72 10000 1.5 140 11:37 24.09.2019
1400 Clouds 20 1022 72 10000 1.5 140 11:18 24.09.2019
1401 Clouds 20 1022 72 10000 1.5 140 10:39 24.09.2019
1402 Clouds 20 1022 72 10000 1.5 140 10:21 24.09.2019
1403 Clouds 21 1022 68 10000 1.5 120 09:47 24.09.2019
1404 Clouds 21 1022 68 10000 2.1 130 09:28 24.09.2019
1405 Clouds 21 1021 68 10000 2.6 140 08:58 24.09.2019
1406 Clouds 21 1021 68 10000 2.6 140 08:40 24.09.2019
1407 Clouds 21 1021 68 10000 2.6 140 08:40 24.09.2019
1408 Clouds 21 1021 68 10000 2.6 140 08:22 24.09.2019
1409 Clouds 21 1021 73 10000 2.6 140 07:57 24.09.2019
1410 Clouds 21 1020 77 10000 1.5 120 07:38 24.09.2019
1411 Clouds 21 1020 77 10000 1.5 120 07:19 24.09.2019
1412 Clouds 21 1020 73 10000 1.5 120 06:37 24.09.2019
1413 Clouds 21 1020 73 10000 1.5 120 06:37 24.09.2019
1414 Clouds 21 1020 73 10000 1.5 120 06:18 24.09.2019
1415 Clouds 22 1019 73 10000 2.6 120 05:21 24.09.2019
1416 Clouds 21 1019 77 10000 2.1 100 03:46 24.09.2019
1417 Clouds 21 1019 77 10000 2.1 70 03:22 24.09.2019
1418 Rain 22 1019 73 10000 2.1 130 02:43 24.09.2019
1419 Clouds 22 1020 73 10000 2.6 110 01:41 24.09.2019
1420 Clouds 21 1020 77 10000 3.1 90 00:41 24.09.2019
1421 Clouds 21 1020 77 10000 3.1 90 00:22 24.09.2019
1422 Clouds 21 1021 83 10000 3.1 90 23:41 23.09.2019
1423 Clouds 21 1021 83 10000 3.1 90 23:22 23.09.2019
1424 Clouds 21 1021 83 10000 1.5 90 22:40 23.09.2019
1425 Clouds 21 1021 83 10000 1.5 90 22:21 23.09.2019
1426 Clouds 21 1021 83 10000 1.5 90 22:21 23.09.2019
1427 Rain 21 1021 83 10000 1.5 130 21:59 23.09.2019
1428 Clouds 20 1020 88 10000 1.5 120 21:41 23.09.2019
1429 Clouds 20 1020 88 10000 1.5 120 21:20 23.09.2019
1430 Clouds 20 1020 88 10000 1.5 120 21:20 23.09.2019
1431 Clouds 19 1021 93 10000 1.5 130 20:58 23.09.2019
1432 Rain 19 1021 93 10000 1.5 110 20:39 23.09.2019
1433 Rain 19 1021 93 10000 1.5 110 20:18 23.09.2019
1434 Rain 19 1021 93 10000 1.5 110 20:18 23.09.2019
1435 Rain 18 1019 93 10000 1 110 19:40 23.09.2019
1436 Rain 18 1019 93 10000 1 110 19:22 23.09.2019
1437 Rain 18 1019 93 10000 1 110 19:22 23.09.2019
1438 Rain 18 1019 93 10000 1 110 19:22 23.09.2019
1439 Rain 19 1019 88 10000 1 110 18:59 23.09.2019
1440 Clouds 18 1019 93 10000 1 130 18:40 23.09.2019
1441 Clouds 18 1019 93 10000 1 130 18:18 23.09.2019
1442 Rain 19 1018 88 10000 1.5 120 17:56 23.09.2019
1443 Clouds 19 1019 88 10000 1.5 90 17:38 23.09.2019
1444 Clouds 19 1019 88 10000 1.5 90 17:19 23.09.2019
1445 Rain 18 1018 93 10000 0.5 100 16:54 23.09.2019
1446 Rain 18 1018 88 10000 1 60 16:36 23.09.2019
1447 Rain 18 1018 88 10000 1 60 16:36 23.09.2019
1448 Rain 18 1018 88 10000 1 60 16:18 23.09.2019
1449 Rain 18 1018 88 10000 1.5 340 15:55 23.09.2019
1450 Rain 18 1018 88 10000 1.5 340 15:55 23.09.2019
1451 Rain 18 1019 82 10000 3.6 30 15:36 23.09.2019
1452 Rain 18 1019 82 10000 1.5 130 15:18 23.09.2019
1453 Rain 19 1019 77 10000 1.5 200 14:39 23.09.2019
1454 Rain 19 1019 77 10000 1.5 200 14:20 23.09.2019
1455 Rain 19 1019 77 10000 1 170 13:58 23.09.2019
1456 Rain 19 1019 82 10000 2.1 150 13:37 23.09.2019
1457 Rain 19 1019 82 10000 2.1 150 13:18 23.09.2019
1458 Rain 19 1020 82 10000 1 190 12:43 23.09.2019
1459 Rain 19 1020 82 10000 1 190 12:22 23.09.2019
1460 Rain 18 1020 88 10000 1.5 180 11:56 23.09.2019
1461 Rain 18 1020 88 10000 1.5 200 11:37 23.09.2019
1462 Rain 18 1020 88 10000 1.5 200 11:37 23.09.2019
1463 Rain 18 1020 88 10000 1.5 200 11:19 23.09.2019
1464 Rain 19 1020 88 10000 2.6 190 10:49 23.09.2019
1465 Rain 19 1020 88 10000 3.6 190 10:21 23.09.2019
1466 Rain 19 1020 88 10000 3.6 190 10:21 23.09.2019
1467 -273 0 0 0 0 0 09:55 23.09.2019
1468 Rain 19 1020 82 10000 4.1 190 09:37 23.09.2019
1469 Rain 19 1020 82 10000 4.1 190 09:19 23.09.2019
1470 Rain 18 1019 88 10000 4.1 200 08:42 23.09.2019
1471 Rain 18 1019 88 10000 4.1 200 08:22 23.09.2019
1472 Rain 18 1018 88 10000 5.1 190 07:44 23.09.2019
1473 Rain 18 1018 88 10000 5.7 190 07:23 23.09.2019
1474 Rain 19 1017 88 10000 4.6 180 06:20 23.09.2019
1475 Rain 19 1016 88 9000 4.6 170 05:44 23.09.2019
1476 Rain 18 1016 88 10000 4.1 180 04:59 23.09.2019
1477 Rain 18 1016 88 9000 5.1 190 04:37 23.09.2019
1478 Rain 20 1016 88 7000 6.7 190 01:26 23.09.2019
1479 Rain 20 1017 94 6000 6.2 190 00:39 23.09.2019
1480 Rain 20 1017 94 6000 6.2 190 00:19 23.09.2019
1481 Rain 23 1017 88 10000 2.6 180 23:44 22.09.2019
1482 Rain 23 1017 88 10000 2.6 180 23:44 22.09.2019
1483 Rain 23 1017 88 10000 2.6 180 23:26 22.09.2019
1484 Clouds 24 1017 83 10000 2.6 210 22:56 22.09.2019
1485 Clouds 24 1017 78 10000 1.5 120 22:37 22.09.2019
1486 Clouds 24 1017 78 10000 1.5 120 22:19 22.09.2019
1487 Clouds 23 1017 88 10000 0.5 50 21:43 22.09.2019
1488 Rain 23 1017 88 10000 0.5 50 21:21 22.09.2019
1489 Rain 22 1016 94 10000 1 240 20:45 22.09.2019
1490 Rain 22 1016 94 10000 1 170 20:27 22.09.2019
1491 Rain 22 1016 94 10000 1 170 20:27 22.09.2019
1492 Rain 21 1015 100 10000 0.5 140 19:59 22.09.2019
1493 Rain 20 1015 100 10000 0.5 160 19:40 22.09.2019
1494 Rain 21 1015 100 10000 0.5 180 19:20 22.09.2019
1495 Rain 21 1015 100 10000 0.5 180 18:57 22.09.2019
1496 Rain 21 1015 100 10000 0.5 180 18:57 22.09.2019
1497 Rain 21 1015 94 10000 0.5 200 18:38 22.09.2019
1498 Rain 21 1015 94 10000 0.5 200 18:18 22.09.2019
1499 Rain 20 1014 100 10000 1 200 17:46 22.09.2019
1500 Rain 20 1014 100 10000 1 200 17:27 22.09.2019
1501 Rain 20 1014 100 10000 1 100 16:57 22.09.2019
1502 Rain 20 1014 100 10000 1 100 16:57 22.09.2019
1503 Rain 21 1014 94 10000 1 180 16:39 22.09.2019
1504 Rain 21 1014 94 10000 1 180 16:20 22.09.2019
1505 Rain 21 1014 94 10000 0.5 130 15:45 22.09.2019
1506 Rain 21 1014 94 10000 0.5 130 15:26 22.09.2019
1507 Rain 21 1015 100 10000 1.5 200 14:55 22.09.2019
1508 Rain 21 1015 100 10000 0.5 170 14:37 22.09.2019
1509 Rain 21 1015 100 10000 0.5 170 14:18 22.09.2019
1510 Rain 21 1015 94 10000 6.29 169.16 13:42 22.09.2019
1511 Rain 21 1015 94 10000 7.75 167.15 13:24 22.09.2019
1512 Rain 21 1015 94 10000 1 190 12:57 22.09.2019
1513 Rain 21 1015 94 10000 1 190 12:38 22.09.2019
1514 Rain 22 1015 88 10000 1 90 12:18 22.09.2019
1515 Rain 22 1015 88 10000 1 90 12:18 22.09.2019
1516 Rain 22 1016 88 10000 0.5 210 11:43 22.09.2019
1517 Rain 22 1016 88 10000 0.5 210 11:43 22.09.2019
1518 Rain 22 1016 88 10000 0.5 210 11:25 22.09.2019
1519 Rain 22 1016 88 10000 0.5 210 11:25 22.09.2019
1520 Rain 22 1016 88 10000 0.5 120 10:57 22.09.2019
1521 Rain 22 1016 88 10000 1 140 10:39 22.09.2019
1522 Rain 22 1016 88 10000 1 140 10:19 22.09.2019
1523 Rain 22 1016 88 10000 0.5 70 09:43 22.09.2019
1524 Rain 22 1016 88 10000 0.5 70 09:43 22.09.2019
1525 Rain 22 1016 88 10000 0.5 70 09:21 22.09.2019
1526 Rain 22 1015 88 10000 1.5 140 08:55 22.09.2019
1527 Rain 21 1015 94 10000 1 160 08:37 22.09.2019
1528 Rain 21 1015 94 10000 1 160 08:18 22.09.2019
1529 Rain 22 1015 88 10000 1 190 07:41 22.09.2019
1530 Rain 22 1015 88 10000 1 190 07:23 22.09.2019
1531 Rain 23 1014 88 10000 0.5 170 06:56 22.09.2019
1532 Rain 24 1014 73 10000 1 250 05:45 22.09.2019
1533 Rain 23 1014 88 10000 1 210 03:53 22.09.2019
1534 Rain 22 1015 94 10000 1.5 70 02:43 22.09.2019
1535 Rain 22 1015 94 10000 1.5 70 02:23 22.09.2019
1536 Rain 22 1015 94 10000 2.1 90 01:34 22.09.2019
1537 Rain 22 1015 94 7000 1.5 60 00:40 22.09.2019
1538 Rain 22 1015 94 7000 1.5 60 00:21 22.09.2019
1539 Rain 22 1015 94 7000 1.5 60 00:21 22.09.2019
1540 Rain 22 1016 94 8000 1 250 23:45 21.09.2019
1541 Rain 22 1016 94 8000 1 250 23:27 21.09.2019
1542 Rain 21 1016 94 10000 1.5 220 22:40 21.09.2019
1543 Rain 21 1016 94 10000 1.5 220 22:21 21.09.2019
1544 Rain 21 1016 88 7000 1 230 21:57 21.09.2019
1545 Rain 21 1016 88 5000 0.5 220 21:38 21.09.2019
1546 Rain 21 1016 88 5000 0.5 220 21:18 21.09.2019
1547 Rain 21 1016 88 5000 0.5 220 21:18 21.09.2019
1548 Rain 21 1015 88 10000 1 130 20:40 21.09.2019
1549 Rain 21 1015 88 10000 1 130 20:22 21.09.2019
1550 Rain 21 1015 88 10000 2.1 100 19:55 21.09.2019
1551 Rain 20 1015 94 10000 0.5 260 19:36 21.09.2019
1552 Rain 20 1014 94 10000 1 200 19:18 21.09.2019
1553 Rain 20 1014 94 10000 0.5 80 18:38 21.09.2019
1554 Clouds 20 1014 94 10000 0.5 80 18:20 21.09.2019
1555 Rain 20 1014 94 5000 3.6 90 17:42 21.09.2019
1556 Rain 20 1014 94 5000 3.6 90 17:23 21.09.2019
1557 Rain 22 1013 73 10000 2.1 100 16:44 21.09.2019
1558 Rain 22 1013 73 10000 2.1 100 16:44 21.09.2019
1559 Rain 22 1013 73 10000 2.1 100 16:24 21.09.2019
1560 Clouds 22 1013 73 10000 2.1 110 15:56 21.09.2019
1561 Clouds 22 1013 73 10000 2.1 100 15:38 21.09.2019
1562 Clouds 22 1013 73 10000 2.1 100 15:19 21.09.2019
1563 Clouds 22 1014 73 10000 2.1 110 14:44 21.09.2019
1564 Clouds 22 1014 73 10000 2.1 110 14:44 21.09.2019
1565 Clouds 22 1014 73 10000 1.5 100 14:26 21.09.2019
1566 Clouds 21 1014 73 10000 2.6 100 13:43 21.09.2019
1567 Clouds 21 1014 73 10000 2.6 100 13:23 21.09.2019
1568 Clouds 21 1015 73 10000 2.1 90 12:57 21.09.2019
1569 Clouds 21 1015 73 10000 2.1 110 12:39 21.09.2019
1570 Rain 21 1015 73 10000 2.1 110 12:20 21.09.2019
1571 Rain 21 1015 73 10000 1.5 110 11:51 21.09.2019
1572 Rain 20 1015 77 10000 1.5 100 11:25 21.09.2019
1573 Rain 21 1015 73 10000 2.1 120 10:56 21.09.2019
1574 Rain 20 1016 77 10000 1.5 110 10:38 21.09.2019
1575 Rain 20 1016 77 10000 1.5 110 10:19 21.09.2019
1576 Rain 20 1016 72 10000 1.5 110 09:55 21.09.2019
1577 Rain 20 1015 72 10000 1.5 110 09:36 21.09.2019
1578 Rain 20 1015 72 10000 1.5 110 09:18 21.09.2019
1579 Rain 21 1015 68 10000 1.5 110 08:42 21.09.2019
1580 Rain 21 1015 68 10000 2.1 110 07:58 21.09.2019
1581 Rain 21 1014 68 10000 2.1 100 07:39 21.09.2019
1582 Rain 22 1014 64 10000 3.6 70 07:18 21.09.2019
1583 Rain 23 1014 60 10000 4.1 70 06:35 21.09.2019
1584 Rain 23 1014 60 10000 4.1 60 05:51 21.09.2019
1585 Rain 24 1014 57 10000 3.6 50 04:39 21.09.2019
1586 Rain 24 1014 57 10000 3.6 50 04:39 21.09.2019
1587 Rain 24 1014 57 10000 3.6 40 03:25 21.09.2019
1588 Rain 23 1014 60 10000 4.1 50 02:23 21.09.2019
1589 Rain 23 1014 64 10000 3.6 50 01:47 21.09.2019
1590 Rain 23 1014 64 10000 3.6 50 01:21 21.09.2019
1591 Clouds 24 1015 57 10000 4.6 50 00:23 21.09.2019
1592 Clouds 24 1015 57 10000 3.6 50 23:48 20.09.2019
1593 Clouds 25 1015 53 10000 5.1 50 23:29 20.09.2019
1594 Clouds 24 1015 57 10000 3.6 50 22:44 20.09.2019
1595 Clouds 24 1015 57 10000 3.6 50 22:25 20.09.2019
1596 Clouds 24 1015 57 10000 3.1 50 21:57 20.09.2019
1597 Clouds 23 1015 60 10000 1.5 90 21:39 20.09.2019
1598 Clouds 23 1015 60 10000 1.5 90 21:20 20.09.2019
1599 Clouds 22 1015 68 10000 1 40 20:58 20.09.2019
1600 Rain 20 1015 88 10000 0.79 6.211 20:38 20.09.2019
1601 Rain 20 1015 88 10000 0.79 6.211 20:38 20.09.2019
1602 Rain 20 1015 88 10000 0.79 6.211 20:19 20.09.2019
1603 Rain 16 1014 93 10000 1 160 19:45 20.09.2019
1604 Rain 16 1014 93 10000 1 160 19:26 20.09.2019
1605 Rain 15 1014 93 10000 1 170 18:58 20.09.2019
1606 Rain 16 1014 87 10000 1 180 18:38 20.09.2019
1607 Rain 16 1014 87 10000 1 180 18:18 20.09.2019
1608 Rain 16 1013 87 10000 1 160 17:45 20.09.2019
1609 Rain 16 1013 87 10000 1 160 17:26 20.09.2019
1610 Rain 16 1013 87 10000 1 180 16:44 20.09.2019
1611 Rain 16 1013 87 10000 1 180 16:23 20.09.2019
1612 Rain 16 1013 87 10000 0.5 110 15:59 20.09.2019
1613 Rain 17 1013 88 10000 1 160 15:41 20.09.2019
1614 Rain 17 1013 88 10000 1 160 15:22 20.09.2019
1615 Rain 17 1014 88 10000 0.5 150 14:44 20.09.2019
1616 Rain 17 1014 88 10000 0.5 150 14:20 20.09.2019
1617 Rain 17 1014 88 10000 0.5 150 14:20 20.09.2019
1618 Rain 18 1014 77 10000 1 130 13:55 20.09.2019
1619 Rain 18 1014 77 10000 1 130 13:36 20.09.2019
1620 Rain 18 1014 77 10000 1 130 13:18 20.09.2019
1621 Rain 19 1014 72 10000 1.5 120 12:38 20.09.2019
1622 Clouds 19 1014 72 10000 1.5 120 12:19 20.09.2019
1623 Clouds 20 1014 68 10000 1.5 130 11:50 20.09.2019
1624 Clouds 20 1014 68 10000 1.5 130 11:22 20.09.2019
1625 Clouds 19 1014 77 10000 2.1 140 10:57 20.09.2019
1626 Clouds 18 1014 82 10000 1 160 10:39 20.09.2019
1627 Clouds 18 1014 82 10000 1 160 10:19 20.09.2019
1628 Clouds 19 1014 77 10000 1 120 09:38 20.09.2019
1629 Clouds 19 1014 77 10000 1 120 09:18 20.09.2019
1630 Clouds 21 1014 68 10000 1 130 08:43 20.09.2019
1631 Clouds 21 1014 68 10000 1 130 08:25 20.09.2019
1632 Clouds 21 1013 68 10000 1 170 07:47 20.09.2019
1633 Clouds 21 1013 68 10000 0.5 120 07:28 20.09.2019
1634 Clouds 23 1013 56 10000 2.1 200 06:45 20.09.2019
1635 Clouds 23 1013 56 10000 2.1 200 06:45 20.09.2019
1636 Clouds 23 1013 56 10000 2.1 200 06:25 20.09.2019
1637 Clouds 24 1013 53 10000 2.1 190 05:50 20.09.2019
1638 Clouds 24 1012 53 10000 2.1 150 03:42 20.09.2019
1639 Clouds 24 1012 53 10000 2.1 150 03:19 20.09.2019
1640 Clouds 24 1014 50 10000 2.6 180 01:45 20.09.2019
1641 Clouds 24 1014 50 10000 2.6 200 01:18 20.09.2019
1642 Clouds 23 1014 53 10000 2.1 160 00:26 20.09.2019
1643 Clouds 23 1015 60 10000 2.6 90 23:44 19.09.2019
1644 Clouds 23 1015 60 10000 2.6 90 23:20 19.09.2019
1645 Clouds 23 1015 64 10000 1.5 130 22:57 19.09.2019
1646 Clouds 23 1015 60 10000 2.1 150 22:37 19.09.2019
1647 Clouds 23 1015 60 10000 2.1 150 22:19 19.09.2019
1648 Rain 22 1015 68 10000 2.6 160 21:56 19.09.2019
1649 Clouds 23 1015 60 10000 1 180 21:37 19.09.2019
1650 Clouds 23 1015 60 10000 1 180 21:18 19.09.2019
1651 Clouds 22 1015 64 10000 2.1 150 20:43 19.09.2019
1652 Clouds 22 1015 64 10000 2.1 150 20:22 19.09.2019
1653 Clouds 21 1014 68 10000 2.1 160 19:55 19.09.2019
1654 Clouds 22 1014 64 10000 1.5 140 19:37 19.09.2019
1655 Clouds 21 1013 68 10000 1.5 120 19:19 19.09.2019
1656 Clouds 21 1013 68 10000 1.5 160 18:42 19.09.2019
1657 Rain 21 1013 68 10000 1 110 18:24 19.09.2019
1658 Rain 21 1013 68 10000 1 110 17:54 19.09.2019
1659 Rain 21 1013 68 10000 1.5 130 17:36 19.09.2019
1660 Rain 21 1013 68 10000 1.5 130 17:18 19.09.2019
1661 Rain 22 1013 64 10000 2.1 130 16:42 19.09.2019
1662 Rain 22 1013 64 10000 2.1 130 16:20 19.09.2019
1663 Rain 22 1012 64 10000 2.6 150 15:55 19.09.2019
1664 Rain 22 1012 64 10000 2.6 150 15:55 19.09.2019
1665 Rain 22 1012 64 10000 2.6 150 15:55 19.09.2019
1666 Rain 22 1012 64 10000 2.6 150 15:55 19.09.2019
1667 Rain 22 1012 64 10000 2.6 150 15:55 19.09.2019
1668 Rain 22 1013 60 10000 1.5 160 15:36 19.09.2019
1669 Clouds 22 1013 60 10000 1.5 160 15:18 19.09.2019
1670 Clouds 22 1013 60 10000 2.6 170 14:39 19.09.2019
1671 Clouds 22 1013 60 10000 2.6 170 14:21 19.09.2019
1672 Clouds 22 1013 68 10000 2.6 130 13:57 19.09.2019
1673 Clouds 22 1014 68 10000 2.1 150 13:37 19.09.2019
1674 Clouds 22 1014 68 10000 2.1 150 13:37 19.09.2019
1675 Clouds 22 1014 68 10000 2.1 150 13:18 19.09.2019
1676 Clouds 22 1013 64 10000 2.1 160 12:37 19.09.2019
1677 Clouds 22 1013 64 10000 2.1 160 12:18 19.09.2019
1678 Clouds 22 1014 68 10000 1.5 180 11:41 19.09.2019
1679 Clouds 22 1014 68 10000 1.5 180 11:22 19.09.2019
1680 Clouds 22 1014 68 10000 1.5 180 11:22 19.09.2019
1681 Clouds 22 1014 68 10000 1.5 160 10:59 19.09.2019
1682 Clouds 22 1014 68 10000 1.5 150 10:39 19.09.2019
1683 Clouds 22 1014 68 10000 1.5 150 10:21 19.09.2019
1684 Clouds 22 1014 68 10000 1.5 150 10:21 19.09.2019
1685 Drizzle 22 1014 68 10000 2.1 190 09:57 19.09.2019
1686 Clouds 22 1013 68 10000 1.5 200 09:39 19.09.2019
1687 Clouds 22 1013 68 10000 1.5 200 09:19 19.09.2019
1688 Clouds 22 1013 68 10000 1.5 160 08:50 19.09.2019
1689 Clouds 22 1013 73 10000 1.5 180 08:23 19.09.2019
1690 Clouds 22 1013 68 10000 1 220 07:44 19.09.2019
1691 Clouds 22 1013 68 10000 1 220 07:22 19.09.2019
1692 Rain 23 1013 64 10000 2.1 210 06:51 19.09.2019
1693 Clouds 23 1012 64 10000 2.6 200 06:32 19.09.2019
1694 Clouds 23 1012 64 10000 3.1 200 05:53 19.09.2019
1695 Clouds 24 1012 60 10000 3.1 190 05:34 19.09.2019
1696 Clouds 24 1012 60 10000 3.6 210 03:55 19.09.2019
1697 Clouds 24 1012 60 10000 4.1 200 03:19 19.09.2019
1698 Rain 24 1013 64 10000 4.1 210 01:34 19.09.2019
1699 Rain 24 1013 64 10000 3.1 210 00:53 19.09.2019
1700 Rain 23 1014 64 10000 4.1 200 00:26 19.09.2019
1701 Clouds 24 1014 57 10000 5.7 230 23:43 18.09.2019
1702 Clouds 24 1014 57 10000 5.7 230 23:23 18.09.2019
1703 Clouds 24 1014 57 10000 5.7 230 23:23 18.09.2019
1704 Clouds 23 1014 60 10000 4.1 220 22:55 18.09.2019
1705 Clouds 23 1014 60 10000 4.1 220 22:55 18.09.2019
1706 Clouds 23 1015 56 10000 4.1 220 22:37 18.09.2019
1707 Clouds 23 1015 56 10000 4.1 220 22:18 18.09.2019
1708 Clouds 23 1015 53 10000 3.1 210 21:55 18.09.2019
1709 Clouds 23 1014 56 10000 4.1 220 21:37 18.09.2019
1710 Rain 23 1014 56 10000 4.1 220 21:18 18.09.2019
1711 Rain 22 1014 56 10000 3.1 220 20:55 18.09.2019
1712 Rain 22 1014 64 10000 3.6 210 20:37 18.09.2019
1713 Drizzle 21 1014 73 10000 3.6 230 20:18 18.09.2019
1714 Rain 22 1014 64 10000 3.6 220 19:41 18.09.2019
1715 Rain 22 1013 64 10000 4.1 220 19:20 18.09.2019
1716 Rain 22 1013 64 10000 4.1 220 18:57 18.09.2019
1717 Rain 21 1013 68 10000 3.6 220 18:38 18.09.2019
1718 Rain 21 1013 68 10000 3.6 220 18:19 18.09.2019
1719 Rain 21 1013 68 10000 3.6 220 17:59 18.09.2019
1720 Rain 22 1012 68 10000 3.1 200 17:40 18.09.2019
1721 Rain 22 1012 68 10000 3.1 200 17:19 18.09.2019
1722 Rain 22 1012 68 10000 2.6 160 16:56 18.09.2019
1723 Rain 22 1012 64 10000 2.1 210 16:38 18.09.2019
1724 Rain 22 1012 64 10000 2.1 210 16:19 18.09.2019
1725 Rain 22 1012 64 10000 4.1 220 15:55 18.09.2019
1726 Rain 22 1012 64 10000 4.1 220 15:55 18.09.2019
1727 Rain 22 1013 64 10000 3.1 210 15:37 18.09.2019
1728 Rain 22 1013 64 10000 3.1 210 15:19 18.09.2019
1729 Rain 22 1013 64 10000 3.1 210 14:57 18.09.2019
1730 Rain 22 1013 56 10000 3.6 220 14:39 18.09.2019
1731 Rain 22 1013 56 10000 3.6 220 14:21 18.09.2019
1732 Rain 22 1013 60 10000 3.1 190 13:43 18.09.2019
1733 Clouds 22 1013 60 10000 3.1 190 13:19 18.09.2019
1734 Clouds 22 1013 60 10000 3.1 190 13:19 18.09.2019
1735 Clouds 22 1014 64 10000 3.6 210 12:55 18.09.2019
1736 Clouds 22 1014 60 10000 4.1 220 12:37 18.09.2019
1737 Clouds 22 1014 56 10000 5.1 220 12:18 18.09.2019
1738 Clouds 22 1014 64 10000 4.6 210 11:39 18.09.2019
1739 Clouds 22 1014 64 10000 4.6 210 11:19 18.09.2019
1740 Clouds 22 1014 68 10000 4.6 220 10:41 18.09.2019
1741 Clouds 22 1014 68 10000 4.6 220 10:22 18.09.2019
1742 Clouds 22 1014 64 10000 4.6 220 09:58 18.09.2019
1743 Clouds 22 1014 64 10000 5.1 220 09:40 18.09.2019
1744 Clouds 22 1014 64 10000 5.1 220 09:40 18.09.2019
1745 Clouds 22 1014 64 10000 5.1 220 09:22 18.09.2019
1746 Clouds 22 1014 60 10000 4.6 220 08:46 18.09.2019
1747 Clouds 22 1013 64 10000 4.1 220 08:26 18.09.2019
1748 Clouds 22 1013 56 10000 4.1 220 07:59 18.09.2019
1749 Clouds 22 1013 60 10000 3.1 220 07:40 18.09.2019
1750 Clouds 22 1013 60 10000 3.1 220 07:40 18.09.2019
1751 Clouds 22 1013 60 10000 3.1 220 07:22 18.09.2019
1752 Clouds 22 1012 60 10000 4.6 220 06:40 18.09.2019
1753 Clouds 23 1012 60 10000 4.1 220 05:50 18.09.2019
1754 Clouds 24 1012 53 10000 5.7 220 04:57 18.09.2019
1755 Clouds 24 1012 60 10000 6.2 220 03:19 18.09.2019
1756 Clouds 25 1013 61 10000 5.7 230 02:29 18.09.2019
1757 Clear 24 1013 57 10000 5.1 230 01:21 18.09.2019
1758 Clear 25 1014 57 10000 4.1 220 00:49 18.09.2019
1759 Clear 24 1014 57 10000 4.6 230 00:21 18.09.2019
1760 Clear 24 1015 57 10000 4.6 220 23:45 17.09.2019
1761 Clear 24 1015 57 10000 4.6 220 23:22 17.09.2019
1762 Clear 24 1015 57 10000 3.1 210 22:43 17.09.2019
1763 Clear 24 1015 57 10000 3.1 210 22:24 17.09.2019
1764 Clear 24 1015 57 10000 3.6 210 21:55 17.09.2019
1765 Clear 23 1015 64 10000 2.6 200 21:37 17.09.2019
1766 Clouds 23 1015 64 10000 2.6 200 21:19 17.09.2019
1767 Clouds 23 1015 64 10000 2.6 200 20:58 17.09.2019
1768 Clouds 23 1015 64 10000 2.6 200 20:58 17.09.2019
1769 Clouds 23 1015 64 10000 2.6 210 20:40 17.09.2019
1770 Clouds 23 1015 64 10000 2.6 210 20:21 17.09.2019
1771 Clouds 22 1014 73 10000 2.6 210 19:58 17.09.2019
1772 Clouds 22 1014 73 10000 3.1 210 19:39 17.09.2019
1773 Clouds 22 1013 73 10000 3.6 210 19:19 17.09.2019
1774 Clouds 22 1013 73 10000 3.6 210 18:56 17.09.2019
1775 Clouds 22 1013 73 10000 4.1 220 18:38 17.09.2019
1776 Rain 22 1013 73 10000 4.1 220 18:19 17.09.2019
1777 Rain 22 1013 83 10000 3.1 210 17:45 17.09.2019
1778 Rain 22 1013 83 10000 3.1 210 17:20 17.09.2019
1779 Rain 22 1013 83 10000 3.1 210 17:20 17.09.2019
1780 Rain 21 1013 83 10000 3.1 220 16:57 17.09.2019
1781 Rain 21 1013 83 10000 3.6 210 16:37 17.09.2019
1782 Rain 21 1013 83 10000 3.6 210 16:19 17.09.2019
1783 Rain 20 1014 94 10000 3.6 210 15:39 17.09.2019
1784 Rain 20 1014 94 10000 3.6 210 15:39 17.09.2019
1785 Rain 20 1014 94 10000 3.6 210 15:20 17.09.2019
1786 Rain 21 1014 94 10000 4.1 220 14:56 17.09.2019
1787 Rain 21 1014 94 10000 4.1 220 14:56 17.09.2019
1788 Rain 21 1014 94 10000 4.1 210 14:38 17.09.2019
1789 Rain 21 1014 94 10000 4.1 210 14:19 17.09.2019
1790 Rain 21 1015 94 2800 3.6 210 13:44 17.09.2019
1791 Rain 21 1015 94 2800 3.6 210 13:25 17.09.2019
1792 Rain 21 1015 94 3100 4.1 210 12:59 17.09.2019
1793 Rain 22 1015 94 4400 4.6 200 12:38 17.09.2019
1794 Rain 22 1015 94 4400 4.6 200 12:38 17.09.2019
1795 Rain 22 1015 94 4400 4.6 200 12:19 17.09.2019
1796 Clouds 25 1015 78 10000 5.1 290 11:43 17.09.2019
1797 Clouds 25 1015 78 10000 5.1 290 11:25 17.09.2019
1798 Clouds 25 1015 78 10000 5.1 300 10:56 17.09.2019
1799 Clouds 25 1015 78 10000 4.6 310 10:37 17.09.2019
1800 Clouds 25 1015 78 10000 4.6 310 10:19 17.09.2019
1801 Clouds 24 1015 83 10000 3.6 320 09:41 17.09.2019
1802 Clear 24 1015 83 10000 3.6 320 09:23 17.09.2019
1803 Clear 25 1015 73 10000 4.1 320 08:51 17.09.2019
1804 Clear 25 1015 73 10000 4.1 320 08:51 17.09.2019
1805 Clouds 25 1014 73 10000 3.6 330 08:33 17.09.2019
1806 Clouds 25 1014 73 10000 3.6 330 07:59 17.09.2019
1807 Clouds 25 1014 73 10000 3.6 320 07:39 17.09.2019
1808 Clouds 25 1014 73 10000 3.6 320 07:21 17.09.2019
1809 Clouds 25 1014 73 10000 3.6 320 06:47 17.09.2019
1810 Clear 25 1014 73 10000 3.6 320 06:23 17.09.2019
1811 Clear 26 1013 74 10000 3.1 360 05:47 17.09.2019
1812 Clear 26 1013 74 10000 4.6 40 04:29 17.09.2019
1813 Clouds 25 1014 78 10000 4.1 30 02:57 17.09.2019
1814 Clouds 26 1014 74 10000 4.1 40 02:38 17.09.2019
1815 Clouds 26 1014 74 10000 4.1 40 02:38 17.09.2019
1816 Clouds 26 1015 69 10000 3.6 10 01:24 17.09.2019
1817 Clouds 26 1016 65 10000 3.1 360 00:40 17.09.2019
1818 Clouds 26 1017 69 10000 2.1 340 23:39 16.09.2019
1819 Clouds 26 1017 69 10000 2.1 340 23:19 16.09.2019
1820 Clouds 26 1017 69 10000 2.1 340 23:19 16.09.2019
1821 Clouds 25 1017 69 10000 3.1 350 22:43 16.09.2019
1822 Clouds 25 1017 69 10000 3.1 350 22:25 16.09.2019
1823 Clouds 25 1017 69 10000 2.6 360 21:59 16.09.2019
1824 Clouds 25 1017 73 10000 2.1 20 21:40 16.09.2019
1825 Clouds 25 1017 73 10000 2.1 20 21:22 16.09.2019
1826 Clouds 25 1017 73 10000 2.6 50 20:59 16.09.2019
1827 Clouds 24 1017 78 10000 3.1 50 20:40 16.09.2019
1828 Clouds 24 1017 78 10000 3.1 50 20:19 16.09.2019
1829 Clouds 23 1016 78 10000 3.1 40 19:56 16.09.2019
1830 Clouds 23 1016 78 10000 3.6 50 19:38 16.09.2019
1831 Clouds 23 1015 78 10000 5.1 60 19:18 16.09.2019
1832 Clouds 23 1015 78 10000 5.1 50 18:44 16.09.2019
1833 Clouds 23 1015 78 10000 5.1 50 18:25 16.09.2019
1834 Clouds 23 1015 78 10000 5.1 60 17:55 16.09.2019
1835 Clouds 23 1015 73 10000 5.1 60 17:37 16.09.2019
1836 Clouds 23 1015 73 10000 5.1 60 17:19 16.09.2019
1837 Clouds 21 1016 83 10000 3.1 80 16:43 16.09.2019
1838 Clouds 21 1016 83 10000 3.1 80 16:21 16.09.2019
1839 Clouds 21 1016 77 10000 2.6 80 15:57 16.09.2019
1840 Clouds 22 1017 73 10000 4.6 60 15:38 16.09.2019
1841 Clear 22 1017 73 10000 4.6 60 15:20 16.09.2019
1842 Clear 22 1017 73 10000 4.6 60 15:20 16.09.2019
1843 Clear 23 1017 69 10000 4.1 60 14:58 16.09.2019
1844 Clear 22 1017 73 10000 4.6 70 14:39 16.09.2019
1845 Clear 22 1017 73 10000 4.6 70 14:20 16.09.2019
1846 Clear 22 1018 73 10000 5.7 70 13:41 16.09.2019
1847 Clear 22 1018 73 10000 5.7 70 13:22 16.09.2019
1848 Clear 22 1018 73 10000 5.7 70 12:54 16.09.2019
1849 Clear 22 1018 73 10000 5.7 70 12:54 16.09.2019
1850 Clear 22 1018 73 10000 5.7 70 12:54 16.09.2019
1851 Clear 22 1018 73 10000 5.7 70 12:54 16.09.2019
1852 Clear 22 1018 73 10000 4.6 70 12:36 16.09.2019
1853 Clear 22 1018 73 10000 4.6 70 12:18 16.09.2019
1854 Clear 22 1018 73 10000 6.2 80 11:44 16.09.2019
1855 Clear 22 1018 73 10000 6.2 80 11:21 16.09.2019
1856 Clear 22 1018 68 10000 6.2 80 10:40 16.09.2019
1857 Clear 22 1018 68 10000 6.2 80 10:21 16.09.2019
1858 Clear 21 1018 73 10000 4.1 80 09:58 16.09.2019
1859 Clear 21 1018 73 10000 2.6 90 09:40 16.09.2019
1860 Clear 21 1018 73 10000 2.6 90 09:20 16.09.2019
1861 Clear 22 1018 64 10000 3.1 100 08:47 16.09.2019
1862 Clear 22 1018 68 10000 2.6 100 08:28 16.09.2019
1863 Clear 22 1018 64 10000 3.6 90 07:57 16.09.2019
1864 Clear 22 1017 68 10000 3.6 90 07:39 16.09.2019
1865 Clear 22 1017 68 10000 4.6 90 07:20 16.09.2019
1866 Clear 22 1017 68 10000 4.6 90 07:20 16.09.2019
1867 Clear 23 1017 60 10000 4.6 80 06:46 16.09.2019
1868 Clear 23 1017 60 10000 4.6 80 06:46 16.09.2019
1869 Clear 23 1017 60 10000 4.6 80 06:28 16.09.2019
1870 Clear 23 1017 56 10000 6.2 80 05:53 16.09.2019
1871 Clear 24 1016 57 10000 6.2 80 05:32 16.09.2019
1872 Clear 24 1017 57 10000 6.2 80 04:49 16.09.2019
1873 Clear 24 1018 60 10000 6.2 70 02:58 16.09.2019
1874 Clear 24 1019 57 10000 6.7 80 00:44 16.09.2019
1875 Clear 24 1019 57 10000 6.7 80 00:26 16.09.2019
1876 Clear 24 1019 57 10000 5.7 90 23:44 15.09.2019
1877 Clear 24 1019 57 10000 5.7 90 23:21 15.09.2019
1878 Clear 24 1019 57 10000 6.2 80 22:58 15.09.2019
1879 Clear 23 1020 56 10000 4.6 90 22:37 15.09.2019
1880 Clear 23 1020 56 10000 4.6 90 22:18 15.09.2019
1881 Clear 23 1019 60 10000 4.6 110 21:55 15.09.2019
1882 Clear 23 1019 60 10000 4.6 110 21:55 15.09.2019
1883 Clear 23 1019 60 10000 4.1 110 21:37 15.09.2019
1884 Clear 23 1019 60 10000 4.1 110 21:37 15.09.2019
1885 Clear 23 1019 60 10000 4.1 110 21:18 15.09.2019
1886 Clear 22 1019 64 10000 4.1 100 20:42 15.09.2019
1887 Clear 22 1019 64 10000 4.1 100 20:42 15.09.2019
1888 Clear 22 1019 64 10000 4.1 100 20:42 15.09.2019
1889 Clear 22 1019 64 10000 4.1 100 20:24 15.09.2019
1890 Clear 21 1019 68 10000 3.1 120 19:46 15.09.2019
1891 Clear 21 1018 68 10000 2.6 110 19:26 15.09.2019
1892 Clear 21 1018 68 10000 2.6 110 18:55 15.09.2019
1893 Clear 21 1018 68 10000 3.1 110 18:36 15.09.2019
1894 Clear 21 1018 68 10000 3.1 110 18:18 15.09.2019
1895 Clear 21 1018 73 10000 2.6 110 17:41 15.09.2019
1896 Clear 21 1018 73 10000 2.6 110 17:21 15.09.2019
1897 Clear 21 1018 73 10000 2.1 110 16:55 15.09.2019
1898 Clear 21 1018 73 10000 1.5 120 16:36 15.09.2019
1899 Clear 21 1018 73 10000 1.5 120 16:18 15.09.2019
1900 Clear 21 1018 73 10000 2.6 110 15:41 15.09.2019
1901 Clear 21 1018 73 10000 2.6 110 15:21 15.09.2019
1902 Clear 21 1018 73 10000 2.6 110 14:58 15.09.2019
1903 Clear 21 1019 73 10000 3.1 90 14:40 15.09.2019
1904 Clear 21 1019 73 10000 3.1 90 14:20 15.09.2019
1905 Clear 21 1019 73 10000 2.6 100 13:47 15.09.2019
1906 Clear 21 1019 73 10000 3.1 110 13:24 15.09.2019
1907 Clear 22 1019 68 10000 4.1 100 12:56 15.09.2019
1908 Clear 21 1019 73 10000 3.1 100 12:38 15.09.2019
1909 Clear 22 1020 68 10000 3.6 110 12:18 15.09.2019
1910 Clear 22 1020 68 10000 3.6 100 11:42 15.09.2019
1911 Clear 22 1020 68 10000 3.6 100 11:22 15.09.2019
1912 Clear 22 1020 68 10000 3.6 100 11:22 15.09.2019
1913 Clear 22 1019 73 10000 4.1 100 10:58 15.09.2019
1914 Clear 22 1020 73 10000 3.1 110 10:39 15.09.2019
1915 Clear 22 1020 73 10000 3.1 110 10:20 15.09.2019
1916 Clear 22 1019 73 10000 2.6 110 09:40 15.09.2019
1917 Rain 22 1019 73 10000 2.6 110 09:20 15.09.2019
1918 Rain 22 1020 68 10000 3.1 100 08:53 15.09.2019
1919 Rain 22 1019 73 10000 3.1 110 08:29 15.09.2019
1920 Rain 22 1019 73 10000 2.6 110 07:51 15.09.2019
1921 Rain 22 1019 73 10000 2.1 120 07:33 15.09.2019
1922 Rain 23 1019 69 10000 3.6 100 06:43 15.09.2019
1923 Rain 24 1018 64 10000 5.7 70 04:38 15.09.2019
1924 Rain 24 1018 57 10000 5.1 80 02:55 15.09.2019
1925 Rain 25 1019 57 10000 3.6 90 01:49 15.09.2019
1926 Rain 24 1019 57 10000 6.2 80 01:28 15.09.2019
1927 Rain 25 1019 57 10000 6.7 60 00:50 15.09.2019
1928 Clouds 25 1020 57 10000 6.2 60 00:24 15.09.2019
1929 Clouds 24 1020 57 10000 4.1 70 23:59 14.09.2019
1930 Clouds 24 1020 57 10000 4.6 60 23:41 14.09.2019
1931 Clouds 24 1020 57 10000 4.6 60 23:22 14.09.2019
1932 Clouds 24 1021 57 10000 1.5 140 22:59 14.09.2019
1933 Clouds 24 1021 57 10000 3.1 140 22:40 14.09.2019
1934 Clouds 24 1021 57 10000 3.1 140 22:21 14.09.2019
1935 Clouds 24 1021 57 10000 2.6 130 21:57 14.09.2019
1936 Clouds 23 1020 60 10000 4.1 90 21:39 14.09.2019
1937 Clouds 23 1020 60 10000 4.1 90 21:19 14.09.2019
1938 Clouds 23 1021 60 10000 2.1 110 20:54 14.09.2019
1939 Clouds 23 1021 60 10000 2.1 110 20:54 14.09.2019
1940 Clouds 23 1021 60 10000 2.1 110 20:54 14.09.2019
1941 Clouds 22 1020 64 10000 2.1 100 20:36 14.09.2019
1942 Clouds 22 1020 64 10000 2.1 100 20:18 14.09.2019
1943 Clouds 21 1020 68 10000 1.5 120 19:41 14.09.2019
1944 Clouds 21 1020 68 10000 1.5 120 19:20 14.09.2019
1945 Clouds 21 1018 73 10000 2.1 150 18:42 14.09.2019
1946 Clouds 21 1018 73 10000 2.1 150 18:22 14.09.2019
1947 Clouds 21 1018 73 10000 2.1 130 17:59 14.09.2019
1948 Clouds 21 1018 73 10000 2.6 140 17:39 14.09.2019
1949 Clouds 21 1018 73 10000 2.6 140 17:21 14.09.2019
1950 Clouds 21 1018 73 10000 2.6 140 17:21 14.09.2019
1951 Clouds 21 1018 73 10000 2.6 140 17:21 14.09.2019
1952 Clouds 21 1018 73 10000 2.6 140 17:21 14.09.2019
1953 Clouds 21 1018 73 10000 2.1 150 16:44 14.09.2019
1954 Clouds 21 1018 73 10000 2.1 120 16:22 14.09.2019
1955 Clouds 21 1018 73 10000 2.1 120 15:56 14.09.2019
1956 Clouds 21 1018 73 10000 2.1 120 15:56 14.09.2019
1957 Clouds 21 1018 73 10000 1.5 130 15:37 14.09.2019
1958 Clouds 21 1018 73 10000 1.5 130 15:18 14.09.2019
1959 Clouds 22 1019 73 10000 2.6 130 14:43 14.09.2019
1960 Clouds 22 1019 73 10000 2.6 130 14:19 14.09.2019
1961 Clouds 21 1019 77 10000 1.5 120 13:47 14.09.2019
1962 Clouds 21 1019 77 10000 1.5 120 13:22 14.09.2019
1963 Clouds 21 1019 77 10000 2.6 140 12:48 14.09.2019
1964 Clouds 21 1019 77 10000 1.5 130 12:26 14.09.2019
1965 Clouds 21 1019 77 10000 1.5 110 11:43 14.09.2019
1966 Clouds 21 1019 77 10000 1.5 110 11:21 14.09.2019
1967 Clouds 21 1019 77 10000 1.5 130 10:58 14.09.2019
1968 Clouds 21 1019 77 10000 1.5 130 10:58 14.09.2019
1969 Clouds 20 1019 82 10000 1 130 10:36 14.09.2019
1970 Clouds 20 1019 82 10000 1 130 10:18 14.09.2019
1971 Clouds 20 1019 82 10000 1 130 09:56 14.09.2019
1972 Clouds 20 1018 82 10000 0.5 130 09:37 14.09.2019
1973 Clouds 20 1018 82 10000 0.5 130 09:18 14.09.2019
1974 Clouds 21 1018 77 9000 1 140 08:41 14.09.2019
1975 Clouds 21 1018 77 9000 1 140 08:23 14.09.2019
1976 Clouds 22 1017 68 10000 1 140 07:44 14.09.2019
1977 Clouds 22 1017 68 10000 1 140 07:26 14.09.2019
1978 Clouds 23 1017 64 10000 2.1 120 06:38 14.09.2019
1979 Clouds 24 1017 60 10000 2.1 110 05:55 14.09.2019
1980 Clouds 25 1016 57 10000 3.1 170 04:43 14.09.2019
1981 Clouds 24 1016 60 10000 2.6 160 03:32 14.09.2019
1982 Clouds 24 1016 60 10000 2.6 160 02:51 14.09.2019
1983 Clouds 24 1017 64 10000 2.6 160 01:45 14.09.2019
1984 Clouds 25 1017 61 10000 4.1 130 01:20 14.09.2019
1985 Clouds 25 1017 61 10000 2.1 150 00:40 14.09.2019
1986 Clear 25 1017 61 10000 2.1 150 00:22 14.09.2019
1987 Clear 24 1018 64 10000 2.1 140 23:56 13.09.2019
1988 Clear 25 1018 65 10000 1.5 150 23:37 13.09.2019
1989 Clear 25 1018 65 10000 1.5 150 23:18 13.09.2019
1990 Clear 24 1018 64 10000 2.6 110 22:55 13.09.2019
1991 Clear 25 1018 65 10000 2.6 110 22:36 13.09.2019
1992 Clear 25 1018 65 10000 2.6 110 22:18 13.09.2019
1993 Clear 24 1019 69 10000 2.6 120 21:39 13.09.2019
1994 Clouds 24 1019 69 10000 2.6 120 21:19 13.09.2019
1995 Clouds 24 1018 69 10000 2.1 150 20:58 13.09.2019
1996 Clouds 23 1018 73 10000 2.1 170 20:37 13.09.2019
1997 Clouds 23 1018 73 10000 2.1 170 20:19 13.09.2019
1998 Clouds 23 1018 73 10000 1.5 160 19:54 13.09.2019
1999 Clouds 22 1017 78 10000 1.5 150 19:36 13.09.2019
2000 Clouds 21 1017 83 10000 1.5 150 19:18 13.09.2019
2001 Clouds 22 1016 78 10000 2.1 140 18:38 13.09.2019
2002 Clouds 22 1016 78 10000 2.1 140 18:19 13.09.2019
2003 Clouds 22 1016 78 10000 2.1 140 18:19 13.09.2019
2004 Clouds 22 1016 78 10000 2.1 140 18:19 13.09.2019
2005 Clouds 21 1015 83 10000 1 140 17:44 13.09.2019
2006 Clouds 21 1015 83 10000 1 140 17:22 13.09.2019
2007 Clouds 21 1015 88 10000 1.5 160 16:59 13.09.2019
2008 Clouds 21 1015 88 10000 1.5 160 16:59 13.09.2019
2009 Clouds 22 1015 83 10000 1.5 150 16:40 13.09.2019
2010 Clouds 22 1015 83 10000 1.5 150 16:19 13.09.2019
2011 Clouds 20 1016 94 10000 0.5 70 15:42 13.09.2019
2012 Clouds 20 1016 94 10000 0.5 70 15:23 13.09.2019
2013 Clouds 21 1016 88 10000 0.5 40 14:55 13.09.2019
2014 Clouds 21 1016 88 10000 1 100 14:37 13.09.2019
2015 Clouds 21 1016 88 10000 1 100 14:18 13.09.2019
2016 Clouds 21 1017 88 10000 1 160 13:41 13.09.2019
2017 Clouds 21 1017 88 10000 1 160 13:22 13.09.2019
2018 Clouds 22 1016 83 10000 0.5 150 12:45 13.09.2019
2019 Clouds 22 1016 83 10000 0.5 150 12:25 13.09.2019
2020 Clouds 23 1016 78 10000 2.1 90 11:57 13.09.2019
2021 Clouds 23 1016 83 10000 1 80 11:20 13.09.2019
2022 Clouds 23 1016 83 10000 1 110 10:54 13.09.2019
2023 Clouds 24 1016 78 10000 1.5 130 10:36 13.09.2019
2024 Clouds 24 1016 78 10000 1.5 130 10:18 13.09.2019
2025 Clouds 24 1016 78 10000 1 70 09:42 13.09.2019
2026 Clouds 24 1016 78 10000 1 70 09:19 13.09.2019
2027 Clouds 24 1016 78 10000 0.5 240 08:42 13.09.2019
2028 Clouds 24 1016 78 10000 0.5 240 08:21 13.09.2019
2029 Clouds 24 1016 78 10000 0.5 240 08:21 13.09.2019
2030 Clouds 24 1016 78 10000 0.5 240 08:21 13.09.2019
2031 Clouds 24 1015 78 10000 0.5 70 07:59 13.09.2019
2032 Clouds 24 1015 78 10000 1 120 07:40 13.09.2019
2033 Rain 24 1015 78 10000 1 250 06:55 13.09.2019
2034 Drizzle 25 1014 73 10000 1 210 06:37 13.09.2019
2035 Clouds 25 1014 73 10000 2.6 180 05:32 13.09.2019
2036 Clouds 26 1014 69 10000 3.1 170 03:48 13.09.2019
2037 Clouds 26 1014 74 10000 4.1 210 03:24 13.09.2019
2038 Clouds 26 1014 74 10000 3.6 210 02:19 13.09.2019
2039 Clouds 27 1014 65 10000 3.6 240 01:35 13.09.2019
2040 Clouds 26 1015 74 10000 3.6 270 00:59 13.09.2019
2041 Clouds 26 1015 74 10000 2.1 320 00:34 13.09.2019
2042 Clouds 26 1015 74 10000 2.1 350 23:47 12.09.2019
2043 Clouds 26 1015 74 10000 2.1 350 23:23 12.09.2019
2044 Clouds 26 1015 74 10000 2.6 20 22:56 12.09.2019
2045 Clouds 26 1016 78 10000 1 330 22:38 12.09.2019
2046 Clouds 26 1016 78 10000 1 330 22:18 12.09.2019
2047 Clouds 26 1016 78 10000 1 210 21:54 12.09.2019
2048 Clouds 24 1016 83 10000 2.1 190 21:36 12.09.2019
2049 Rain 24 1016 83 10000 2.1 190 21:18 12.09.2019
2050 Rain 24 1015 88 10000 1.5 180 20:41 12.09.2019
2051 Rain 24 1015 88 10000 1.5 180 20:21 12.09.2019
2052 Rain 23 1015 94 10000 1 190 19:57 12.09.2019
2053 Rain 22 1014 94 10000 1 180 19:37 12.09.2019
2054 Rain 22 1014 94 10000 1 180 19:19 12.09.2019
2055 Rain 22 1014 94 10000 1 180 19:19 12.09.2019
2056 Rain 22 1014 94 10000 0.5 200 18:38 12.09.2019
2057 Rain 22 1014 94 10000 0.5 200 18:20 12.09.2019
2058 Rain 23 1014 88 10000 1 190 17:59 12.09.2019
2059 Rain 23 1014 88 10000 1 150 17:39 12.09.2019
2060 Rain 23 1014 88 10000 1 150 17:19 12.09.2019
2061 Rain 23 1014 94 10000 2.1 200 16:42 12.09.2019
2062 Rain 23 1014 94 10000 2.1 200 16:22 12.09.2019
2063 Rain 24 1014 88 10000 1.5 210 15:58 12.09.2019
2064 Rain 23 1014 94 10000 1.5 210 15:38 12.09.2019
2065 Rain 23 1014 94 10000 1.5 210 15:20 12.09.2019
2066 Rain 23 1014 94 10000 2.1 210 14:44 12.09.2019
2067 Rain 23 1014 94 10000 2.1 210 14:21 12.09.2019
2068 Rain 23 1015 94 10000 1.5 220 13:40 12.09.2019
2069 Rain 23 1015 94 10000 1.5 220 13:22 12.09.2019
2070 Rain 24 1015 88 10000 1.5 200 12:49 12.09.2019
2071 Rain 24 1015 88 10000 1.5 200 12:20 12.09.2019
2072 Rain 24 1015 88 10000 1.5 210 12:00 12.09.2019
2073 Rain 24 1015 94 10000 1.5 210 11:41 12.09.2019
2074 Rain 24 1015 94 10000 1.5 210 11:21 12.09.2019
2075 Rain 24 1015 88 10000 2.6 220 10:56 12.09.2019
2076 Rain 24 1015 94 10000 1.5 210 10:37 12.09.2019
2077 Rain 24 1015 94 10000 1.5 210 10:37 12.09.2019
2078 Rain 24 1015 94 10000 1.5 210 10:18 12.09.2019
2079 Rain 24 1015 94 10000 1.5 210 09:43 12.09.2019
2080 Rain 24 1015 94 10000 1.5 210 09:20 12.09.2019
2081 Rain 24 1015 94 5000 1.5 220 08:45 12.09.2019
2082 Rain 24 1015 88 10000 0.5 180 08:25 12.09.2019
2083 Haze 25 1014 83 3200 1 200 07:56 12.09.2019
2084 Rain 25 1014 88 10000 1 220 07:36 12.09.2019
2085 Haze 25 1014 83 5000 1.5 250 07:18 12.09.2019
2086 Rain 25 1014 83 10000 2.6 260 06:46 12.09.2019
2087 Rain 25 1014 83 10000 2.6 260 06:18 12.09.2019
2088 Rain 26 1013 78 10000 3.1 270 05:42 12.09.2019
2089 Rain 26 1013 78 10000 3.1 270 05:19 12.09.2019
2090 Rain 26 1013 83 10000 2.6 300 03:46 12.09.2019
2091 Rain 26 1014 83 10000 1.5 10 01:43 12.09.2019
2092 Rain 26 1014 83 10000 1.5 10 01:24 12.09.2019
2093 Rain 26 1015 83 10000 1.5 40 00:48 12.09.2019
2094 Rain 25 1015 83 10000 2.1 30 00:29 12.09.2019
2095 Clear 25 1016 88 10000 2.6 60 23:44 11.09.2019
2096 Clear 25 1016 88 10000 2.6 60 23:25 11.09.2019
2097 Clear 25 1016 88 10000 2.1 60 22:58 11.09.2019
2098 Rain 24 1016 94 2000 1.5 270 22:38 11.09.2019
2099 Rain 24 1016 94 2000 1.5 270 22:20 11.09.2019
2100 Clear 25 1016 88 10000 0.5 30 21:57 11.09.2019
2101 Clear 25 1016 88 10000 1.5 50 21:39 11.09.2019
2102 Rain 25 1016 88 10000 1.5 50 21:20 11.09.2019
2103 Rain 24 1015 94 10000 2.1 110 20:54 11.09.2019
2104 Rain 24 1015 94 10000 2.1 110 20:36 11.09.2019
2105 Rain 24 1015 94 10000 2.1 110 20:18 11.09.2019
2106 Rain 23 1015 94 10000 1.5 100 19:55 11.09.2019
2107 Rain 23 1015 94 10000 1.5 100 19:37 11.09.2019
2108 Rain 23 1015 94 10000 1 110 19:18 11.09.2019
2109 Rain 23 1014 94 10000 1.5 90 18:42 11.09.2019
2110 Clear 23 1014 94 10000 1.5 90 18:22 11.09.2019
2111 Clear 23 1014 94 10000 2.1 100 17:58 11.09.2019
2112 Clear 23 1014 94 10000 2.1 100 17:58 11.09.2019
2113 Clear 23 1014 94 10000 2.1 80 17:39 11.09.2019
2114 Clear 23 1014 94 10000 2.1 80 17:20 11.09.2019
2115 Clear 23 1014 94 10000 2.1 90 16:54 11.09.2019
2116 Clear 23 1014 94 10000 2.1 90 16:54 11.09.2019
2117 Clear 23 1014 94 10000 2.6 70 16:36 11.09.2019
2118 Clear 23 1014 94 10000 2.6 70 16:18 11.09.2019
2119 Clear 24 1015 88 10000 2.6 80 15:43 11.09.2019
2120 Clouds 24 1015 88 10000 2.6 80 15:20 11.09.2019
2121 Clouds 23 1015 94 10000 2.6 70 14:57 11.09.2019
2122 Clouds 24 1015 88 10000 2.6 100 14:37 11.09.2019
2123 Clouds 24 1015 88 10000 2.6 100 14:18 11.09.2019
2124 Clouds 23 1016 88 10000 3.1 80 13:39 11.09.2019
2125 Clear 23 1016 88 10000 3.1 80 13:21 11.09.2019
2126 Clear 23 1016 88 10000 3.1 90 12:59 11.09.2019
2127 Clear 23 1016 88 10000 3.1 90 12:38 11.09.2019
2128 Clouds 23 1016 88 10000 3.1 90 12:20 11.09.2019
2129 Clouds 24 1017 83 10000 2.6 90 11:40 11.09.2019
2130 Clouds 24 1017 83 10000 2.6 90 11:21 11.09.2019
2131 Clouds 23 1017 88 10000 2.6 90 10:57 11.09.2019
2132 Clouds 23 1016 88 10000 3.6 90 10:38 11.09.2019
2133 Clouds 23 1016 88 10000 3.6 90 10:19 11.09.2019
2134 Clouds 23 1017 88 10000 3.1 80 09:39 11.09.2019
2135 Clouds 23 1017 88 10000 3.1 80 09:20 11.09.2019
2136 Clouds 23 1016 88 10000 3.6 90 08:55 11.09.2019
2137 Clouds 23 1016 88 10000 3.6 90 08:55 11.09.2019
2138 Clouds 23 1016 88 10000 2.6 90 08:37 11.09.2019
2139 Clouds 23 1016 88 10000 2.6 90 08:19 11.09.2019
2140 Clouds 24 1015 83 10000 5.7 80 07:40 11.09.2019
2141 Clouds 24 1015 83 10000 5.7 80 07:21 11.09.2019
2142 Clouds 24 1015 83 10000 6.2 70 06:46 11.09.2019
2143 Rain 24 1015 83 10000 6.2 70 06:24 11.09.2019
2144 Rain 25 1015 78 10000 5.7 70 05:36 11.09.2019
2145 Rain 25 1015 78 10000 5.7 70 05:18 11.09.2019
2146 Rain 25 1014 78 10000 5.7 60 04:22 11.09.2019
2147 Rain 25 1015 78 10000 6.2 60 03:29 11.09.2019
2148 Rain 26 1015 74 10000 5.7 60 02:37 11.09.2019
2149 Clouds 26 1016 74 10000 5.7 60 01:33 11.09.2019
2150 Clouds 26 1016 74 10000 6.2 70 00:40 11.09.2019
2151 Rain 26 1016 74 10000 6.2 70 00:20 11.09.2019
2152 Rain 26 1016 74 10000 6.2 70 00:20 11.09.2019
2153 Rain 26 1017 74 10000 6.7 70 23:40 10.09.2019
2154 Rain 26 1017 74 10000 6.7 70 23:22 10.09.2019
2155 Rain 26 1017 74 10000 6.2 60 22:57 10.09.2019
2156 Rain 25 1017 78 10000 6.2 60 22:37 10.09.2019
2157 Rain 25 1017 78 10000 6.2 60 22:18 10.09.2019
2158 Rain 25 1017 78 10000 6.7 70 21:54 10.09.2019
2159 Rain 25 1017 78 10000 5.1 60 21:36 10.09.2019
2160 Rain 25 1017 78 10000 5.1 60 21:18 10.09.2019
2161 Rain 25 1017 78 10000 3.6 90 20:55 10.09.2019
2162 Rain 23 1017 88 10000 3.6 90 20:37 10.09.2019
2163 Rain 23 1017 88 10000 3.6 90 20:18 10.09.2019
2164 Rain 22 1017 88 10000 3.1 80 19:55 10.09.2019
2165 Rain 22 1016 88 10000 3.1 80 19:36 10.09.2019
2166 Rain 22 1016 88 10000 2.6 100 19:18 10.09.2019
2167 Rain 22 1016 88 10000 2.6 100 19:18 10.09.2019
2168 Rain 23 1016 83 10000 3.1 90 18:42 10.09.2019
2169 Rain 23 1016 83 10000 3.1 90 18:22 10.09.2019
2170 Rain 23 1016 83 10000 3.6 90 17:56 10.09.2019
2171 Rain 23 1015 83 10000 3.6 90 17:38 10.09.2019
2172 Rain 23 1015 83 10000 3.6 90 17:19 10.09.2019
2173 Rain 23 1015 83 10000 3.6 90 16:56 10.09.2019
2174 Rain 23 1015 83 10000 4.6 80 16:37 10.09.2019
2175 Rain 23 1015 83 10000 4.6 80 16:19 10.09.2019
2176 Rain 23 1016 83 10000 4.1 90 15:43 10.09.2019
2177 Clouds 23 1016 83 10000 4.1 90 15:22 10.09.2019
2178 Clouds 23 1016 83 10000 4.1 90 15:22 10.09.2019
2179 Clouds 23 1016 83 10000 4.1 90 15:22 10.09.2019
2180 Clouds 22 1016 88 10000 4.1 80 14:57 10.09.2019
2181 Clouds 23 1017 83 10000 3.1 90 14:38 10.09.2019
2182 Clouds 23 1017 83 10000 3.1 90 14:19 10.09.2019
2183 Clouds 23 1017 83 10000 3.1 90 14:19 10.09.2019
2184 Clouds 22 1017 88 10000 2.6 90 13:44 10.09.2019
2185 Clouds 22 1017 88 10000 2.6 90 13:22 10.09.2019
2186 Clouds 22 1018 88 10000 2.1 100 12:51 10.09.2019
2187 Clouds 23 1018 83 10000 2.6 90 12:28 10.09.2019
2188 Clouds 23 1017 83 10000 4.6 80 11:58 10.09.2019
2189 Clouds 23 1017 83 10000 3.6 90 11:40 10.09.2019
2190 Clouds 23 1017 83 10000 3.6 90 11:21 10.09.2019
2191 Clouds 23 1017 83 10000 3.6 90 10:42 10.09.2019
2192 Clouds 23 1017 83 10000 3.6 90 10:21 10.09.2019
2193 Clouds 23 1017 78 10000 3.6 90 09:58 10.09.2019
2194 Clouds 23 1017 78 10000 3.6 90 09:40 10.09.2019
2195 Clouds 23 1017 78 10000 3.6 90 09:19 10.09.2019
2196 Clouds 23 1016 78 10000 3.6 100 08:45 10.09.2019
2197 Clouds 23 1016 78 10000 3.6 100 08:27 10.09.2019
2198 Clouds 23 1015 78 10000 3.1 110 07:46 10.09.2019
2199 Clouds 23 1015 78 10000 3.1 110 07:46 10.09.2019
2200 Clouds 23 1015 78 10000 3.1 110 07:27 10.09.2019
2201 Clouds 23 1015 78 10000 3.6 100 06:56 10.09.2019
2202 Clouds 24 1015 73 10000 3.1 100 06:36 10.09.2019
2203 Clouds 24 1015 73 10000 4.1 90 05:48 10.09.2019
2204 Clouds 25 1014 69 10000 5.7 90 03:57 10.09.2019
2205 Clouds 25 1014 69 10000 5.7 90 03:57 10.09.2019
2206 Clouds 25 1015 65 10000 3.1 120 02:24 10.09.2019
2207 Clouds 25 1016 69 10000 4.1 120 01:58 10.09.2019
2208 Clouds 25 1016 69 10000 4.1 120 01:58 10.09.2019
2209 Clouds 25 1016 69 10000 4.1 120 01:58 10.09.2019
2210 Clouds 25 1016 65 10000 3.6 110 01:40 10.09.2019
2211 Clouds 25 1017 65 10000 4.1 110 01:20 10.09.2019
2212 Clouds 24 1017 69 10000 4.1 110 00:25 10.09.2019
2213 Clouds 24 1017 69 10000 4.1 110 23:48 09.09.2019
2214 Clouds 24 1017 69 10000 4.1 110 23:20 09.09.2019
2215 Clouds 24 1018 69 10000 5.1 100 22:57 09.09.2019
2216 Clouds 23 1017 69 10000 5.1 90 22:39 09.09.2019
2217 Clouds 23 1017 69 10000 5.1 90 22:39 09.09.2019
2218 Clouds 23 1017 69 10000 5.1 90 22:20 09.09.2019
2219 Clouds 23 1017 73 10000 5.1 100 21:57 09.09.2019
2220 Clouds 23 1017 73 10000 4.6 100 21:39 09.09.2019
2221 Clouds 23 1017 73 10000 4.6 100 21:20 09.09.2019
2222 Clouds 23 1017 69 10000 4.6 100 20:56 09.09.2019
2223 Clouds 22 1017 73 10000 4.1 90 20:37 09.09.2019
2224 Clouds 21 1016 83 10000 2.6 100 20:19 09.09.2019
2225 Clouds 21 1016 83 10000 2.6 100 20:19 09.09.2019
2226 Clouds 21 1016 83 10000 2.6 100 19:58 09.09.2019
2227 Clouds 21 1016 83 10000 3.1 100 19:39 09.09.2019
2228 Clouds 21 1016 83 10000 3.6 90 19:19 09.09.2019
2229 Clouds 21 1016 83 10000 3.6 90 18:57 09.09.2019
2230 Clouds 21 1015 83 10000 4.1 80 18:39 09.09.2019
2231 Clouds 21 1015 83 10000 2.6 90 18:20 09.09.2019
2232 Clouds 21 1015 83 10000 2.6 90 17:57 09.09.2019
2233 Clouds 21 1015 77 10000 2.1 90 17:39 09.09.2019
2234 Clouds 21 1015 77 10000 2.1 90 17:20 09.09.2019
2235 Clouds 21 1015 77 10000 2.6 100 16:55 09.09.2019
2236 Clouds 21 1015 77 10000 2.6 100 16:55 09.09.2019
2237 Clouds 21 1015 77 10000 2.6 100 16:37 09.09.2019
2238 Clouds 21 1015 77 10000 3.1 100 16:18 09.09.2019
2239 Clouds 21 1015 73 10000 3.1 100 15:44 09.09.2019
2240 Clouds 21 1015 73 10000 3.1 100 15:24 09.09.2019
2241 Clouds 21 1015 77 10000 2.6 100 14:59 09.09.2019
2242 Clouds 21 1015 77 10000 3.6 100 14:40 09.09.2019
2243 Clouds 21 1015 77 10000 3.6 100 14:40 09.09.2019
2244 Clouds 21 1015 77 10000 3.6 100 14:22 09.09.2019
2245 Clouds 22 1016 68 10000 3.1 100 13:58 09.09.2019
2246 Clouds 21 1016 77 10000 2.6 100 13:40 09.09.2019
2247 Clouds 21 1015 80 0 7.28 125.221 13:19 09.09.2019
2248 Clouds 21 1015 80 0 7.28 125.221 12:55 09.09.2019
2249 Clouds 21 1015 80 0 7.28 125.221 12:36 09.09.2019
2250 Clouds 22 1016 73 10000 3.1 100 12:18 09.09.2019
2251 Clouds 22 1016 73 10000 3.1 100 11:43 09.09.2019
2252 Clouds 22 1016 73 10000 3.1 100 11:20 09.09.2019
2253 Clouds 22 1016 73 10000 3.1 100 10:54 09.09.2019
2254 Clouds 22 1016 68 10000 1.5 120 10:36 09.09.2019
2255 Clouds 21 1016 73 10000 0.5 110 10:18 09.09.2019
2256 Clouds 21 1016 73 10000 0.5 30 09:46 09.09.2019
2257 Clouds 21 1016 73 10000 0.5 30 09:27 09.09.2019
2258 Clouds 21 1015 73 10000 1 150 08:56 09.09.2019
2259 Clouds 22 1015 68 10000 3.1 100 08:37 09.09.2019
2260 Clouds 22 1014 68 10000 3.1 100 08:18 09.09.2019
2261 Clouds 22 1014 68 10000 3.6 100 07:41 09.09.2019
2262 Clouds 22 1014 68 10000 2.1 140 07:20 09.09.2019
2263 Clouds 22 1014 68 10000 2.1 140 06:53 09.09.2019
2264 Clouds 22 1014 68 10000 2.1 140 06:53 09.09.2019
2265 Rain 23 1014 69 10000 3.1 110 06:27 09.09.2019
2266 Clouds 23 1013 64 10000 4.1 140 03:21 09.09.2019
2267 Clouds 23 1013 64 10000 6.2 140 02:41 09.09.2019
2268 Clouds 23 1014 69 10000 5.1 160 01:24 09.09.2019
2269 Clouds 23 1014 69 10000 5.1 160 01:24 09.09.2019
2270 Clouds 23 1014 73 10000 4.6 160 00:24 09.09.2019
2271 Clouds 22 1014 78 10000 3.6 160 23:55 08.09.2019
2272 Clouds 23 1015 73 10000 2.6 150 23:37 08.09.2019
2273 Clouds 23 1015 78 10000 2.1 140 23:19 08.09.2019
2274 Clouds 23 1014 78 10000 1.5 180 22:40 08.09.2019
2275 Clouds 23 1014 78 10000 1.5 180 22:22 08.09.2019
2276 Clouds 22 1014 83 10000 2.6 160 21:58 08.09.2019
2277 Clouds 22 1014 83 10000 2.6 170 21:39 08.09.2019
2278 Clouds 22 1014 83 10000 2.6 170 21:39 08.09.2019
2279 Clouds 22 1014 83 10000 2.6 170 21:21 08.09.2019
2280 Clouds 22 1014 83 10000 2.1 360 20:42 08.09.2019
2281 Clouds 22 1014 83 10000 2.1 360 20:22 08.09.2019
2282 Clouds 22 1013 83 10000 3.1 340 19:59 08.09.2019
2283 Clouds 21 1013 88 10000 1.5 320 19:39 08.09.2019
2284 Clouds 22 1012 78 10000 3.1 150 19:21 08.09.2019
2285 Clouds 22 1012 78 10000 3.1 150 19:21 08.09.2019
2286 Clouds 22 1012 78 10000 3.1 150 18:58 08.09.2019
2287 Clouds 22 1012 78 10000 4.1 150 18:39 08.09.2019
2288 Clouds 22 1011 78 10000 5.1 150 18:19 08.09.2019
2289 Clouds 22 1011 78 10000 5.1 150 17:58 08.09.2019
2290 Clouds 22 1011 78 10000 3.6 150 17:37 08.09.2019
2291 Clouds 22 1011 83 10000 4.1 160 17:18 08.09.2019
2292 Clouds 22 1011 83 10000 4.1 160 16:54 08.09.2019
2293 Clouds 22 1011 78 10000 4.1 160 16:36 08.09.2019
2294 Clouds 21 1011 88 10000 3.1 170 16:18 08.09.2019
2295 Clouds 21 1011 88 10000 4.1 170 15:41 08.09.2019
2296 Clouds 21 1011 88 10000 4.1 170 15:41 08.09.2019
2297 Rain 21 1011 88 10000 4.1 170 15:22 08.09.2019
2298 Rain 21 1011 88 10000 4.1 170 15:22 08.09.2019
2299 Rain 21 1011 88 10000 3.6 170 14:58 08.09.2019
2300 Rain 21 1011 94 8000 5.1 190 14:39 08.09.2019
2301 Rain 21 1011 94 8000 5.1 190 14:20 08.09.2019
2302 Rain 22 1012 88 10000 4.1 180 13:57 08.09.2019
2303 Rain 22 1012 94 6000 4.1 200 13:38 08.09.2019
2304 Rain 22 1012 94 10000 3.6 190 13:19 08.09.2019
2305 Rain 22 1012 94 10000 4.1 180 12:43 08.09.2019
2306 Rain 22 1012 94 10000 4.1 180 12:24 08.09.2019
2307 Drizzle 22 1012 94 7000 4.1 190 11:59 08.09.2019
2308 Drizzle 22 1012 94 7000 4.1 190 11:40 08.09.2019
2309 Drizzle 22 1012 94 7000 4.1 190 11:20 08.09.2019
2310 Rain 22 1012 94 7000 2.6 200 10:58 08.09.2019
2311 Rain 22 1012 100 7000 2.1 200 10:40 08.09.2019
2312 Rain 22 1012 100 7000 2.1 200 10:21 08.09.2019
2313 Rain 22 1012 94 10000 2.6 210 09:39 08.09.2019
2314 Rain 22 1012 94 10000 2.1 180 09:21 08.09.2019
2315 Rain 22 1012 94 10000 2.1 180 08:57 08.09.2019
2316 Rain 22 1011 94 7000 3.1 190 08:38 08.09.2019
2317 Rain 22 1011 94 7000 3.1 190 08:38 08.09.2019
2318 Rain 23 1011 94 5000 3.1 230 08:18 08.09.2019
2319 Rain 23 1011 94 5000 3.1 230 08:18 08.09.2019
2320 Rain 23 1011 94 3200 3.1 330 07:39 08.09.2019
2321 Rain 25 1011 78 10000 4.6 340 07:20 08.09.2019
2322 Rain 25 1011 78 10000 4.6 340 06:53 08.09.2019
2323 Rain 25 1011 78 10000 4.1 350 06:31 08.09.2019
2324 Rain 25 1010 78 10000 3.6 10 05:37 08.09.2019
2325 Rain 25 1010 78 10000 4.6 20 03:54 08.09.2019
2326 Rain 26 1010 74 10000 4.6 20 02:57 08.09.2019
2327 Rain 25 1011 78 10000 4.1 10 02:26 08.09.2019
2328 Rain 26 1011 78 10000 4.6 40 01:45 08.09.2019
2329 Rain 25 1012 83 10000 4.6 40 01:19 08.09.2019
2330 Rain 25 1012 78 10000 3.6 30 00:44 08.09.2019
2331 Rain 25 1012 78 10000 3.6 30 00:26 08.09.2019
2332 Rain 25 1013 83 10000 4.1 30 23:38 07.09.2019
2333 Rain 25 1013 83 10000 4.1 30 23:20 07.09.2019
2334 Rain 23 1013 88 8000 4.6 10 22:57 07.09.2019
2335 Rain 24 1013 83 10000 4.6 20 22:38 07.09.2019
2336 Rain 24 1013 88 9000 5.1 40 22:19 07.09.2019
2337 Rain 24 1013 83 8000 5.7 50 21:42 07.09.2019
2338 Rain 24 1013 83 8000 5.7 50 21:23 07.09.2019
2339 Rain 24 1013 83 10000 4.1 30 20:54 07.09.2019
2340 Rain 24 1013 88 10000 4.6 50 20:36 07.09.2019
2341 Rain 24 1013 83 10000 4.1 40 20:18 07.09.2019
2342 Rain 24 1013 83 10000 4.1 40 19:54 07.09.2019
2343 Rain 24 1013 83 10000 4.1 50 19:36 07.09.2019
2344 Rain 24 1012 83 10000 4.6 50 19:18 07.09.2019
2345 Rain 24 1012 83 10000 4.6 50 18:41 07.09.2019
2346 Rain 24 1012 83 10000 4.6 50 18:41 07.09.2019
2347 Rain 24 1011 78 10000 4.6 50 18:22 07.09.2019
2348 Rain 24 1011 78 10000 4.6 50 17:59 07.09.2019
2349 Rain 24 1011 78 10000 4.6 50 17:41 07.09.2019
2350 Rain 24 1011 78 10000 4.1 50 17:19 07.09.2019
2351 Rain 24 1011 78 10000 4.1 50 16:59 07.09.2019
2352 Rain 24 1011 78 10000 4.1 50 16:59 07.09.2019
2353 Rain 24 1011 83 10000 5.1 50 16:40 07.09.2019
2354 Rain 24 1011 78 10000 5.7 40 16:19 07.09.2019
2355 Rain 24 1012 78 10000 6.2 50 15:47 07.09.2019
2356 Rain 24 1012 78 10000 6.2 50 15:26 07.09.2019
2357 Rain 24 1012 78 10000 5.7 50 14:57 07.09.2019
2358 Rain 24 1012 78 10000 6.7 50 14:37 07.09.2019
2359 Rain 24 1013 78 10000 6.7 50 14:19 07.09.2019
2360 Rain 24 1013 78 10000 6.7 50 13:56 07.09.2019
2361 Rain 24 1013 78 10000 6.7 50 13:56 07.09.2019
2362 Rain 24 1013 78 10000 6.7 50 13:38 07.09.2019
2363 Clouds 24 1014 78 10000 7.2 50 13:20 07.09.2019
2364 Clouds 24 1014 78 10000 6.7 50 12:44 07.09.2019
2365 Clouds 24 1014 78 10000 6.7 50 12:24 07.09.2019
2366 Clouds 24 1014 78 10000 7.2 60 11:42 07.09.2019
2367 Clouds 24 1014 78 10000 7.2 60 11:22 07.09.2019
2368 Clouds 24 1014 78 10000 7.7 60 10:59 07.09.2019
2369 Clouds 24 1014 78 10000 8.2 60 10:38 07.09.2019
2370 Clouds 24 1014 78 10000 7.7 50 10:19 07.09.2019
2371 Clouds 24 1014 78 10000 7.7 60 09:43 07.09.2019
2372 Rain 24 1014 78 10000 7.7 60 09:23 07.09.2019
2373 Rain 24 1014 78 10000 7.2 50 08:57 07.09.2019
2374 Rain 24 1014 78 10000 7.2 50 08:57 07.09.2019
2375 Clear 24 1014 78 10000 7.7 60 08:36 07.09.2019
2376 Clear 24 1014 73 10000 7.7 50 08:18 07.09.2019
2377 Clear 24 1013 78 10000 7.7 50 07:43 07.09.2019
2378 Clear 24 1013 78 10000 7.7 50 07:22 07.09.2019
2379 Clear 24 1013 73 10000 7.7 60 06:43 07.09.2019
2380 Rain 25 1013 73 10000 8.7 60 05:41 07.09.2019
2381 Rain 25 1013 73 10000 8.7 60 05:41 07.09.2019
2382 Rain 25 1013 69 10000 7.7 60 04:26 07.09.2019
2383 Rain 25 1013 69 10000 9.3 60 03:44 07.09.2019
2384 Rain 25 1014 73 10000 8.7 60 02:31 07.09.2019
2385 Rain 26 1015 65 10000 8.7 60 01:33 07.09.2019
2386 Rain 26 1015 65 10000 8.7 60 00:55 07.09.2019
2387 Rain 26 1015 61 10000 8.7 60 00:36 07.09.2019
2388 Clouds 25 1016 65 10000 9.3 60 00:18 07.09.2019
2389 Clouds 26 1016 61 10000 9.3 50 23:38 06.09.2019
2390 Clouds 25 1016 65 10000 10.3 60 23:19 06.09.2019
2391 Clouds 25 1016 65 10000 10.3 60 22:56 06.09.2019
2392 Clouds 25 1016 65 10000 9.8 60 22:37 06.09.2019
2393 Clouds 25 1016 69 10000 9.8 60 22:18 06.09.2019
2394 Clouds 25 1016 69 10000 9.8 60 22:18 06.09.2019
2395 Clouds 25 1016 69 10000 9.8 60 21:54 06.09.2019
2396 Clouds 24 1016 69 10000 9.8 60 21:36 06.09.2019
2397 Clouds 24 1016 69 10000 9.8 60 21:36 06.09.2019
2398 Clouds 24 1016 69 10000 9.3 60 21:18 06.09.2019
2399 Clouds 24 1015 69 10000 8.7 60 20:41 06.09.2019
2400 Clouds 24 1015 69 10000 8.7 60 20:22 06.09.2019
2401 Clouds 24 1015 73 10000 8.7 60 19:59 06.09.2019
2402 Clouds 24 1015 73 10000 9.3 60 19:41 06.09.2019
2403 Clouds 24 1015 73 10000 9.3 60 19:41 06.09.2019
2404 Clouds 24 1014 69 10000 10.3 60 19:21 06.09.2019
2405 Clouds 24 1014 69 10000 10.3 60 18:55 06.09.2019
2406 Clouds 23 1014 69 10000 10.8 60 18:37 06.09.2019
2407 Clouds 23 1014 69 10000 10.8 60 18:37 06.09.2019
2408 Clouds 23 1014 73 10000 10.3 60 18:18 06.09.2019
2409 Clouds 24 1014 64 10000 10.3 60 17:39 06.09.2019
2410 Clouds 24 1014 64 10000 10.3 60 17:20 06.09.2019
2411 Clouds 23 1013 73 10000 11.3 60 16:42 06.09.2019
2412 Clouds 23 1013 73 10000 11.8 60 16:20 06.09.2019
2413 Clouds 23 1013 73 10000 11.8 60 15:59 06.09.2019
2414 Clouds 23 1014 73 10000 11.8 60 15:40 06.09.2019
2415 Clouds 23 1014 73 10000 11.8 60 15:22 06.09.2019
2416 Clouds 23 1014 73 10000 11.8 60 14:41 06.09.2019
2417 Clouds 23 1014 73 10000 12.9 70 14:19 06.09.2019
2418 Clouds 23 1015 73 10000 12.3 60 13:44 06.09.2019
2419 Clouds 23 1015 73 10000 12.3 60 13:22 06.09.2019
2420 Rain 23 1015 73 10000 11.8 60 12:41 06.09.2019
2421 Rain 23 1015 73 10000 11.8 60 12:23 06.09.2019
2422 Rain 23 1015 73 10000 11.8 60 11:59 06.09.2019
2423 Rain 23 1016 78 10000 11.3 60 11:40 06.09.2019
2424 Rain 23 1016 78 10000 11.8 70 11:22 06.09.2019
2425 Rain 23 1016 78 10000 11.8 70 10:54 06.09.2019
2426 Rain 23 1016 78 10000 11.8 70 10:54 06.09.2019
2427 Rain 23 1017 78 10000 11.8 60 10:36 06.09.2019
2428 Rain 23 1017 78 10000 10.8 70 10:18 06.09.2019
2429 Rain 23 1017 78 10000 10.8 70 09:37 06.09.2019
2430 Rain 23 1017 78 10000 9.3 80 09:19 06.09.2019
2431 Rain 23 1017 78 10000 10.8 80 08:45 06.09.2019
2432 Rain 23 1017 78 10000 10.8 80 08:45 06.09.2019
2433 Rain 23 1017 78 10000 10.8 80 08:26 06.09.2019
2434 Rain 23 1016 78 10000 10.3 70 07:51 06.09.2019
2435 Rain 23 1016 78 10000 9.3 80 07:28 06.09.2019
2436 Rain 23 1016 73 10000 8.7 80 06:59 06.09.2019
2437 Rain 23 1016 73 10000 9.8 80 06:41 06.09.2019
2438 Clouds 24 1016 73 10000 8.7 80 05:46 06.09.2019
2439 Clouds 24 1015 73 10000 9.8 80 04:55 06.09.2019
2440 Rain 24 1015 73 10000 9.3 80 04:25 06.09.2019
2441 Clouds 25 1016 65 10000 10.8 70 02:44 06.09.2019
2442 Clouds 25 1016 65 10000 11.3 70 00:57 06.09.2019
2443 Clouds 24 1017 69 10000 11.3 70 00:20 06.09.2019
2444 Clouds 24 1017 69 10000 11.3 70 00:20 06.09.2019
2445 Clouds 24 1018 69 10000 11.3 70 23:41 05.09.2019
2446 Clouds 24 1018 69 10000 10.3 80 23:22 05.09.2019
2447 Clouds 24 1018 69 10000 8.7 80 22:45 05.09.2019
2448 Clouds 24 1018 69 10000 8.7 80 22:25 05.09.2019
2449 Clouds 24 1018 69 10000 9.8 80 21:57 05.09.2019
2450 Clouds 24 1018 69 10000 8.2 80 21:39 05.09.2019
2451 Clouds 24 1018 69 10000 8.2 80 21:39 05.09.2019
2452 Rain 23 1018 73 10000 8.2 80 21:20 05.09.2019
2453 Rain 23 1018 73 10000 8.2 80 20:58 05.09.2019
2454 Rain 23 1018 73 10000 7.7 80 20:38 05.09.2019
2455 Rain 23 1017 73 10000 8.2 80 20:20 05.09.2019
2456 Rain 23 1017 73 10000 8.2 80 19:57 05.09.2019
2457 Rain 23 1017 73 10000 7.7 80 19:38 05.09.2019
2458 Rain 23 1017 73 10000 6.7 90 19:19 05.09.2019
2459 Rain 23 1017 73 10000 6.2 90 18:41 05.09.2019
2460 Rain 23 1017 73 10000 6.7 80 18:22 05.09.2019
2461 Rain 23 1017 73 10000 6.7 80 17:57 05.09.2019
2462 Rain 23 1017 73 10000 5.7 90 17:39 05.09.2019
2463 Rain 23 1017 73 10000 5.7 90 17:20 05.09.2019
2464 Rain 23 1017 69 10000 6.2 80 16:42 05.09.2019
2465 Rain 23 1017 69 10000 6.2 80 16:21 05.09.2019
2466 Rain 22 1017 73 10000 6.2 80 15:58 05.09.2019
2467 Rain 23 1017 69 10000 6.2 80 15:39 05.09.2019
2468 Clouds 23 1017 64 10000 6.7 80 15:19 05.09.2019
2469 Clouds 23 1017 64 10000 6.7 80 14:55 05.09.2019
2470 Clouds 23 1017 64 10000 6.7 80 14:55 05.09.2019
2471 Clouds 23 1017 64 10000 6.2 90 14:37 05.09.2019
2472 Clouds 23 1018 64 10000 6.7 80 14:18 05.09.2019
2473 Clouds 22 1018 68 10000 6.7 80 13:41 05.09.2019
2474 Clouds 23 1017 64 10000 9.3 80 13:19 05.09.2019
2475 Clouds 23 1017 69 10000 9.3 80 12:42 05.09.2019
2476 Clouds 23 1017 69 10000 9.3 80 12:24 05.09.2019
2477 Clouds 23 1018 69 10000 7.7 80 11:56 05.09.2019
2478 Clouds 23 1018 69 10000 7.7 80 11:36 05.09.2019
2479 Clouds 23 1018 69 10000 7.2 80 11:18 05.09.2019
2480 Clouds 23 1018 69 10000 7.2 80 10:37 05.09.2019
2481 Clouds 23 1018 69 10000 7.2 80 10:19 05.09.2019
2482 Clouds 23 1018 69 10000 7.2 80 09:41 05.09.2019
2483 Rain 23 1018 69 10000 7.2 80 09:22 05.09.2019
2484 Rain 23 1018 69 10000 8.7 80 08:57 05.09.2019
2485 Rain 23 1017 69 10000 8.2 80 08:39 05.09.2019
2486 Rain 23 1017 69 10000 8.2 80 08:39 05.09.2019
2487 Rain 23 1017 69 10000 8.2 80 08:21 05.09.2019
2488 Rain 23 1017 64 10000 6.7 80 07:44 05.09.2019
2489 Rain 23 1017 69 10000 6.2 90 07:25 05.09.2019
2490 Rain 23 1016 64 10000 7.7 90 06:48 05.09.2019
2491 Rain 23 1016 64 10000 7.7 90 06:28 05.09.2019
2492 Clouds 24 1016 60 10000 7.2 80 05:47 05.09.2019
2493 Clouds 24 1016 60 10000 7.2 80 05:28 05.09.2019
2494 Clouds 25 1016 57 10000 8.2 80 04:41 05.09.2019
2495 Clouds 24 1016 60 10000 6.7 80 04:18 05.09.2019
2496 Clouds 25 1016 57 10000 9.3 80 02:59 05.09.2019
2497 Clouds 25 1016 57 10000 9.3 80 02:59 05.09.2019
2498 Clouds 25 1016 57 10000 8.2 80 02:38 05.09.2019
2499 Clouds 24 1016 60 10000 9.3 80 02:18 05.09.2019
2500 Rain 25 1017 61 10000 9.3 80 00:58 05.09.2019
2501 Rain 25 1017 61 10000 9.3 80 00:58 05.09.2019
2502 Rain 25 1018 57 10000 8.7 80 00:39 05.09.2019
2503 Clouds 25 1018 61 10000 8.7 80 00:19 05.09.2019
2504 Clouds 25 1018 57 10000 8.7 80 23:41 04.09.2019
2505 Clouds 25 1018 57 10000 8.7 80 23:41 04.09.2019
2506 Clouds 25 1018 57 10000 8.7 80 23:22 04.09.2019
2507 Clouds 24 1018 64 10000 8.7 90 22:49 04.09.2019
2508 Clouds 24 1018 64 10000 7.7 80 22:21 04.09.2019
2509 Clouds 24 1018 64 10000 7.7 80 21:57 04.09.2019
2510 Clouds 24 1018 64 10000 7.7 90 21:38 04.09.2019
2511 Rain 24 1018 64 10000 7.7 90 21:19 04.09.2019
2512 Rain 23 1017 64 10000 7.7 90 20:55 04.09.2019
2513 Rain 23 1017 64 10000 6.7 90 20:36 04.09.2019
2514 Rain 22 1017 68 10000 6.2 90 20:18 04.09.2019
2515 Rain 22 1016 73 10000 5.1 90 19:40 04.09.2019
2516 Rain 22 1016 68 10000 5.1 100 19:21 04.09.2019
2517 Rain 22 1017 68 10000 4.1 100 18:44 04.09.2019
2518 Rain 22 1017 68 10000 4.1 100 18:26 04.09.2019
2519 Rain 22 1017 68 10000 3.6 100 17:59 04.09.2019
2520 Rain 22 1017 68 10000 4.6 100 17:40 04.09.2019
2521 Rain 22 1017 68 10000 4.6 100 17:21 04.09.2019
2522 Rain 22 1017 68 10000 4.6 100 17:21 04.09.2019
2523 Rain 22 1017 68 10000 3.6 110 16:56 04.09.2019
2524 Rain 22 1017 60 10000 2.1 110 16:36 04.09.2019
2525 Rain 21 1017 64 10000 2.1 120 16:18 04.09.2019
2526 Rain 22 1017 56 10000 3.1 110 15:40 04.09.2019
2527 Clouds 22 1017 56 10000 3.1 110 15:21 04.09.2019
2528 Clouds 22 1017 60 10000 2.6 100 14:58 04.09.2019
2529 Clouds 22 1018 68 10000 3.1 110 14:38 04.09.2019
2530 Clouds 22 1018 68 10000 3.1 110 14:38 04.09.2019
2531 Clouds 22 1018 68 10000 2.6 120 14:20 04.09.2019
2532 Clouds 22 1018 68 10000 2.6 120 13:57 04.09.2019
2533 Rain 22 1018 68 10000 4.1 110 13:37 04.09.2019
2534 Rain 22 1019 68 10000 4.6 100 13:19 04.09.2019
2535 Rain 22 1019 68 10000 3.6 100 12:41 04.09.2019
2536 Rain 22 1019 68 10000 3.6 100 12:23 04.09.2019
2537 Rain 22 1019 68 10000 3.6 90 11:56 04.09.2019
2538 Rain 22 1019 64 10000 3.6 100 11:37 04.09.2019
2539 Rain 22 1019 64 10000 3.6 100 11:37 04.09.2019
2540 Rain 22 1019 68 10000 3.6 100 11:19 04.09.2019
2541 Rain 22 1019 64 10000 3.6 110 10:44 04.09.2019
2542 Rain 22 1019 64 10000 3.6 110 10:25 04.09.2019
2543 Rain 22 1019 60 10000 3.1 110 09:57 04.09.2019
2544 Rain 22 1019 60 10000 3.1 100 09:39 04.09.2019
2545 Rain 22 1018 60 10000 4.1 110 09:18 04.09.2019
2546 Rain 22 1018 60 10000 5.7 90 08:41 04.09.2019
2547 Rain 22 1018 60 10000 5.7 90 08:23 04.09.2019
2548 Rain 22 1018 64 10000 4.1 100 07:56 04.09.2019
2549 Rain 22 1017 64 10000 6.2 90 07:33 04.09.2019
2550 Rain 23 1017 60 10000 6.7 90 06:49 04.09.2019
2551 Rain 23 1017 60 10000 7.2 90 06:21 04.09.2019
2552 Rain 23 1017 64 10000 4.6 100 04:53 04.09.2019
2553 Rain 23 1016 64 10000 6.7 100 04:19 04.09.2019
2554 Clouds 24 1018 57 10000 6.2 100 01:49 04.09.2019
2555 Rain 24 1018 57 10000 5.7 100 00:55 04.09.2019
2556 Rain 24 1018 53 10000 7.7 80 00:34 04.09.2019
2557 Clouds 24 1019 57 10000 4.6 110 23:56 03.09.2019
2558 Clouds 23 1020 60 10000 5.7 100 23:38 03.09.2019
2559 Clouds 23 1020 56 10000 5.7 100 23:19 03.09.2019
2560 Clouds 23 1020 56 10000 6.2 100 22:40 03.09.2019
2561 Clouds 23 1020 56 10000 6.2 100 22:22 03.09.2019
2562 Clouds 23 1020 56 10000 5.7 100 21:56 03.09.2019
2563 Clouds 23 1020 56 10000 5.7 100 21:56 03.09.2019
2564 Clouds 23 1020 56 10000 5.7 100 21:56 03.09.2019
2565 Clouds 23 1020 56 10000 5.7 100 21:56 03.09.2019
2566 Clouds 23 1020 53 10000 4.6 100 21:37 03.09.2019
2567 Clouds 22 1020 60 10000 2.6 120 21:19 03.09.2019
2568 Clouds 21 1020 64 10000 3.6 120 20:42 03.09.2019
2569 Clouds 21 1020 64 10000 3.6 120 20:24 03.09.2019
2570 Clouds 21 1019 60 10000 3.6 120 19:56 03.09.2019
2571 Clouds 21 1019 60 10000 2.6 130 19:38 03.09.2019
2572 Clouds 21 1019 60 10000 2.6 130 19:38 03.09.2019
2573 Clouds 21 1019 60 10000 2.6 130 19:19 03.09.2019
2574 Clouds 21 1018 64 10000 3.1 120 18:47 03.09.2019
2575 Clouds 21 1018 64 10000 3.1 120 18:27 03.09.2019
2576 Clouds 21 1018 68 10000 2.6 120 17:59 03.09.2019
2577 Clouds 20 1018 72 10000 3.6 120 17:41 03.09.2019
2578 Clouds 20 1018 72 10000 3.6 120 17:20 03.09.2019
2579 Clouds 20 1018 72 10000 2.6 120 16:58 03.09.2019
2580 Rain 19 1018 88 10000 0.5 170 16:38 03.09.2019
2581 Rain 19 1018 82 8000 3.1 110 16:20 03.09.2019
2582 Rain 19 1018 82 8000 3.1 110 16:20 03.09.2019
2583 Drizzle 21 1018 64 10000 3.1 100 15:41 03.09.2019
2584 Clouds 21 1018 64 10000 2.6 120 15:21 03.09.2019
2585 Clouds 21 1018 64 10000 2.6 120 14:58 03.09.2019
2586 Clouds 21 1018 64 10000 3.1 110 14:40 03.09.2019
2587 Clouds 21 1018 64 10000 3.1 110 14:20 03.09.2019
2588 Clouds 21 1018 64 10000 3.1 140 13:57 03.09.2019
2589 Clouds 21 1018 64 10000 3.1 140 13:57 03.09.2019
2590 Clouds 21 1018 64 10000 4.6 130 13:37 03.09.2019
2591 Clouds 21 1019 64 10000 3.1 130 13:19 03.09.2019
2592 Clouds 21 1019 64 10000 3.1 130 13:19 03.09.2019
2593 Clouds 21 1019 64 10000 3.1 120 12:50 03.09.2019
2594 Clouds 21 1019 64 10000 3.1 120 12:31 03.09.2019
2595 Clouds 21 1019 60 10000 3.1 130 11:59 03.09.2019
2596 Clouds 21 1019 64 10000 2.1 120 11:39 03.09.2019
2597 Clouds 21 1019 64 10000 2.1 120 11:20 03.09.2019
2598 Clouds 21 1019 64 10000 3.1 130 10:55 03.09.2019
2599 Clouds 21 1019 64 10000 3.1 130 10:55 03.09.2019
2600 Clouds 21 1019 64 10000 2.6 120 10:37 03.09.2019
2601 Clouds 21 1019 64 10000 2.6 120 10:18 03.09.2019
2602 Clouds 20 1019 64 10000 2.1 130 09:42 03.09.2019
2603 Clouds 20 1019 64 10000 2.1 130 09:24 03.09.2019
2604 Clouds 20 1018 64 10000 2.1 120 08:41 03.09.2019
2605 Clouds 21 1018 60 10000 2.6 120 08:23 03.09.2019
2606 Clouds 21 1018 60 10000 2.6 120 07:58 03.09.2019
2607 Clouds 21 1018 60 10000 3.1 110 07:37 03.09.2019
2608 Clouds 21 1018 60 10000 3.1 110 07:37 03.09.2019
2609 Clouds 21 1017 60 10000 3.1 130 07:19 03.09.2019
2610 Clouds 22 1017 53 10000 3.6 120 06:43 03.09.2019
2611 Clouds 23 1017 53 10000 4.1 90 04:41 03.09.2019
2612 Clouds 23 1017 53 10000 6.2 90 03:33 03.09.2019
2613 Clouds 23 1017 56 10000 5.1 90 02:40 03.09.2019
2614 Clouds 23 1017 56 10000 5.1 90 02:22 03.09.2019
2615 Clouds 23 1018 53 10000 5.7 80 01:46 03.09.2019
2616 Clear 23 1018 53 10000 5.7 80 01:25 03.09.2019
2617 Clear 23 1018 53 10000 4.1 110 00:33 03.09.2019
2618 Clear 22 1019 53 10000 4.6 90 23:59 02.09.2019
2619 Clear 22 1019 53 10000 4.1 110 23:37 02.09.2019
2620 Clear 22 1019 53 10000 4.1 100 23:19 02.09.2019
2621 Clear 22 1019 53 10000 4.1 100 22:55 02.09.2019
2622 Clear 22 1019 53 10000 5.1 100 22:36 02.09.2019
2623 Clear 22 1019 53 10000 4.6 110 22:18 02.09.2019
2624 Clear 22 1019 53 10000 4.6 110 21:55 02.09.2019
2625 Clouds 22 1019 53 10000 2.6 120 21:37 02.09.2019
2626 Clouds 21 1018 56 10000 3.6 130 21:18 02.09.2019
2627 Clouds 21 1018 56 10000 3.1 110 20:41 02.09.2019
2628 Clouds 21 1018 56 10000 3.1 110 20:23 02.09.2019
2629 Clouds 21 1018 56 10000 3.1 110 20:23 02.09.2019
2630 Clouds 20 1018 60 10000 3.1 130 19:58 02.09.2019
2631 Clouds 20 1018 60 10000 3.1 120 19:40 02.09.2019
2632 Clouds 20 1017 60 10000 2.6 130 19:21 02.09.2019
2633 Clouds 20 1017 60 10000 2.6 120 18:42 02.09.2019
2634 Clouds 20 1017 60 10000 2.6 120 18:42 02.09.2019
2635 Clouds 20 1017 64 10000 2.1 110 18:23 02.09.2019
2636 Clouds 20 1017 64 10000 2.1 110 17:59 02.09.2019
2637 Clouds 20 1017 64 10000 2.6 150 17:40 02.09.2019
2638 Clouds 20 1017 64 10000 2.6 150 17:21 02.09.2019
2639 Clouds 20 1017 64 10000 2.6 130 16:59 02.09.2019
2640 Rain 20 1017 64 10000 2.1 140 16:38 02.09.2019
2641 Clouds 19 1017 63 10000 1 140 16:20 02.09.2019
2642 Clouds 20 1017 64 10000 2.1 110 15:45 02.09.2019
2643 Clouds 20 1017 64 10000 2.1 110 15:27 02.09.2019
2644 Clouds 20 1017 64 10000 2.1 120 14:57 02.09.2019
2645 Clouds 19 1017 68 10000 2.1 130 14:39 02.09.2019
2646 Clouds 19 1017 68 10000 2.1 130 14:21 02.09.2019
2647 Clouds 19 1017 63 10000 2.1 130 13:55 02.09.2019
2648 Clouds 19 1018 63 10000 1.5 130 13:36 02.09.2019
2649 Clouds 19 1018 63 10000 1.5 130 13:36 02.09.2019
2650 Clouds 19 1018 59 10000 2.1 130 13:18 02.09.2019
2651 Clouds 19 1018 59 10000 1.5 140 12:43 02.09.2019
2652 Clouds 20 1018 56 10000 1.5 130 12:24 02.09.2019
2653 Clouds 20 1018 56 10000 1.5 130 11:58 02.09.2019
2654 Clouds 20 1018 56 10000 1.5 130 11:58 02.09.2019
2655 Clouds 20 1018 56 10000 2.1 130 11:38 02.09.2019
2656 Clouds 20 1018 56 10000 2.6 150 11:20 02.09.2019
2657 Clouds 20 1018 56 10000 2.6 150 10:55 02.09.2019
2658 Clouds 20 1018 64 10000 1.5 130 10:36 02.09.2019
2659 Clouds 20 1018 64 10000 1.5 130 10:36 02.09.2019
2660 Clouds 20 1018 60 10000 1.5 130 10:18 02.09.2019
2661 Clouds 20 1018 56 10000 2.1 120 09:42 02.09.2019
2662 Clear 20 1018 56 10000 2.1 120 09:20 02.09.2019
2663 Clear 19 1018 63 10000 1.5 130 08:44 02.09.2019
2664 Clear 19 1018 63 10000 1.5 130 08:22 02.09.2019
2665 Clear 21 1018 56 10000 2.6 150 07:57 02.09.2019
2666 Clear 20 1017 60 10000 2.1 140 07:38 02.09.2019
2667 Clear 21 1017 56 10000 2.1 150 07:20 02.09.2019
2668 Clear 21 1016 60 10000 3.6 150 06:43 02.09.2019
2669 Clear 22 1016 56 10000 2.6 120 05:54 02.09.2019
2670 Clear 22 1016 56 10000 2.6 120 05:54 02.09.2019
2671 Clear 22 1016 56 10000 2.6 120 05:26 02.09.2019
2672 Clear 22 1016 56 10000 2.6 150 04:48 02.09.2019
2673 Clouds 23 1016 56 10000 2.6 100 02:29 02.09.2019
2674 Clouds 23 1017 53 10000 2.6 170 01:41 02.09.2019
2675 Clouds 23 1017 53 10000 2.1 190 00:42 02.09.2019
2676 Rain 23 1018 53 10000 3.1 150 00:20 02.09.2019
2677 Rain 22 1018 60 10000 3.1 140 23:39 01.09.2019
2678 Rain 22 1018 60 10000 3.1 180 23:19 01.09.2019
2679 -273 0 0 0 0 0 22:56 01.09.2019
2680 Rain 22 1018 60 10000 3.1 180 22:56 01.09.2019
2681 Rain 22 1018 64 10000 2.6 160 22:38 01.09.2019
2682 Rain 22 1018 64 10000 2.6 160 22:38 01.09.2019
2683 Rain 22 1018 64 10000 2.6 160 22:38 01.09.2019
2684 Rain 20 1018 68 10000 5.1 160 22:18 01.09.2019
2685 Rain 19 1018 77 10000 2.1 130 21:42 01.09.2019
2686 Rain 19 1018 77 10000 2.1 130 21:23 01.09.2019
2687 Rain 19 1018 77 10000 2.1 130 21:23 01.09.2019
2688 Rain 18 1018 82 10000 3.6 150 20:58 01.09.2019
2689 Rain 19 1017 72 10000 3.6 180 20:39 01.09.2019
2690 Rain 19 1017 68 10000 3.1 150 20:19 01.09.2019
2691 Rain 19 1017 68 10000 3.1 150 19:59 01.09.2019
2692 Rain 19 1017 68 10000 3.1 150 19:59 01.09.2019
2693 Rain 19 1017 68 10000 3.1 150 19:59 01.09.2019
2694 Rain 19 1017 72 10000 4.1 160 19:40 01.09.2019
2695 Rain 19 1017 72 10000 4.1 160 19:21 01.09.2019
2696 Rain 18 1016 82 10000 3.6 160 18:45 01.09.2019
2697 Rain 18 1016 82 10000 1.5 150 18:27 01.09.2019
2698 Rain 18 1016 82 10000 1.5 150 17:59 01.09.2019
2699 Clouds 19 1016 72 10000 4.1 150 17:39 01.09.2019
2700 Clouds 19 1016 72 10000 4.1 150 17:39 01.09.2019
2701 Clouds 19 1015 72 10000 4.1 170 17:20 01.09.2019
2702 Clouds 20 1015 68 10000 3.1 170 16:41 01.09.2019
2703 Clouds 20 1015 68 10000 3.1 170 16:21 01.09.2019
2704 Clouds 20 1015 68 10000 3.6 180 15:58 01.09.2019
2705 Clouds 20 1015 64 10000 2.6 180 15:39 01.09.2019
2706 Clouds 20 1016 60 10000 2.6 170 15:20 01.09.2019
2707 Clouds 20 1016 60 10000 2.1 160 14:42 01.09.2019
2708 Clouds 20 1016 60 10000 2.1 160 14:22 01.09.2019
2709 Clouds 21 1016 56 10000 3.1 170 13:59 01.09.2019
2710 Clouds 20 1016 60 10000 1.5 180 13:40 01.09.2019
2711 Clouds 20 1016 60 10000 2.1 150 13:20 01.09.2019
2712 Clouds 20 1016 60 10000 2.1 150 13:20 01.09.2019
2713 Clouds 21 1016 56 10000 1.5 160 12:43 01.09.2019
2714 Clouds 21 1016 56 10000 1.5 160 12:25 01.09.2019
2715 Clouds 21 1017 56 10000 3.1 150 11:55 01.09.2019
2716 Clouds 21 1017 52 10000 2.1 150 11:36 01.09.2019
2717 Clouds 21 1017 56 10000 2.6 160 11:18 01.09.2019
2718 Clouds 21 1017 56 10000 3.1 170 10:43 01.09.2019
2719 Clouds 21 1017 56 10000 3.1 170 10:23 01.09.2019
2720 Clouds 20 1017 60 10000 1.5 170 09:44 01.09.2019
2721 Clouds 20 1017 60 10000 1.5 170 09:25 01.09.2019
2722 Clouds 20 1016 60 10000 2.6 140 08:45 01.09.2019
2723 Clouds 20 1016 60 10000 2.6 140 08:25 01.09.2019
2724 Rain 20 1016 64 10000 2.6 140 07:58 01.09.2019
2725 Clouds 21 1016 64 10000 2.1 140 07:40 01.09.2019
2726 Clouds 21 1016 64 10000 2.1 130 06:59 01.09.2019
2727 Clouds 21 1016 60 10000 2.6 140 06:34 01.09.2019
2728 Rain 21 1015 64 10000 1 120 05:57 01.09.2019
2729 Rain 21 1015 73 10000 2.6 80 04:32 01.09.2019
2730 Rain 20 1016 77 10000 2.6 80 03:42 01.09.2019
2731 Rain 19 1016 77 10000 2.1 160 02:58 01.09.2019
2732 Clouds 20 1016 72 10000 4.6 200 02:28 01.09.2019
2733 Clouds 22 1016 64 10000 1.5 190 01:51 01.09.2019
2734 Rain 21 1017 68 10000 2.6 110 01:51 01.09.2019
2735 Rain 21 1017 68 10000 2.6 110 01:23 01.09.2019
2736 Clouds 22 1018 60 10000 2.1 190 00:46 01.09.2019
2737 Clouds 21 1018 68 10000 1.5 100 00:22 01.09.2019
2738 Clouds 21 1018 68 10000 1.5 100 23:54 31.08.2019
2739 Clouds 21 1018 68 10000 1.5 90 23:36 31.08.2019
2740 Clouds 19 1018 82 10000 1.5 100 23:18 31.08.2019
2741 Clouds 19 1018 82 10000 1.5 100 23:18 31.08.2019
2742 Rain 18 1018 88 10000 3.1 70 22:42 31.08.2019
2743 Rain 18 1018 88 10000 3.1 70 22:24 31.08.2019
2744 Rain 18 1018 82 5000 2.6 160 21:56 31.08.2019
2745 Clouds 21 1018 60 10000 1.5 160 21:37 31.08.2019
2746 Clouds 21 1018 60 10000 1.5 160 21:37 31.08.2019
2747 Clouds 21 1017 56 10000 1.5 160 21:19 31.08.2019
2748 Clouds 20 1017 60 10000 1.5 170 20:47 31.08.2019
2749 Clouds 20 1017 60 10000 1.5 170 20:28 31.08.2019
2750 Clouds 17 1017 72 10000 1.5 170 19:55 31.08.2019
2751 Clouds 17 1016 67 10000 2.1 160 19:37 31.08.2019
2752 Clouds 18 1016 63 10000 2.1 170 19:19 31.08.2019
2753 Clouds 17 1016 72 10000 1.5 160 18:39 31.08.2019
2754 Clouds 17 1016 72 10000 1.5 160 18:39 31.08.2019
2755 Clear 17 1016 72 10000 1.5 170 18:20 31.08.2019
2756 Clear 17 1016 72 10000 1.5 170 17:55 31.08.2019
2757 Clear 18 1015 68 10000 1.5 160 17:37 31.08.2019
2758 Clear 19 1015 63 10000 1.5 160 17:18 31.08.2019
2759 Clear 19 1015 63 10000 1.5 160 16:55 31.08.2019
2760 Clear 19 1016 63 10000 1.5 170 16:37 31.08.2019
2761 Clear 19 1016 63 10000 1.5 170 16:18 31.08.2019
2762 Clear 19 1016 63 10000 1.5 160 15:42 31.08.2019
2763 Clouds 19 1016 59 10000 1.5 160 15:19 31.08.2019
2764 Clouds 19 1016 59 10000 1.5 160 14:55 31.08.2019
2765 Clouds 19 1016 59 10000 1.5 160 14:36 31.08.2019
2766 Clouds 19 1017 63 10000 1 150 14:18 31.08.2019
2767 Clouds 20 1017 56 10000 2.1 150 13:40 31.08.2019
2768 Rain 20 1017 60 10000 2.6 160 13:21 31.08.2019
2769 Rain 20 1017 60 10000 2.6 160 12:57 31.08.2019
2770 Rain 20 1017 60 10000 2.6 160 12:57 31.08.2019
2771 Rain 20 1017 60 10000 2.1 160 12:38 31.08.2019
2772 Clouds 19 1017 59 10000 1.5 150 12:19 31.08.2019
2773 Clouds 20 1017 56 10000 1.5 140 11:44 31.08.2019
2774 Clouds 20 1017 56 10000 1.5 140 11:26 31.08.2019
2775 Clouds 20 1017 56 10000 2.6 150 10:57 31.08.2019
2776 Clouds 20 1017 60 10000 2.1 150 10:39 31.08.2019
2777 Clouds 20 1017 56 10000 1.5 160 10:18 31.08.2019
2778 Clouds 20 1017 60 10000 2.1 160 09:40 31.08.2019
2779 Clouds 20 1017 60 10000 2.1 160 09:40 31.08.2019
2780 Rain 20 1017 60 10000 2.1 160 09:22 31.08.2019
2781 Rain 21 1016 56 10000 2.6 150 08:57 31.08.2019
2782 Rain 20 1016 60 10000 2.1 160 08:38 31.08.2019
2783 Rain 21 1016 60 10000 2.1 160 08:20 31.08.2019
2784 Rain 21 1016 56 10000 2.1 160 07:38 31.08.2019
2785 Rain 21 1015 52 10000 3.1 170 07:18 31.08.2019
2786 Rain 21 1015 56 10000 2.6 160 06:27 31.08.2019
2787 Clouds 21 1015 60 10000 2.6 180 05:54 31.08.2019
2788 Clouds 22 1015 53 10000 3.1 180 05:28 31.08.2019
2789 Clouds 22 1015 56 10000 2.6 150 04:29 31.08.2019
2790 Clouds 22 1015 56 10000 3.1 190 03:42 31.08.2019
2791 Rain 23 1016 53 10000 2.6 210 02:22 31.08.2019
2792 Rain 23 1016 53 10000 3.1 230 01:47 31.08.2019
2793 Rain 23 1016 53 10000 3.1 230 01:28 31.08.2019
2794 Rain 23 1017 53 10000 3.6 220 00:46 31.08.2019
2795 Rain 23 1017 53 10000 3.6 220 00:46 31.08.2019
2796 Rain 23 1017 53 10000 3.6 220 00:27 31.08.2019
2797 Clouds 23 1017 49 10000 3.1 210 23:49 30.08.2019
2798 Clouds 23 1017 49 10000 2.6 210 23:19 30.08.2019
2799 Clouds 23 1017 49 10000 2.6 210 22:58 30.08.2019
2800 Clouds 23 1017 53 10000 2.1 210 22:38 30.08.2019
2801 Clouds 22 1017 60 10000 2.1 210 22:19 30.08.2019
2802 Clouds 22 1017 60 10000 2.1 210 21:56 30.08.2019
2803 Clear 22 1016 53 10000 2.6 210 21:36 30.08.2019
2804 Clear 22 1016 53 10000 2.6 210 21:36 30.08.2019
2805 Clouds 22 1016 56 10000 2.6 220 21:18 30.08.2019
2806 Clouds 22 1016 56 10000 2.6 220 21:18 30.08.2019
2807 Clouds 22 1016 56 10000 2.6 220 21:18 30.08.2019
2808 Clouds 21 1015 60 10000 1.5 180 20:43 30.08.2019
2809 Clouds 21 1015 60 10000 1.5 180 20:22 30.08.2019
2810 Clouds 20 1015 60 10000 1.5 190 19:59 30.08.2019
2811 Clouds 20 1015 64 10000 2.1 190 19:41 30.08.2019
2812 Clouds 20 1015 64 10000 2.1 190 19:22 30.08.2019
2813 Clouds 21 1013 56 10000 3.6 220 18:58 30.08.2019
2814 Clouds 21 1013 56 10000 3.6 220 18:40 30.08.2019
2815 Rain 21 1013 56 10000 2.6 220 18:22 30.08.2019
2816 Rain 21 1013 56 10000 2.6 220 17:56 30.08.2019
2817 Rain 21 1013 56 10000 3.6 220 17:37 30.08.2019
2818 Rain 21 1013 56 10000 3.6 220 17:37 30.08.2019
2819 Rain 21 1013 60 10000 3.1 210 17:18 30.08.2019
2820 Rain 21 1013 60 10000 3.1 210 16:43 30.08.2019
2821 Rain 21 1013 60 10000 3.1 210 16:25 30.08.2019
2822 Rain 21 1013 64 10000 3.1 210 15:46 30.08.2019
2823 Rain 21 1013 64 10000 3.1 210 15:46 30.08.2019
2824 Rain 21 1013 64 10000 3.1 210 15:25 30.08.2019
2825 Clouds 21 1013 60 10000 3.6 210 14:59 30.08.2019
2826 Clouds 21 1013 60 10000 3.6 210 14:41 30.08.2019
2827 Clouds 21 1013 60 10000 3.6 210 14:23 30.08.2019
2828 Clouds 21 1014 60 10000 3.6 210 13:45 30.08.2019
2829 Clouds 21 1014 60 10000 3.6 210 13:23 30.08.2019
2830 Clouds 21 1014 64 10000 3.1 200 12:58 30.08.2019
2831 Clouds 21 1014 64 10000 2.6 200 12:40 30.08.2019
2832 -273 0 0 0 0 0 12:21 30.08.2019
2833 Rain 21 1014 68 10000 2.1 190 11:42 30.08.2019
2834 Rain 21 1014 68 10000 2.1 190 11:24 30.08.2019
2835 Rain 21 1014 68 10000 2.1 210 10:42 30.08.2019
2836 Rain 21 1014 68 10000 2.1 210 10:23 30.08.2019
2837 Rain 20 1013 77 10000 1.5 190 09:58 30.08.2019
2838 Rain 20 1013 77 10000 1.5 190 09:58 30.08.2019
2839 Rain 21 1013 68 10000 2.6 210 09:39 30.08.2019
2840 Rain 21 1013 68 10000 2.1 210 09:19 30.08.2019
2841 Rain 21 1013 68 10000 2.1 210 09:19 30.08.2019
2842 Rain 21 1013 64 10000 3.1 220 08:44 30.08.2019
2843 Rain 21 1013 64 10000 3.1 220 08:25 30.08.2019
2844 Rain 21 1012 68 10000 3.1 220 07:59 30.08.2019
2845 Rain 22 1012 64 10000 3.6 210 07:39 30.08.2019
2846 Rain 22 1012 60 10000 3.6 220 07:21 30.08.2019
2847 Rain 22 1012 60 10000 3.6 220 06:44 30.08.2019
2848 Rain 22 1012 60 10000 3.6 220 06:26 30.08.2019
2849 Rain 23 1011 64 10000 4.1 220 05:43 30.08.2019
2850 Rain 23 1011 64 10000 5.1 210 03:58 30.08.2019
2851 Rain 23 1011 64 10000 5.7 230 03:38 30.08.2019
2852 Rain 24 1012 60 10000 4.6 230 02:49 30.08.2019
2853 Rain 24 1012 60 10000 4.6 230 02:22 30.08.2019
2854 Rain 24 1013 60 10000 4.6 230 00:58 30.08.2019
2855 Rain 23 1013 60 10000 5.1 240 00:27 30.08.2019
2856 Clouds 23 1013 60 10000 4.6 230 23:56 29.08.2019
2857 Clouds 23 1013 60 10000 5.1 230 23:37 29.08.2019
2858 Clouds 23 1013 60 10000 4.6 230 23:19 29.08.2019
2859 Clouds 23 1013 60 10000 4.1 230 22:42 29.08.2019
2860 Clouds 23 1013 60 10000 4.1 230 22:42 29.08.2019
2861 Clouds 23 1013 60 10000 4.1 230 22:23 29.08.2019
2862 Clouds 23 1013 60 10000 4.1 230 22:23 29.08.2019
2863 Clear 22 1013 68 10000 3.6 230 21:43 29.08.2019
2864 Clouds 22 1013 68 10000 3.6 230 21:22 29.08.2019
2865 Clouds 22 1013 68 10000 3.6 230 20:59 29.08.2019
2866 Clouds 22 1012 68 10000 3.1 230 20:41 29.08.2019
2867 Clouds 22 1012 68 10000 3.1 230 20:20 29.08.2019
2868 Clouds 22 1012 60 10000 3.6 240 19:58 29.08.2019
2869 Clouds 22 1012 60 10000 5.1 240 19:39 29.08.2019
2870 Clouds 22 1012 60 10000 5.1 240 19:21 29.08.2019
2871 Clouds 22 1011 64 10000 5.1 240 18:42 29.08.2019
2872 Clouds 22 1011 68 10000 4.1 230 18:20 29.08.2019
2873 Clouds 22 1011 68 10000 4.6 230 17:56 29.08.2019
2874 Clouds 22 1010 73 10000 4.1 230 17:37 29.08.2019
2875 Clouds 22 1010 73 10000 4.1 230 17:19 29.08.2019
2876 Clouds 22 1010 68 10000 4.1 230 16:43 29.08.2019
2877 Clouds 22 1010 68 10000 4.1 230 16:24 29.08.2019
2878 Clouds 22 1010 68 10000 4.1 230 15:58 29.08.2019
2879 Clouds 22 1010 73 10000 3.6 230 15:38 29.08.2019
2880 Clouds 22 1010 73 10000 3.6 230 15:19 29.08.2019
2881 Clouds 22 1011 68 10000 3.6 220 14:49 29.08.2019
2882 Clouds 22 1011 68 10000 3.6 220 14:22 29.08.2019
2883 Clouds 22 1011 73 10000 3.6 230 13:58 29.08.2019
2884 Rain 22 1011 78 10000 4.1 230 13:39 29.08.2019
2885 Clouds 22 1011 78 10000 3.6 230 13:20 29.08.2019
2886 Clouds 22 1011 78 10000 3.6 230 12:58 29.08.2019
2887 Clouds 22 1011 73 10000 3.1 220 12:39 29.08.2019
2888 Rain 22 1012 73 10000 4.1 220 12:20 29.08.2019
2889 Rain 22 1012 73 10000 4.1 220 11:58 29.08.2019
2890 Drizzle 22 1012 73 10000 4.6 220 11:37 29.08.2019
2891 Clouds 22 1011 78 10000 3.6 220 11:18 29.08.2019
2892 Clouds 22 1011 78 10000 4.1 230 10:42 29.08.2019
2893 Clouds 22 1011 78 10000 4.1 230 10:24 29.08.2019
2894 Rain 21 1011 83 10000 3.1 230 09:42 29.08.2019
2895 Rain 21 1011 83 10000 3.1 230 09:21 29.08.2019
2896 Rain 22 1011 78 10000 4.1 220 08:58 29.08.2019
2897 Rain 22 1011 78 10000 5.1 220 08:39 29.08.2019
2898 Rain 22 1011 78 10000 5.1 220 08:21 29.08.2019
2899 Rain 22 1010 78 10000 5.7 220 07:44 29.08.2019
2900 Rain 22 1010 83 10000 5.1 220 07:25 29.08.2019
2901 Rain 22 1010 83 10000 5.1 210 06:43 29.08.2019
2902 Rain 22 1009 83 10000 6.2 220 06:22 29.08.2019
2903 Rain 22 1009 94 10000 5.1 220 05:41 29.08.2019
2904 Drizzle 22 1009 94 8000 5.7 230 04:50 29.08.2019
2905 Rain 23 1009 88 10000 5.1 230 04:29 29.08.2019
2906 Rain 24 1010 88 10000 8.2 250 02:49 29.08.2019
2907 Rain 25 1011 83 10000 4.6 310 01:48 29.08.2019
2908 Rain 24 1011 83 10000 7.2 320 00:58 29.08.2019
2909 Rain 25 1012 88 10000 6.2 320 00:40 29.08.2019
2910 Rain 25 1012 83 10000 5.7 320 00:20 29.08.2019
2911 Rain 25 1013 83 10000 6.7 320 23:42 28.08.2019
2912 Rain 25 1013 83 10000 6.7 320 23:23 28.08.2019
2913 Rain 25 1013 83 10000 5.7 330 22:58 28.08.2019
2914 Rain 25 1012 83 10000 5.7 330 22:38 28.08.2019
2915 Rain 26 1012 78 10000 5.1 350 22:18 28.08.2019
2916 Rain 26 1012 78 10000 5.1 350 21:57 28.08.2019
2917 Rain 25 1012 83 10000 4.1 360 21:38 28.08.2019
2918 Rain 25 1012 83 10000 4.6 20 21:19 28.08.2019
2919 Rain 25 1012 83 10000 4.1 10 20:41 28.08.2019
2920 Rain 25 1012 78 10000 4.1 20 20:22 28.08.2019
2921 Rain 25 1012 78 10000 4.1 20 19:55 28.08.2019
2922 Rain 24 1011 88 10000 4.6 40 19:37 28.08.2019
2923 Rain 23 1011 88 10000 4.1 50 19:18 28.08.2019
2924 Rain 25 1011 78 10000 3.6 40 18:41 28.08.2019
2925 Rain 24 1011 83 10000 3.6 40 18:21 28.08.2019
2926 Rain 24 1011 83 10000 4.1 30 17:39 28.08.2019
2927 Rain 24 1011 83 10000 4.1 40 17:20 28.08.2019
2928 Rain 24 1011 83 10000 4.1 40 16:56 28.08.2019
2929 Rain 24 1012 83 10000 4.1 50 16:38 28.08.2019
2930 Rain 24 1012 83 10000 4.1 50 16:38 28.08.2019
2931 Rain 24 1012 83 10000 4.6 50 16:18 28.08.2019
2932 Rain 23 1012 94 10000 4.1 80 15:38 28.08.2019
2933 Rain 23 1012 94 10000 4.1 80 15:20 28.08.2019
2934 Rain 23 1013 94 10000 4.1 90 14:58 28.08.2019
2935 Rain 23 1013 88 10000 3.1 90 14:40 28.08.2019
2936 Rain 23 1013 88 10000 3.1 90 14:20 28.08.2019
2937 Rain 22 1014 94 10000 3.1 90 13:59 28.08.2019
2938 Rain 23 1014 88 10000 3.6 90 13:39 28.08.2019
2939 Rain 23 1014 88 10000 3.6 90 13:39 28.08.2019
2940 Rain 23 1015 88 10000 3.1 90 13:20 28.08.2019
2941 Rain 24 1015 83 10000 4.6 70 12:42 28.08.2019
2942 Rain 24 1015 83 10000 4.6 70 12:24 28.08.2019
2943 Rain 24 1015 83 10000 5.7 70 11:57 28.08.2019
2944 Rain 23 1015 88 10000 3.6 100 11:38 28.08.2019
2945 Rain 23 1015 88 10000 3.6 100 11:20 28.08.2019
2946 Rain 22 1015 94 10000 3.1 90 10:55 28.08.2019
2947 Rain 22 1015 94 10000 2.6 100 10:37 28.08.2019
2948 Rain 22 1015 94 10000 0.5 60 10:18 28.08.2019
2949 Rain 22 1016 94 10000 2.1 90 09:41 28.08.2019
2950 Rain 22 1016 94 10000 2.1 90 09:41 28.08.2019
2951 Rain 22 1016 94 10000 2.1 90 09:20 28.08.2019
2952 Clouds 23 1015 88 10000 3.1 80 08:40 28.08.2019
2953 Clouds 23 1015 88 10000 3.1 80 08:21 28.08.2019
2954 Clouds 23 1015 83 10000 3.1 90 07:45 28.08.2019
2955 Clouds 23 1015 83 10000 3.1 90 07:26 28.08.2019
2956 Clouds 23 1015 83 10000 4.6 80 06:59 28.08.2019
2957 Clouds 23 1014 83 10000 6.2 70 06:40 28.08.2019
2958 Clear 23 1014 83 10000 5.7 80 05:44 28.08.2019
2959 Clear 25 1014 69 10000 9.8 70 03:32 28.08.2019
2960 Clouds 25 1016 69 10000 8.7 80 01:50 28.08.2019
2961 Clouds 25 1016 69 10000 8.7 80 01:29 28.08.2019
2962 Clouds 25 1017 65 10000 5.1 100 00:41 28.08.2019
2963 Clouds 25 1017 65 10000 5.7 90 23:59 27.08.2019
2964 Clouds 24 1018 69 10000 4.6 100 23:40 27.08.2019
2965 Clouds 24 1018 69 10000 4.6 100 23:40 27.08.2019
2966 Clouds 24 1018 69 10000 4.6 100 23:21 27.08.2019
2967 Clouds 24 1018 64 10000 6.2 90 22:56 27.08.2019
2968 Clouds 24 1018 64 10000 6.2 90 22:38 27.08.2019
2969 Clouds 23 1018 69 10000 4.1 100 22:19 27.08.2019
2970 Clear 23 1018 69 10000 4.1 100 21:55 27.08.2019
2971 Clear 22 1018 73 10000 4.1 90 21:36 27.08.2019
2972 Clouds 22 1018 73 10000 4.1 90 21:18 27.08.2019
2973 Clouds 22 1018 73 10000 3.1 120 20:41 27.08.2019
2974 Clouds 22 1018 73 10000 3.1 120 20:21 27.08.2019
2975 Clouds 22 1017 73 10000 2.1 100 19:58 27.08.2019
2976 Clouds 22 1017 73 10000 3.6 100 19:39 27.08.2019
2977 Clouds 22 1017 73 10000 3.6 100 19:39 27.08.2019
2978 Clouds 22 1016 73 10000 3.6 90 19:20 27.08.2019
2979 Clouds 22 1016 73 10000 4.6 100 18:42 27.08.2019
2980 Clouds 21 1016 77 10000 3.1 110 18:19 27.08.2019
2981 Clouds 21 1016 77 10000 3.1 110 17:56 27.08.2019
2982 Clouds 21 1016 77 10000 4.6 100 17:38 27.08.2019
2983 Drizzle 21 1016 83 10000 2.6 120 17:19 27.08.2019
2984 Clouds 22 1016 78 10000 4.6 100 16:47 27.08.2019
2985 Clouds 22 1016 78 10000 4.6 100 16:28 27.08.2019
2986 Clouds 22 1016 73 10000 5.1 100 15:57 27.08.2019
2987 Clouds 22 1016 73 10000 4.1 100 15:39 27.08.2019
2988 Clouds 22 1016 73 10000 4.1 100 15:20 27.08.2019
2989 Clouds 22 1016 73 10000 5.1 100 14:43 27.08.2019
2990 Clouds 22 1016 73 10000 5.1 100 14:24 27.08.2019
2991 Clouds 22 1017 73 10000 5.1 90 13:59 27.08.2019
2992 Clouds 22 1017 73 10000 4.1 100 13:41 27.08.2019
2993 Clouds 22 1017 73 10000 4.1 100 13:20 27.08.2019
2994 Clouds 22 1018 73 10000 5.1 100 12:42 27.08.2019
2995 Clouds 22 1018 73 10000 5.7 90 12:20 27.08.2019
2996 Clouds 22 1018 73 10000 5.7 90 11:57 27.08.2019
2997 Clouds 22 1018 73 10000 4.1 90 11:37 27.08.2019
2998 Clouds 22 1018 73 10000 4.1 100 11:18 27.08.2019
2999 Rain 21 1018 83 10000 3.1 100 10:41 27.08.2019
3000 Rain 21 1018 83 10000 2.6 110 10:19 27.08.2019
3001 Rain 21 1018 83 10000 2.6 110 09:55 27.08.2019
3002 Clouds 21 1018 83 10000 4.6 80 09:36 27.08.2019
3003 Clouds 22 1018 78 10000 4.6 90 09:18 27.08.2019
3004 Clouds 22 1018 73 10000 3.1 90 08:42 27.08.2019
3005 Clouds 22 1018 73 10000 3.1 90 08:23 27.08.2019
3006 Clouds 22 1017 73 10000 3.1 100 07:42 27.08.2019
3007 Clouds 23 1017 69 10000 2.6 130 07:20 27.08.2019
3008 Clouds 23 1017 69 10000 2.6 130 06:55 27.08.2019
3009 Clouds 23 1017 73 10000 2.6 100 06:28 27.08.2019
3010 Clouds 22 1016 78 10000 3.1 100 05:52 27.08.2019
3011 Clouds 22 1016 78 10000 2.6 110 05:20 27.08.2019
3012 Clouds 23 1016 73 10000 3.1 110 03:40 27.08.2019
3013 Clouds 23 1017 73 10000 4.6 100 02:26 27.08.2019
3014 Clouds 23 1017 73 10000 5.1 110 01:44 27.08.2019
3015 Clouds 23 1017 78 10000 4.6 100 01:23 27.08.2019
3016 Clouds 23 1018 78 10000 4.1 110 00:45 27.08.2019
3017 Clouds 23 1018 78 10000 4.1 110 00:24 27.08.2019
3018 Clouds 23 1018 78 10000 4.1 90 23:40 26.08.2019
3019 Clouds 23 1018 78 10000 4.1 90 23:21 26.08.2019
3020 Clouds 22 1018 83 10000 4.1 100 22:41 26.08.2019
3021 Clouds 22 1018 83 10000 4.1 100 22:21 26.08.2019
3022 Clouds 22 1018 83 10000 4.6 120 22:00 26.08.2019
3023 Clouds 22 1018 83 10000 2.6 130 21:38 26.08.2019
3024 Clouds 22 1018 83 10000 2.6 130 21:20 26.08.2019
3025 Clouds 22 1018 83 10000 3.6 130 20:57 26.08.2019
3026 Clouds 23 1017 78 10000 2.6 160 20:38 26.08.2019
3027 Clouds 23 1017 78 10000 2.6 160 20:19 26.08.2019
3028 Clouds 22 1017 78 10000 4.6 140 19:43 26.08.2019
3029 Clouds 22 1016 78 10000 5.1 140 19:20 26.08.2019
3030 Clouds 22 1016 78 10000 4.1 150 18:58 26.08.2019
3031 Clouds 22 1015 78 10000 5.7 150 18:38 26.08.2019
3032 Clouds 22 1015 78 10000 5.7 150 18:19 26.08.2019
3033 Clouds 22 1015 83 10000 4.6 140 17:44 26.08.2019
3034 Clouds 22 1015 78 10000 4.1 150 17:20 26.08.2019
3035 Clouds 23 1014 73 10000 5.1 140 16:57 26.08.2019
3036 Clouds 22 1015 78 10000 5.7 150 16:39 26.08.2019
3037 Clouds 22 1015 78 10000 5.7 150 16:19 26.08.2019
3038 -273 0 0 0 0 0 15:55 26.08.2019
3039 -273 0 0 0 0 0 15:55 26.08.2019
3040 Rain 22 1015 83 10000 5.7 140 15:55 26.08.2019
3041 Clouds 22 1015 83 10000 4.6 150 15:37 26.08.2019
3042 Clouds 22 1015 83 10000 4.6 150 15:18 26.08.2019
3043 Clouds 23 1015 78 10000 4.1 160 14:43 26.08.2019
3044 Clouds 23 1015 73 10000 4.6 140 14:23 26.08.2019
3045 Clouds 23 1016 78 10000 3.6 150 13:56 26.08.2019
3046 Clouds 23 1016 78 10000 4.1 150 13:36 26.08.2019
3047 Clouds 23 1016 78 10000 4.1 150 13:18 26.08.2019
3048 Clouds 23 1016 78 10000 3.1 150 12:42 26.08.2019
3049 Clouds 23 1016 78 10000 3.1 150 12:21 26.08.2019
3050 Clouds 23 1016 73 10000 1.5 140 11:43 26.08.2019
3051 Clouds 23 1016 73 10000 1.5 140 11:25 26.08.2019
3052 Clouds 23 1016 73 10000 1.5 140 11:25 26.08.2019
3053 Clouds 23 1016 73 10000 2.1 140 10:58 26.08.2019
3054 Clouds 23 1016 73 10000 2.1 140 10:58 26.08.2019
3055 Clouds 23 1016 73 10000 2.1 140 10:40 26.08.2019
3056 Clouds 22 1016 83 10000 0.5 270 10:19 26.08.2019
3057 Clouds 22 1016 83 10000 1 260 09:43 26.08.2019
3058 Clouds 22 1016 83 10000 1.5 180 09:24 26.08.2019
3059 Clouds 22 1016 83 10000 2.1 190 08:58 26.08.2019
3060 Clouds 22 1015 83 10000 3.6 180 08:39 26.08.2019
3061 Clouds 22 1015 83 10000 3.6 180 08:21 26.08.2019
3062 Rain 22 1015 83 3800 3.6 180 07:45 26.08.2019
3063 -273 0 0 0 0 0 07:25 26.08.2019
3064 Rain 23 1015 83 10000 2.6 180 06:58 26.08.2019
3065 Clouds 24 1014 78 10000 2.6 170 06:39 26.08.2019
3066 Clouds 24 1014 78 10000 2.6 170 06:18 26.08.2019
3067 Clouds 25 1014 73 10000 2.1 150 05:33 26.08.2019
3068 Clouds 25 1013 73 10000 4.1 110 04:22 26.08.2019
3069 Clouds 25 1014 78 10000 3.1 180 02:38 26.08.2019
3070 Clouds 26 1014 74 10000 2.6 190 01:23 26.08.2019
3071 Clouds 26 1015 78 10000 4.1 200 00:44 26.08.2019
3072 Clouds 25 1015 78 10000 3.6 180 00:26 26.08.2019
3073 Rain 25 1015 78 10000 3.6 190 23:45 25.08.2019
3074 Rain 25 1016 78 10000 5.1 200 23:20 25.08.2019
3075 Rain 25 1016 83 10000 4.1 210 22:58 25.08.2019
3076 Rain 25 1016 83 10000 5.1 250 22:40 25.08.2019
3077 Rain 25 1016 83 10000 5.1 250 22:20 25.08.2019
3078 Rain 24 1016 88 10000 4.1 250 21:58 25.08.2019
3079 Rain 24 1015 83 10000 2.1 230 21:39 25.08.2019
3080 Rain 24 1015 83 10000 2.1 230 21:19 25.08.2019
3081 Rain 22 1015 94 10000 5.1 240 20:42 25.08.2019
3082 Rain 22 1015 94 10000 5.1 240 20:20 25.08.2019
3083 Rain 22 1015 94 10000 5.1 240 20:20 25.08.2019
3084 Rain 23 1015 88 10000 5.1 270 19:59 25.08.2019
3085 Rain 24 1014 94 10000 4.1 290 19:39 25.08.2019
3086 Rain 24 1014 94 10000 4.1 290 19:20 25.08.2019
3087 Rain 24 1013 94 10000 4.1 300 18:58 25.08.2019
3088 Rain 24 1013 94 10000 4.1 300 18:39 25.08.2019
3089 Clear 24 1013 94 10000 4.1 300 18:21 25.08.2019
3090 Clear 25 1013 88 10000 3.6 310 17:45 25.08.2019
3091 Clear 25 1013 88 10000 4.1 310 17:25 25.08.2019
3092 Clear 25 1013 88 10000 3.6 310 16:59 25.08.2019
3093 Clear 25 1013 88 10000 3.6 320 16:37 25.08.2019
3094 Clear 25 1013 88 10000 3.6 320 16:18 25.08.2019
3095 Clear 25 1013 88 10000 3.6 320 15:43 25.08.2019
3096 Clouds 25 1013 88 10000 3.1 320 15:25 25.08.2019
3097 Clouds 25 1014 88 10000 2.6 310 14:43 25.08.2019
3098 Clouds 25 1014 88 10000 2.6 310 14:43 25.08.2019
3099 Clouds 25 1014 88 10000 2.6 310 14:24 25.08.2019
3100 Clouds 25 1014 88 10000 2.6 300 13:56 25.08.2019
3101 Clouds 25 1014 88 10000 3.1 300 13:37 25.08.2019
3102 Rain 25 1014 88 10000 3.1 300 13:18 25.08.2019
3103 Rain 25 1014 88 10000 3.1 300 12:44 25.08.2019
3104 Rain 25 1014 88 10000 3.6 300 12:25 25.08.2019
3105 Clouds 25 1014 88 10000 3.1 290 11:59 25.08.2019
3106 Clouds 25 1014 83 10000 3.1 300 11:40 25.08.2019
3107 Clouds 25 1014 83 10000 3.1 300 11:21 25.08.2019
3108 Clouds 25 1014 83 10000 3.1 300 10:57 25.08.2019
3109 Clouds 25 1014 83 10000 3.6 310 10:38 25.08.2019
3110 Clouds 25 1014 83 10000 3.6 310 10:19 25.08.2019
3111 Clouds 25 1014 83 10000 3.1 310 09:44 25.08.2019
3112 Clouds 25 1014 83 10000 3.1 330 09:24 25.08.2019
3113 Clouds 25 1014 83 10000 3.1 340 08:48 25.08.2019
3114 Clouds 25 1013 83 10000 3.6 340 08:29 25.08.2019
3115 Clouds 25 1013 83 10000 4.1 340 07:55 25.08.2019
3116 Clouds 25 1013 78 10000 3.6 360 07:32 25.08.2019
3117 Clouds 25 1012 78 10000 4.1 10 06:39 25.08.2019
3118 Clouds 25 1011 73 10000 4.6 10 05:27 25.08.2019
3119 Clouds 26 1011 74 10000 5.1 20 03:48 25.08.2019
3120 Clouds 26 1011 74 10000 5.7 40 02:43 25.08.2019
3121 Clouds 26 1012 74 10000 6.2 40 01:54 25.08.2019
3122 Clouds 26 1014 74 10000 5.1 40 00:54 25.08.2019
3123 Clouds 26 1014 74 10000 5.1 50 00:23 25.08.2019
3124 Clouds 25 1015 83 10000 5.1 50 23:58 24.08.2019
3125 Clouds 26 1016 78 10000 4.6 50 23:39 24.08.2019
3126 Clouds 26 1016 78 10000 4.6 50 23:21 24.08.2019
3127 Clouds 25 1016 78 10000 4.6 50 22:44 24.08.2019
3128 Rain 24 1016 83 10000 3.6 80 22:19 24.08.2019
3129 Clouds 25 1016 78 10000 3.6 80 21:59 24.08.2019
3130 Clouds 24 1016 83 10000 3.6 80 21:39 24.08.2019
3131 Clouds 24 1016 83 10000 3.6 80 21:21 24.08.2019
3132 Clouds 24 1016 78 10000 2.1 80 20:57 24.08.2019
3133 Clouds 23 1016 83 10000 2.1 110 20:38 24.08.2019
3134 Clouds 23 1016 83 10000 2.1 110 20:19 24.08.2019
3135 Clouds 21 1016 94 10000 2.6 90 19:57 24.08.2019
3136 Clouds 22 1016 88 10000 3.1 90 19:38 24.08.2019
3137 Clouds 22 1016 88 10000 3.1 90 19:20 24.08.2019
3138 Clouds 22 1016 88 10000 3.6 80 18:46 24.08.2019
3139 Clouds 23 1015 83 10000 4.1 50 18:24 24.08.2019
3140 Rain 23 1015 88 10000 2.6 70 17:46 24.08.2019
3141 Clouds 21 1015 88 10000 1 130 17:27 24.08.2019
3142 Clouds 21 1015 88 10000 1.5 90 16:56 24.08.2019
3143 Clouds 23 1015 83 10000 1.5 110 16:36 24.08.2019
3144 Clouds 23 1015 83 10000 1.5 110 16:18 24.08.2019
3145 Clouds 23 1015 83 10000 2.1 120 15:43 24.08.2019
3146 Clouds 23 1015 83 10000 2.1 120 15:43 24.08.2019
3147 Clouds 23 1015 83 10000 2.1 90 15:24 24.08.2019
3148 Clouds 23 1015 83 10000 2.1 80 14:55 24.08.2019
3149 Clouds 23 1016 78 10000 1.5 110 14:37 24.08.2019
3150 Clouds 23 1016 78 10000 1.5 110 14:18 24.08.2019
3151 Clouds 23 1016 78 10000 3.6 80 13:42 24.08.2019
3152 Clouds 24 1016 73 10000 4.6 70 13:22 24.08.2019
3153 Clouds 24 1016 73 10000 4.6 60 12:58 24.08.2019
3154 Clouds 24 1016 78 10000 5.1 60 12:39 24.08.2019
3155 Clouds 24 1016 78 10000 5.1 60 12:20 24.08.2019
3156 Clouds 24 1016 73 10000 5.7 60 11:45 24.08.2019
3157 Clouds 24 1015 78 10000 6.2 70 11:24 24.08.2019
3158 Clouds 24 1015 78 10000 6.2 60 10:54 24.08.2019
3159 Clouds 24 1015 73 10000 6.2 70 10:25 24.08.2019
3160 Clouds 23 1015 78 10000 6.7 70 09:58 24.08.2019
3161 Clouds 24 1015 78 10000 5.7 80 09:38 24.08.2019
3162 Clear 24 1015 78 10000 5.7 80 09:18 24.08.2019
3163 Clear 24 1015 78 10000 5.7 80 08:41 24.08.2019
3164 Clear 23 1015 83 10000 6.2 80 08:23 24.08.2019
3165 Clear 23 1015 78 10000 3.6 80 07:50 24.08.2019
3166 Clear 24 1015 69 10000 4.6 90 07:27 24.08.2019
3167 Clear 24 1015 73 10000 5.7 80 06:30 24.08.2019
3168 Clear 24 1015 78 10000 6.7 70 05:43 24.08.2019
3169 Clear 25 1015 69 10000 6.7 70 05:23 24.08.2019
3170 Clear 25 1015 69 10000 6.2 60 03:38 24.08.2019
3171 Clear 25 1016 69 10000 6.7 70 02:27 24.08.2019
3172 Clear 25 1016 69 10000 7.2 60 01:38 24.08.2019
3173 Clear 25 1016 69 10000 7.2 60 01:18 24.08.2019
3174 Clear 26 1017 69 10000 6.7 70 00:41 24.08.2019
3175 Clear 26 1017 69 10000 6.7 70 00:18 24.08.2019
3176 Clear 25 1017 69 10000 7.2 70 23:42 23.08.2019
3177 Clear 25 1017 69 10000 7.7 80 23:19 23.08.2019
3178 Clear 25 1017 73 10000 7.7 80 22:43 23.08.2019
3179 Clear 26 1017 69 10000 7.2 70 22:24 23.08.2019
3180 Clear 25 1017 69 10000 7.2 70 21:41 23.08.2019
3181 Clear 25 1017 73 10000 6.7 70 21:23 23.08.2019
3182 Clear 24 1017 78 10000 6.7 80 20:59 23.08.2019
3183 Clear 24 1017 78 10000 6.7 80 20:40 23.08.2019
3184 Clear 23 1017 83 10000 6.7 80 20:21 23.08.2019
3185 Clear 23 1016 78 10000 6.7 80 19:44 23.08.2019
3186 Clear 23 1016 78 10000 6.7 80 19:19 23.08.2019
3187 Clear 23 1016 78 10000 5.7 80 18:48 23.08.2019
3188 Clear 23 1016 78 10000 5.1 90 18:30 23.08.2019
3189 Clear 23 1016 78 10000 5.7 80 17:56 23.08.2019
3190 Clear 23 1016 78 10000 5.1 80 17:38 23.08.2019
3191 Clear 23 1016 78 10000 5.1 80 17:20 23.08.2019
3192 Clear 23 1016 78 10000 5.1 90 16:47 23.08.2019
3193 Clear 23 1016 78 10000 5.1 90 16:29 23.08.2019
3194 Clear 23 1016 78 10000 4.1 90 15:56 23.08.2019
3195 Clear 23 1016 73 10000 4.6 80 15:37 23.08.2019
3196 Clear 23 1016 73 10000 4.6 80 15:19 23.08.2019
3197 Clear 23 1017 78 10000 4.6 80 14:41 23.08.2019
3198 Clear 23 1017 78 10000 4.6 90 14:21 23.08.2019
3199 Clear 23 1017 78 10000 5.1 90 13:57 23.08.2019
3200 Clear 23 1017 73 10000 5.1 90 13:39 23.08.2019
3201 Clear 23 1017 73 10000 5.1 90 13:21 23.08.2019
3202 Clear 23 1017 73 10000 5.1 90 12:57 23.08.2019
3203 Clear 23 1018 73 10000 3.1 100 12:38 23.08.2019
3204 Clear 23 1018 73 10000 3.1 100 12:20 23.08.2019
3205 Clear 23 1018 73 10000 5.1 90 11:55 23.08.2019
3206 Clear 23 1018 73 10000 5.1 90 11:55 23.08.2019
3207 Clear 23 1018 73 10000 5.7 80 11:36 23.08.2019
3208 Clear 23 1018 73 10000 5.7 80 11:18 23.08.2019
3209 Clear 23 1018 73 10000 3.6 80 10:42 23.08.2019
3210 Clear 23 1018 73 10000 4.6 80 10:21 23.08.2019
3211 Clear 23 1018 73 10000 3.6 80 09:56 23.08.2019
3212 Clear 23 1018 73 10000 3.6 70 09:38 23.08.2019
3213 Clear 23 1018 73 10000 3.6 70 09:18 23.08.2019
3214 Clear 23 1018 69 10000 4.1 80 08:40 23.08.2019
3215 Clear 23 1018 69 10000 4.1 80 08:19 23.08.2019
3216 Clear 23 1018 73 10000 3.6 90 07:43 23.08.2019
3217 Clear 23 1018 73 10000 2.6 90 07:24 23.08.2019
3218 Clear 24 1018 69 10000 2.1 110 06:57 23.08.2019
3219 Clear 24 1017 69 10000 4.1 80 06:37 23.08.2019
3220 Clear 24 1017 69 10000 4.1 80 06:19 23.08.2019
3221 Clear 25 1017 65 10000 6.7 80 05:33 23.08.2019
3222 Clear 26 1017 61 10000 7.7 70 04:20 23.08.2019
3223 Clear 26 1017 65 10000 7.2 70 02:53 23.08.2019
3224 Clear 26 1017 65 10000 6.7 70 02:22 23.08.2019
3225 Clear 26 1018 69 10000 7.7 70 01:38 23.08.2019
3226 Clear 26 1019 65 10000 7.7 80 00:44 23.08.2019
3227 Clear 26 1019 65 10000 7.7 80 00:19 23.08.2019
3228 Clear 25 1019 73 10000 7.2 70 23:45 22.08.2019
3229 Clear 25 1019 73 10000 7.7 70 23:23 22.08.2019
3230 Clear 25 1019 73 10000 8.2 80 22:55 22.08.2019
3231 Clear 25 1019 73 10000 7.7 80 22:37 22.08.2019
3232 Clear 25 1019 73 10000 7.7 80 22:19 22.08.2019
3233 Clear 25 1019 73 10000 7.7 80 22:19 22.08.2019
3234 Clear 24 1019 78 10000 7.2 80 21:42 22.08.2019
3235 Clear 24 1019 78 10000 6.2 80 21:23 22.08.2019
3236 Clear 24 1019 78 10000 4.1 90 20:59 22.08.2019
3237 Clear 24 1019 78 10000 4.1 90 20:41 22.08.2019
3238 Clear 24 1019 78 10000 4.1 90 20:41 22.08.2019
3239 Clear 23 1018 83 10000 4.1 90 20:20 22.08.2019
3240 Clear 23 1018 78 10000 2.6 100 19:59 22.08.2019
3241 Clear 22 1018 83 10000 2.1 100 19:39 22.08.2019
3242 Clear 22 1018 83 10000 2.1 100 19:21 22.08.2019
3243 Clear 22 1018 83 10000 1 120 18:58 22.08.2019
3244 Clear 22 1017 83 10000 2.1 100 18:40 22.08.2019
3245 Clear 22 1017 83 10000 2.1 100 18:20 22.08.2019
3246 Clear 22 1017 83 10000 2.1 100 18:20 22.08.2019
3247 Clear 20 1017 88 10000 1.5 80 17:57 22.08.2019
3248 Clear 20 1017 88 10000 1.5 80 17:38 22.08.2019
3249 Clear 21 1017 88 10000 1 100 17:19 22.08.2019
3250 Clear 21 1017 88 10000 1 100 16:56 22.08.2019
3251 Clear 22 1017 83 10000 1.5 100 16:37 22.08.2019
3252 Clear 22 1017 83 10000 1.5 100 16:19 22.08.2019
3253 Clear 22 1017 83 10000 2.1 100 15:42 22.08.2019
3254 Clear 22 1017 83 10000 2.1 100 15:42 22.08.2019
3255 Clear 22 1017 83 10000 1.5 100 15:24 22.08.2019
3256 Clear 22 1017 83 10000 1.5 100 15:24 22.08.2019
3257 Clear 22 1017 83 10000 1.5 100 15:24 22.08.2019
3258 Clear 22 1018 83 10000 2.6 100 14:58 22.08.2019
3259 Clear 22 1018 83 10000 2.6 100 14:58 22.08.2019
3260 Clear 22 1018 83 10000 2.6 100 14:58 22.08.2019
3261 Clear 22 1018 83 10000 2.6 100 14:58 22.08.2019
3262 Clear 22 1018 83 10000 2.6 100 14:40 22.08.2019
3263 Clear 22 1018 83 10000 2.1 110 14:21 22.08.2019
3264 Clear 20 1018 94 10000 1.5 120 13:57 22.08.2019
3265 Clear 20 1019 94 10000 1 130 13:39 22.08.2019
3266 Clear 20 1019 94 10000 1 130 13:19 22.08.2019
3267 Clear 21 1019 88 10000 1 140 12:42 22.08.2019
3268 Clear 21 1019 88 10000 1 170 12:24 22.08.2019
3269 Clear 21 1019 88 10000 1 130 11:58 22.08.2019
3270 Clear 21 1019 88 10000 1.5 120 11:40 22.08.2019
3271 Clear 21 1019 88 10000 1.5 120 11:20 22.08.2019
3272 Clear 21 1019 94 10000 1.5 130 10:58 22.08.2019
3273 Clear 20 1019 94 10000 0.5 150 10:38 22.08.2019
3274 Clear 20 1019 94 10000 0.5 150 10:19 22.08.2019
3275 Clear 21 1019 88 10000 0.5 180 09:55 22.08.2019
3276 Clear 21 1018 88 10000 1 150 09:36 22.08.2019
3277 Clear 21 1018 88 10000 1 150 09:18 22.08.2019
3278 Clear 21 1018 94 10000 1 180 08:41 22.08.2019
3279 Clear 22 1018 88 10000 0.5 170 08:21 22.08.2019
3280 Clear 23 1017 78 10000 1 160 07:56 22.08.2019
3281 Clear 23 1017 78 10000 1 160 07:38 22.08.2019
3282 Clear 23 1017 78 10000 1 160 07:18 22.08.2019
3283 Clear 24 1017 73 10000 2.1 110 06:45 22.08.2019
3284 Clear 26 1017 61 10000 1.5 130 06:21 22.08.2019
3285 Clear 27 1016 61 10000 1.5 10 05:26 22.08.2019
3286 Clear 26 1016 69 10000 2.1 20 03:22 22.08.2019
3287 Clear 27 1017 61 10000 2.6 340 02:36 22.08.2019
3288 Clear 27 1017 65 10000 3.1 360 01:30 22.08.2019
3289 Clear 27 1017 74 10000 2.1 10 00:50 22.08.2019
3290 Clear 28 1018 45 10000 2.6 220 00:30 22.08.2019
3291 Clear 27 1018 57 10000 1.5 230 23:59 21.08.2019
3292 Clear 27 1018 57 10000 2.1 220 23:39 21.08.2019
3293 Clear 27 1018 57 10000 2.1 220 23:21 21.08.2019
3294 Clear 27 1018 65 10000 2.1 220 22:57 21.08.2019
3295 Clear 27 1018 65 10000 2.1 220 22:57 21.08.2019
3296 Clear 27 1018 65 10000 2.1 220 22:57 21.08.2019
3297 Clear 26 1018 74 10000 1.5 220 22:38 21.08.2019
3298 Clear 26 1018 74 10000 1.5 220 22:20 21.08.2019
3299 Clear 25 1018 78 10000 1.5 220 21:55 21.08.2019
3300 Clear 24 1018 83 10000 2.1 210 21:37 21.08.2019
3301 Clear 24 1018 83 10000 2.1 210 21:18 21.08.2019
3302 Clear 24 1018 88 10000 1 190 20:43 21.08.2019
3303 Clear 23 1017 94 10000 1 190 20:25 21.08.2019
3304 Clear 22 1017 94 10000 1.5 200 19:58 21.08.2019
3305 Clear 22 1017 94 10000 1.5 200 19:39 21.08.2019
3306 Clear 22 1017 94 10000 1.5 200 19:39 21.08.2019
3307 Clear 22 1017 94 10000 1.5 200 19:20 21.08.2019
3308 Clear 21 1016 100 10000 1.5 190 18:56 21.08.2019
3309 Fog 21 1016 100 3200 1 100 18:37 21.08.2019
3310 Fog 21 1016 100 3200 1 100 18:37 21.08.2019
3311 Fog 21 1016 100 3200 1 100 18:19 21.08.2019
3312 Clear 22 1015 94 10000 1 200 17:42 21.08.2019
3313 Clear 22 1015 94 10000 1 200 17:20 21.08.2019
3314 Clear 22 1015 94 10000 1.5 200 16:55 21.08.2019
3315 Clear 21 1015 100 10000 1.5 190 16:36 21.08.2019
3316 Clear 21 1015 100 10000 1.5 190 16:18 21.08.2019
3317 Clear 21 1015 100 10000 1.5 190 15:42 21.08.2019
3318 Clear 21 1015 100 10000 1.5 190 15:22 21.08.2019
3319 Clear 21 1015 100 10000 0.5 180 14:58 21.08.2019
3320 Clear 21 1015 100 10000 1 190 14:39 21.08.2019
3321 Clear 21 1015 100 10000 1 190 14:21 21.08.2019
3322 Clear 21 1015 100 10000 1 90 13:58 21.08.2019
3323 Clear 21 1015 100 10000 0.5 80 13:40 21.08.2019
3324 Clear 21 1015 100 10000 0.5 80 13:19 21.08.2019
3325 Clear 22 1015 94 10000 1.5 200 12:43 21.08.2019
3326 Clear 22 1015 94 10000 0.5 170 12:25 21.08.2019
3327 Clear 22 1015 94 7000 1 190 11:59 21.08.2019
3328 Clear 22 1015 94 10000 1 190 11:41 21.08.2019
3329 Clear 22 1015 94 10000 1 190 11:22 21.08.2019
3330 Clear 22 1015 94 10000 1.5 200 10:57 21.08.2019
3331 Clear 22 1015 100 10000 1.5 190 10:38 21.08.2019
3332 Clear 22 1015 100 10000 1.5 190 10:19 21.08.2019
3333 Clear 23 1015 94 10000 1 180 09:57 21.08.2019
3334 Clear 23 1015 94 10000 0.5 170 09:37 21.08.2019
3335 Clear 23 1015 94 10000 0.5 170 09:18 21.08.2019
3336 Clear 24 1015 88 10000 0.5 210 08:42 21.08.2019
3337 Clear 24 1015 94 10000 1 210 08:23 21.08.2019
3338 Clear 24 1014 94 10000 1.5 210 07:42 21.08.2019
3339 Clear 25 1014 88 10000 1.5 220 07:23 21.08.2019
3340 Clear 25 1013 88 10000 1.5 230 06:50 21.08.2019
3341 Rain 25 1013 88 10000 2.1 230 06:24 21.08.2019
3342 Rain 25 1013 88 10000 3.1 240 05:46 21.08.2019
3343 Rain 26 1012 83 10000 2.6 230 05:23 21.08.2019
3344 Rain 26 1012 83 10000 3.6 260 03:39 21.08.2019
3345 Rain 27 1012 78 10000 4.1 270 01:51 21.08.2019
3346 Rain 26 1012 83 10000 2.6 290 01:23 21.08.2019
3347 Rain 26 1013 88 10000 1 320 00:37 21.08.2019
3348 Clear 26 1013 88 10000 1 320 00:18 21.08.2019
3349 Clear 25 1013 88 10000 1.5 40 23:42 20.08.2019
3350 Clear 25 1013 88 10000 1 10 23:19 20.08.2019
3351 Clear 24 1013 94 10000 1.5 90 22:56 20.08.2019
3352 Clear 24 1013 94 10000 2.6 60 22:38 20.08.2019
3353 Clear 24 1013 94 10000 2.6 60 22:38 20.08.2019
3354 Clear 24 1013 94 10000 2.6 60 22:20 20.08.2019
3355 Clear 24 1013 94 10000 2.6 60 22:20 20.08.2019
3356 Clear 24 1013 94 10000 2.6 60 22:20 20.08.2019
3357 Rain 24 1013 94 9000 0.5 50 21:57 20.08.2019
3358 Rain 23 1013 100 5000 1 50 21:38 20.08.2019
3359 Rain 23 1013 100 5000 1 50 21:19 20.08.2019
3360 Rain 24 1013 94 2200 0.5 250 20:43 20.08.2019
3361 Rain 24 1013 94 2200 0.5 250 20:43 20.08.2019
3362 Rain 24 1012 94 5000 1 70 20:24 20.08.2019
3363 Rain 24 1012 94 5000 1 70 20:24 20.08.2019
3364 Rain 24 1012 94 10000 1.5 70 19:58 20.08.2019
3365 Rain 23 1011 100 10000 1 110 19:38 20.08.2019
3366 Rain 23 1011 100 10000 1 110 19:20 20.08.2019
3367 Rain 24 1011 94 10000 1.5 220 18:55 20.08.2019
3368 Rain 24 1010 94 10000 2.6 220 18:37 20.08.2019
3369 Rain 24 1010 94 10000 2.6 220 18:18 20.08.2019
3370 Rain 25 1010 94 10000 4.1 270 17:39 20.08.2019
3371 Rain 25 1010 94 10000 4.1 270 17:20 20.08.2019
3372 Rain 25 1010 94 10000 4.1 290 16:48 20.08.2019
3373 Rain 25 1010 94 10000 4.1 290 16:28 20.08.2019
3374 Rain 25 1010 94 10000 4.6 300 15:59 20.08.2019
3375 Rain 25 1010 94 10000 3.6 310 15:41 20.08.2019
3376 Clear 25 1010 94 10000 4.6 320 15:18 20.08.2019
3377 Clear 25 1010 94 10000 4.6 320 14:55 20.08.2019
3378 Rain 25 1011 94 10000 4.1 340 14:37 20.08.2019
3379 Rain 25 1011 94 10000 4.1 340 14:37 20.08.2019
3380 Clear 25 1011 94 10000 3.6 350 14:18 20.08.2019
3381 Clear 25 1011 94 10000 3.6 350 14:18 20.08.2019
3382 Clear 25 1011 94 10000 3.6 340 13:40 20.08.2019
3383 Rain 25 1011 94 10000 3.6 340 13:22 20.08.2019
3384 Rain 25 1011 94 10000 3.6 340 13:22 20.08.2019
3385 Rain 25 1011 94 10000 4.6 330 12:59 20.08.2019
3386 Rain 25 1011 94 10000 4.6 330 12:59 20.08.2019
3387 Rain 25 1011 94 10000 4.1 330 12:40 20.08.2019
3388 Rain 25 1011 94 10000 4.1 330 12:22 20.08.2019
3389 Rain 25 1011 88 10000 4.6 340 11:42 20.08.2019
3390 Rain 25 1011 88 10000 4.6 340 11:42 20.08.2019
3391 Rain 25 1011 88 10000 4.6 340 11:24 20.08.2019
3392 Rain 25 1012 88 10000 4.1 340 10:58 20.08.2019
3393 Rain 25 1012 83 10000 3.6 330 10:40 20.08.2019
3394 Rain 25 1012 83 10000 3.6 330 10:22 20.08.2019
3395 Rain 24 1012 94 10000 3.1 330 09:59 20.08.2019
3396 Rain 24 1012 94 10000 3.6 350 09:40 20.08.2019
3397 Rain 24 1012 94 10000 3.6 350 09:21 20.08.2019
3398 Rain 24 1012 88 10000 2.1 350 08:42 20.08.2019
3399 Rain 24 1012 88 10000 2.1 350 08:24 20.08.2019
3400 Rain 23 1011 94 10000 3.6 350 07:57 20.08.2019
3401 Rain 23 1011 94 10000 3.6 350 07:57 20.08.2019
3402 Rain 23 1011 94 10000 3.6 350 07:38 20.08.2019
3403 Rain 23 1011 94 10000 4.1 290 07:20 20.08.2019
3404 Rain 22 1011 100 10000 4.6 260 06:43 20.08.2019
3405 Rain 23 1011 94 0 8.68 340.887 06:20 20.08.2019
3406 Rain 25 1010 94 6000 3.1 350 05:42 20.08.2019
3407 Rain 25 1010 94 5000 4.1 340 04:26 20.08.2019
3408 Clouds 26 1010 78 10000 3.6 360 02:48 20.08.2019
3409 Clouds 26 1011 78 10000 4.6 20 01:53 20.08.2019
3410 Clouds 26 1011 78 10000 4.1 10 01:20 20.08.2019
3411 Clouds 26 1011 78 10000 5.1 20 00:44 20.08.2019
3412 Clouds 26 1012 74 10000 4.1 10 00:21 20.08.2019
3413 Clouds 26 1012 78 10000 4.1 10 23:42 19.08.2019
3414 Clouds 26 1012 74 10000 5.7 20 23:19 19.08.2019
3415 Clouds 26 1012 74 10000 5.7 20 22:58 19.08.2019
3416 Clouds 26 1012 74 10000 5.1 20 22:39 19.08.2019
3417 Clouds 26 1012 74 10000 5.7 20 22:19 19.08.2019
3418 Clouds 26 1012 74 10000 5.7 20 22:19 19.08.2019
3419 Clouds 26 1012 74 10000 5.7 20 21:56 19.08.2019
3420 Clouds 26 1012 78 10000 4.6 10 21:38 19.08.2019
3421 Clouds 26 1012 78 10000 4.6 10 21:19 19.08.2019
3422 Clouds 26 1011 74 10000 4.6 20 20:40 19.08.2019
3423 Clouds 26 1011 74 10000 4.6 20 20:21 19.08.2019
3424 Clouds 25 1011 78 10000 4.1 10 19:59 19.08.2019
3425 Clouds 25 1011 78 10000 4.6 10 19:40 19.08.2019
3426 Clouds 25 1011 78 10000 4.6 10 19:19 19.08.2019
3427 Clouds 25 1010 78 10000 5.7 20 18:58 19.08.2019
3428 Clouds 25 1010 78 10000 5.7 20 18:39 19.08.2019
3429 Clouds 25 1009 83 10000 5.7 20 18:20 19.08.2019
3430 Clouds 25 1009 83 10000 5.7 20 17:54 19.08.2019
3431 Clouds 25 1010 78 10000 6.2 20 17:36 19.08.2019
3432 Clouds 25 1010 78 10000 4.6 30 17:18 19.08.2019
3433 Clouds 25 1010 78 10000 4.6 30 16:38 19.08.2019
3434 Clouds 25 1010 83 10000 4.6 30 16:20 19.08.2019
3435 Clouds 25 1011 83 10000 4.6 40 15:56 19.08.2019
3436 Clouds 25 1011 83 10000 4.6 40 15:37 19.08.2019
3437 Clouds 25 1011 83 10000 4.6 40 15:18 19.08.2019
3438 Clouds 25 1012 83 10000 4.6 40 14:43 19.08.2019
3439 Clouds 25 1012 83 10000 4.1 40 14:23 19.08.2019
3440 Clouds 25 1013 83 10000 3.6 40 13:57 19.08.2019
3441 Clouds 25 1013 83 10000 3.1 30 13:38 19.08.2019
3442 Clouds 25 1013 83 10000 3.1 30 13:19 19.08.2019
3443 Clouds 25 1014 83 10000 3.1 30 12:56 19.08.2019
3444 Clouds 25 1014 83 10000 3.6 20 12:36 19.08.2019
3445 Clouds 25 1014 83 10000 3.6 20 12:18 19.08.2019
3446 Clouds 25 1014 83 10000 3.1 40 11:39 19.08.2019
3447 Clouds 25 1014 83 10000 3.1 40 11:21 19.08.2019
3448 Clouds 25 1014 83 10000 4.6 40 10:56 19.08.2019
3449 Clouds 25 1014 88 10000 4.6 40 10:37 19.08.2019
3450 Clouds 25 1014 88 10000 4.6 40 10:37 19.08.2019
3451 Clouds 25 1014 88 10000 4.6 40 10:18 19.08.2019
3452 Clouds 25 1014 88 10000 4.6 40 09:44 19.08.2019
3453 Clouds 25 1014 88 10000 4.6 40 09:23 19.08.2019
3454 Clouds 25 1013 88 10000 4.1 50 08:56 19.08.2019
3455 Clouds 25 1013 88 10000 4.1 50 08:38 19.08.2019
3456 Clouds 25 1013 88 10000 4.1 50 08:18 19.08.2019
3457 Clouds 25 1013 83 10000 4.1 40 07:44 19.08.2019
3458 Clouds 25 1013 83 10000 4.6 40 07:26 19.08.2019
3459 Clouds 25 1013 83 10000 3.6 50 06:45 19.08.2019
3460 Clouds 25 1013 88 10000 3.6 50 06:24 19.08.2019
3461 Clouds 26 1013 83 10000 4.6 50 04:54 19.08.2019
3462 Clouds 26 1012 78 10000 4.6 50 04:23 19.08.2019
3463 Clouds 26 1013 83 10000 5.1 50 03:20 19.08.2019
3464 Clouds 27 1014 83 10000 5.1 60 01:48 19.08.2019
3465 Clouds 26 1014 83 10000 5.1 60 01:21 19.08.2019
3466 Clouds 27 1015 83 10000 5.7 70 00:43 19.08.2019
3467 Clouds 26 1015 88 10000 4.6 80 00:20 19.08.2019
3468 Clouds 25 1015 88 10000 5.7 80 23:41 18.08.2019
3469 Clouds 25 1016 88 10000 5.7 80 23:20 18.08.2019
3470 Clouds 25 1016 88 10000 5.7 80 22:40 18.08.2019
3471 Clouds 25 1016 88 10000 5.7 70 22:22 18.08.2019
3472 Clouds 25 1016 88 10000 5.7 80 21:58 18.08.2019
3473 Clouds 25 1016 88 10000 4.1 70 21:40 18.08.2019
3474 Rain 25 1016 88 10000 4.1 70 21:21 18.08.2019
3475 Rain 24 1016 94 10000 1.5 90 20:58 18.08.2019
3476 Rain 23 1015 100 10000 1.5 110 20:40 18.08.2019
3477 Rain 23 1015 100 10000 1.5 110 20:22 18.08.2019
3478 Rain 23 1015 100 10000 1.5 110 20:22 18.08.2019
3479 Rain 23 1015 94 10000 2.1 70 19:42 18.08.2019
3480 Rain 23 1015 94 10000 1.5 100 19:23 18.08.2019
3481 Rain 22 1015 100 10000 1.5 100 18:57 18.08.2019
3482 Rain 22 1015 100 10000 0.5 190 18:39 18.08.2019
3483 Rain 22 1015 100 10000 0.5 190 18:39 18.08.2019
3484 Rain 22 1015 100 10000 0.5 190 18:21 18.08.2019
3485 Rain 22 1015 100 10000 0.5 190 18:21 18.08.2019
3486 Rain 22 1015 94 10000 1 110 17:55 18.08.2019
3487 Rain 22 1015 100 10000 1 130 17:36 18.08.2019
3488 Rain 22 1015 100 10000 1 130 17:18 18.08.2019
3489 Rain 22 1015 94 10000 1.5 70 16:43 18.08.2019
3490 Rain 22 1015 94 10000 0.5 100 16:24 18.08.2019
3491 Rain 22 1015 94 10000 1.5 80 15:59 18.08.2019
3492 Rain 22 1016 94 10000 1.5 120 15:39 18.08.2019
3493 Rain 22 1016 94 10000 1.5 120 15:20 18.08.2019
3494 Rain 22 1016 94 10000 2.6 100 14:57 18.08.2019
3495 Rain 22 1016 94 10000 2.1 100 14:38 18.08.2019
3496 Rain 22 1016 94 10000 2.1 100 14:19 18.08.2019
3497 Rain 21 1017 94 10000 1 70 13:56 18.08.2019
3498 Rain 21 1017 94 10000 3.6 50 13:38 18.08.2019
3499 Rain 21 1017 94 10000 3.6 50 13:19 18.08.2019
3500 Rain 22 1018 94 10000 3.1 220 12:41 18.08.2019
3501 Rain 22 1018 94 10000 3.1 220 12:22 18.08.2019
3502 Rain 23 1017 94 10000 1 60 11:55 18.08.2019
3503 Rain 23 1017 94 10000 0.5 220 11:36 18.08.2019
3504 Rain 23 1017 94 10000 0.5 220 11:18 18.08.2019
3505 Rain 23 1017 94 8000 1.5 170 10:41 18.08.2019
3506 Rain 23 1017 94 10000 0.5 170 10:21 18.08.2019
3507 Rain 23 1016 94 10000 0.5 120 09:51 18.08.2019
3508 Rain 23 1017 94 10000 1 220 09:23 18.08.2019
3509 Rain 24 1017 94 10000 1 170 08:54 18.08.2019
3510 Rain 24 1016 94 10000 1 110 08:36 18.08.2019
3511 Rain 24 1016 94 10000 1 110 08:18 18.08.2019
3512 Rain 24 1016 94 10000 1 190 07:43 18.08.2019
3513 Rain 24 1016 94 10000 1 190 07:24 18.08.2019
3514 Rain 24 1015 88 10000 1.5 310 05:47 18.08.2019
3515 Rain 24 1015 88 10000 4.38 335.108 04:52 18.08.2019
3516 Rain 23 1015 94 10000 2.6 90 03:23 18.08.2019
3517 Rain 23 1016 94 10000 4.1 350 02:46 18.08.2019
3518 Rain 24 1016 94 10000 5.7 300 02:19 18.08.2019
3519 Rain 24 1016 94 10000 4.1 240 01:30 18.08.2019
3520 Drizzle 26 1017 88 10000 3.6 320 00:46 18.08.2019
3521 Rain 26 1017 88 10000 3.6 330 00:24 18.08.2019
3522 Rain 26 1017 83 10000 3.6 350 23:58 17.08.2019
3523 Rain 27 1017 83 10000 3.6 350 23:40 17.08.2019
3524 Rain 27 1017 83 10000 3.6 350 23:22 17.08.2019
3525 Rain 26 1017 83 10000 4.1 350 22:59 17.08.2019
3526 Rain 26 1017 83 10000 4.1 350 22:41 17.08.2019
3527 Rain 26 1017 83 10000 3.6 360 22:23 17.08.2019
3528 Rain 26 1017 83 10000 3.6 360 21:56 17.08.2019
3529 Rain 26 1017 83 10000 4.1 10 21:38 17.08.2019
3530 Rain 26 1017 83 10000 4.1 10 21:38 17.08.2019
3531 Rain 26 1017 83 10000 4.1 10 21:20 17.08.2019
3532 Rain 26 1016 83 10000 4.6 20 20:39 17.08.2019
3533 Rain 26 1016 83 10000 4.6 20 20:21 17.08.2019
3534 Rain 26 1016 83 10000 4.6 20 19:56 17.08.2019
3535 Rain 26 1015 83 10000 4.6 20 19:38 17.08.2019
3536 Rain 26 1015 83 10000 4.6 20 19:19 17.08.2019
3537 Rain 25 1015 88 10000 4.6 20 18:41 17.08.2019
3538 Rain 25 1015 88 10000 4.6 20 18:19 17.08.2019
3539 Rain 25 1015 83 10000 4.6 10 17:56 17.08.2019
3540 Rain 25 1015 88 10000 4.6 10 17:38 17.08.2019
3541 Rain 25 1015 88 10000 4.6 10 17:20 17.08.2019
3542 Rain 25 1015 88 10000 3.1 30 16:44 17.08.2019
3543 Rain 25 1015 88 10000 3.1 40 16:26 17.08.2019
3544 Rain 25 1015 83 10000 3.6 40 15:58 17.08.2019
3545 Rain 25 1015 83 10000 4.6 40 15:39 17.08.2019
3546 Rain 25 1015 83 10000 4.6 40 15:20 17.08.2019
3547 Rain 25 1016 83 10000 4.6 40 14:41 17.08.2019
3548 Rain 24 1016 94 4700 4.1 30 14:22 17.08.2019
3549 Rain 24 1016 94 10000 4.1 60 13:48 17.08.2019
3550 Rain 24 1016 94 10000 5.7 60 13:23 17.08.2019
3551 Rain 23 1017 94 5000 6.2 50 12:57 17.08.2019
3552 Rain 23 1017 94 5000 6.2 50 12:57 17.08.2019
3553 Drizzle 25 1016 88 10000 5.7 60 12:39 17.08.2019
3554 Drizzle 25 1016 88 10000 5.7 60 12:18 17.08.2019
3555 Rain 25 1016 88 10000 6.2 70 11:43 17.08.2019
3556 Rain 25 1017 88 10000 6.2 60 11:21 17.08.2019
3557 Rain 25 1016 88 10000 5.7 60 10:55 17.08.2019
3558 Rain 25 1017 88 10000 5.7 70 10:37 17.08.2019
3559 Rain 25 1017 88 10000 5.7 70 10:18 17.08.2019
3560 Rain 25 1017 88 10000 6.2 70 09:43 17.08.2019
3561 Rain 25 1016 88 10000 5.7 70 09:25 17.08.2019
3562 Rain 25 1016 88 10000 5.7 70 08:53 17.08.2019
3563 Rain 25 1016 83 10000 6.2 70 08:24 17.08.2019
3564 Rain 25 1016 83 10000 5.1 60 07:45 17.08.2019
3565 Rain 25 1016 83 10000 5.1 60 07:21 17.08.2019
3566 Rain 25 1016 83 10000 4.1 60 06:40 17.08.2019
3567 Clear 26 1015 78 10000 5.7 60 04:52 17.08.2019
3568 Clear 26 1015 78 10000 5.7 60 04:27 17.08.2019
3569 Clear 25 1016 83 10000 5.1 80 02:49 17.08.2019
3570 Rain 25 1017 83 10000 6.2 70 01:40 17.08.2019
3571 Clouds 26 1017 74 10000 6.7 70 01:21 17.08.2019
3572 Clouds 26 1017 74 10000 6.7 60 00:48 17.08.2019
3573 Rain 26 1018 74 10000 7.2 70 00:25 17.08.2019
3574 Rain 26 1018 78 10000 6.7 70 23:46 16.08.2019
3575 Rain 26 1018 83 10000 7.2 80 23:25 16.08.2019
3576 Rain 25 1018 83 10000 5.1 80 22:43 16.08.2019
3577 Rain 24 1018 83 10000 6.2 80 22:20 16.08.2019
3578 Rain 25 1018 83 10000 6.7 70 21:59 16.08.2019
3579 Rain 24 1018 83 10000 4.6 90 21:39 16.08.2019
3580 Rain 24 1018 83 10000 4.6 90 21:19 16.08.2019
3581 Rain 23 1018 88 10000 3.1 90 20:43 16.08.2019
3582 Rain 23 1018 88 10000 3.1 90 20:43 16.08.2019
3583 Rain 23 1018 88 10000 3.1 90 20:20 16.08.2019
3584 Rain 23 1018 83 10000 7.94 101.409 19:58 16.08.2019
3585 Rain 22 1017 88 10000 3.1 80 19:39 16.08.2019
3586 Rain 22 1017 88 10000 3.1 80 19:19 16.08.2019
3587 Rain 23 1016 83 10000 5.1 90 18:42 16.08.2019
3588 Rain 23 1016 83 10000 5.1 90 18:22 16.08.2019
3589 Rain 22 1016 88 10000 4.6 90 17:48 16.08.2019
3590 Rain 22 1016 88 10000 7.2 80 17:28 16.08.2019
3591 Rain 22 1016 88 10000 6.7 90 16:58 16.08.2019
3592 Rain 22 1017 88 10000 6.2 90 16:39 16.08.2019
3593 Rain 22 1017 88 10000 6.2 90 16:18 16.08.2019
3594 -273 0 0 0 0 0 15:55 16.08.2019
3595 Rain 22 1018 88 10000 6.2 80 15:37 16.08.2019
3596 Rain 22 1018 88 10000 6.2 80 15:19 16.08.2019
3597 Clouds 23 1018 78 10000 5.1 100 14:42 16.08.2019
3598 Clouds 22 1018 83 10000 3.1 110 14:19 16.08.2019
3599 Clouds 22 1019 83 10000 2.6 110 13:59 16.08.2019
3600 Clouds 22 1019 83 10000 2.1 90 13:38 16.08.2019
3601 Clouds 22 1019 83 10000 2.1 90 13:20 16.08.2019
3602 Clouds 21 1019 88 10000 1 110 12:40 16.08.2019
3603 Clouds 21 1019 88 10000 1 110 12:20 16.08.2019
3604 Clouds 22 1019 83 10000 1 50 11:43 16.08.2019
3605 Clouds 21 1019 88 10000 1 140 11:24 16.08.2019
3606 Clouds 21 1019 88 10000 2.1 80 10:59 16.08.2019
3607 Clouds 21 1019 88 10000 2.1 80 10:41 16.08.2019
3608 Clouds 22 1019 83 10000 1.5 90 10:18 16.08.2019
3609 Clouds 21 1018 88 10000 2.1 100 09:38 16.08.2019
3610 Clouds 21 1018 88 10000 2.1 100 09:19 16.08.2019
3611 Clouds 21 1018 88 10000 2.6 120 08:56 16.08.2019
3612 Clouds 21 1017 88 10000 3.1 120 08:38 16.08.2019
3613 Clouds 21 1017 88 10000 3.1 120 08:19 16.08.2019
3614 Clouds 22 1017 83 10000 3.6 90 07:44 16.08.2019
3615 Clouds 22 1017 83 10000 3.1 120 07:25 16.08.2019
3616 Clouds 22 1016 78 10000 2.1 130 06:38 16.08.2019
3617 Clouds 22 1016 83 10000 1 90 05:58 16.08.2019
3618 Clouds 22 1016 83 10000 3.1 130 05:33 16.08.2019
3619 Clouds 23 1016 78 10000 2.1 110 03:19 16.08.2019
3620 Clouds 23 1017 78 10000 3.1 140 01:45 16.08.2019
3621 Clouds 24 1017 73 10000 4.1 110 01:25 16.08.2019
3622 Clouds 23 1017 78 10000 2.6 110 00:48 16.08.2019
3623 Clouds 24 1017 73 10000 3.1 130 00:22 16.08.2019
3624 Clouds 24 1017 73 10000 2.6 120 23:46 15.08.2019
3625 Clouds 24 1018 69 10000 2.1 120 23:25 15.08.2019
3626 Clouds 24 1018 69 10000 2.6 110 22:59 15.08.2019
3627 Clouds 24 1018 69 10000 2.6 110 22:40 15.08.2019
3628 Clouds 24 1017 69 10000 2.6 120 22:21 15.08.2019
3629 Clouds 23 1017 73 10000 3.1 130 21:56 15.08.2019
3630 Clouds 23 1017 73 10000 3.1 120 21:38 15.08.2019
3631 Clouds 23 1017 73 10000 3.1 120 21:18 15.08.2019
3632 Clouds 23 1017 73 10000 2.1 90 20:43 15.08.2019
3633 Clouds 23 1017 73 10000 1.5 160 20:22 15.08.2019
3634 Clouds 23 1017 73 10000 1.5 160 20:22 15.08.2019
3635 Clouds 23 1016 73 10000 1.5 190 19:58 15.08.2019
3636 Clouds 22 1016 78 10000 1.5 140 19:39 15.08.2019
3637 Clouds 22 1016 78 10000 1.5 140 19:21 15.08.2019
3638 Clouds 22 1016 78 10000 1.5 140 19:21 15.08.2019
3639 Clouds 22 1016 78 10000 1 10 18:47 15.08.2019
3640 Clear 22 1015 78 10000 0.5 140 18:23 15.08.2019
3641 Clear 22 1015 78 10000 1.5 10 17:58 15.08.2019
3642 Clear 22 1015 78 10000 2.1 190 17:38 15.08.2019
3643 Clear 22 1015 78 10000 2.1 190 17:19 15.08.2019
3644 Clear 22 1015 78 10000 2.1 190 17:19 15.08.2019
3645 Clear 22 1015 78 10000 1.5 90 16:57 15.08.2019
3646 Clear 22 1015 78 10000 2.1 170 16:38 15.08.2019
3647 Clear 22 1015 78 10000 2.1 170 16:20 15.08.2019
3648 Clear 23 1015 73 10000 2.6 140 15:38 15.08.2019
3649 Clouds 23 1015 73 10000 2.6 140 15:20 15.08.2019
3650 Clouds 23 1015 73 10000 3.6 150 14:56 15.08.2019
3651 Clouds 23 1015 73 10000 3.6 140 14:37 15.08.2019
3652 Clouds 23 1015 73 10000 3.6 140 14:18 15.08.2019
3653 Clouds 23 1015 73 10000 4.1 150 13:55 15.08.2019
3654 Clouds 23 1015 73 10000 3.1 150 13:36 15.08.2019
3655 Clouds 23 1015 73 10000 3.1 150 13:18 15.08.2019
3656 Clouds 23 1016 73 10000 4.1 150 12:40 15.08.2019
3657 Rain 23 1016 73 10000 4.1 150 12:20 15.08.2019
3658 Rain 23 1016 73 10000 3.6 150 11:57 15.08.2019
3659 Rain 22 1016 83 10000 1 110 11:37 15.08.2019
3660 Rain 22 1016 83 10000 1 110 11:18 15.08.2019
3661 Rain 23 1016 78 10000 2.1 200 10:57 15.08.2019
3662 Rain 22 1016 83 10000 3.1 110 10:36 15.08.2019
3663 Rain 22 1016 83 10000 3.1 110 10:18 15.08.2019
3664 Rain 23 1016 78 10000 2.6 140 09:42 15.08.2019
3665 Rain 22 1016 83 10000 2.6 140 09:22 15.08.2019
3666 Rain 22 1016 83 10000 2.6 140 09:22 15.08.2019
3667 Rain 22 1015 83 10000 3.1 140 08:38 15.08.2019
3668 Rain 22 1015 83 10000 3.1 140 08:20 15.08.2019
3669 Rain 22 1015 88 10000 2.1 160 07:54 15.08.2019
3670 Rain 22 1015 88 10000 1.5 180 07:36 15.08.2019
3671 Rain 22 1015 88 10000 1.5 180 07:18 15.08.2019
3672 Rain 23 1014 88 10000 2.6 190 06:40 15.08.2019
3673 Rain 23 1014 88 10000 2.6 190 06:40 15.08.2019
3674 Clear 23 1014 88 10000 2.6 190 06:21 15.08.2019
3675 Clear 24 1014 78 10000 3.6 230 05:29 15.08.2019
3676 Clear 25 1014 73 10000 4.1 250 04:51 15.08.2019
3677 Clear 25 1014 73 10000 4.1 250 03:49 15.08.2019
3678 Clear 25 1014 73 10000 3.6 260 02:52 15.08.2019
3679 Clear 25 1015 73 10000 4.1 260 02:18 15.08.2019
3680 Clear 25 1015 73 10000 3.6 270 01:38 15.08.2019
3681 Clear 25 1016 65 10000 2.6 280 00:42 15.08.2019
3682 Clear 25 1016 65 10000 2.6 280 00:22 15.08.2019
3683 Clear 25 1016 73 10000 3.1 290 23:59 14.08.2019
3684 Clear 25 1017 69 10000 2.6 280 23:40 14.08.2019
3685 Clear 25 1017 69 10000 2.6 280 23:20 14.08.2019
3686 Clear 24 1016 73 10000 2.6 280 22:57 14.08.2019
3687 Clear 24 1016 73 10000 2.6 280 22:57 14.08.2019
3688 Clear 24 1016 78 10000 2.1 290 22:39 14.08.2019
3689 Clear 24 1016 78 10000 2.1 290 22:21 14.08.2019
3690 Clear 24 1016 78 10000 2.1 280 21:56 14.08.2019
3691 Clear 23 1016 83 10000 1.5 240 21:37 14.08.2019
3692 Clear 23 1016 83 10000 1.5 240 21:18 14.08.2019
3693 Clear 22 1016 94 10000 0.5 220 20:42 14.08.2019
3694 Clear 21 1016 94 10000 1 190 20:21 14.08.2019
3695 Clear 21 1016 94 10000 1 190 20:21 14.08.2019
3696 Clear 21 1016 94 10000 1 190 20:21 14.08.2019
3697 Clear 20 1015 94 10000 1.5 190 19:56 14.08.2019
3698 Clear 19 1015 100 10000 1.5 190 19:38 14.08.2019
3699 Clear 19 1015 100 10000 1.5 190 19:19 14.08.2019
3700 -273 0 0 0 0 0 18:57 14.08.2019
3701 Clear 19 1014 100 10000 1.5 190 18:38 14.08.2019
3702 Clear 19 1014 100 10000 1.5 190 18:19 14.08.2019
3703 Clear 19 1014 93 10000 1.5 190 17:56 14.08.2019
3704 Clear 18 1014 100 10000 1 180 17:37 14.08.2019
3705 Clear 18 1014 100 10000 1 180 17:37 14.08.2019
3706 Clear 18 1014 100 10000 1 180 17:18 14.08.2019
3707 Fog 18 1014 100 2500 1 180 16:41 14.08.2019
3708 Fog 18 1014 100 2500 1 180 16:20 14.08.2019
3709 Clear 18 1014 100 10000 1 190 15:45 14.08.2019
3710 Clear 18 1014 100 10000 1 180 15:25 14.08.2019
3711 Clear 18 1015 100 10000 1 170 15:00 14.08.2019
3712 Clear 18 1015 100 10000 1.5 190 14:39 14.08.2019
3713 Clear 18 1015 100 10000 1.5 190 14:19 14.08.2019
3714 Clear 18 1015 100 10000 1.5 180 13:55 14.08.2019
3715 Clear 19 1015 93 10000 1 170 13:37 14.08.2019
3716 Clouds 19 1015 93 10000 1 170 13:19 14.08.2019
3717 Clouds 19 1015 93 10000 1.5 190 12:56 14.08.2019
3718 Clouds 19 1016 93 10000 1.5 190 12:36 14.08.2019
3719 Clouds 19 1016 93 10000 1.5 190 12:18 14.08.2019
3720 Clouds 19 1016 93 10000 1.5 190 12:18 14.08.2019
3721 Clouds 19 1016 93 10000 0.5 180 11:45 14.08.2019
3722 Clouds 19 1016 93 10000 1 100 11:23 14.08.2019
3723 Clouds 20 1016 88 10000 0.5 150 10:54 14.08.2019
3724 Clouds 20 1016 88 10000 0.5 160 10:36 14.08.2019
3725 Clouds 20 1016 88 10000 0.5 160 10:18 14.08.2019
3726 Clouds 21 1016 88 10000 1 180 09:42 14.08.2019
3727 Clouds 22 1016 83 10000 1 150 09:20 14.08.2019
3728 Clouds 22 1016 83 10000 1 170 08:43 14.08.2019
3729 Clouds 22 1016 83 10000 1 170 08:43 14.08.2019
3730 Clouds 23 1016 78 10000 0.5 180 08:25 14.08.2019
3731 Clouds 23 1016 78 10000 1 170 07:56 14.08.2019
3732 Clouds 24 1016 73 10000 1.5 190 07:35 14.08.2019
3733 Clouds 24 1015 73 10000 2.1 220 06:50 14.08.2019
3734 Clouds 24 1015 73 10000 3.1 230 06:25 14.08.2019
3735 Clouds 25 1015 69 10000 3.1 220 05:32 14.08.2019
3736 Clouds 26 1015 65 10000 4.1 230 03:41 14.08.2019
3737 Clouds 26 1016 69 9000 3.6 240 02:37 14.08.2019
3738 Clouds 26 1016 69 10000 4.1 230 01:57 14.08.2019
3739 Clouds 26 1017 69 10000 3.6 230 01:23 14.08.2019
3740 Clouds 25 1017 78 10000 4.1 250 00:23 14.08.2019
3741 Clouds 25 1018 73 10000 3.1 250 23:40 13.08.2019
3742 Clouds 25 1018 73 10000 3.1 250 23:19 13.08.2019
3743 Clouds 25 1018 78 10000 3.1 230 22:43 13.08.2019
3744 Clouds 25 1017 78 10000 3.1 250 22:24 13.08.2019
3745 Clouds 24 1017 83 10000 2.1 240 21:59 13.08.2019
3746 Clouds 23 1017 88 10000 1.5 220 21:39 13.08.2019
3747 Clouds 23 1017 88 10000 1.5 220 21:20 13.08.2019
3748 Clouds 22 1017 94 10000 0.5 210 20:59 13.08.2019
3749 Clouds 22 1017 94 10000 0.5 210 20:40 13.08.2019
3750 Clouds 22 1016 100 10000 0.5 190 20:19 13.08.2019
3751 Fog 19 1016 93 900 0.5 130 19:55 13.08.2019
3752 Mist 19 1016 100 4300 0.5 160 19:37 13.08.2019
3753 Mist 19 1016 100 4300 0.5 160 19:18 13.08.2019
3754 Clouds 19 1015 100 10000 1.5 190 18:41 13.08.2019
3755 Clear 19 1015 100 10000 1.5 190 18:21 13.08.2019
3756 Clear 19 1015 100 10000 1.5 190 17:43 13.08.2019
3757 Clear 18 1015 100 10000 0.5 180 17:23 13.08.2019
3758 Fog 19 1015 93 2900 1 170 16:58 13.08.2019
3759 Clear 19 1015 93 10000 0.5 140 16:40 13.08.2019
3760 Clear 19 1015 93 10000 0.5 140 16:21 13.08.2019
3761 Clear 19 1015 93 10000 0.5 160 15:59 13.08.2019
3762 Fog 19 1016 100 1000 0.5 150 15:38 13.08.2019
3763 Fog 19 1016 100 1000 0.5 150 15:19 13.08.2019
3764 Fog 19 1016 100 1000 0.5 170 14:42 13.08.2019
3765 Clear 19 1016 93 6000 1 160 14:20 13.08.2019
3766 Clear 19 1016 100 10000 0.5 150 13:57 13.08.2019
3767 Clear 19 1017 100 9000 0.5 110 13:38 13.08.2019
3768 Clear 19 1017 100 9000 0.5 110 13:18 13.08.2019
3769 Mist 19 1017 100 5000 0.5 170 12:56 13.08.2019
3770 Clear 19 1017 100 9000 0.5 180 12:37 13.08.2019
3771 Clouds 19 1017 100 9000 0.5 180 12:18 13.08.2019
3772 Clouds 19 1017 100 10000 0.5 140 11:40 13.08.2019
3773 Clouds 20 1017 94 10000 1 180 11:21 13.08.2019
3774 Clouds 20 1017 94 10000 1 180 10:57 13.08.2019
3775 Clouds 20 1017 94 10000 1 180 10:38 13.08.2019
3776 Clouds 20 1017 94 10000 1 180 10:19 13.08.2019
3777 Clouds 21 1018 94 10000 1 130 09:44 13.08.2019
3778 Clouds 21 1018 94 10000 1 130 09:24 13.08.2019
3779 Clouds 22 1017 88 10000 1 120 08:55 13.08.2019
3780 Clouds 22 1017 88 7000 1.5 110 08:37 13.08.2019
3781 Clouds 22 1017 88 7000 1.5 110 08:18 13.08.2019
3782 Clouds 22 1016 88 10000 1.5 90 07:38 13.08.2019
3783 Clouds 22 1016 88 10000 1.5 90 07:38 13.08.2019
3784 Clouds 22 1016 88 10000 1.5 90 07:20 13.08.2019
3785 Clouds 23 1017 83 10000 1.5 110 06:43 13.08.2019
3786 Clouds 25 1016 73 10000 3.6 60 05:46 13.08.2019
3787 Clouds 25 1016 73 10000 4.6 60 03:45 13.08.2019
3788 Clouds 25 1018 78 10000 4.6 60 02:22 13.08.2019
3789 Clouds 25 1018 73 10000 3.6 60 01:21 13.08.2019
3790 Clouds 26 1019 74 10000 3.6 60 00:47 13.08.2019
3791 Rain 25 1019 78 10000 2.1 270 23:58 12.08.2019
3792 Rain 25 1020 78 10000 1.5 280 23:40 12.08.2019
3793 Rain 25 1020 78 10000 1.5 280 23:19 12.08.2019
3794 Rain 25 1020 78 10000 1.5 280 23:19 12.08.2019
3795 Rain 26 1020 74 10000 1 170 22:40 12.08.2019
3796 Rain 26 1020 78 10000 1.5 10 22:20 12.08.2019
3797 Rain 26 1020 78 10000 1.5 10 22:20 12.08.2019
3798 Rain 25 1019 78 10000 1.5 100 21:56 12.08.2019
3799 Rain 24 1019 83 10000 1.5 90 21:37 12.08.2019
3800 Rain 24 1019 83 10000 1.5 90 21:19 12.08.2019
3801 Rain 23 1019 88 10000 1 110 20:57 12.08.2019
3802 Rain 21 1019 94 10000 1 180 20:38 12.08.2019
3803 Rain 21 1019 94 10000 1 180 20:20 12.08.2019
3804 Rain 21 1019 94 10000 1 180 20:20 12.08.2019
3805 Rain 20 1018 94 10000 0.5 150 19:56 12.08.2019
3806 Rain 20 1018 94 10000 1 170 19:37 12.08.2019
3807 Rain 20 1018 94 10000 1 170 19:37 12.08.2019
3808 Rain 20 1018 94 10000 1 170 19:18 12.08.2019
3809 Rain 19 1018 100 10000 1 200 18:55 12.08.2019
3810 Rain 20 1017 94 10000 1 170 18:36 12.08.2019
3811 Clouds 20 1017 94 10000 1 170 18:18 12.08.2019
3812 Clouds 20 1017 94 10000 1 190 17:46 12.08.2019
3813 Clouds 21 1017 88 10000 1 120 17:28 12.08.2019
3814 Clouds 21 1017 88 10000 1 120 17:28 12.08.2019
3815 Clouds 22 1017 88 10000 2.1 110 16:56 12.08.2019
3816 Clouds 22 1017 88 10000 2.1 90 16:38 12.08.2019
3817 -273 0 0 0 0 0 16:19 12.08.2019
3818 Clouds 22 1017 88 10000 2.1 90 16:19 12.08.2019
3819 Clouds 22 1017 88 10000 2.6 90 15:57 12.08.2019
3820 Clouds 22 1017 88 10000 2.6 90 15:57 12.08.2019
3821 Clouds 22 1017 88 10000 2.6 90 15:57 12.08.2019
3822 Clouds 22 1017 88 10000 2.6 90 15:38 12.08.2019
3823 Clouds 22 1017 88 10000 2.6 90 15:20 12.08.2019
3824 Clouds 21 1018 94 10000 1.5 90 14:43 12.08.2019
3825 Clouds 22 1018 88 10000 2.1 110 14:23 12.08.2019
3826 Clouds 22 1018 88 10000 2.1 100 13:59 12.08.2019
3827 Clouds 22 1018 88 10000 2.1 100 13:41 12.08.2019
3828 Clouds 22 1018 88 10000 2.1 100 13:22 12.08.2019
3829 Clouds 22 1018 88 10000 2.6 90 12:43 12.08.2019
3830 Clouds 22 1019 88 10000 2.1 100 12:22 12.08.2019
3831 Clouds 22 1019 88 10000 2.6 90 11:47 12.08.2019
3832 -273 0 0 0 0 0 11:47 12.08.2019
3833 Clouds 22 1019 88 10000 2.6 90 11:29 12.08.2019
3834 Clouds 22 1019 88 10000 2.1 100 10:59 12.08.2019
3835 Clouds 22 1019 88 10000 1 90 10:40 12.08.2019
3836 Clouds 22 1019 88 10000 1 90 10:21 12.08.2019
3837 Clouds 22 1019 88 10000 1.5 100 09:55 12.08.2019
3838 Clouds 23 1019 83 10000 2.1 100 09:36 12.08.2019
3839 -273 0 0 0 0 0 09:36 12.08.2019
3840 Clouds 23 1019 83 10000 2.1 100 09:18 12.08.2019
3841 Clouds 23 1018 83 10000 2.1 100 08:40 12.08.2019
3842 Clouds 23 1018 83 10000 2.1 100 08:22 12.08.2019
3843 Clouds 23 1018 83 10000 2.1 100 08:22 12.08.2019
3844 Clouds 23 1018 83 10000 2.1 100 07:56 12.08.2019
3845 Clouds 23 1018 83 10000 2.1 90 07:35 12.08.2019
3846 Clouds 23 1017 83 10000 3.1 80 06:53 12.08.2019
3847 Rain 25 1017 73 10000 4.6 90 05:53 12.08.2019
3848 Rain 27 1016 65 10000 4.1 80 03:47 12.08.2019
3849 Rain 25 1017 73 10000 3.1 120 02:42 12.08.2019
3850 Rain 25 1018 78 10000 2.6 120 01:23 12.08.2019
3851 Rain 26 1019 74 10000 2.6 110 00:59 12.08.2019
3852 Rain 25 1019 78 10000 3.1 120 00:40 12.08.2019
3853 Rain 25 1019 78 10000 3.1 120 00:21 12.08.2019
3854 Rain 26 1019 74 10000 3.1 100 23:58 11.08.2019
3855 Rain 25 1020 78 10000 3.1 130 23:39 11.08.2019
3856 Rain 25 1020 78 10000 3.1 130 23:39 11.08.2019
3857 Rain 25 1020 78 10000 3.1 130 23:19 11.08.2019
3858 Rain 25 1020 78 10000 2.1 140 22:56 11.08.2019
3859 Rain 25 1019 78 10000 2.1 280 22:36 11.08.2019
3860 Rain 25 1019 78 10000 2.1 280 22:36 11.08.2019
3861 Rain 25 1019 78 10000 2.1 280 22:18 11.08.2019
3862 Rain 24 1019 88 10000 1.5 300 21:54 11.08.2019
3863 Rain 23 1019 88 10000 1 240 21:36 11.08.2019
3864 Rain 23 1019 88 10000 1 240 21:36 11.08.2019
3865 Clear 23 1019 88 10000 1 240 21:18 11.08.2019
3866 Clear 23 1018 94 10000 1 110 20:41 11.08.2019
3867 Clear 21 1018 100 10000 0.5 140 20:22 11.08.2019
3868 Clear 21 1018 100 10000 0.5 140 20:22 11.08.2019
3869 Clear 20 1018 100 7000 4.46 133.819 19:45 11.08.2019
3870 Clear 20 1017 100 10000 1 170 19:22 11.08.2019
3871 Clear 20 1017 100 10000 0.5 130 18:58 11.08.2019
3872 Clear 20 1017 100 10000 1 160 18:38 11.08.2019
3873 Clear 20 1017 100 10000 1 160 18:19 11.08.2019
3874 Clear 21 1017 94 10000 0.5 270 17:42 11.08.2019
3875 Clear 21 1017 94 10000 0.5 270 17:20 11.08.2019
3876 Clear 20 1017 100 10000 0.5 180 16:59 11.08.2019
3877 Clear 20 1017 100 10000 0.5 180 16:59 11.08.2019
3878 Clear 20 1017 100 10000 1 180 16:40 11.08.2019
3879 Clear 20 1017 100 10000 1 180 16:20 11.08.2019
3880 Clear 21 1017 94 10000 1 190 15:44 11.08.2019
3881 Fog 21 1017 94 2100 0.5 120 15:26 11.08.2019
3882 Fog 21 1017 94 2100 0.5 120 15:26 11.08.2019
3883 Fog 21 1017 100 4400 0.5 150 14:59 11.08.2019
3884 Clear 21 1017 100 10000 0.5 100 14:40 11.08.2019
3885 Clear 21 1017 100 10000 0.5 100 14:21 11.08.2019
3886 Clear 21 1018 100 7000 1 120 13:46 11.08.2019
3887 Clear 21 1018 100 7000 1 120 13:46 11.08.2019
3888 Clear 21 1018 100 10000 1 90 13:26 11.08.2019
3889 Clear 21 1018 100 10000 0.5 90 12:58 11.08.2019
3890 Clear 21 1018 100 10000 0.5 90 12:58 11.08.2019
3891 Clear 22 1019 94 10000 1 120 12:38 11.08.2019
3892 Clear 22 1019 94 10000 1 120 12:19 11.08.2019
3893 Rain 22 1019 94 10000 2.1 70 11:40 11.08.2019
3894 Rain 22 1019 94 10000 2.1 70 11:40 11.08.2019
3895 Rain 22 1019 94 10000 2.1 70 11:22 11.08.2019
3896 Clear 22 1019 100 10000 1 150 10:56 11.08.2019
3897 Clear 22 1019 94 10000 1 180 10:37 11.08.2019
3898 Clear 22 1019 94 10000 1 180 10:19 11.08.2019
3899 Clear 22 1019 100 10000 0.5 170 09:43 11.08.2019
3900 Clouds 22 1019 94 10000 1 180 09:24 11.08.2019
3901 Rain 23 1019 94 10000 0.5 100 08:56 11.08.2019
3902 Rain 23 1018 94 10000 1 180 08:36 11.08.2019
3903 Rain 23 1018 94 10000 1 180 08:18 11.08.2019
3904 Rain 24 1018 88 10000 1 140 07:32 11.08.2019
3905 Rain 25 1018 83 10000 2.1 100 06:51 11.08.2019
3906 Rain 25 1017 88 10000 2.6 60 06:31 11.08.2019
3907 Rain 26 1017 78 10000 2.6 60 04:44 11.08.2019
3908 Rain 25 1017 88 10000 2.6 80 02:50 11.08.2019
3909 Rain 24 1018 88 10000 2.1 70 01:57 11.08.2019
3910 Rain 26 1018 83 10000 3.1 290 01:31 11.08.2019
3911 Rain 27 1019 78 10000 2.6 310 00:56 11.08.2019
3912 Rain 27 1019 78 10000 2.6 320 00:35 11.08.2019
3913 Rain 26 1019 83 10000 2.1 350 23:49 10.08.2019
3914 Rain 26 1019 83 10000 2.6 360 23:29 10.08.2019
3915 Rain 26 1019 83 10000 2.6 360 23:29 10.08.2019
3916 Rain 26 1019 83 10000 2.1 350 22:54 10.08.2019
3917 Rain 26 1019 83 10000 1.5 50 22:36 10.08.2019
3918 Rain 26 1019 83 10000 1.5 50 22:18 10.08.2019
3919 Rain 25 1018 88 10000 1.5 60 21:40 10.08.2019
3920 Rain 25 1018 88 10000 1.5 60 21:21 10.08.2019
3921 Rain 25 1018 88 10000 1.5 90 20:57 10.08.2019
3922 Rain 23 1018 94 10000 0.5 120 20:39 10.08.2019
3923 Rain 23 1018 94 10000 0.5 120 20:19 10.08.2019
3924 Rain 23 1017 94 10000 0.5 120 19:43 10.08.2019
3925 Rain 23 1017 100 10000 1.5 100 19:24 10.08.2019
3926 Rain 23 1017 100 10000 1.5 100 19:24 10.08.2019
3927 Rain 23 1017 100 10000 1.5 100 18:42 10.08.2019
3928 Rain 23 1016 94 10000 1.5 90 18:24 10.08.2019
3929 Rain 23 1016 94 10000 1 100 17:56 10.08.2019
3930 Rain 24 1016 88 10000 1.5 100 17:38 10.08.2019
3931 Rain 24 1016 88 10000 1.5 100 17:19 10.08.2019
3932 Rain 24 1016 88 10000 2.1 60 16:42 10.08.2019
3933 Rain 24 1016 94 10000 2.6 40 16:22 10.08.2019
3934 Rain 25 1016 88 10000 2.6 40 15:45 10.08.2019
3935 Rain 25 1016 88 10000 3.1 50 15:22 10.08.2019
3936 Rain 24 1016 88 10000 2.6 60 14:44 10.08.2019
3937 Rain 24 1016 88 10000 2.6 60 14:44 10.08.2019
3938 Rain 25 1017 88 10000 3.6 60 14:19 10.08.2019
3939 Rain 25 1017 88 10000 4.1 50 13:41 10.08.2019
3940 Rain 25 1017 88 10000 4.1 50 13:20 10.08.2019
3941 Rain 25 1017 88 10000 3.6 60 12:44 10.08.2019
3942 Clear 25 1017 88 10000 3.6 60 12:24 10.08.2019
3943 Clear 24 1018 94 10000 3.6 60 11:59 10.08.2019
3944 Clear 24 1018 94 10000 3.1 70 11:40 10.08.2019
3945 Clear 24 1018 94 10000 3.1 70 11:21 10.08.2019
3946 Clear 25 1018 88 10000 3.6 60 10:55 10.08.2019
3947 Clear 24 1018 94 10000 3.1 80 10:36 10.08.2019
3948 Clear 24 1018 94 10000 3.1 80 10:18 10.08.2019
3949 Clear 24 1018 94 10000 3.1 80 10:18 10.08.2019
3950 Clear 24 1018 94 10000 3.1 90 09:40 10.08.2019
3951 Clear 24 1018 94 10000 3.1 90 09:21 10.08.2019
3952 Rain 24 1018 94 10000 3.6 80 08:41 10.08.2019
3953 Rain 24 1017 94 10000 3.1 90 08:20 10.08.2019
3954 Rain 24 1017 94 10000 3.6 80 07:54 10.08.2019
3955 Rain 25 1017 88 10000 4.6 70 07:28 10.08.2019
3956 Rain 25 1016 88 10000 4.6 60 06:49 10.08.2019
3957 Rain 25 1016 83 10000 4.6 60 06:25 10.08.2019
3958 Rain 26 1016 83 10000 4.6 60 05:24 10.08.2019
3959 Rain 26 1016 83 10000 5.1 60 04:26 10.08.2019
3960 Rain 27 1016 78 10000 5.1 50 02:54 10.08.2019
3961 Rain 26 1017 78 10000 5.1 50 02:23 10.08.2019
3962 Rain 26 1017 78 10000 5.1 50 01:40 10.08.2019
3963 Rain 26 1017 78 10000 5.1 50 01:20 10.08.2019
3964 Rain 26 1018 78 10000 5.7 60 00:44 10.08.2019
3965 Rain 26 1018 83 10000 5.1 60 00:22 10.08.2019
3966 Rain 26 1019 83 10000 5.1 50 23:43 09.08.2019
3967 Rain 26 1019 83 10000 5.1 50 23:22 09.08.2019
3968 Rain 26 1019 83 10000 5.1 50 22:56 09.08.2019
3969 Rain 26 1019 83 10000 5.1 60 22:38 09.08.2019
3970 Rain 26 1019 83 10000 5.1 60 22:19 09.08.2019
3971 Rain 26 1019 83 10000 5.1 60 21:41 09.08.2019
3972 Rain 26 1019 83 10000 5.1 60 21:41 09.08.2019
3973 Rain 25 1018 88 10000 4.6 60 21:23 09.08.2019
3974 Rain 25 1018 83 10000 4.6 50 20:58 09.08.2019
3975 Rain 25 1018 88 10000 4.1 50 20:40 09.08.2019
3976 Rain 25 1018 88 10000 4.1 50 20:20 09.08.2019
3977 Rain 24 1018 94 10000 4.6 60 19:56 09.08.2019
3978 Rain 24 1018 94 10000 4.6 60 19:37 09.08.2019
3979 Rain 24 1018 94 10000 4.6 60 19:18 09.08.2019
3980 Rain 24 1017 94 10000 4.6 70 18:39 09.08.2019
3981 Rain 24 1017 94 10000 4.6 70 18:21 09.08.2019
3982 Rain 24 1017 94 10000 4.6 70 17:45 09.08.2019
3983 Rain 24 1017 94 10000 4.1 80 17:25 09.08.2019
3984 Rain 24 1017 94 10000 4.1 80 16:58 09.08.2019
3985 Rain 24 1017 94 10000 4.1 80 16:38 09.08.2019
3986 Rain 24 1017 94 10000 4.1 80 16:20 09.08.2019
3987 Rain 24 1017 94 10000 3.6 80 15:55 09.08.2019
3988 Rain 24 1017 94 10000 4.1 80 15:36 09.08.2019
3989 -273 0 0 0 0 0 15:18 09.08.2019
3990 Rain 24 1018 94 10000 4.1 80 14:42 09.08.2019
3991 -273 0 0 0 0 0 14:21 09.08.2019
3992 Rain 24 1018 94 10000 4.1 80 13:55 09.08.2019
3993 Rain 24 1018 88 10000 4.6 80 13:37 09.08.2019
3994 Rain 24 1018 88 10000 4.6 80 13:18 09.08.2019
3995 Rain 24 1018 88 10000 4.6 90 12:41 09.08.2019
3996 Clouds 24 1018 88 10000 4.6 90 12:22 09.08.2019
3997 Clouds 24 1018 88 10000 4.1 90 11:42 09.08.2019
3998 Clouds 24 1018 88 10000 4.1 90 11:21 09.08.2019
3999 Clouds 24 1018 88 10000 4.1 90 11:21 09.08.2019
4000 Clouds 23 1018 88 10000 4.1 90 10:58 09.08.2019
4001 Clouds 23 1018 94 10000 5.7 80 10:39 09.08.2019
4002 Clouds 23 1018 94 10000 5.7 80 10:20 09.08.2019
4003 Clouds 23 1018 88 10000 4.6 80 09:42 09.08.2019
4004 Clouds 23 1018 83 10000 4.6 80 09:19 09.08.2019
4005 Clouds 23 1018 83 10000 3.6 80 08:46 09.08.2019
4006 Clouds 23 1017 83 10000 3.1 80 08:26 09.08.2019
4007 Clouds 23 1017 83 10000 2.6 90 07:59 09.08.2019
4008 Clouds 23 1017 83 10000 2.6 90 07:41 09.08.2019
4009 Clouds 23 1017 83 10000 3.1 80 07:21 09.08.2019
4010 Clouds 24 1017 73 10000 2.1 90 06:50 09.08.2019
4011 Clouds 24 1017 73 10000 2.1 90 06:22 09.08.2019
4012 Clouds 25 1017 65 10000 2.6 110 05:45 09.08.2019
4013 Clouds 25 1018 69 10000 3.1 70 02:29 09.08.2019
4014 Clouds 25 1018 73 10000 2.6 40 01:26 09.08.2019
4015 Clouds 25 1018 73 10000 2.6 60 00:42 09.08.2019
4016 Clouds 25 1019 78 10000 3.1 60 00:23 09.08.2019
4017 Clouds 25 1020 73 10000 2.1 60 23:57 08.08.2019
4018 Clouds 24 1020 83 10000 1.5 80 23:37 08.08.2019
4019 Clouds 24 1020 83 10000 1.5 80 23:19 08.08.2019
4020 Rain 24 1020 78 10000 1 160 22:55 08.08.2019
4021 Clouds 23 1020 78 10000 2.6 160 22:36 08.08.2019
4022 Clouds 23 1020 78 10000 2.6 160 22:18 08.08.2019
4023 Clouds 23 1018 78 10000 3.1 90 21:42 08.08.2019
4024 Rain 22 1018 78 10000 3.1 90 21:23 08.08.2019
4025 Rain 22 1018 83 10000 2.6 90 20:57 08.08.2019
4026 Rain 20 1019 88 10000 1.5 90 20:39 08.08.2019
4027 Rain 20 1019 88 10000 1.5 90 20:19 08.08.2019
4028 Rain 20 1018 82 10000 1 190 19:48 08.08.2019
4029 Rain 21 1018 73 10000 2.6 120 19:28 08.08.2019
4030 Rain 20 1018 88 8000 1 210 18:54 08.08.2019
4031 Rain 20 1018 88 10000 0.5 190 18:36 08.08.2019
4032 Rain 20 1018 88 10000 0.5 190 18:18 08.08.2019
4033 Rain 20 1018 88 10000 1.5 140 17:41 08.08.2019
4034 Rain 20 1018 88 10000 1.5 80 17:23 08.08.2019
4035 Rain 20 1018 88 10000 1.5 80 17:23 08.08.2019
4036 Rain 21 1018 77 10000 3.6 100 16:56 08.08.2019
4037 Rain 22 1018 73 10000 3.1 340 16:37 08.08.2019
4038 Rain 22 1018 73 10000 3.1 340 16:19 08.08.2019
4039 Drizzle 21 1018 73 10000 5.1 170 15:56 08.08.2019
4040 Rain 20 1018 88 10000 6.7 170 15:36 08.08.2019
4041 Rain 20 1018 88 10000 6.7 170 15:18 08.08.2019
4042 Rain 22 1018 88 10000 3.6 120 14:37 08.08.2019
4043 Rain 22 1018 88 10000 3.6 120 14:18 08.08.2019
4044 Rain 22 1018 88 8000 3.6 130 13:41 08.08.2019
4045 Rain 22 1019 94 10000 3.6 120 13:23 08.08.2019
4046 Rain 23 1018 88 7000 4.6 120 12:57 08.08.2019
4047 Rain 23 1018 88 9000 3.6 120 12:37 08.08.2019
4048 Rain 23 1018 88 9000 3.6 120 12:37 08.08.2019
4049 Rain 23 1018 88 9000 3.6 120 12:18 08.08.2019
4050 Rain 23 1018 88 10000 2.1 110 11:41 08.08.2019
4051 Rain 23 1018 88 9000 3.1 140 11:23 08.08.2019
4052 Rain 23 1018 88 10000 3.1 150 10:41 08.08.2019
4053 Rain 23 1018 88 10000 2.6 190 10:22 08.08.2019
4054 Rain 23 1018 88 10000 3.1 140 09:53 08.08.2019
4055 Rain 23 1018 88 10000 4.1 150 09:32 08.08.2019
4056 Rain 23 1017 94 10000 1 290 08:59 08.08.2019
4057 Rain 23 1017 94 10000 0.5 280 08:39 08.08.2019
4058 Rain 23 1017 94 10000 0.5 280 08:19 08.08.2019
4059 Rain 22 1017 100 10000 1 90 07:41 08.08.2019
4060 Rain 22 1017 100 10000 1 90 07:20 08.08.2019
4061 Rain 23 1016 94 10000 1 180 06:56 08.08.2019
4062 Rain 23 1016 100 5000 1 250 06:37 08.08.2019
4063 Rain 23 1016 94 3300 0.5 270 05:53 08.08.2019
4064 Rain 24 1016 94 2500 1 220 05:19 08.08.2019
4065 Rain 25 1016 83 10000 5.1 70 03:53 08.08.2019
4066 Rain 26 1016 78 10000 4.6 70 02:51 08.08.2019
4067 Rain 25 1017 83 10000 4.6 80 01:38 08.08.2019
4068 Rain 25 1018 88 4100 4.6 90 00:26 08.08.2019
4069 Rain 24 1018 88 10000 4.6 80 23:56 07.08.2019
4070 Rain 24 1018 88 10000 5.1 80 23:21 07.08.2019
4071 Rain 23 1018 94 10000 5.7 80 22:59 07.08.2019
4072 Drizzle 23 1018 94 3000 4.6 80 22:40 07.08.2019
4073 Drizzle 23 1018 94 3000 4.6 80 22:20 07.08.2019
4074 Rain 23 1018 94 10000 4.1 80 21:56 07.08.2019
4075 Rain 23 1018 94 6000 4.6 80 21:37 07.08.2019
4076 Rain 23 1018 94 6000 4.6 80 21:19 07.08.2019
4077 Rain 23 1018 88 10000 1.5 80 20:43 07.08.2019
4078 Rain 23 1018 88 10000 1.5 80 20:43 07.08.2019
4079 Rain 23 1018 88 10000 1.5 150 20:24 07.08.2019
4080 Rain 23 1018 88 10000 1.5 100 19:59 07.08.2019
4081 Rain 23 1018 83 10000 1.5 120 19:39 07.08.2019
4082 Rain 23 1018 83 10000 1.5 120 19:21 07.08.2019
4083 Rain 22 1016 88 10000 5.7 80 18:44 07.08.2019
4084 Rain 22 1016 88 10000 5.7 80 18:22 07.08.2019
4085 Rain 22 1016 88 10000 5.7 80 17:59 07.08.2019
4086 Rain 22 1016 88 10000 5.7 80 17:40 07.08.2019
4087 Rain 22 1017 88 10000 3.6 90 17:21 07.08.2019
4088 Rain 22 1017 88 10000 4.1 90 16:57 07.08.2019
4089 Rain 22 1017 88 10000 5.7 80 16:39 07.08.2019
4090 Rain 22 1017 88 10000 5.7 80 16:20 07.08.2019
4091 Rain 22 1017 88 10000 4.6 90 15:57 07.08.2019
4092 Rain 22 1017 88 10000 4.6 90 15:37 07.08.2019
4093 Clouds 22 1017 88 10000 4.6 90 15:19 07.08.2019
4094 Clouds 22 1018 88 10000 5.1 80 14:46 07.08.2019
4095 Clouds 22 1018 88 10000 3.6 90 14:27 07.08.2019
4096 Clouds 22 1018 83 10000 4.6 80 13:54 07.08.2019
4097 Clouds 22 1018 88 10000 4.6 90 13:36 07.08.2019
4098 Clouds 22 1018 88 10000 4.6 90 13:18 07.08.2019
4099 Clouds 22 1018 83 10000 3.6 100 12:55 07.08.2019
4100 Clouds 22 1018 83 10000 5.1 90 12:36 07.08.2019
4101 Clouds 22 1018 83 10000 5.1 90 12:36 07.08.2019
4102 Clouds 22 1018 83 10000 5.1 90 12:18 07.08.2019
4103 Clouds 22 1018 83 10000 6.2 90 11:42 07.08.2019
4104 Clouds 22 1019 83 10000 5.7 90 11:20 07.08.2019
4105 Clouds 22 1019 78 10000 1.5 110 10:56 07.08.2019
4106 Clouds 22 1019 78 10000 3.1 100 10:38 07.08.2019
4107 Clouds 22 1019 78 10000 3.1 100 10:18 07.08.2019
4108 Clouds 21 1019 88 10000 4.1 80 09:44 07.08.2019
4109 Clouds 21 1019 88 10000 3.6 80 09:22 07.08.2019
4110 Clouds 21 1018 88 10000 4.1 70 08:55 07.08.2019
4111 Clouds 22 1018 83 10000 5.1 90 08:37 07.08.2019
4112 Clouds 22 1018 83 10000 5.1 90 08:19 07.08.2019
4113 Clouds 22 1017 78 10000 2.6 120 07:39 07.08.2019
4114 Clouds 22 1017 78 10000 2.6 120 07:20 07.08.2019
4115 Clouds 23 1017 73 10000 2.6 100 06:29 07.08.2019
4116 Clouds 23 1017 73 10000 3.6 100 05:49 07.08.2019
4117 Clouds 23 1016 73 10000 4.6 90 04:51 07.08.2019
4118 Clouds 23 1016 78 10000 5.1 90 03:21 07.08.2019
4119 Clouds 24 1016 73 10000 5.1 90 02:44 07.08.2019
4120 Clouds 24 1017 73 10000 6.2 90 01:58 07.08.2019
4121 Clouds 24 1017 73 10000 4.6 110 01:31 07.08.2019
4122 Clouds 24 1017 73 10000 3.1 110 00:38 07.08.2019
4123 Clouds 24 1017 73 10000 3.1 110 00:19 07.08.2019
4124 Clouds 24 1017 73 10000 4.1 100 23:41 06.08.2019
4125 Clouds 24 1018 78 10000 5.7 90 23:21 06.08.2019
4126 Clouds 23 1018 83 10000 4.1 80 22:56 06.08.2019
4127 Clouds 22 1018 88 10000 3.6 90 22:37 06.08.2019
4128 Clouds 22 1018 88 10000 3.6 90 22:18 06.08.2019
4129 Rain 22 1017 88 10000 2.6 110 21:40 06.08.2019
4130 Rain 22 1017 88 10000 2.6 110 21:20 06.08.2019
4131 Rain 22 1017 88 10000 2.6 110 21:20 06.08.2019
4132 Rain 22 1017 88 10000 2.6 110 21:20 06.08.2019
4133 Rain 22 1017 88 10000 2.6 110 21:20 06.08.2019
4134 Rain 21 1017 94 10000 2.1 100 20:47 06.08.2019
4135 Rain 21 1017 88 10000 2.1 110 20:29 06.08.2019
4136 Rain 21 1017 88 10000 3.1 120 19:58 06.08.2019
4137 Rain 22 1016 83 10000 2.1 130 19:38 06.08.2019
4138 Rain 22 1016 83 10000 2.1 130 19:19 06.08.2019
4139 Rain 21 1016 88 10000 3.1 140 18:43 06.08.2019
4140 Rain 22 1016 83 10000 1.5 260 18:25 06.08.2019
4141 Rain 22 1016 83 10000 2.6 150 17:58 06.08.2019
4142 Drizzle 22 1016 83 10000 3.6 140 17:38 06.08.2019
4143 Drizzle 22 1016 83 10000 3.6 140 17:19 06.08.2019
4144 Rain 22 1016 83 10000 3.6 140 16:48 06.08.2019
4145 Rain 22 1016 88 10000 3.1 110 16:25 06.08.2019
4146 Rain 22 1016 88 10000 1.5 260 15:59 06.08.2019
4147 Rain 22 1016 88 10000 1.5 260 15:41 06.08.2019
4148 Rain 22 1016 88 9000 3.6 130 15:22 06.08.2019
4149 Rain 22 1016 88 10000 2.1 160 14:59 06.08.2019
4150 Rain 22 1016 88 10000 3.1 120 14:38 06.08.2019
4151 Rain 22 1016 88 10000 3.1 120 14:20 06.08.2019
4152 Rain 22 1016 94 7000 3.1 140 13:45 06.08.2019
4153 Rain 22 1016 94 10000 1 170 13:27 06.08.2019
4154 Rain 23 1017 88 8000 1.5 180 12:59 06.08.2019
4155 Rain 23 1017 94 10000 1.5 170 12:40 06.08.2019
4156 Rain 23 1017 94 10000 1.5 170 12:21 06.08.2019
4157 Rain 23 1017 94 4100 1 150 11:45 06.08.2019
4158 Drizzle 23 1017 94 7000 2.6 160 11:20 06.08.2019
4159 Rain 23 1016 88 10000 0.5 210 10:58 06.08.2019
4160 Rain 23 1016 94 10000 1 200 10:39 06.08.2019
4161 Rain 23 1016 94 10000 1 200 10:39 06.08.2019
4162 Rain 23 1016 94 10000 1 200 10:21 06.08.2019
4163 Rain 24 1016 88 10000 2.1 80 09:41 06.08.2019
4164 -273 0 0 0 0 0 09:21 06.08.2019
4165 Rain 24 1016 88 10000 0.5 40 09:21 06.08.2019
4166 -273 0 0 0 0 0 09:21 06.08.2019
4167 Rain 24 1016 88 10000 0.5 290 08:49 06.08.2019
4168 Rain 24 1016 88 10000 0.5 120 08:28 06.08.2019
4169 Rain 24 1015 88 10000 1 200 07:59 06.08.2019
4170 Rain 24 1015 83 10000 0.5 90 07:29 06.08.2019
4171 Rain 24 1015 88 10000 1 60 06:44 06.08.2019
4172 Haze 25 1015 83 5000 2.1 300 06:21 06.08.2019
4173 Rain 25 1014 83 10000 2.6 40 05:20 06.08.2019
4174 Rain 26 1015 83 10000 2.1 270 02:00 06.08.2019
4175 Rain 25 1015 88 10000 1.5 280 01:25 06.08.2019
4176 Rain 26 1016 78 10000 1 60 00:39 06.08.2019
4177 Rain 25 1016 88 10000 2.1 40 23:52 05.08.2019
4178 Rain 25 1016 88 10000 2.6 40 23:19 05.08.2019
4179 Drizzle 24 1017 94 6000 0.5 180 22:42 05.08.2019
4180 Drizzle 24 1017 94 6000 0.5 180 22:23 05.08.2019
4181 Rain 23 1016 94 10000 1 40 21:58 05.08.2019
4182 Rain 24 1016 94 10000 1.5 90 21:39 05.08.2019
4183 Rain 24 1016 94 10000 1.5 90 21:39 05.08.2019
4184 Rain 24 1016 94 10000 1.5 90 21:19 05.08.2019
4185 Rain 23 1016 94 10000 0.5 90 20:56 05.08.2019
4186 Rain 22 1016 100 10000 0.5 100 20:37 05.08.2019
4187 Rain 22 1016 100 10000 0.5 100 20:18 05.08.2019
4188 Mist 22 1015 100 3400 0.5 90 19:43 05.08.2019
4189 Rain 22 1015 100 10000 1 110 19:24 05.08.2019
4190 Rain 22 1015 100 8000 0.5 180 18:57 05.08.2019
4191 Rain 23 1015 94 8000 0.5 280 18:39 05.08.2019
4192 Rain 23 1015 94 8000 0.5 280 18:19 05.08.2019
4193 Rain 22 1015 100 10000 1 180 17:42 05.08.2019
4194 Rain 21 1015 100 10000 0.5 130 17:24 05.08.2019
4195 Rain 21 1015 100 10000 0.5 170 16:46 05.08.2019
4196 Rain 21 1015 100 10000 0.5 130 16:25 05.08.2019
4197 Rain 21 1015 100 10000 1 170 15:46 05.08.2019
4198 Rain 21 1015 94 10000 0.5 140 15:28 05.08.2019
4199 Rain 21 1015 94 10000 1 160 14:59 05.08.2019
4200 Rain 21 1015 100 10000 0.5 130 14:38 05.08.2019
4201 Rain 21 1015 100 10000 0.5 130 14:19 05.08.2019
4202 Rain 21 1015 100 10000 0.5 130 14:19 05.08.2019
4203 Rain 22 1015 94 10000 1 180 13:41 05.08.2019
4204 Clouds 22 1016 94 10000 1.5 190 13:21 05.08.2019
4205 Clouds 22 1016 94 10000 1.5 180 12:45 05.08.2019
4206 Rain 23 1016 94 10000 1.5 190 12:20 05.08.2019
4207 Rain 23 1016 88 10000 1 220 11:46 05.08.2019
4208 Rain 23 1016 94 10000 2.1 100 11:27 05.08.2019
4209 Rain 23 1016 88 10000 2.1 90 10:51 05.08.2019
4210 Rain 22 1016 94 10000 2.1 100 10:33 05.08.2019
4211 Rain 22 1016 94 10000 2.6 80 09:59 05.08.2019
4212 Rain 22 1016 94 10000 2.6 80 09:40 05.08.2019
4213 Rain 22 1016 94 10000 2.6 90 09:21 05.08.2019
4214 Rain 23 1015 88 10000 2.6 90 08:44 05.08.2019
4215 Rain 23 1015 88 10000 3.1 80 08:25 05.08.2019
4216 Rain 23 1015 88 10000 3.1 80 07:53 05.08.2019
4217 Rain 23 1015 88 10000 3.6 80 07:31 05.08.2019
4218 Rain 24 1014 83 10000 3.6 80 06:58 05.08.2019
4219 Rain 24 1014 83 10000 3.1 80 06:27 05.08.2019
4220 Rain 25 1014 78 10000 4.1 70 05:33 05.08.2019
4221 Rain 25 1013 83 10000 5.1 70 04:52 05.08.2019
4222 Rain 25 1013 83 10000 5.1 60 03:52 05.08.2019
4223 Rain 25 1014 78 10000 4.6 70 02:47 05.08.2019
4224 Rain 25 1014 78 10000 4.6 60 01:58 05.08.2019
4225 Rain 25 1015 78 10000 5.1 50 01:25 05.08.2019
4226 Rain 25 1015 78 10000 5.1 60 00:40 05.08.2019
4227 Rain 25 1015 78 10000 5.1 60 00:20 05.08.2019
4228 Rain 26 1016 78 10000 4.6 60 23:43 04.08.2019
4229 Rain 25 1016 78 10000 4.6 70 23:23 04.08.2019
4230 Rain 25 1016 78 10000 4.6 70 23:23 04.08.2019
4231 Rain 25 1016 83 10000 5.1 70 22:57 04.08.2019
4232 Rain 26 1016 78 10000 2.1 60 22:38 04.08.2019
4233 Rain 26 1016 78 10000 2.1 60 22:19 04.08.2019
4234 Rain 23 1016 88 10000 2.1 60 21:46 04.08.2019
4235 Rain 23 1016 94 10000 0.5 120 21:24 04.08.2019
4236 Rain 21 1016 100 10000 0.5 190 20:59 04.08.2019
4237 Rain 20 1015 100 10000 0.5 170 20:41 04.08.2019
4238 Rain 20 1015 100 10000 0.5 170 20:18 04.08.2019
4239 Rain 19 1015 100 10000 1 170 19:48 04.08.2019
4240 Rain 19 1015 100 10000 1 180 19:27 04.08.2019
4241 Mist 19 1015 100 4800 0.5 180 18:57 04.08.2019
4242 Mist 20 1014 94 3800 0.5 130 18:39 04.08.2019
4243 Mist 20 1014 94 3800 0.5 130 18:19 04.08.2019
4244 Mist 20 1014 94 5000 0.5 160 17:42 04.08.2019
4245 Clouds 20 1014 100 10000 1 200 17:21 04.08.2019
4246 Mist 20 1014 94 2600 1 170 16:45 04.08.2019
4247 Mist 20 1014 94 2600 0.5 120 16:26 04.08.2019
4248 Mist 20 1014 94 2600 0.5 120 16:26 04.08.2019
4249 Clouds 20 1014 94 8000 1.5 190 15:55 04.08.2019
4250 Clouds 20 1015 100 10000 0.5 160 15:37 04.08.2019
4251 Clouds 20 1015 100 10000 0.5 160 15:37 04.08.2019
4252 Clouds 20 1015 100 10000 0.5 160 15:37 04.08.2019
4253 Clouds 20 1015 100 10000 0.5 160 15:18 04.08.2019
4254 Fog 20 1015 100 2500 1 90 14:42 04.08.2019
4255 Clouds 20 1015 100 10000 0.5 170 14:20 04.08.2019
4256 Clouds 20 1015 100 10000 0.5 170 13:43 04.08.2019
4257 Clouds 21 1015 94 10000 1 180 13:23 04.08.2019
4258 Clouds 21 1015 94 10000 1 190 12:47 04.08.2019
4259 Clouds 21 1016 94 10000 1.5 190 12:28 04.08.2019
4260 Clouds 21 1015 94 10000 1 190 11:58 04.08.2019
4261 Clouds 22 1015 88 10000 1 190 11:38 04.08.2019
4262 Clouds 22 1015 88 10000 1 190 11:19 04.08.2019
4263 Clouds 22 1015 94 10000 1.5 190 10:41 04.08.2019
4264 Clouds 22 1015 94 10000 1 190 10:21 04.08.2019
4265 Clouds 23 1015 88 10000 1.5 190 09:45 04.08.2019
4266 Clouds 23 1015 88 10000 1.5 190 09:23 04.08.2019
4267 Clouds 23 1015 88 10000 1.5 200 08:48 04.08.2019
4268 Clouds 23 1015 88 10000 1.5 210 08:27 04.08.2019
4269 Clouds 23 1014 88 9000 1.5 220 07:52 04.08.2019
4270 Clouds 24 1014 83 10000 1 210 07:20 04.08.2019
4271 Clouds 25 1014 73 10000 2.1 290 06:28 04.08.2019
4272 Clouds 26 1013 69 10000 2.1 310 04:29 04.08.2019
4273 Clouds 26 1014 74 10000 2.6 360 02:43 04.08.2019
4274 Clouds 26 1015 78 10000 2.1 360 01:39 04.08.2019
4275 Clouds 26 1015 78 10000 2.1 360 01:18 04.08.2019
4276 Clouds 26 1015 78 10000 2.1 360 01:18 04.08.2019
4277 Clouds 26 1016 74 10000 2.1 360 00:41 04.08.2019
4278 Clouds 26 1016 74 10000 2.1 360 00:19 04.08.2019
4279 Clouds 26 1016 74 10000 2.1 10 23:40 03.08.2019
4280 Clouds 26 1016 74 10000 2.1 10 23:18 03.08.2019
4281 Clouds 25 1016 73 10000 2.6 30 22:44 03.08.2019
4282 Clouds 25 1016 78 10000 3.1 20 22:21 03.08.2019
4283 Clouds 24 1016 83 10000 3.1 50 21:56 03.08.2019
4284 Clouds 24 1016 83 10000 3.1 50 21:36 03.08.2019
4285 Clouds 24 1016 83 10000 3.1 50 21:36 03.08.2019
4286 Clouds 24 1016 83 10000 3.1 50 21:18 03.08.2019
4287 Clouds 24 1016 83 10000 3.1 50 21:18 03.08.2019
4288 Clouds 23 1015 88 10000 2.6 90 20:41 03.08.2019
4289 Clouds 21 1015 94 10000 2.1 90 20:20 03.08.2019
4290 Clouds 20 1015 94 10000 2.1 90 19:42 03.08.2019
4291 Clouds 20 1015 94 10000 2.1 90 19:23 03.08.2019
4292 Clouds 20 1014 94 10000 1.5 90 18:50 03.08.2019
4293 Clouds 19 1014 100 10000 1.5 80 18:27 03.08.2019
4294 Clear 19 1014 100 10000 1.5 110 17:49 03.08.2019
4295 Clear 19 1014 100 6000 1 80 17:21 03.08.2019
4296 Fog 19 1014 100 3900 0.5 110 16:56 03.08.2019
4297 Clear 19 1014 100 10000 0.5 180 16:37 03.08.2019
4298 Clear 19 1014 100 10000 0.5 180 16:18 03.08.2019
4299 Clear 19 1014 100 10000 0.5 170 15:43 03.08.2019
4300 Clouds 20 1014 94 8000 0.5 130 15:21 03.08.2019
4301 Clouds 19 1015 100 10000 0.5 110 14:39 03.08.2019
4302 Clouds 19 1015 100 10000 0.5 110 14:20 03.08.2019
4303 Clouds 20 1015 94 10000 0.5 80 13:50 03.08.2019
4304 Clouds 20 1015 94 10000 0.5 90 13:24 03.08.2019
4305 Clouds 20 1015 94 10000 0.5 100 12:57 03.08.2019
4306 Clouds 20 1015 94 10000 0.5 170 12:38 03.08.2019
4307 Clear 20 1015 94 10000 0.5 170 12:20 03.08.2019
4308 Clear 20 1015 100 10000 0.5 210 11:47 03.08.2019
4309 Clear 20 1016 100 10000 1 180 11:25 03.08.2019
4310 Clear 20 1015 94 10000 0.5 220 10:40 03.08.2019
4311 Clear 20 1015 94 10000 0.5 220 10:21 03.08.2019
4312 Clear 21 1015 88 10000 0.5 120 09:39 03.08.2019
4313 Clear 21 1015 88 10000 0.5 120 09:19 03.08.2019
4314 Clear 21 1015 94 10000 0.5 200 08:46 03.08.2019
4315 Clear 24 1014 78 10000 1 120 07:41 03.08.2019
4316 Clear 24 1014 78 10000 1 120 07:22 03.08.2019
4317 Clear 25 1014 73 10000 2.1 90 06:21 03.08.2019
4318 Clear 25 1014 73 10000 1 180 03:36 03.08.2019
4319 Clouds 25 1015 78 10000 1.5 210 02:28 03.08.2019
4320 Clouds 26 1016 74 10000 2.1 280 01:22 03.08.2019
4321 Clouds 26 1016 74 10000 2.1 330 00:32 03.08.2019
4322 Clouds 26 1016 74 10000 2.1 330 00:32 03.08.2019
4323 Clear 25 1016 78 10000 1.5 360 23:55 02.08.2019
4324 Clear 25 1016 78 10000 1.5 350 23:37 02.08.2019
4325 Clear 25 1016 78 10000 1.5 350 23:18 02.08.2019
4326 Clear 25 1016 83 10000 1.5 340 22:40 02.08.2019
4327 Clear 25 1016 78 10000 1 20 22:22 02.08.2019
4328 Clear 24 1016 83 10000 1 330 21:56 02.08.2019
4329 Clear 23 1016 94 10000 0.5 60 21:38 02.08.2019
4330 Clouds 23 1016 94 10000 0.5 60 21:20 02.08.2019
4331 Clouds 23 1016 94 10000 0.5 190 20:43 02.08.2019
4332 Clouds 21 1015 94 10000 1 180 20:23 02.08.2019
4333 Clouds 20 1015 94 10000 0.5 200 19:55 02.08.2019
4334 Clouds 20 1015 94 10000 1.5 190 19:33 02.08.2019
4335 Fog 20 1015 100 1500 0.5 170 18:57 02.08.2019
4336 Clouds 19 1014 100 10000 1 170 18:38 02.08.2019
4337 Clouds 19 1014 100 10000 1 170 18:18 02.08.2019
4338 Clouds 20 1014 100 10000 0.5 150 17:39 02.08.2019
4339 Clouds 20 1014 100 10000 0.5 150 17:20 02.08.2019
4340 Clouds 20 1014 94 10000 0.5 160 16:40 02.08.2019
4341 Clouds 20 1014 94 10000 0.5 160 16:20 02.08.2019
4342 Clouds 20 1015 94 10000 0.5 170 15:56 02.08.2019
4343 Clouds 20 1015 100 10000 0.5 170 15:36 02.08.2019
4344 Clouds 20 1015 100 10000 0.5 170 15:18 02.08.2019
4345 Clouds 20 1015 94 10000 0.5 100 14:41 02.08.2019
4346 Clouds 20 1015 100 10000 0.5 130 14:18 02.08.2019
4347 Clouds 20 1015 100 10000 0.5 110 13:45 02.08.2019
4348 Clouds 20 1015 100 10000 0.5 160 13:20 02.08.2019
4349 Clouds 21 1015 94 10000 0.5 100 12:43 02.08.2019
4350 Clouds 21 1015 94 10000 1 80 12:19 02.08.2019
4351 Clouds 21 1016 94 10000 0.5 140 11:41 02.08.2019
4352 Clouds 21 1016 94 10000 1 90 11:22 02.08.2019
4353 Clouds 21 1016 94 10000 1 80 10:45 02.08.2019
4354 Clouds 21 1016 94 10000 0.5 80 10:24 02.08.2019
4355 Clouds 22 1016 94 10000 0.5 70 09:55 02.08.2019
4356 Clouds 23 1015 88 10000 1.5 100 09:37 02.08.2019
4357 Clouds 23 1015 88 10000 1.5 100 09:18 02.08.2019
4358 Clouds 23 1015 88 10000 1.5 110 08:40 02.08.2019
4359 Clouds 23 1015 88 10000 2.1 90 08:18 02.08.2019
4360 Clouds 24 1015 83 10000 2.6 50 07:40 02.08.2019
4361 Clouds 24 1015 83 10000 2.6 50 07:21 02.08.2019
4362 Clouds 25 1014 78 10000 2.6 30 06:31 02.08.2019
4363 Clouds 25 1014 78 10000 2.6 50 05:42 02.08.2019
4364 Clouds 26 1014 78 10000 3.1 40 03:33 02.08.2019
4365 Clouds 26 1015 78 10000 3.1 40 02:37 02.08.2019
4366 Clouds 26 1016 78 10000 3.1 40 01:34 02.08.2019
4367 Clouds 26 1016 78 10000 3.1 40 00:31 02.08.2019
4368 Clouds 26 1017 78 10000 3.1 40 23:44 01.08.2019
4369 Clouds 26 1017 78 10000 2.6 40 23:24 01.08.2019
4370 Clouds 26 1017 78 10000 3.1 40 22:42 01.08.2019
4371 Clouds 25 1017 83 10000 3.1 40 22:22 01.08.2019
4372 Clouds 25 1017 78 10000 2.6 40 21:55 01.08.2019
4373 Clouds 25 1017 83 10000 2.1 30 21:37 01.08.2019
4374 Clouds 25 1017 83 10000 2.1 30 21:19 01.08.2019
4375 Clouds 25 1017 83 10000 2.6 30 20:44 01.08.2019
4376 Clouds 24 1016 88 10000 2.1 30 20:23 01.08.2019
4377 Clouds 24 1016 88 10000 2.1 30 19:45 01.08.2019
4378 Clouds 24 1016 88 10000 2.1 20 19:23 01.08.2019
4379 Clouds 23 1015 94 10000 1.5 50 18:58 01.08.2019
4380 Clouds 23 1015 88 10000 1.5 80 18:40 01.08.2019
4381 Clouds 23 1015 88 10000 1.5 80 18:40 01.08.2019
4382 Clouds 23 1015 88 10000 1.5 80 18:21 01.08.2019
4383 Clouds 23 1015 88 10000 2.1 70 17:45 01.08.2019
4384 Clouds 23 1015 88 10000 2.1 70 17:26 01.08.2019
4385 Clouds 24 1015 88 10000 2.6 50 16:44 01.08.2019
4386 Clouds 24 1015 88 10000 3.1 50 16:22 01.08.2019
4387 Clouds 24 1015 88 10000 3.1 50 16:22 01.08.2019
4388 Clouds 24 1015 88 10000 3.6 60 15:45 01.08.2019
4389 Clouds 24 1015 88 10000 3.1 60 15:20 01.08.2019
4390 Clouds 23 1016 94 10000 2.1 90 14:44 01.08.2019
4391 Clouds 23 1016 94 10000 2.6 80 14:22 01.08.2019
4392 Clouds 23 1016 88 10000 2.6 80 13:59 01.08.2019
4393 Clouds 23 1016 88 10000 2.6 80 13:41 01.08.2019
4394 Clear 23 1016 88 10000 2.6 60 13:21 01.08.2019
4395 Clear 23 1016 94 10000 2.1 80 12:52 01.08.2019
4396 Clear 23 1016 88 10000 2.6 70 12:33 01.08.2019
4397 Clear 24 1016 88 10000 3.6 60 11:58 01.08.2019
4398 Clear 24 1016 88 10000 3.6 60 11:40 01.08.2019
4399 Clear 24 1016 88 10000 3.6 60 11:22 01.08.2019
4400 Clear 24 1016 88 10000 3.1 60 10:43 01.08.2019
4401 Clear 24 1016 88 10000 4.1 60 10:25 01.08.2019
4402 Clear 24 1016 88 10000 4.1 60 09:50 01.08.2019
4403 Clear 24 1016 88 10000 4.1 60 09:24 01.08.2019
4404 Clouds 24 1015 88 10000 4.1 60 08:57 01.08.2019
4405 Clouds 25 1015 83 10000 4.1 60 08:39 01.08.2019
4406 Clouds 25 1015 83 10000 4.1 60 08:18 01.08.2019
4407 Clouds 25 1015 83 10000 4.1 60 07:42 01.08.2019
4408 Clouds 25 1015 83 10000 4.1 50 07:18 01.08.2019
4409 Clouds 25 1015 83 10000 3.6 50 06:39 01.08.2019
4410 Clouds 25 1014 83 10000 4.1 40 05:32 01.08.2019
4411 Clouds 25 1014 83 10000 4.1 40 05:32 01.08.2019
4412 Clouds 26 1015 83 10000 4.6 40 02:36 01.08.2019
4413 Clouds 26 1016 78 10000 4.6 50 01:33 01.08.2019
4414 Clouds 26 1016 78 10000 4.6 40 00:27 01.08.2019
4415 Clouds 26 1017 78 10000 4.6 40 23:59 31.07.2019
4416 Clouds 26 1017 78 10000 4.6 40 23:40 31.07.2019
4417 Clouds 26 1017 78 10000 5.1 40 23:19 31.07.2019
4418 Clouds 26 1017 78 10000 4.6 40 22:44 31.07.2019
4419 Clouds 26 1017 78 10000 4.6 40 22:24 31.07.2019
4420 Clouds 26 1017 78 10000 5.1 50 21:41 31.07.2019
4421 Clouds 25 1017 83 10000 4.1 50 21:23 31.07.2019
4422 Clouds 25 1016 83 10000 4.1 40 20:49 31.07.2019
4423 Clouds 24 1016 88 10000 4.1 50 20:24 31.07.2019
4424 Clouds 24 1016 88 10000 4.1 50 19:49 31.07.2019
4425 Clouds 24 1016 83 10000 4.6 40 19:31 31.07.2019
4426 Clouds 24 1015 88 10000 4.6 50 18:58 31.07.2019
4427 Clouds 24 1015 88 10000 5.1 50 18:37 31.07.2019
4428 Clear 24 1015 88 10000 5.1 50 18:18 31.07.2019
4429 Clear 24 1015 88 10000 4.6 50 17:44 31.07.2019
4430 Clear 24 1015 88 10000 4.6 50 17:20 31.07.2019
4431 Clear 24 1015 88 10000 4.6 40 16:52 31.07.2019
4432 Clear 24 1015 88 10000 4.6 50 16:26 31.07.2019
4433 Clear 24 1015 88 10000 5.1 50 15:55 31.07.2019
4434 Clear 24 1016 88 10000 5.1 50 15:37 31.07.2019
4435 Clear 24 1016 88 10000 5.1 50 15:37 31.07.2019
4436 Rain 24 1016 88 10000 5.1 50 15:18 31.07.2019
4437 Rain 24 1016 88 10000 5.1 60 14:42 31.07.2019
4438 Rain 24 1016 88 10000 6.2 60 14:19 31.07.2019
4439 Rain 24 1016 88 10000 6.2 60 13:46 31.07.2019
4440 Rain 24 1016 88 10000 6.2 60 13:28 31.07.2019
4441 Clouds 24 1016 88 10000 6.7 60 12:58 31.07.2019
4442 Clouds 24 1016 88 10000 5.7 60 12:40 31.07.2019
4443 Rain 24 1016 88 10000 5.7 60 12:21 31.07.2019
4444 Rain 24 1017 88 10000 5.1 60 11:39 31.07.2019
4445 Rain 24 1017 88 10000 5.1 60 11:20 31.07.2019
4446 Rain 24 1017 88 10000 5.7 70 10:44 31.07.2019
4447 Rain 24 1017 88 10000 6.2 70 10:21 31.07.2019
4448 Rain 24 1017 88 7000 5.1 50 09:57 31.07.2019
4449 Rain 25 1016 83 10000 5.1 70 09:38 31.07.2019
4450 Clouds 25 1016 83 10000 5.1 70 09:20 31.07.2019
4451 Clear 24 1016 83 10000 5.1 70 08:41 31.07.2019
4452 Clear 24 1016 83 10000 5.7 70 08:21 31.07.2019
4453 Clear 24 1015 83 10000 6.7 60 07:35 31.07.2019
4454 Clear 25 1015 78 10000 5.1 60 06:35 31.07.2019
4455 Clear 25 1014 78 10000 6.7 60 04:52 31.07.2019
4456 Clear 26 1014 78 10000 6.7 60 03:24 31.07.2019
4457 Clear 25 1017 78 10000 7.2 60 23:58 30.07.2019
4458 Clear 25 1017 78 10000 6.7 60 23:40 30.07.2019
4459 Clear 25 1017 78 10000 6.7 60 23:19 30.07.2019
4460 Clear 25 1017 78 10000 7.2 60 22:46 30.07.2019
4461 Clear 25 1017 78 10000 7.2 60 22:25 30.07.2019
4462 Clear 25 1017 78 10000 7.2 60 21:54 30.07.2019
4463 Clear 25 1017 78 10000 7.2 60 21:36 30.07.2019
4464 Clouds 25 1017 78 10000 7.2 60 21:18 30.07.2019
4465 Clouds 24 1016 83 10000 7.7 70 20:41 30.07.2019
4466 Clouds 24 1016 83 10000 7.7 70 20:23 30.07.2019
4467 Clouds 24 1016 83 10000 7.7 60 19:58 30.07.2019
4468 Clouds 24 1015 83 10000 7.7 60 19:38 30.07.2019
4469 Clouds 24 1015 83 10000 8.2 60 18:56 30.07.2019
4470 Clouds 24 1015 83 10000 8.2 60 18:38 30.07.2019
4471 Clouds 24 1015 83 10000 8.2 60 18:18 30.07.2019
4472 Clouds 24 1015 83 10000 8.2 60 17:41 30.07.2019
4473 Clouds 24 1015 83 10000 7.7 60 17:19 30.07.2019
4474 Clouds 24 1015 83 10000 7.2 60 16:50 30.07.2019
4475 Clouds 24 1016 83 10000 6.7 60 16:20 30.07.2019
4476 Clouds 24 1016 83 10000 7.2 60 15:55 30.07.2019
4477 Clouds 24 1017 83 10000 7.2 70 15:36 30.07.2019
4478 Rain 24 1017 83 10000 7.2 70 15:18 30.07.2019
4479 Rain 24 1017 83 10000 7.2 70 14:41 30.07.2019
4480 Rain 24 1017 83 10000 6.7 70 14:19 30.07.2019
4481 Rain 24 1017 83 10000 6.7 70 13:44 30.07.2019
4482 Clouds 24 1017 83 10000 7.2 70 13:25 30.07.2019
4483 Clouds 24 1017 83 10000 7.2 70 12:57 30.07.2019
4484 Clouds 24 1018 83 10000 6.7 70 12:38 30.07.2019
4485 Clear 24 1018 83 10000 6.7 70 12:19 30.07.2019
4486 Clear 24 1018 83 10000 7.2 70 11:38 30.07.2019
4487 Clear 24 1018 83 10000 7.2 70 11:19 30.07.2019
4488 Clear 24 1018 83 10000 7.2 70 10:42 30.07.2019
4489 Clear 23 1018 88 10000 6.2 70 10:23 30.07.2019
4490 Clear 24 1018 83 10000 6.7 70 09:49 30.07.2019
4491 Clear 24 1017 83 10000 6.2 70 09:31 30.07.2019
4492 Clear 24 1017 83 10000 6.2 70 08:47 30.07.2019
4493 Clear 24 1017 83 10000 6.2 70 08:28 30.07.2019
4494 Clear 24 1017 83 10000 6.2 70 07:47 30.07.2019
4495 Clear 24 1017 83 10000 6.2 70 07:47 30.07.2019
4496 Clear 24 1016 83 10000 6.7 70 07:28 30.07.2019
4497 Clear 24 1016 83 10000 5.7 70 06:47 30.07.2019
4498 Clear 25 1016 78 10000 6.2 70 05:56 30.07.2019
4499 Clear 25 1016 78 10000 6.7 60 05:32 30.07.2019
4500 Clear 26 1018 74 10000 7.2 70 01:40 30.07.2019
4501 Clear 26 1018 74 10000 7.2 70 00:41 30.07.2019
4502 Clear 26 1018 74 10000 7.2 70 00:20 30.07.2019
4503 Clear 25 1019 78 10000 7.2 70 23:44 29.07.2019
4504 Clear 25 1019 78 10000 8.2 70 23:25 29.07.2019
4505 Clear 25 1019 78 10000 7.7 70 22:57 29.07.2019
4506 Clear 25 1019 78 10000 7.2 70 22:38 29.07.2019
4507 Clear 25 1019 78 10000 7.2 70 22:38 29.07.2019
4508 Clear 25 1019 78 10000 7.2 70 22:19 29.07.2019
4509 Clear 24 1019 78 10000 7.7 70 21:46 29.07.2019
4510 Clear 24 1019 78 10000 7.7 70 21:46 29.07.2019
4511 Clear 24 1019 78 10000 6.7 70 21:28 29.07.2019
4512 Clear 24 1018 78 10000 6.7 70 20:58 29.07.2019
4513 Clear 23 1018 83 10000 6.7 70 20:40 29.07.2019
4514 Clear 23 1018 83 10000 6.7 70 20:21 29.07.2019
4515 Clear 23 1018 83 10000 6.7 70 19:50 29.07.2019
4516 Clear 23 1018 83 10000 7.2 70 19:24 29.07.2019
4517 Clear 23 1017 83 10000 7.2 70 18:59 29.07.2019
4518 Clear 23 1017 83 10000 7.7 70 18:40 29.07.2019
4519 Clear 23 1017 83 10000 7.7 70 18:20 29.07.2019
4520 Clear 23 1017 88 10000 6.7 80 17:49 29.07.2019
4521 Clear 23 1017 88 10000 6.7 70 17:31 29.07.2019
4522 Clear 23 1017 88 10000 6.2 80 16:57 29.07.2019
4523 Clear 23 1017 83 10000 5.1 80 16:37 29.07.2019
4524 Clear 23 1017 83 10000 5.1 80 16:19 29.07.2019
4525 Clear 23 1017 83 10000 5.7 80 15:47 29.07.2019
4526 Clear 23 1017 83 10000 5.7 80 15:28 29.07.2019
4527 Clouds 23 1017 83 10000 7.2 70 14:43 29.07.2019
4528 Clouds 23 1018 83 10000 7.2 70 14:21 29.07.2019
4529 Clouds 23 1018 88 10000 6.7 70 13:50 29.07.2019
4530 Clouds 23 1018 88 10000 6.7 80 13:24 29.07.2019
4531 Clouds 23 1018 88 10000 7.2 70 12:59 29.07.2019
4532 Clouds 23 1018 88 10000 6.7 80 12:40 29.07.2019
4533 Rain 23 1018 88 10000 6.7 80 12:21 29.07.2019
4534 Rain 23 1018 88 10000 5.7 80 11:42 29.07.2019
4535 Rain 23 1018 88 10000 6.2 80 11:19 29.07.2019
4536 Rain 23 1018 88 10000 6.7 80 10:44 29.07.2019
4537 Rain 23 1019 88 10000 6.2 80 10:22 29.07.2019
4538 Rain 23 1018 88 10000 5.7 80 09:44 29.07.2019
4539 Clouds 24 1018 83 10000 7.7 70 09:21 29.07.2019
4540 Clouds 23 1018 88 10000 6.7 80 08:47 29.07.2019
4541 Clouds 24 1018 83 10000 7.7 80 08:26 29.07.2019
4542 Clouds 23 1017 88 10000 6.7 70 07:46 29.07.2019
4543 Clouds 23 1017 88 10000 6.7 70 07:27 29.07.2019
4544 Clouds 24 1016 83 10000 8.2 70 06:40 29.07.2019
4545 Clouds 24 1016 83 10000 7.2 60 05:36 29.07.2019
4546 Rain 24 1017 83 10000 7.7 60 02:54 29.07.2019
4547 Rain 24 1018 88 10000 6.7 70 01:50 29.07.2019
4548 Rain 24 1019 88 10000 6.2 70 01:31 29.07.2019
4549 Rain 24 1019 88 10000 7.2 60 00:57 29.07.2019
4550 Rain 23 1019 94 10000 7.2 70 00:24 29.07.2019
4551 Rain 24 1020 88 10000 6.2 70 23:42 28.07.2019
4552 Rain 24 1020 88 10000 5.7 80 23:24 28.07.2019
4553 Rain 24 1020 83 10000 5.7 80 22:43 28.07.2019
4554 Rain 24 1020 83 10000 6.7 80 22:25 28.07.2019
4555 Rain 24 1020 83 10000 7.2 70 21:51 28.07.2019
4556 Clouds 24 1019 83 10000 7.7 70 21:20 28.07.2019
4557 Clouds 24 1019 78 10000 7.2 70 20:49 28.07.2019
4558 Clouds 24 1018 78 10000 7.7 70 20:31 28.07.2019
4559 Clouds 23 1019 83 10000 6.7 70 19:58 28.07.2019
4560 Clouds 23 1019 88 10000 4.6 80 19:40 28.07.2019
4561 Clouds 23 1019 88 10000 4.6 80 19:20 28.07.2019
4562 Clouds 23 1019 88 10000 6.2 70 18:45 28.07.2019
4563 Clouds 24 1018 78 10000 7.2 60 18:25 28.07.2019
4564 Clouds 23 1018 88 10000 7.2 70 17:55 28.07.2019
4565 Clouds 23 1018 88 10000 7.2 70 17:55 28.07.2019
4566 Clouds 23 1018 88 10000 7.7 80 17:37 28.07.2019
4567 Clouds 23 1018 88 10000 7.7 80 17:19 28.07.2019
4568 Clouds 23 1018 88 10000 7.7 80 16:41 28.07.2019
4569 Clouds 23 1018 88 10000 7.7 80 16:22 28.07.2019
4570 Clouds 23 1018 88 10000 7.2 80 15:44 28.07.2019
4571 Clouds 23 1018 88 10000 7.2 80 15:24 28.07.2019
4572 Clouds 23 1019 83 10000 4.1 90 14:39 28.07.2019
4573 Clouds 23 1019 83 10000 4.1 90 14:20 28.07.2019
4574 Clouds 23 1019 83 10000 5.1 90 13:56 28.07.2019
4575 Clouds 23 1019 83 10000 5.7 90 13:37 28.07.2019
4576 Clouds 23 1019 83 10000 5.7 90 13:19 28.07.2019
4577 Clouds 23 1018 83 10000 7.2 80 12:41 28.07.2019
4578 Clouds 23 1018 83 10000 7.7 80 12:23 28.07.2019
4579 Rain 23 1018 83 10000 7.7 90 11:48 28.07.2019
4580 Rain 23 1020 83 10000 4.1 80 11:27 28.07.2019
4581 Drizzle 23 1019 83 10000 5.1 80 10:42 28.07.2019
4582 Clouds 23 1019 78 10000 8.2 80 10:22 28.07.2019
4583 Clouds 22 1018 88 10000 7.7 80 09:54 28.07.2019
4584 Rain 23 1018 83 10000 8.7 80 09:36 28.07.2019
4585 Rain 23 1018 83 10000 8.7 80 09:18 28.07.2019
4586 Rain 23 1019 83 10000 6.7 80 08:41 28.07.2019
4587 Rain 22 1018 88 10000 9.3 80 08:18 28.07.2019
4588 Rain 23 1017 83 10000 9.8 80 07:38 28.07.2019
4589 Rain 23 1018 78 10000 8.7 80 06:46 28.07.2019
4590 Rain 23 1018 78 10000 6.7 90 05:53 28.07.2019
4591 Rain 23 1019 78 10000 2.6 110 03:39 28.07.2019
4592 Rain 23 1019 83 10000 2.6 120 02:24 28.07.2019
4593 Clouds 24 1020 73 10000 4.6 100 01:20 28.07.2019
4594 Clouds 23 1020 78 10000 4.6 100 00:45 28.07.2019
4595 Clouds 23 1020 78 10000 4.6 90 00:19 28.07.2019
4596 Rain 24 1021 73 10000 4.6 90 23:46 27.07.2019
4597 Clouds 24 1021 73 10000 3.1 100 23:20 27.07.2019
4598 Clouds 24 1020 73 10000 3.6 100 22:41 27.07.2019
4599 Clouds 23 1020 78 10000 4.1 100 22:41 27.07.2019
4600 Clouds 23 1020 78 10000 4.1 100 22:20 27.07.2019
4601 Clouds 23 1020 73 10000 2.1 120 21:41 27.07.2019
4602 Clouds 23 1020 73 10000 2.1 120 21:20 27.07.2019
4603 Clouds 22 1019 78 10000 3.1 110 20:51 27.07.2019
4604 Clouds 22 1019 83 10000 3.1 100 20:25 27.07.2019
4605 Clouds 22 1018 83 10000 2.6 100 19:48 27.07.2019
4606 Clouds 22 1018 78 10000 3.1 100 19:27 27.07.2019
4607 Clouds 22 1018 83 10000 3.6 100 18:55 27.07.2019
4608 Clouds 22 1018 78 10000 2.1 100 18:36 27.07.2019
4609 Rain 22 1017 83 10000 2.1 90 17:57 27.07.2019
4610 Rain 22 1017 83 10000 2.1 90 17:57 27.07.2019
4611 Rain 22 1017 78 10000 2.1 110 17:36 27.07.2019
4612 Rain 22 1017 78 10000 2.1 110 17:18 27.07.2019
4613 Rain 22 1017 78 10000 2.1 90 16:46 27.07.2019
4614 Rain 22 1017 78 10000 2.6 100 16:28 27.07.2019
4615 Rain 22 1018 78 10000 2.1 100 15:53 27.07.2019
4616 Rain 22 1018 78 10000 2.6 100 15:22 27.07.2019
4617 Rain 22 1018 83 10000 2.6 100 14:51 27.07.2019
4618 Rain 22 1018 78 10000 2.6 100 14:32 27.07.2019
4619 Rain 22 1018 83 10000 2.1 110 13:56 27.07.2019
4620 Rain 22 1018 78 10000 3.1 100 13:38 27.07.2019
4621 Rain 22 1018 78 10000 3.1 100 13:19 27.07.2019
4622 Rain 22 1018 78 10000 3.6 90 12:41 27.07.2019
4623 Clouds 22 1018 78 10000 3.6 90 12:21 27.07.2019
4624 Clouds 22 1019 78 10000 3.1 100 11:42 27.07.2019
4625 Clouds 22 1019 78 10000 3.1 100 11:42 27.07.2019
4626 Clouds 22 1019 78 10000 3.1 100 11:24 27.07.2019
4627 Rain 21 1019 83 10000 2.1 100 10:42 27.07.2019
4628 Clouds 22 1020 78 10000 1.5 120 10:23 27.07.2019
4629 Clouds 22 1019 78 10000 2.1 120 09:43 27.07.2019
4630 Rain 21 1018 83 10000 2.6 100 09:23 27.07.2019
4631 Clouds 21 1018 83 10000 4.1 100 08:52 27.07.2019
4632 Clouds 21 1018 83 10000 3.1 100 08:33 27.07.2019
4633 Clouds 21 1018 88 10000 3.6 110 07:57 27.07.2019
4634 Clouds 21 1018 88 10000 3.6 110 07:57 27.07.2019
4635 Clouds 21 1018 88 10000 1.5 100 07:38 27.07.2019
4636 Clouds 21 1018 88 10000 1.5 100 07:18 27.07.2019
4637 Rain 21 1018 94 10000 0.5 150 06:49 27.07.2019
4638 Rain 22 1018 83 10000 2.1 100 06:20 27.07.2019
4639 Rain 23 1017 73 10000 4.1 100 05:34 27.07.2019
4640 Rain 23 1016 73 10000 6.7 90 04:38 27.07.2019
4641 Rain 24 1018 73 10000 3.6 100 03:40 27.07.2019
4642 Rain 23 1018 78 10000 4.1 100 02:42 27.07.2019
4643 Clouds 24 1018 69 10000 3.6 100 01:54 27.07.2019
4644 Clouds 24 1019 69 10000 4.1 100 01:31 27.07.2019
4645 Clouds 23 1019 73 10000 3.6 110 00:33 27.07.2019
4646 Clouds 25 1019 69 10000 5.1 80 23:58 26.07.2019
4647 Clouds 24 1019 69 10000 5.1 80 23:40 26.07.2019
4648 Clouds 24 1019 69 10000 5.1 80 23:22 26.07.2019
4649 Clouds 24 1019 73 10000 4.6 80 22:42 26.07.2019
4650 Clouds 23 1019 78 10000 6.7 70 22:24 26.07.2019
4651 Clouds 22 1019 78 10000 3.1 80 21:49 26.07.2019
4652 Clouds 22 1019 83 10000 2.1 100 21:20 26.07.2019
4653 Clouds 22 1019 78 10000 1.5 160 20:45 26.07.2019
4654 Clouds 21 1018 83 10000 3.1 90 20:27 26.07.2019
4655 Clouds 20 1018 88 10000 1.5 160 19:44 26.07.2019
4656 Clouds 20 1017 88 10000 3.1 90 19:26 26.07.2019
4657 Clouds 20 1018 88 10000 2.6 130 18:58 26.07.2019
4658 Clouds 20 1018 94 10000 1 100 18:38 26.07.2019
4659 Clouds 20 1018 94 10000 1 100 18:20 26.07.2019
4660 Rain 20 1018 94 10000 1.5 70 17:47 26.07.2019
4661 Clouds 20 1018 94 10000 1 80 17:19 26.07.2019
4662 Clouds 20 1018 94 10000 1 80 17:19 26.07.2019
4663 Clouds 20 1018 94 10000 1 100 16:57 26.07.2019
4664 Rain 20 1017 94 6000 3.6 100 16:39 26.07.2019
4665 Rain 20 1017 94 6000 3.6 100 16:20 26.07.2019
4666 Clouds 21 1017 88 10000 1 110 15:56 26.07.2019
4667 Clouds 21 1018 83 10000 0.5 220 15:38 26.07.2019
4668 Clouds 21 1018 83 10000 0.5 220 15:18 26.07.2019
4669 Clouds 21 1018 83 10000 1.5 100 14:42 26.07.2019
4670 Clouds 21 1018 88 10000 2.6 80 14:22 26.07.2019
4671 Clouds 21 1018 83 10000 1.5 90 13:42 26.07.2019
4672 Clouds 21 1019 83 10000 1 170 13:24 26.07.2019
4673 Clouds 21 1018 83 10000 1.5 110 12:49 26.07.2019
4674 Rain 21 1018 83 10000 1.5 100 12:20 26.07.2019
4675 Rain 21 1019 88 10000 2.6 140 11:40 26.07.2019
4676 Rain 21 1019 88 10000 2.6 140 11:21 26.07.2019
4677 Rain 21 1019 88 10000 1 130 10:57 26.07.2019
4678 Rain 21 1019 88 10000 1 280 10:38 26.07.2019
4679 Rain 21 1019 88 10000 1 250 09:56 26.07.2019
4680 Rain 21 1018 88 10000 1 70 09:37 26.07.2019
4681 Rain 21 1018 94 10000 1.5 250 08:57 26.07.2019
4682 Rain 21 1018 94 10000 1.5 250 08:57 26.07.2019
4683 Rain 21 1018 88 6000 1.5 80 08:39 26.07.2019
4684 Rain 21 1018 88 6000 1.5 80 08:20 26.07.2019
4685 Rain 22 1018 83 10000 1 190 07:33 26.07.2019
4686 Rain 22 1018 83 10000 2.1 180 06:56 26.07.2019
4687 Clouds 23 1017 73 10000 1 160 05:23 26.07.2019
4688 Clouds 24 1016 64 10000 1.5 60 04:29 26.07.2019
4689 Clouds 24 1016 64 10000 2.1 100 03:43 26.07.2019
4690 Clouds 24 1017 64 10000 1.5 360 01:44 26.07.2019
4691 Clouds 25 1018 65 10000 2.6 30 00:47 26.07.2019
4692 Clouds 24 1018 69 10000 2.1 30 23:59 25.07.2019
4693 Clouds 24 1018 69 10000 2.6 30 23:25 25.07.2019
4694 Clouds 24 1019 64 10000 2.1 40 22:58 25.07.2019
4695 Clouds 24 1018 69 10000 2.1 60 22:39 25.07.2019
4696 Clouds 24 1018 69 10000 2.1 60 22:20 25.07.2019
4697 Clouds 23 1018 73 10000 1.5 70 21:45 25.07.2019
4698 Clouds 22 1018 83 10000 1 70 21:22 25.07.2019
4699 Clouds 21 1018 100 10000 0.5 140 20:48 25.07.2019
4700 Clouds 18 1018 93 10000 0.5 150 20:23 25.07.2019
4701 Clouds 17 1017 93 10000 0.5 100 19:44 25.07.2019
4702 Clouds 17 1017 93 10000 1 160 19:26 25.07.2019
4703 Clouds 17 1017 100 10000 0.5 170 18:58 25.07.2019
4704 Clouds 17 1017 93 10000 1 190 18:39 25.07.2019
4705 Clouds 17 1017 93 10000 1 190 18:20 25.07.2019
4706 Clouds 17 1016 100 10000 1 190 17:44 25.07.2019
4707 Clouds 17 1016 100 10000 1 170 17:24 25.07.2019
4708 Clouds 18 1016 93 10000 1 180 16:45 25.07.2019
4709 Clouds 17 1016 100 10000 1 170 16:26 25.07.2019
4710 Clouds 18 1016 93 10000 1 160 15:56 25.07.2019
4711 Clouds 17 1016 100 10000 1.5 190 15:21 25.07.2019
4712 Clouds 17 1016 100 10000 1 170 14:59 25.07.2019
4713 Clouds 17 1017 100 10000 1 180 14:40 25.07.2019
4714 Clouds 17 1017 100 10000 1 180 14:21 25.07.2019
4715 Clouds 17 1017 100 10000 1 180 13:41 25.07.2019
4716 Clouds 18 1017 93 10000 1.5 180 13:23 25.07.2019
4717 Clouds 18 1017 93 10000 1.5 190 12:39 25.07.2019
4718 Clouds 18 1017 93 10000 1.5 190 12:20 25.07.2019
4719 Clouds 18 1017 93 10000 1.5 180 11:41 25.07.2019
4720 Clouds 18 1017 93 10000 1.5 180 11:22 25.07.2019
4721 Clouds 18 1017 93 10000 1.5 180 10:45 25.07.2019
4722 Clouds 18 1017 93 10000 1 180 10:24 25.07.2019
4723 Clouds 19 1017 88 10000 1 180 09:46 25.07.2019
4724 Clouds 19 1017 88 10000 1 180 09:27 25.07.2019
4725 Clouds 19 1017 88 10000 1 180 09:27 25.07.2019
4726 Clouds 19 1016 88 10000 1 170 08:53 25.07.2019
4727 Clouds 20 1016 82 10000 1 180 08:32 25.07.2019
4728 Clouds 22 1015 73 10000 1 170 07:40 25.07.2019
4729 Clouds 23 1015 69 10000 1.5 220 06:46 25.07.2019
4730 Clouds 24 1015 64 10000 2.6 220 06:20 25.07.2019
4731 Clouds 24 1014 64 10000 3.6 230 05:36 25.07.2019
4732 Clouds 25 1014 57 10000 4.1 230 04:45 25.07.2019
4733 Clear 25 1015 65 10000 4.6 240 02:26 25.07.2019
4734 Clear 25 1015 65 10000 4.6 240 01:21 25.07.2019
4735 Clear 25 1016 65 10000 4.6 250 00:31 25.07.2019
4736 Clear 25 1016 65 10000 4.6 250 23:56 24.07.2019
4737 Clear 25 1016 65 10000 4.1 240 23:38 24.07.2019
4738 Clear 25 1016 65 10000 4.1 240 23:19 24.07.2019
4739 Clear 24 1016 69 10000 3.6 240 22:44 24.07.2019
4740 Clear 24 1016 73 10000 3.1 250 22:22 24.07.2019
4741 Clear 24 1016 69 10000 4.1 250 21:55 24.07.2019
4742 Clear 24 1016 69 10000 3.6 240 21:37 24.07.2019
4743 Clouds 24 1016 69 10000 3.6 240 21:18 24.07.2019
4744 Clouds 21 1015 88 10000 1.5 220 20:40 24.07.2019
4745 Clouds 21 1015 88 10000 1.5 220 20:22 24.07.2019
4746 Clouds 20 1015 94 10000 1.5 200 19:57 24.07.2019
4747 Clouds 21 1015 88 10000 1.5 190 19:39 24.07.2019
4748 Clouds 21 1015 88 10000 1.5 190 19:19 24.07.2019
4749 Clouds 22 1014 78 10000 1.5 230 18:42 24.07.2019
4750 Clouds 22 1014 78 10000 1.5 230 18:23 24.07.2019
4751 Clouds 22 1014 78 10000 2.1 240 17:46 24.07.2019
4752 Clouds 23 1013 73 10000 3.1 250 17:20 24.07.2019
4753 Clouds 23 1013 73 10000 3.6 250 16:43 24.07.2019
4754 Clouds 22 1013 78 10000 1.5 230 16:23 24.07.2019
4755 Clouds 22 1013 78 10000 2.6 250 15:58 24.07.2019
4756 Clouds 22 1013 78 10000 3.1 240 15:36 24.07.2019
4757 Clouds 22 1013 78 10000 3.1 240 15:18 24.07.2019
4758 Clouds 21 1014 77 10000 1.5 220 14:43 24.07.2019
4759 Clouds 21 1014 77 10000 1.5 220 14:19 24.07.2019
4760 Clouds 22 1014 73 10000 2.1 230 13:38 24.07.2019
4761 Clouds 22 1014 73 10000 2.1 230 13:19 24.07.2019
4762 Clouds 22 1014 73 10000 2.1 230 12:51 24.07.2019
4763 Clouds 23 1014 69 10000 2.6 240 12:33 24.07.2019
4764 Clouds 23 1014 69 10000 4.6 260 11:40 24.07.2019
4765 Clouds 23 1014 69 10000 4.6 260 11:20 24.07.2019
4766 Clouds 23 1014 69 10000 4.1 250 10:45 24.07.2019
4767 Clouds 23 1014 69 10000 3.6 250 10:25 24.07.2019
4768 Clouds 22 1014 73 10000 3.1 250 09:49 24.07.2019
4769 Clear 23 1013 69 10000 3.6 270 09:25 24.07.2019
4770 Clear 23 1013 69 10000 4.6 260 08:58 24.07.2019
4771 Clear 23 1013 69 10000 4.6 260 08:58 24.07.2019
4772 Clear 23 1013 69 10000 4.1 260 08:32 24.07.2019
4773 Clear 23 1013 69 10000 4.1 250 07:52 24.07.2019
4774 Clear 23 1012 64 10000 4.6 250 07:24 24.07.2019
4775 Clear 24 1012 60 10000 4.6 250 06:33 24.07.2019
4776 Clear 24 1012 64 10000 4.6 250 05:54 24.07.2019
4777 Clouds 25 1011 65 10000 6.2 260 02:52 24.07.2019
4778 Clouds 26 1012 61 10000 4.6 250 01:31 24.07.2019
4779 Clouds 25 1013 65 10000 4.6 250 00:57 24.07.2019
4780 Clouds 25 1013 65 10000 5.7 260 00:23 24.07.2019
4781 Clouds 25 1013 57 10000 6.7 260 23:43 23.07.2019
4782 Clouds 25 1013 57 10000 6.7 260 23:25 23.07.2019
4783 Clouds 25 1013 61 10000 6.2 250 22:40 23.07.2019
4784 Clouds 24 1013 69 10000 5.1 240 22:20 23.07.2019
4785 Clouds 24 1013 64 10000 6.7 260 21:59 23.07.2019
4786 Clouds 24 1013 64 10000 6.7 260 21:41 23.07.2019
4787 Clear 24 1013 64 10000 6.2 260 21:22 23.07.2019
4788 Clear 24 1012 60 10000 6.2 250 20:47 23.07.2019
4789 Clear 23 1012 64 10000 7.2 250 20:25 23.07.2019
4790 Clear 23 1011 64 10000 5.7 250 19:43 23.07.2019
4791 Clear 23 1011 69 10000 5.7 250 19:22 23.07.2019
4792 Clear 23 1011 69 10000 5.7 250 18:52 23.07.2019
4793 Clear 23 1010 64 10000 6.2 250 18:24 23.07.2019
4794 Clear 23 1010 64 10000 6.7 250 17:45 23.07.2019
4795 Clear 23 1010 64 10000 6.7 250 17:26 23.07.2019
4796 Clear 23 1010 69 10000 6.2 250 16:58 23.07.2019
4797 Clear 24 1010 64 10000 6.7 250 16:39 23.07.2019
4798 Clear 24 1010 64 10000 6.7 250 16:19 23.07.2019
4799 Clear 23 1010 69 10000 6.7 250 15:45 23.07.2019
4800 Clear 23 1010 69 10000 6.7 250 15:45 23.07.2019
4801 Clear 23 1010 78 10000 4.6 250 15:24 23.07.2019
4802 Clear 24 1011 69 10000 5.7 250 14:39 23.07.2019
4803 Clear 24 1011 69 10000 5.7 250 14:39 23.07.2019
4804 Clear 24 1011 69 10000 5.7 250 14:20 23.07.2019
4805 Clear 24 1011 69 10000 5.7 250 13:58 23.07.2019
4806 Clear 24 1011 69 10000 6.2 250 13:39 23.07.2019
4807 Clouds 24 1011 69 10000 6.2 250 13:20 23.07.2019
4808 Clouds 24 1011 69 10000 5.7 250 12:47 23.07.2019
4809 Clear 24 1010 69 10000 6.7 260 12:25 23.07.2019
4810 Clear 24 1011 64 10000 7.2 260 11:47 23.07.2019
4811 Clear 24 1011 69 10000 5.7 250 11:29 23.07.2019
4812 Clear 24 1010 64 10000 5.7 250 10:57 23.07.2019
4813 Clear 24 1010 64 10000 6.7 250 10:38 23.07.2019
4814 Clear 24 1010 64 10000 6.7 250 10:19 23.07.2019
4815 Clear 24 1010 69 10000 5.7 250 09:40 23.07.2019
4816 Clear 24 1010 69 10000 5.7 250 09:18 23.07.2019
4817 Clouds 24 1009 69 10000 7.2 250 08:40 23.07.2019
4818 Clouds 24 1009 69 10000 7.2 250 08:19 23.07.2019
4819 Clouds 24 1009 69 10000 7.2 250 07:53 23.07.2019
4820 Clouds 24 1009 78 10000 6.7 250 07:33 23.07.2019
4821 Clouds 24 1008 73 10000 6.7 250 06:38 23.07.2019
4822 Clouds 25 1008 69 10000 6.7 250 05:51 23.07.2019
4823 Clouds 25 1008 83 10000 6.2 260 02:25 23.07.2019
4824 Clouds 25 1009 78 10000 7.2 260 01:29 23.07.2019
4825 Rain 25 1009 83 10000 6.2 260 00:30 23.07.2019
4826 Rain 25 1009 83 10000 6.2 260 23:41 22.07.2019
4827 Rain 25 1009 83 10000 6.2 260 23:21 22.07.2019
4828 Rain 25 1009 83 10000 6.7 260 22:58 22.07.2019
4829 Rain 25 1009 83 10000 8.2 260 22:40 22.07.2019
4830 Rain 25 1009 83 10000 8.2 260 22:20 22.07.2019
4831 Rain 25 1009 83 10000 8.2 260 22:20 22.07.2019
4832 Rain 24 1009 83 10000 6.2 250 21:42 22.07.2019
4833 Rain 24 1008 83 10000 5.7 250 21:21 22.07.2019
4834 Rain 24 1008 88 10000 6.7 250 20:48 22.07.2019
4835 Rain 23 1008 94 10000 5.1 240 20:29 22.07.2019
4836 Rain 23 1008 94 10000 6.7 240 19:45 22.07.2019
4837 Rain 23 1008 94 2800 10.3 270 19:27 22.07.2019
4838 Rain 24 1007 88 10000 8.7 290 18:58 22.07.2019
4839 Rain 25 1007 94 8000 4.6 320 18:39 22.07.2019
4840 Rain 25 1007 94 8000 4.6 320 18:21 22.07.2019
4841 Rain 25 1007 94 10000 5.1 320 17:41 22.07.2019
4842 Rain 25 1007 94 10000 5.1 310 17:23 22.07.2019
4843 Rain 25 1007 94 10000 5.7 320 16:41 22.07.2019
4844 Rain 25 1007 94 10000 5.7 330 16:21 22.07.2019
4845 Rain 25 1007 94 10000 5.7 330 15:58 22.07.2019
4846 Rain 25 1007 94 10000 5.1 350 15:37 22.07.2019
4847 Clouds 25 1007 94 10000 5.1 350 15:18 22.07.2019
4848 Clouds 25 1008 94 10000 5.7 330 14:42 22.07.2019
4849 Clouds 25 1008 94 10000 5.7 340 14:20 22.07.2019
4850 Clouds 25 1008 94 10000 5.7 340 14:20 22.07.2019
4851 Clouds 25 1008 94 10000 5.7 350 13:45 22.07.2019
4852 Clouds 25 1008 94 10000 5.7 350 13:45 22.07.2019
4853 Clouds 25 1008 88 10000 4.6 360 13:26 22.07.2019
4854 Clouds 25 1008 94 10000 5.1 10 12:44 22.07.2019
4855 Clouds 25 1008 94 10000 5.1 10 12:24 22.07.2019
4856 Clouds 25 1008 88 10000 5.1 10 11:44 22.07.2019
4857 Clouds 25 1008 88 10000 4.6 30 11:20 22.07.2019
4858 Clouds 25 1009 88 10000 4.1 20 10:48 22.07.2019
4859 Clouds 25 1008 88 10000 4.1 20 10:27 22.07.2019
4860 Clouds 25 1008 88 10000 5.1 30 09:44 22.07.2019
4861 Clouds 25 1009 88 10000 4.6 20 09:24 22.07.2019
4862 Clouds 25 1009 88 10000 4.6 30 08:44 22.07.2019
4863 Clouds 25 1009 88 10000 4.6 30 08:25 22.07.2019
4864 Clouds 25 1008 88 10000 4.1 30 07:55 22.07.2019
4865 Clouds 25 1008 88 10000 4.1 30 07:32 22.07.2019
4866 Clouds 25 1008 88 10000 4.6 30 06:44 22.07.2019
4867 Rain 26 1008 83 10000 5.7 30 03:55 22.07.2019
4868 Clouds 25 1009 88 10000 6.7 50 01:53 22.07.2019
4869 Rain 25 1010 88 10000 4.1 40 00:54 22.07.2019
4870 Rain 26 1011 83 10000 4.6 20 00:24 22.07.2019
4871 Rain 25 1012 88 10000 4.1 20 23:54 21.07.2019
4872 Rain 25 1012 88 10000 4.6 20 23:27 21.07.2019
4873 Rain 25 1013 88 10000 4.6 30 22:42 21.07.2019
4874 Rain 25 1013 88 10000 4.1 30 22:22 21.07.2019
4875 Rain 25 1013 83 10000 4.1 40 21:57 21.07.2019
4876 Rain 25 1013 83 10000 4.1 30 21:37 21.07.2019
4877 Clouds 25 1013 83 10000 4.1 30 21:18 21.07.2019
4878 Clouds 25 1013 83 10000 4.1 30 21:18 21.07.2019
4879 Rain 24 1012 94 10000 5.1 40 20:43 21.07.2019
4880 Rain 24 1012 88 10000 3.6 40 20:23 21.07.2019
4881 Rain 24 1012 88 10000 4.1 40 19:53 21.07.2019
4882 Rain 24 1012 88 10000 4.6 50 19:32 21.07.2019
4883 Rain 24 1011 88 10000 4.6 50 18:59 21.07.2019
4884 Rain 24 1011 88 10000 4.6 50 18:41 21.07.2019
4885 Rain 24 1011 88 10000 4.6 50 18:41 21.07.2019
4886 Clouds 24 1011 88 10000 4.6 50 18:22 21.07.2019
4887 Clouds 23 1012 94 10000 4.1 50 17:41 21.07.2019
4888 Drizzle 23 1011 94 10000 2.6 100 17:19 21.07.2019
4889 Clouds 23 1011 94 10000 3.6 60 16:43 21.07.2019
4890 Clouds 22 1011 94 10000 2.6 80 16:25 21.07.2019
4891 Drizzle 23 1011 88 8000 4.6 60 15:47 21.07.2019
4892 Clouds 23 1011 83 10000 4.6 60 15:24 21.07.2019
4893 Clouds 23 1011 83 10000 5.1 60 14:58 21.07.2019
4894 Clouds 23 1011 83 10000 5.1 70 14:39 21.07.2019
4895 Clouds 23 1011 83 10000 5.1 70 14:18 21.07.2019
4896 Clouds 23 1012 83 10000 5.7 60 13:42 21.07.2019
4897 Clouds 22 1012 83 10000 4.6 70 13:24 21.07.2019
4898 Clouds 22 1012 83 10000 5.1 70 12:42 21.07.2019
4899 Clouds 22 1012 78 10000 5.7 70 12:24 21.07.2019
4900 Clouds 22 1012 78 10000 4.1 80 11:46 21.07.2019
4901 Clouds 22 1012 73 10000 3.6 90 11:27 21.07.2019
4902 Clouds 21 1013 77 10000 3.6 90 10:47 21.07.2019
4903 Clouds 21 1013 77 10000 3.1 90 10:25 21.07.2019
4904 Clouds 21 1013 77 10000 3.6 90 09:55 21.07.2019
4905 Clouds 21 1012 73 10000 3.6 90 09:36 21.07.2019
4906 Clouds 21 1012 73 10000 3.1 90 08:49 21.07.2019
4907 Clouds 21 1012 73 10000 3.1 90 08:30 21.07.2019
4908 Clouds 21 1012 73 10000 1 110 07:56 21.07.2019
4909 Clouds 21 1012 73 10000 1.5 110 07:19 21.07.2019
4910 Clouds 22 1011 68 10000 1.5 120 06:34 21.07.2019
4911 Clouds 23 1011 60 10000 5.1 70 03:51 21.07.2019
4912 Clouds 24 1012 60 10000 5.1 60 01:53 21.07.2019
4913 Clouds 24 1012 60 10000 4.1 90 00:46 21.07.2019
4914 Clear 23 1013 60 10000 3.1 100 00:21 21.07.2019
4915 Clear 24 1013 60 10000 3.6 110 23:45 20.07.2019
4916 Clear 23 1013 64 10000 5.1 90 23:25 20.07.2019
4917 Clear 23 1014 64 10000 2.6 120 22:50 20.07.2019
4918 Clear 23 1014 64 10000 3.1 120 22:23 20.07.2019
4919 Clear 23 1014 64 10000 3.1 140 21:59 20.07.2019
4920 Clear 22 1014 68 10000 2.6 140 21:39 20.07.2019
4921 Clouds 22 1014 68 10000 2.6 140 21:21 20.07.2019
4922 Clouds 22 1013 64 10000 2.6 140 20:42 20.07.2019
4923 Clouds 21 1013 68 10000 1.5 160 20:21 20.07.2019
4924 Clouds 21 1013 73 10000 1.5 190 19:48 20.07.2019
4925 Clouds 21 1013 73 10000 1.5 180 19:25 20.07.2019
4926 Clouds 21 1013 73 10000 1.5 190 18:45 20.07.2019
4927 Clear 21 1013 77 10000 1.5 190 18:24 20.07.2019
4928 Clear 21 1013 73 10000 2.1 150 17:55 20.07.2019
4929 Clear 19 1013 88 10000 1 160 17:26 20.07.2019
4930 Clear 19 1013 82 10000 1.5 160 16:45 20.07.2019
4931 Clear 19 1013 88 10000 1 170 16:27 20.07.2019
4932 Clear 19 1013 88 10000 1 160 15:58 20.07.2019
4933 Clear 19 1013 88 10000 1 160 15:58 20.07.2019
4934 Clear 20 1013 82 10000 1 160 15:40 20.07.2019
4935 Clouds 20 1013 82 10000 1 160 15:20 20.07.2019
4936 Clouds 21 1014 77 10000 1.5 170 14:48 20.07.2019
4937 Clouds 21 1014 77 10000 2.1 160 14:29 20.07.2019
4938 Clouds 21 1014 83 10000 1.5 190 13:54 20.07.2019
4939 Clouds 20 1014 88 10000 1 150 13:36 20.07.2019
4940 Clouds 20 1014 88 10000 1 150 13:36 20.07.2019
4941 Clouds 20 1014 88 10000 1 150 13:18 20.07.2019
4942 Clouds 21 1014 83 10000 1 170 12:38 20.07.2019
4943 Clouds 21 1014 83 10000 1 170 12:18 20.07.2019
4944 Clouds 20 1014 88 10000 1 160 11:40 20.07.2019
4945 Clouds 20 1014 88 10000 1 160 11:19 20.07.2019
4946 Clouds 22 1014 78 10000 1.5 160 10:37 20.07.2019
4947 Clouds 22 1014 78 10000 1.5 160 10:19 20.07.2019
4948 Clouds 22 1014 78 10000 1.5 150 09:45 20.07.2019
4949 Clouds 22 1014 83 10000 1.5 190 09:24 20.07.2019
4950 Clouds 22 1014 83 10000 1 160 08:47 20.07.2019
4951 Clouds 22 1014 83 10000 1.5 180 08:20 20.07.2019
4952 Clouds 22 1013 83 10000 1 180 07:26 20.07.2019
4953 Clouds 23 1013 78 10000 2.6 190 06:43 20.07.2019
4954 Clouds 24 1012 78 10000 3.1 190 04:57 20.07.2019
4955 Rain 24 1012 78 10000 2.6 170 04:30 20.07.2019
4956 Rain 24 1013 88 10000 2.1 180 01:21 20.07.2019
4957 Rain 24 1013 88 10000 2.1 180 01:21 20.07.2019
4958 Rain 24 1014 88 10000 3.1 210 00:47 20.07.2019
4959 Clouds 24 1014 88 10000 2.6 210 00:23 20.07.2019
4960 Clouds 24 1014 83 10000 2.6 200 23:45 19.07.2019
4961 Clouds 24 1015 83 10000 3.1 220 23:26 19.07.2019
4962 Clouds 24 1015 88 10000 2.1 220 22:51 19.07.2019
4963 Clouds 23 1014 88 10000 2.1 200 22:26 19.07.2019
4964 Clouds 22 1014 94 10000 1 200 21:59 19.07.2019
4965 Clouds 22 1014 94 10000 1 200 21:39 19.07.2019
4966 Rain 22 1014 94 10000 1 200 21:21 19.07.2019
4967 Rain 20 1014 94 10000 1 180 20:42 19.07.2019
4968 Rain 20 1014 94 10000 1 180 20:22 19.07.2019
4969 Rain 19 1013 100 10000 1 190 19:35 19.07.2019
4970 Mist 20 1013 94 4400 0.5 180 18:47 19.07.2019
4971 Mist 20 1013 94 4400 0.5 180 18:25 19.07.2019
4972 Rain 20 1013 100 9000 0.5 140 17:57 19.07.2019
4973 Rain 21 1013 100 10000 1 180 17:32 19.07.2019
4974 Rain 21 1013 94 10000 1.5 210 16:59 19.07.2019
4975 Rain 21 1013 94 10000 1 190 16:40 19.07.2019
4976 Rain 21 1013 94 10000 1 190 16:18 19.07.2019
4977 Rain 20 1013 100 10000 1.5 190 15:44 19.07.2019
4978 Rain 20 1013 94 10000 1 190 15:25 19.07.2019
4979 Rain 19 1013 100 10000 1 190 14:45 19.07.2019
4980 Rain 20 1014 94 10000 0.5 170 14:45 19.07.2019
4981 Rain 20 1014 94 10000 0.5 170 14:25 19.07.2019
4982 Rain 20 1014 100 10000 1 180 13:57 19.07.2019
4983 Fog 20 1014 100 2400 0.5 110 13:38 19.07.2019
4984 Fog 20 1014 100 2400 0.5 110 13:20 19.07.2019
4985 Mist 20 1014 100 5000 0.5 120 12:44 19.07.2019
4986 Rain 20 1014 100 9000 0.5 150 12:25 19.07.2019
4987 Rain 21 1014 94 10000 1 110 11:46 19.07.2019
4988 Rain 21 1014 94 10000 1 120 11:19 19.07.2019
4989 Rain 21 1014 100 10000 1.5 100 10:48 19.07.2019
4990 Rain 22 1014 94 10000 0.5 50 10:23 19.07.2019
4991 Rain 22 1015 94 10000 1.5 210 09:59 19.07.2019
4992 Rain 22 1014 94 10000 1 210 09:41 19.07.2019
4993 Rain 22 1014 94 10000 1 210 09:22 19.07.2019
4994 Rain 22 1014 94 10000 1.5 200 08:49 19.07.2019
4995 Rain 22 1014 94 10000 2.1 190 08:22 19.07.2019
4996 Rain 22 1014 94 10000 1.5 90 07:29 19.07.2019
4997 Rain 23 1013 88 10000 2.1 100 06:19 19.07.2019
4998 Rain 25 1013 78 10000 3.6 20 02:56 19.07.2019
4999 Rain 26 1014 74 10000 3.6 20 01:21 19.07.2019
5000 Rain 25 1015 78 10000 3.6 30 00:45 19.07.2019
5001 Rain 25 1015 78 10000 3.6 40 23:58 18.07.2019
5002 Rain 25 1015 78 10000 4.1 40 23:40 18.07.2019
5003 Rain 25 1015 78 10000 4.1 40 23:21 18.07.2019
5004 Rain 25 1015 78 10000 5.1 50 22:41 18.07.2019
5005 Rain 25 1015 78 10000 5.1 50 22:20 18.07.2019
5006 Rain 24 1015 83 10000 5.1 50 21:49 18.07.2019
5007 Rain 24 1015 83 10000 5.1 50 21:30 18.07.2019
5008 Rain 24 1015 78 10000 4.1 60 20:54 18.07.2019
5009 Rain 24 1014 78 10000 4.6 60 20:36 18.07.2019
5010 Rain 24 1014 78 10000 4.6 60 20:18 18.07.2019
5011 Rain 23 1014 83 10000 4.1 60 19:43 18.07.2019
5012 Rain 23 1014 83 10000 4.1 60 19:20 18.07.2019
5013 Rain 23 1014 83 10000 3.6 50 18:43 18.07.2019
5014 Rain 23 1013 83 10000 4.6 50 18:21 18.07.2019
5015 Rain 23 1013 83 10000 4.6 50 17:44 18.07.2019
5016 Rain 23 1013 83 10000 4.6 50 17:44 18.07.2019
5017 Rain 23 1013 83 10000 4.1 60 17:24 18.07.2019
5018 Rain 23 1014 83 10000 4.6 70 16:57 18.07.2019
5019 Rain 22 1014 88 10000 4.6 70 16:39 18.07.2019
5020 Rain 22 1014 88 10000 4.6 70 16:18 18.07.2019
5021 Rain 23 1014 78 10000 5.1 70 15:44 18.07.2019
5022 Rain 23 1014 78 10000 5.1 70 15:44 18.07.2019
5023 Clear 22 1014 83 10000 3.1 90 15:25 18.07.2019
5024 Clear 23 1014 78 10000 5.1 80 14:50 18.07.2019
5025 Clear 23 1014 78 10000 5.7 70 14:32 18.07.2019
5026 Clear 22 1015 83 10000 4.1 90 13:50 18.07.2019
5027 Clear 22 1015 83 10000 3.6 90 13:24 18.07.2019
5028 Clear 22 1015 83 10000 3.6 90 12:53 18.07.2019
5029 Clear 23 1015 78 10000 5.1 70 12:22 18.07.2019
5030 Clear 23 1015 78 10000 4.1 80 11:58 18.07.2019
5031 Clear 23 1015 78 10000 5.1 70 11:39 18.07.2019
5032 Clear 23 1015 78 10000 5.1 70 11:21 18.07.2019
5033 Clear 23 1015 78 10000 5.7 70 10:49 18.07.2019
5034 Clear 23 1015 78 10000 6.2 70 09:50 18.07.2019
5035 Clear 23 1015 78 10000 6.2 70 09:27 18.07.2019
5036 Clear 23 1015 78 10000 6.7 70 08:53 18.07.2019
5037 Clear 23 1014 73 10000 6.7 60 08:25 18.07.2019
5038 Clear 23 1014 73 10000 7.7 60 07:57 18.07.2019
5039 Clear 23 1014 78 10000 7.2 70 07:35 18.07.2019
5040 Clear 24 1013 69 10000 7.7 60 06:48 18.07.2019
5041 Clear 24 1013 69 10000 7.2 60 06:20 18.07.2019
5042 Clear 25 1013 65 10000 7.7 60 03:34 18.07.2019
5043 Clear 26 1013 61 10000 7.2 70 01:53 18.07.2019
5044 Clear 25 1014 61 10000 7.7 60 01:33 18.07.2019
5045 Clear 25 1015 61 10000 7.2 70 23:57 17.07.2019
5046 Clear 25 1015 57 10000 7.7 70 23:21 17.07.2019
5047 Clear 25 1015 57 10000 7.2 60 22:59 17.07.2019
5048 Clear 24 1015 57 10000 8.2 70 22:41 17.07.2019
5049 Clear 24 1015 57 10000 8.2 70 22:21 17.07.2019
5050 Clear 25 1015 61 10000 8.2 70 21:56 17.07.2019
5051 Clear 23 1015 69 10000 8.2 70 21:36 17.07.2019
5052 Clear 23 1015 69 10000 8.2 70 21:18 17.07.2019
5053 Clear 22 1014 73 10000 6.7 70 20:41 17.07.2019
5054 Clear 22 1014 73 10000 6.7 70 20:21 17.07.2019
5055 Clear 22 1014 73 10000 6.7 70 19:59 17.07.2019
5056 Clear 22 1014 68 10000 7.2 70 19:39 17.07.2019
5057 Clear 22 1014 73 10000 6.2 70 19:18 17.07.2019
5058 Clear 21 1013 83 10000 2.1 110 18:42 17.07.2019
5059 Clear 20 1014 88 10000 3.6 90 18:20 17.07.2019
5060 Clear 20 1014 88 10000 3.6 90 17:51 17.07.2019
5061 Clear 20 1014 88 10000 3.6 90 17:27 17.07.2019
5062 Rain 20 1014 88 6000 7.2 50 16:58 17.07.2019
5063 Clear 20 1014 88 10000 4.1 100 16:38 17.07.2019
5064 Clear 21 1014 83 10000 2.6 110 16:18 17.07.2019
5065 Clear 21 1014 83 10000 2.6 110 15:51 17.07.2019
5066 Clear 22 1014 73 10000 3.6 100 15:29 17.07.2019
5067 Clouds 22 1014 73 10000 6.7 80 14:55 17.07.2019
5068 Drizzle 22 1014 78 10000 6.7 80 14:37 17.07.2019
5069 Clouds 23 1014 69 10000 5.7 80 14:18 17.07.2019
5070 Clouds 22 1014 68 10000 6.2 70 13:41 17.07.2019
5071 Clouds 22 1014 68 10000 6.2 70 13:21 17.07.2019
5072 Clouds 22 1015 68 10000 4.1 90 12:40 17.07.2019
5073 Clouds 22 1015 68 10000 4.1 90 12:21 17.07.2019
5074 Clouds 22 1015 68 10000 6.7 80 11:45 17.07.2019
5075 Clouds 22 1015 68 10000 6.7 80 11:21 17.07.2019
5076 Clouds 22 1015 68 10000 2.6 90 10:51 17.07.2019
5077 Clouds 22 1015 64 10000 3.6 90 10:30 17.07.2019
5078 Clouds 22 1015 64 10000 3.1 100 09:58 17.07.2019
5079 Clouds 23 1015 60 10000 3.6 100 09:40 17.07.2019
5080 Clouds 23 1015 60 10000 3.6 100 09:20 17.07.2019
5081 Clouds 22 1015 68 10000 2.6 120 08:42 17.07.2019
5082 Clouds 22 1015 68 10000 2.6 120 08:22 17.07.2019
5083 Clouds 22 1014 64 10000 4.6 100 07:50 17.07.2019
5084 Clouds 22 1014 64 10000 4.6 100 07:24 17.07.2019
5085 Clouds 22 1014 64 10000 5.1 90 06:55 17.07.2019
5086 Clouds 23 1014 60 10000 4.1 90 06:29 17.07.2019
5087 Clouds 23 1013 69 10000 6.7 90 05:48 17.07.2019
5088 Clouds 23 1013 69 10000 6.7 90 05:28 17.07.2019
5089 Clouds 23 1013 73 10000 7.7 80 04:37 17.07.2019
5090 Rain 22 1014 88 10000 1 80 02:56 17.07.2019
5091 Rain 22 1015 73 10000 5.1 100 01:59 17.07.2019
5092 Rain 24 1015 60 10000 5.7 90 01:25 17.07.2019
5093 Rain 24 1015 69 10000 8.7 70 00:47 17.07.2019
5094 Rain 24 1015 69 10000 8.7 70 00:24 17.07.2019
5095 Rain 24 1015 69 10000 7.7 80 23:55 16.07.2019
5096 Rain 23 1016 78 10000 4.6 70 23:29 16.07.2019
5097 Rain 23 1016 78 10000 8.2 80 22:58 16.07.2019
5098 Rain 23 1016 73 10000 6.7 80 22:39 16.07.2019
5099 Rain 23 1016 73 10000 6.7 80 22:20 16.07.2019
5100 Rain 23 1016 69 10000 5.7 70 21:45 16.07.2019
5101 Rain 23 1016 69 10000 5.7 70 21:21 16.07.2019
5102 Rain 23 1015 64 10000 5.1 70 20:58 16.07.2019
5103 Rain 22 1015 73 10000 2.6 100 20:38 16.07.2019
5104 Rain 22 1015 73 10000 2.6 100 20:20 16.07.2019
5105 Rain 21 1015 77 10000 2.1 110 19:46 16.07.2019
5106 Rain 21 1015 77 10000 2.1 110 19:27 16.07.2019
5107 Rain 21 1015 73 10000 4.1 100 18:46 16.07.2019
5108 Rain 21 1015 73 10000 4.1 100 18:21 16.07.2019
5109 Rain 21 1015 73 10000 2.6 110 17:58 16.07.2019
5110 Rain 21 1015 73 10000 2.1 110 17:38 16.07.2019
5111 Rain 21 1015 73 10000 2.1 110 17:20 16.07.2019
5112 Rain 21 1015 73 10000 3.6 90 16:40 16.07.2019
5113 Rain 21 1015 73 10000 3.6 90 16:19 16.07.2019
5114 Rain 21 1016 77 10000 3.6 100 15:40 16.07.2019
5115 Rain 21 1016 73 10000 3.1 100 15:21 16.07.2019
5116 Rain 21 1016 73 10000 3.1 100 14:57 16.07.2019
5117 Rain 22 1016 64 10000 4.1 90 14:38 16.07.2019
5118 Rain 22 1016 64 10000 4.1 90 14:19 16.07.2019
5119 Rain 22 1017 68 10000 3.6 100 13:44 16.07.2019
5120 Rain 22 1017 68 10000 3.6 100 13:20 16.07.2019
5121 Rain 21 1017 73 10000 2.1 100 12:44 16.07.2019
5122 Rain 22 1017 64 10000 3.6 100 12:20 16.07.2019
5123 Rain 22 1017 64 10000 3.6 100 11:55 16.07.2019
5124 Rain 22 1017 64 10000 4.1 90 11:37 16.07.2019
5125 Rain 22 1017 68 10000 4.6 90 11:19 16.07.2019
5126 Rain 22 1017 68 10000 4.6 90 10:44 16.07.2019
5127 Rain 22 1017 68 10000 4.6 90 10:22 16.07.2019
5128 Rain 22 1017 68 10000 5.1 100 09:44 16.07.2019
5129 Rain 22 1017 68 10000 5.1 100 09:21 16.07.2019
5130 Rain 22 1017 68 10000 4.1 100 08:58 16.07.2019
5131 Clear 22 1016 68 10000 5.1 90 08:40 16.07.2019
5132 Clear 22 1016 68 10000 4.6 100 08:18 16.07.2019
5133 Clear 22 1016 73 10000 4.6 100 07:41 16.07.2019
5134 Clear 22 1016 73 10000 5.7 90 07:18 16.07.2019
5135 Clear 22 1015 68 10000 5.1 100 06:43 16.07.2019
5136 Clouds 23 1015 64 10000 6.7 80 05:57 16.07.2019
5137 Clouds 23 1015 64 10000 6.2 100 05:31 16.07.2019
5138 Clouds 24 1015 60 10000 6.7 90 04:52 16.07.2019
5139 Clouds 24 1016 57 10000 7.7 80 03:44 16.07.2019
5140 Clear 24 1016 53 10000 7.7 90 02:53 16.07.2019
5141 Clear 24 1016 53 10000 7.2 80 02:28 16.07.2019
5142 Clear 24 1017 53 10000 6.2 90 01:40 16.07.2019
5143 Clear 24 1018 60 10000 5.7 100 00:39 16.07.2019
5144 Clouds 24 1018 60 10000 5.1 100 00:19 16.07.2019
5145 Clouds 24 1018 60 10000 5.1 100 23:42 15.07.2019
5146 Clouds 24 1018 60 10000 5.1 100 23:23 15.07.2019
5147 Clouds 23 1019 60 10000 5.7 100 22:47 15.07.2019
5148 Clouds 23 1019 60 10000 5.7 100 22:22 15.07.2019
5149 Clouds 23 1019 56 10000 4.6 90 21:57 15.07.2019
5150 Clouds 22 1018 60 10000 4.6 100 21:39 15.07.2019
5151 Clear 22 1018 60 10000 4.6 100 21:19 15.07.2019
5152 Clear 21 1018 64 10000 3.1 100 20:45 15.07.2019
5153 Clear 21 1018 64 10000 3.1 100 20:24 15.07.2019
5154 Clear 21 1018 64 10000 3.1 100 19:58 15.07.2019
5155 Clear 21 1017 68 10000 3.6 110 19:39 15.07.2019
5156 Clear 20 1017 72 10000 3.1 100 19:19 15.07.2019
5157 Clear 20 1017 77 10000 3.1 100 18:45 15.07.2019
5158 Clear 21 1017 73 10000 3.6 120 18:21 15.07.2019
5159 Clear 21 1017 73 10000 3.6 120 17:57 15.07.2019
5160 Clear 21 1016 73 10000 3.6 110 17:38 15.07.2019
5161 Clear 21 1016 73 10000 3.6 110 17:20 15.07.2019
5162 Clear 20 1017 82 10000 3.1 120 16:57 15.07.2019
5163 Clear 20 1017 88 10000 1 110 16:36 15.07.2019
5164 Rain 20 1017 88 4900 2.6 110 16:18 15.07.2019
5165 Clear 20 1017 88 10000 1.5 80 15:39 15.07.2019
5166 Clear 20 1017 88 10000 1.5 80 15:39 15.07.2019
5167 Clouds 20 1017 88 10000 1.5 80 15:21 15.07.2019
5168 Drizzle 20 1017 88 10000 3.1 110 14:57 15.07.2019
5169 Clouds 21 1017 77 10000 3.1 110 14:37 15.07.2019
5170 Clouds 21 1017 83 10000 3.1 110 14:19 15.07.2019
5171 Rain 21 1018 83 10000 2.6 120 13:45 15.07.2019
5172 Rain 21 1018 83 10000 3.1 130 13:18 15.07.2019
5173 Rain 22 1018 78 10000 4.1 100 12:43 15.07.2019
5174 Rain 22 1018 78 10000 4.1 100 12:24 15.07.2019
5175 Rain 21 1018 83 10000 3.1 100 11:44 15.07.2019
5176 Rain 21 1018 83 10000 3.1 100 11:26 15.07.2019
5177 Rain 21 1018 83 10000 2.6 110 10:54 15.07.2019
5178 Rain 21 1018 83 10000 3.1 110 10:36 15.07.2019
5179 Rain 22 1018 73 10000 3.1 100 10:18 15.07.2019
5180 Rain 22 1018 73 10000 3.1 100 09:41 15.07.2019
5181 Rain 22 1018 78 10000 3.1 100 09:19 15.07.2019
5182 Rain 22 1017 73 10000 4.1 90 08:42 15.07.2019
5183 Rain 22 1017 73 10000 4.1 90 08:23 15.07.2019
5184 Rain 22 1017 73 10000 2.6 100 07:41 15.07.2019
5185 Rain 22 1017 68 10000 3.6 90 07:20 15.07.2019
5186 Rain 22 1016 68 10000 3.6 90 06:39 15.07.2019
5187 Clouds 23 1016 64 10000 4.1 100 05:50 15.07.2019
5188 Clouds 23 1016 64 10000 3.6 100 05:30 15.07.2019
5189 Clouds 23 1016 69 10000 3.6 100 04:43 15.07.2019
5190 Clouds 23 1016 64 10000 4.6 90 03:51 15.07.2019
5191 Clouds 24 1016 60 10000 4.6 100 02:47 15.07.2019
5192 Clouds 24 1016 60 10000 4.1 90 01:45 15.07.2019
5193 Clouds 24 1016 60 10000 4.1 90 01:26 15.07.2019
5194 Clouds 24 1016 60 10000 4.6 90 00:51 15.07.2019
5195 Clouds 24 1017 60 10000 3.6 90 00:22 15.07.2019
5196 Clouds 24 1017 60 10000 4.6 80 23:55 14.07.2019
5197 Clouds 24 1017 57 10000 3.1 100 23:36 14.07.2019
5198 Clouds 23 1017 64 10000 4.1 80 23:18 14.07.2019
5199 Clouds 23 1017 69 10000 3.6 80 22:41 14.07.2019
5200 Clouds 23 1017 69 10000 3.6 80 22:22 14.07.2019
5201 Clouds 23 1017 69 10000 3.6 80 22:22 14.07.2019
5202 Clouds 22 1017 73 10000 2.1 90 21:59 14.07.2019
5203 Clouds 21 1017 77 10000 1 130 21:41 14.07.2019
5204 Clear 20 1017 82 10000 0.5 230 21:18 14.07.2019
5205 Clear 20 1017 82 10000 0.5 230 20:55 14.07.2019
5206 Clear 20 1017 82 10000 0.5 230 20:55 14.07.2019
5207 Clear 20 1016 77 10000 1 220 20:36 14.07.2019
5208 Clear 19 1016 77 10000 1 110 20:18 14.07.2019
5209 Clear 19 1016 77 10000 0.5 110 19:43 14.07.2019
5210 Clear 19 1016 77 10000 0.5 110 19:24 14.07.2019
5211 Clear 19 1015 82 10000 1 200 18:56 14.07.2019
5212 Clear 18 1015 88 10000 1 90 18:37 14.07.2019
5213 Clear 18 1015 88 10000 0.5 140 18:18 14.07.2019
5214 Clear 18 1015 88 10000 1 160 17:42 14.07.2019
5215 Clear 19 1015 82 10000 1 260 17:19 14.07.2019
5216 Clear 19 1014 77 10000 0.5 120 16:46 14.07.2019
5217 Clear 19 1014 77 10000 0.5 120 16:23 14.07.2019
5218 Clear 19 1014 77 10000 0.5 120 16:23 14.07.2019
5219 Clear 21 1015 68 10000 1.5 360 15:49 14.07.2019
5220 Clouds 21 1014 68 10000 3.1 100 15:27 14.07.2019
5221 Clouds 21 1015 68 10000 2.1 130 14:48 14.07.2019
5222 Clouds 21 1015 68 10000 2.1 130 14:21 14.07.2019
5223 Clouds 21 1016 68 10000 1 150 13:47 14.07.2019
5224 Clouds 21 1016 68 10000 1 150 13:25 14.07.2019
5225 Clouds 20 1016 72 10000 2.1 80 12:58 14.07.2019
5226 Clouds 19 1016 82 10000 1 360 12:40 14.07.2019
5227 Clouds 18 1016 88 10000 0.5 190 12:19 14.07.2019
5228 Clouds 19 1016 82 10000 0.5 40 11:50 14.07.2019
5229 Clouds 19 1016 82 10000 0.5 40 11:20 14.07.2019
5230 Clouds 21 1016 73 10000 1.5 150 10:46 14.07.2019
5231 Clouds 21 1016 73 10000 1.5 150 10:21 14.07.2019
5232 Clouds 22 1015 68 10000 4.1 120 09:48 14.07.2019
5233 Clouds 22 1015 68 10000 4.1 120 09:48 14.07.2019
5234 Clouds 22 1015 68 10000 4.1 120 09:30 14.07.2019
5235 Clouds 21 1014 68 10000 7.2 130 08:47 14.07.2019
5236 Clouds 21 1014 68 10000 7.2 130 08:29 14.07.2019
5237 Clouds 22 1013 64 10000 3.6 150 07:43 14.07.2019
5238 Clouds 22 1014 68 10000 2.6 140 07:20 14.07.2019
5239 Clouds 23 1012 64 10000 4.6 140 05:46 14.07.2019
5240 Clouds 23 1012 64 10000 4.6 140 05:46 14.07.2019
5241 Clouds 22 1012 68 10000 3.6 120 03:53 14.07.2019
5242 Clouds 22 1012 68 10000 5.1 140 03:34 14.07.2019
5243 Clouds 22 1013 68 10000 2.6 130 02:52 14.07.2019
5244 Clouds 22 1013 73 10000 3.6 110 02:23 14.07.2019
5245 Clouds 22 1014 73 10000 2.1 100 01:45 14.07.2019
5246 Clouds 22 1014 73 10000 2.1 100 01:24 14.07.2019
5247 Clouds 21 1014 83 10000 1 100 00:41 14.07.2019
5248 Rain 21 1015 77 10000 2.6 100 00:20 14.07.2019
5249 Rain 21 1015 77 10000 2.6 100 23:56 13.07.2019
5250 Rain 20 1014 88 10000 4.1 100 23:37 13.07.2019
5251 Rain 20 1014 88 10000 4.1 100 23:19 13.07.2019
5252 Rain 20 1014 82 10000 4.1 140 22:41 13.07.2019
5253 Rain 20 1014 82 10000 4.1 140 22:21 13.07.2019
5254 Drizzle 20 1014 88 10000 2.6 130 21:45 13.07.2019
5255 Drizzle 20 1014 88 10000 2.6 130 21:20 13.07.2019
5256 Clouds 20 1014 88 10000 1 150 20:47 13.07.2019
5257 Clouds 20 1014 88 10000 1 150 20:28 13.07.2019
5258 Rain 19 1013 93 10000 1 150 19:48 13.07.2019
5259 Rain 19 1013 93 10000 1 150 19:29 13.07.2019
5260 Rain 19 1012 93 10000 1 160 18:46 13.07.2019
5261 Rain 19 1012 93 10000 1 160 18:23 13.07.2019
5262 Rain 19 1012 93 10000 1.5 100 17:42 13.07.2019
5263 Rain 19 1012 93 10000 1.5 100 17:22 13.07.2019
5264 Rain 20 1012 88 10000 1.5 240 16:58 13.07.2019
5265 Rain 20 1012 88 10000 2.6 120 16:38 13.07.2019
5266 Rain 20 1013 94 10000 1 100 16:19 13.07.2019
5267 Rain 20 1013 94 10000 1 100 16:19 13.07.2019
5268 Rain 21 1013 83 10000 1 190 15:44 13.07.2019
5269 Rain 21 1013 83 10000 1 190 15:21 13.07.2019
5270 Rain 21 1014 77 10000 1 170 14:45 13.07.2019
5271 Rain 21 1014 77 10000 1 170 14:24 13.07.2019
5272 Rain 21 1014 83 10000 1.5 200 13:46 13.07.2019
5273 Rain 21 1014 83 10000 1.5 200 13:26 13.07.2019
5274 Rain 21 1014 83 10000 2.6 170 12:59 13.07.2019
5275 Rain 20 1014 88 10000 1 190 12:39 13.07.2019
5276 Clouds 20 1014 88 10000 0.5 170 12:20 13.07.2019
5277 Clouds 20 1015 88 10000 0.5 190 11:41 13.07.2019
5278 Clouds 20 1015 88 10000 0.5 190 11:19 13.07.2019
5279 Clouds 21 1015 83 10000 1 170 10:44 13.07.2019
5280 Clouds 21 1015 83 10000 1 170 10:23 13.07.2019
5281 Clouds 21 1015 83 10000 1 170 10:23 13.07.2019
5282 Clouds 20 1015 88 10000 0.5 60 09:53 13.07.2019
5283 Clouds 20 1014 88 10000 1 160 09:31 13.07.2019
5284 Clouds 20 1014 88 10000 0.5 130 08:58 13.07.2019
5285 Clouds 21 1013 77 10000 2.1 80 08:32 13.07.2019
5286 Clouds 22 1013 73 10000 3.1 120 07:56 13.07.2019
5287 Clouds 21 1013 77 10000 1 90 07:29 13.07.2019
5288 Clouds 22 1013 78 10000 3.1 100 06:37 13.07.2019
5289 Clouds 23 1013 73 10000 3.6 90 05:51 13.07.2019
5290 Clouds 23 1012 73 10000 2.1 120 04:42 13.07.2019
5291 Clouds 23 1012 73 10000 2.1 120 04:21 13.07.2019
5292 Clouds 23 1012 69 10000 4.6 130 03:43 13.07.2019
5293 Clouds 23 1012 69 10000 4.6 130 03:25 13.07.2019
5294 Drizzle 22 1014 88 10000 4.1 120 01:54 13.07.2019
5295 Drizzle 22 1014 88 10000 4.1 120 01:36 13.07.2019
5296 Rain 22 1015 88 10000 2.1 50 01:18 13.07.2019
5297 Rain 22 1015 88 10000 2.1 50 00:42 13.07.2019
5298 Rain 22 1015 94 10000 1.5 50 00:18 13.07.2019
5299 Rain 22 1015 94 10000 1.5 50 23:37 12.07.2019
5300 Rain 24 1015 78 10000 2.1 260 22:59 12.07.2019
5301 Rain 24 1015 78 10000 2.1 260 22:41 12.07.2019
5302 Rain 24 1015 78 10000 2.1 260 22:22 12.07.2019
5303 Clouds 22 1014 88 10000 1 360 21:42 12.07.2019
5304 Clouds 22 1014 88 10000 1 360 21:21 12.07.2019
5305 Rain 20 1014 94 10000 2.1 100 20:53 12.07.2019
5306 Rain 20 1014 94 10000 2.1 100 20:24 12.07.2019
5307 Rain 20 1014 94 10000 1.5 110 19:45 12.07.2019
5308 Rain 20 1014 94 10000 1.5 110 19:26 12.07.2019
5309 Clouds 19 1014 93 10000 1 130 18:58 12.07.2019
5310 Clouds 19 1014 93 10000 1 130 18:37 12.07.2019
5311 Clouds 19 1014 100 10000 1 160 18:19 12.07.2019
5312 Clouds 19 1014 100 10000 1 160 17:46 12.07.2019
5313 Clouds 19 1014 100 10000 1 160 17:27 12.07.2019
5314 Clouds 19 1014 93 10000 1 150 16:40 12.07.2019
5315 Clouds 19 1014 93 10000 1 150 16:20 12.07.2019
5316 Clouds 19 1014 100 10000 0.5 120 15:41 12.07.2019
5317 Clouds 19 1014 100 10000 0.5 120 15:21 12.07.2019
5318 Clouds 19 1014 100 10000 1 160 14:55 12.07.2019
5319 Clouds 19 1014 100 10000 1 160 14:37 12.07.2019
5320 Clouds 20 1015 94 10000 1.5 100 14:19 12.07.2019
5321 Clouds 20 1015 94 10000 1.5 100 13:38 12.07.2019
5322 Clouds 22 1015 88 10000 1 110 12:57 12.07.2019
5323 Clouds 22 1015 88 10000 1 110 12:57 12.07.2019
5324 Clouds 22 1015 88 10000 1 110 12:38 12.07.2019
5325 Rain 22 1015 88 10000 0.5 140 12:19 12.07.2019
5326 Rain 22 1015 88 10000 0.5 140 11:44 12.07.2019
5327 Rain 22 1015 88 10000 0.5 140 11:20 12.07.2019
5328 Rain 22 1016 88 10000 1 250 10:44 12.07.2019
5329 Rain 22 1016 88 10000 1 250 10:24 12.07.2019
5330 Clouds 22 1015 88 10000 1 180 09:54 12.07.2019
5331 Clouds 22 1015 88 10000 1 180 09:30 12.07.2019
5332 Clouds 22 1015 88 10000 2.1 130 08:58 12.07.2019
5333 Clouds 22 1015 88 10000 2.1 130 08:26 12.07.2019
5334 Rain 23 1014 83 10000 2.1 120 07:55 12.07.2019
5335 Rain 23 1014 83 10000 2.1 120 07:32 12.07.2019
5336 Rain 23 1014 83 10000 2.1 120 07:32 12.07.2019
5337 Rain 23 1014 83 10000 2.1 120 06:59 12.07.2019
5338 Rain 23 1014 83 10000 2.1 120 06:28 12.07.2019
5339 Rain 23 1014 83 10000 2.1 130 05:42 12.07.2019
5340 Clouds 23 1015 76 0 2.25 170.99 03:21 12.07.2019
5341 Clear 23 1014 76 0 1.26 162.529 01:39 12.07.2019
5342 Clear 23 1014 76 0 1.26 162.529 00:54 12.07.2019
5343 Clear 23 1017 75 0 1.84 127.807 00:20 12.07.2019
5344 Clear 23 1017 75 0 1.84 127.807 23:43 11.07.2019
5345 Clear 23 1017 75 0 1.84 127.807 23:24 11.07.2019
5346 Clear 23 1017 75 0 1.84 127.807 22:52 11.07.2019
5347 Clear 21 1017 94 10000 1 100 22:26 11.07.2019
5348 Clear 21 1017 94 10000 1 100 22:26 11.07.2019
5349 Clear 21 1017 94 10000 1 100 21:57 11.07.2019
5350 Clear 21 1017 94 10000 1 100 21:38 11.07.2019
5351 Clear 21 1016 94 10000 0.5 170 21:18 11.07.2019
5352 Clear 20 1016 94 10000 0.5 70 20:42 11.07.2019
5353 Clear 20 1016 94 10000 0.5 70 20:23 11.07.2019
5354 Clear 20 1016 94 10000 1 80 19:57 11.07.2019
5355 Clear 20 1016 100 10000 1 210 19:39 11.07.2019
5356 Clear 20 1016 100 10000 1 140 19:20 11.07.2019
5357 Clear 19 1016 100 10000 1.5 200 18:41 11.07.2019
5358 Clear 19 1016 100 10000 1.5 200 18:23 11.07.2019
5359 Clear 19 1016 93 10000 1 190 17:49 11.07.2019
5360 Clear 19 1016 93 10000 1 190 17:30 11.07.2019
5361 Clear 19 1015 100 10000 1 150 16:55 11.07.2019
5362 Clear 19 1016 100 10000 1 180 16:37 11.07.2019
5363 Clear 19 1016 100 10000 1.5 200 16:18 11.07.2019
5364 Clear 19 1016 93 10000 1 160 15:40 11.07.2019
5365 Clouds 19 1016 93 10000 1 160 15:20 11.07.2019
5366 Clouds 19 1016 93 10000 1 170 14:44 11.07.2019
5367 Clouds 19 1016 93 10000 1 170 14:25 11.07.2019
5368 Clouds 20 1017 94 10000 1.5 180 13:53 11.07.2019
5369 Clouds 20 1016 94 10000 1 210 13:33 11.07.2019
5370 Clouds 19 1016 93 10000 0.5 160 12:58 11.07.2019
5371 Clouds 20 1017 94 10000 0.5 140 12:38 11.07.2019
5372 Clouds 20 1017 94 10000 0.5 180 12:19 11.07.2019
5373 Clouds 21 1017 88 10000 1 180 11:43 11.07.2019
5374 Clouds 21 1017 88 10000 1 180 11:24 11.07.2019
5375 Clouds 21 1017 88 10000 1.5 80 10:51 11.07.2019
5376 Clouds 21 1017 88 10000 1.5 80 10:19 11.07.2019
5377 Clouds 22 1017 83 10000 0.5 250 09:50 11.07.2019
5378 Rain 23 1017 83 10000 1.5 110 09:31 11.07.2019
5379 Clouds 23 1017 83 10000 2.6 100 08:56 11.07.2019
5380 Clouds 23 1016 83 10000 2.6 90 08:36 11.07.2019
5381 Clouds 23 1016 83 10000 3.1 90 08:18 11.07.2019
5382 Clouds 23 1016 83 10000 2.1 90 07:41 11.07.2019
5383 Clouds 24 1016 78 10000 4.1 80 06:42 11.07.2019
5384 Rain 25 1015 73 10000 4.6 80 06:18 11.07.2019
5385 Rain 25 1015 73 10000 5.7 70 05:30 11.07.2019
5386 Rain 25 1015 78 10000 5.7 80 04:55 11.07.2019
5387 Rain 26 1015 74 10000 4.6 40 02:41 11.07.2019
5388 Rain 26 1016 74 10000 5.1 60 01:43 11.07.2019
5389 Clouds 25 1017 69 10000 4.6 60 00:31 11.07.2019
5390 Clouds 25 1017 73 10000 5.7 70 23:49 10.07.2019
5391 Clouds 25 1017 73 10000 5.7 70 23:20 10.07.2019
5392 Clouds 24 1017 78 10000 6.2 70 22:52 10.07.2019
5393 Clouds 24 1017 78 10000 6.2 70 22:22 10.07.2019
5394 Clouds 23 1017 88 10000 1.5 70 21:48 10.07.2019
5395 Clouds 23 1017 88 10000 1.5 70 21:28 10.07.2019
5396 Clouds 21 1017 94 10000 1 100 20:58 10.07.2019
5397 Clouds 19 1016 93 10000 1 180 20:39 10.07.2019
5398 Clouds 19 1016 93 10000 1 180 20:39 10.07.2019
5399 Clouds 19 1016 93 10000 0.5 90 20:19 10.07.2019
5400 Clouds 19 1016 93 10000 1 130 19:53 10.07.2019
5401 Clouds 19 1016 93 10000 1 130 19:22 10.07.2019
5402 Clouds 19 1016 93 10000 2.1 80 18:58 10.07.2019
5403 Clouds 18 1016 100 10000 1 90 18:39 10.07.2019
5404 Clouds 18 1016 100 10000 1 90 18:21 10.07.2019
5405 Clouds 19 1016 93 10000 1 120 17:41 10.07.2019
5406 Clouds 19 1016 93 10000 1 120 17:20 10.07.2019
5407 Clouds 18 1016 93 10000 2.1 80 16:38 10.07.2019
5408 Clouds 18 1016 93 10000 2.1 80 16:18 10.07.2019
5409 Clouds 18 1016 100 10000 1 180 15:45 10.07.2019
5410 Clouds 18 1016 100 10000 1 180 15:21 10.07.2019
5411 Clouds 19 1017 93 10000 1.5 180 14:41 10.07.2019
5412 Clouds 19 1017 93 10000 1.5 180 14:22 10.07.2019
5413 Clouds 19 1017 93 10000 1.5 180 13:46 10.07.2019
5414 Clouds 19 1017 93 8000 0.5 180 13:19 10.07.2019
5415 Clouds 19 1017 93 8000 0.5 180 12:58 10.07.2019
5416 Clouds 19 1017 93 10000 1 180 12:37 10.07.2019
5417 Clear 19 1018 93 10000 1 180 12:18 10.07.2019
5418 Clear 20 1018 94 10000 1.5 190 11:45 10.07.2019
5419 Clear 20 1018 94 10000 1.5 190 11:21 10.07.2019
5420 Clear 19 1018 93 7000 0.5 110 10:45 10.07.2019
5421 Clear 19 1018 93 7000 0.5 110 10:20 10.07.2019
5422 Clear 20 1017 88 0 1 170 09:44 10.07.2019
5423 Clear 20 1017 88 0 1 170 09:21 10.07.2019
5424 Clear 20 1017 88 0 1.5 190 08:50 10.07.2019
5425 Clear 20 1017 88 0 1 190 08:29 10.07.2019
5426 Clear 22 1016 78 10000 0.5 70 07:54 10.07.2019
5427 Clear 22 1016 78 10000 0.5 70 07:32 10.07.2019
5428 Clear 24 1016 73 10000 4.1 70 06:44 10.07.2019
5429 Clear 25 1015 69 10000 4.1 70 05:59 10.07.2019
5430 Clouds 26 1015 74 10000 3.6 60 04:36 10.07.2019
5431 Clouds 26 1015 78 10000 4.6 60 03:38 10.07.2019
5432 Clouds 26 1016 74 10000 4.1 60 00:45 10.07.2019
5433 Clouds 26 1017 69 10000 3.6 70 23:59 09.07.2019
5434 Clouds 26 1017 69 10000 3.6 70 23:39 09.07.2019
5435 Clouds 26 1017 69 10000 3.6 70 23:39 09.07.2019
5436 Clouds 26 1017 69 10000 3.6 70 23:20 09.07.2019
5437 Clouds 26 1017 74 10000 3.6 60 22:40 09.07.2019
5438 Clouds 26 1017 74 10000 3.6 60 22:22 09.07.2019
5439 Clouds 25 1017 78 10000 3.6 80 21:47 09.07.2019
5440 Clouds 25 1017 78 10000 3.6 80 21:27 09.07.2019
5441 Clear 23 1017 83 0 4.99 96.198 20:57 09.07.2019
5442 Clear 23 1017 83 0 4.99 96.198 20:39 09.07.2019
5443 Clear 23 1017 83 0 4.99 96.198 20:21 09.07.2019
5444 Clear 23 1017 83 0 4.99 96.198 19:39 09.07.2019
5445 Clear 23 1017 83 0 4.99 96.198 19:19 09.07.2019
5446 Clear 23 1017 83 0 4.99 96.198 18:41 09.07.2019
5447 Clear 23 1017 83 0 4.99 96.198 18:41 09.07.2019
5448 Clear 23 1016 85 0 4.97 92.836 18:22 09.07.2019
5449 Clear 23 1016 85 0 4.97 92.836 17:44 09.07.2019
5450 Clear 23 1016 85 0 4.97 92.836 17:22 09.07.2019
5451 Clear 23 1016 85 0 4.97 92.836 16:59 09.07.2019
5452 Clear 23 1016 85 0 4.97 92.836 16:41 09.07.2019
5453 Clear 23 1016 85 0 4.97 92.836 16:22 09.07.2019
5454 Clear 23 1016 85 0 4.97 92.836 15:44 09.07.2019
5455 Clear 23 1016 86 0 5.31 91.252 15:25 09.07.2019
5456 Clear 23 1016 86 0 5.31 91.252 14:45 09.07.2019
5457 Clear 23 1016 86 0 5.31 91.252 14:24 09.07.2019
5458 Clear 23 1016 86 0 5.31 91.252 13:57 09.07.2019
5459 Clear 23 1016 86 0 5.31 91.252 13:38 09.07.2019
5460 Clear 23 1016 85 0 5.01 98.986 13:19 09.07.2019
5461 Clear 23 1016 85 0 5.01 98.986 12:39 09.07.2019
5462 Clear 21 1016 94 10000 1.5 90 12:19 09.07.2019
5463 Clear 21 1016 94 10000 1.5 90 11:56 09.07.2019
5464 Clear 21 1016 94 10000 1.5 90 11:37 09.07.2019
5465 Clear 21 1016 94 10000 1.5 110 11:19 09.07.2019
5466 Clear 22 1016 88 10000 1.5 120 10:47 09.07.2019
5467 Clear 22 1016 88 10000 1.5 120 10:25 09.07.2019
5468 Clear 21 1015 88 10000 1.5 90 09:38 09.07.2019
5469 Clear 21 1015 88 10000 1.5 90 09:20 09.07.2019
5470 Clear 21 1015 88 10000 1.5 100 08:44 09.07.2019
5471 Clear 22 1015 83 10000 2.1 110 08:19 09.07.2019
5472 Clear 24 1019 53 10000 10.3 90 03:49 05.07.2019
5473 Rain 24 1019 53 10000 10.3 90 03:21 05.07.2019
5474 Rain 23 1020 56 10000 10.3 90 02:52 05.07.2019
5475 Rain 23 1020 60 10000 8.2 100 02:20 05.07.2019
5476 Rain 22 1021 73 10000 8.2 100 01:34 05.07.2019
5477 Rain 22 1021 73 10000 8.7 100 00:52 05.07.2019
5478 Rain 22 1022 68 10000 9.3 90 00:31 05.07.2019
5479 Rain 22 1022 68 10000 8.2 90 23:40 04.07.2019
5480 Rain 22 1022 68 10000 6.7 90 23:19 04.07.2019
5481 Rain 22 1022 68 10000 6.7 100 22:42 04.07.2019
5482 Rain 22 1022 68 10000 6.7 100 22:23 04.07.2019
5483 Rain 21 1022 68 10000 6.2 90 21:45 04.07.2019
5484 Rain 21 1022 68 10000 6.2 90 21:26 04.07.2019
5485 Rain 21 1021 68 10000 7.2 90 20:59 04.07.2019
5486 Rain 21 1021 73 10000 5.1 100 20:38 04.07.2019
5487 Rain 20 1021 77 10000 5.7 110 20:19 04.07.2019
5488 Rain 20 1021 77 10000 5.7 110 20:19 04.07.2019
5489 Rain 20 1021 77 10000 5.7 110 20:19 04.07.2019
5490 Rain 19 1021 88 10000 3.1 110 19:41 04.07.2019
5491 Rain 19 1021 88 10000 3.1 110 19:21 04.07.2019
5492 Rain 19 1021 88 9000 7.2 90 18:55 04.07.2019
5493 Rain 21 1020 73 10000 5.1 90 18:36 04.07.2019
5494 Drizzle 20 1020 77 10000 6.2 100 18:18 04.07.2019
5495 Rain 21 1020 68 10000 4.6 100 17:41 04.07.2019
5496 Rain 19 1021 82 10000 1.5 140 17:18 04.07.2019
5497 Rain 21 1021 68 10000 5.1 100 15:45 04.07.2019
5498 Rain 21 1021 68 10000 5.1 100 15:25 04.07.2019
5499 Rain 22 1021 60 10000 5.7 110 14:59 04.07.2019
5500 Rain 21 1021 60 10000 6.7 100 14:39 04.07.2019
5501 Rain 21 1021 60 10000 6.7 100 14:20 04.07.2019
5502 Rain 22 1021 56 10000 6.2 100 13:57 04.07.2019
5503 Rain 22 1021 53 10000 7.2 90 13:38 04.07.2019
5504 Rain 22 1021 56 10000 6.7 100 13:19 04.07.2019
5505 Rain 22 1021 56 10000 6.7 100 13:19 04.07.2019
5506 Rain 22 1022 60 10000 6.2 90 12:39 04.07.2019
5507 Rain 22 1022 56 10000 6.7 100 12:19 04.07.2019
5508 Rain 22 1022 56 10000 7.2 100 11:45 04.07.2019
5509 Rain 22 1022 56 10000 7.2 100 11:20 04.07.2019
5510 Rain 22 1022 56 10000 7.2 100 11:20 04.07.2019
5511 Rain 22 1022 60 10000 7.2 100 10:47 04.07.2019
5512 Rain 22 1022 60 10000 7.2 100 10:28 04.07.2019
5513 Rain 22 1022 60 10000 6.2 90 09:57 04.07.2019
5514 Rain 22 1022 60 10000 5.7 110 09:38 04.07.2019
5515 Clouds 22 1022 60 10000 8.2 100 09:19 04.07.2019
5516 Clouds 22 1022 56 10000 6.7 100 08:44 04.07.2019
5517 Clouds 22 1021 56 10000 7.2 100 08:18 04.07.2019
5518 Clouds 22 1021 56 10000 7.7 110 07:39 04.07.2019
5519 Clouds 22 1021 60 10000 8.2 110 07:18 04.07.2019
5520 Clouds 22 1021 64 10000 8.2 100 06:30 04.07.2019
5521 Rain 22 1021 68 10000 7.7 100 05:41 04.07.2019
5522 Rain 22 1021 73 10000 7.2 110 04:18 04.07.2019
5523 Rain 22 1021 73 10000 7.7 90 01:52 04.07.2019
5524 Rain 23 1022 64 10000 6.7 100 01:26 04.07.2019
5525 Rain 23 1023 69 10000 9.3 90 00:39 04.07.2019
5526 Rain 24 1023 60 10000 8.7 90 23:52 03.07.2019
5527 Rain 24 1023 53 10000 6.7 90 23:21 03.07.2019
5528 Rain 24 1023 53 10000 8.2 90 22:56 03.07.2019
5529 Rain 24 1023 50 10000 7.7 90 22:37 03.07.2019
5530 Rain 23 1023 49 10000 7.2 90 22:18 03.07.2019
5531 Rain 23 1023 49 10000 7.2 90 21:50 03.07.2019
5532 Rain 23 1023 49 10000 6.2 90 21:31 03.07.2019
5533 Clear 22 1022 56 10000 4.6 100 20:47 03.07.2019
5534 Clear 22 1022 56 10000 4.6 100 20:29 03.07.2019
5535 Clear 22 1022 56 10000 4.6 100 20:29 03.07.2019
5536 Clear 22 1022 56 10000 6.2 110 19:58 03.07.2019
5537 Clear 22 1022 53 10000 5.1 100 19:40 03.07.2019
5538 Clear 22 1022 49 10000 4.1 100 18:56 03.07.2019
5539 Clear 22 1022 46 10000 5.1 100 18:37 03.07.2019
5540 Clear 22 1021 53 10000 5.7 100 18:19 03.07.2019
5541 Clear 22 1021 56 10000 5.7 100 17:49 03.07.2019
5542 Clear 22 1021 60 10000 4.6 110 17:19 03.07.2019
5543 Clear 22 1021 60 10000 6.2 100 16:44 03.07.2019
5544 Clear 22 1021 60 10000 6.2 100 16:24 03.07.2019
5545 Clear 22 1022 64 10000 7.7 110 15:52 03.07.2019
5546 Clear 22 1022 64 10000 7.7 110 15:52 03.07.2019
5547 Clear 22 1022 64 10000 7.2 100 15:32 03.07.2019
5548 Rain 22 1022 64 10000 7.7 110 14:59 03.07.2019
5549 Rain 22 1022 60 10000 6.7 100 14:41 03.07.2019
5550 Rain 22 1022 60 10000 6.7 100 14:19 03.07.2019
5551 Rain 22 1023 60 10000 6.7 100 13:43 03.07.2019
5552 Clear 22 1023 60 10000 6.7 100 13:24 03.07.2019
5553 Clear 22 1023 64 10000 7.7 100 12:45 03.07.2019
5554 Rain 20 1023 88 10000 6.2 90 12:18 03.07.2019
5555 Drizzle 21 1024 68 10000 7.7 100 11:43 03.07.2019
5556 Drizzle 21 1024 68 10000 7.7 100 11:22 03.07.2019
5557 Rain 22 1023 60 10000 7.7 110 10:44 03.07.2019
5558 Rain 22 1023 60 10000 7.7 110 10:25 03.07.2019
5559 Rain 22 1023 60 10000 6.7 110 09:57 03.07.2019
5560 Rain 22 1023 60 10000 7.7 100 09:38 03.07.2019
5561 Rain 22 1023 60 10000 7.2 110 09:19 03.07.2019
5562 Rain 22 1023 60 10000 7.2 110 08:50 03.07.2019
5563 Rain 22 1023 60 10000 7.7 110 08:26 03.07.2019
5564 Rain 22 1022 64 10000 8.2 100 07:39 03.07.2019
5565 Rain 22 1022 64 10000 7.2 100 07:19 03.07.2019
5566 Rain 23 1021 56 10000 7.2 110 06:20 03.07.2019
5567 Rain 23 1021 60 10000 6.2 100 05:30 03.07.2019
5568 Rain 23 1021 56 10000 7.2 100 04:28 03.07.2019
5569 Rain 23 1021 60 10000 8.7 100 03:22 03.07.2019
5570 Rain 23 1022 60 10000 7.7 100 01:42 03.07.2019
5571 Rain 22 1023 64 10000 6.2 110 01:21 03.07.2019
5572 Rain 23 1024 60 10000 6.2 110 00:42 03.07.2019
5573 Rain 23 1024 56 10000 7.7 110 23:58 02.07.2019
5574 Rain 23 1024 56 10000 7.7 110 23:37 02.07.2019
5575 Rain 23 1024 53 10000 7.7 110 23:19 02.07.2019
5576 Rain 22 1024 56 10000 7.2 100 22:55 02.07.2019
5577 Rain 22 1024 56 10000 7.2 100 22:36 02.07.2019
5578 Rain 20 1024 77 10000 6.7 100 22:18 02.07.2019
5579 Rain 21 1023 68 10000 6.7 90 21:41 02.07.2019
5580 Clouds 21 1023 64 10000 8.2 100 21:20 02.07.2019
5581 Rain 21 1023 64 10000 8.2 100 20:57 02.07.2019
5582 Rain 21 1023 64 10000 8.2 100 20:39 02.07.2019
5583 Rain 22 1023 60 10000 7.7 110 20:19 02.07.2019
5584 Rain 22 1022 56 10000 7.2 100 19:42 02.07.2019
5585 Rain 22 1022 56 10000 7.2 100 19:23 02.07.2019
5586 Rain 22 1022 60 0 15.13 113.387 18:47 02.07.2019
5587 Rain 22 1022 60 10000 7.2 110 18:18 02.07.2019
5588 Rain 22 1022 60 10000 7.2 110 18:18 02.07.2019
5589 Rain 21 1022 68 10000 7.7 110 17:43 02.07.2019
5590 Rain 21 1022 68 10000 7.7 110 17:22 02.07.2019
5591 Rain 21 1022 68 10000 4.6 110 16:52 02.07.2019
5592 Rain 21 1022 68 10000 4.6 110 16:34 02.07.2019
5593 Rain 21 1022 73 10000 7.2 100 15:46 02.07.2019
5594 Rain 21 1022 73 10000 7.2 100 15:26 02.07.2019
5595 Rain 22 1022 64 10000 6.7 90 14:56 02.07.2019
5596 Rain 22 1022 68 10000 6.7 100 14:38 02.07.2019
5597 Rain 22 1022 68 10000 6.2 100 13:58 02.07.2019
5598 Rain 22 1023 64 10000 6.7 100 13:36 02.07.2019
5599 Rain 22 1023 64 10000 6.7 100 13:18 02.07.2019
5600 Rain 22 1023 68 10000 6.2 100 12:43 02.07.2019
5601 Rain 22 1022 68 10000 7.2 100 12:22 02.07.2019
5602 Rain 22 1023 68 10000 5.1 110 11:43 02.07.2019
5603 Rain 22 1023 68 10000 5.1 110 11:43 02.07.2019
5604 Rain 22 1023 68 10000 5.1 110 11:23 02.07.2019
5605 Rain 22 1022 73 10000 7.7 100 10:51 02.07.2019
5606 Rain 22 1022 73 10000 7.7 100 10:26 02.07.2019
5607 Rain 22 1022 68 10000 6.2 100 09:49 02.07.2019
5608 Rain 22 1022 73 10000 5.7 110 09:22 02.07.2019
5609 Rain 22 1021 73 10000 5.7 110 08:52 02.07.2019
5610 Rain 22 1021 73 10000 5.7 110 08:34 02.07.2019
5611 Rain 22 1021 73 10000 5.7 110 07:55 02.07.2019
5612 Rain 23 1020 64 10000 6.7 100 07:21 02.07.2019
5613 Rain 23 1020 64 10000 7.2 100 06:53 02.07.2019
5614 Rain 23 1020 64 10000 7.2 100 06:35 02.07.2019
5615 Rain 24 1019 57 10000 6.7 100 04:58 02.07.2019
5616 Clouds 24 1020 57 10000 6.2 100 02:26 02.07.2019
5617 Clouds 24 1021 57 10000 4.1 100 23:55 01.07.2019
5618 Clouds 24 1021 57 10000 4.1 100 23:24 01.07.2019
5619 Clouds 23 1021 56 10000 5.7 100 22:47 01.07.2019
5620 Clouds 23 1021 56 10000 5.7 100 22:27 01.07.2019
5621 Clouds 22 1021 68 10000 3.1 100 21:48 01.07.2019
5622 Clouds 22 1021 68 10000 3.1 100 21:28 01.07.2019
5623 Clouds 22 1020 64 10000 4.6 110 20:53 01.07.2019
5624 Clouds 22 1020 64 10000 4.6 110 20:23 01.07.2019
5625 Clouds 22 1020 60 10000 4.6 110 19:59 01.07.2019
5626 Clouds 22 1020 56 10000 3.6 120 19:41 01.07.2019
5627 Clouds 21 1020 64 10000 3.1 110 19:23 01.07.2019
5628 Clouds 22 1020 60 10000 3.6 110 18:53 01.07.2019
5629 Clouds 22 1020 60 10000 3.6 110 18:31 01.07.2019
5630 Clouds 22 1019 60 10000 3.6 120 18:00 01.07.2019
5631 Clouds 21 1019 64 10000 3.1 120 17:41 01.07.2019
5632 Clouds 21 1019 64 10000 3.1 120 17:21 01.07.2019
5633 Clouds 21 1019 60 10000 3.6 120 16:47 01.07.2019
5634 Clouds 22 1020 60 10000 4.1 100 16:26 01.07.2019
5635 Clouds 22 1020 60 10000 3.6 110 15:54 01.07.2019
5636 Clouds 21 1020 64 10000 4.1 110 15:36 01.07.2019
5637 Rain 21 1020 64 10000 4.1 110 15:18 01.07.2019
5638 Rain 22 1020 60 10000 5.1 110 14:42 01.07.2019
5639 Rain 22 1020 60 10000 5.1 110 14:19 01.07.2019
5640 Rain 22 1020 60 10000 3.6 90 13:40 01.07.2019
5641 Rain 22 1020 60 10000 3.6 90 13:22 01.07.2019
5642 Rain 22 1020 56 10000 5.1 100 12:46 01.07.2019
5643 -273 0 0 0 0 0 12:27 01.07.2019
5644 Clouds 22 1020 56 10000 5.7 110 11:58 01.07.2019
5645 Clouds 22 1020 56 10000 6.7 100 11:38 01.07.2019
5646 Clouds 22 1020 56 10000 6.7 100 11:18 01.07.2019
5647 Clouds 22 1020 60 10000 6.2 100 10:45 01.07.2019
5648 Clouds 22 1020 64 10000 6.7 100 10:21 01.07.2019
5649 Clouds 22 1020 60 10000 5.7 100 09:45 01.07.2019
5650 Rain 22 1020 64 10000 4.1 100 09:27 01.07.2019
5651 Rain 22 1020 64 10000 4.1 100 09:27 01.07.2019
5652 Rain 22 1020 64 10000 5.7 100 08:58 01.07.2019
5653 Clouds 22 1020 60 10000 6.2 100 08:35 01.07.2019
5654 Clouds 22 1019 64 10000 7.2 100 07:37 01.07.2019
5655 Clouds 22 1019 60 10000 6.2 100 06:51 01.07.2019
5656 Rain 22 1018 64 10000 5.1 100 04:45 01.07.2019
5657 Clouds 24 1019 64 10000 5.7 100 01:20 01.07.2019
5658 Clouds 23 1020 60 10000 6.2 100 00:42 01.07.2019
5659 Rain 23 1020 60 10000 6.2 100 00:21 01.07.2019
5660 Rain 23 1020 64 10000 6.7 100 23:26 30.06.2019
5661 Rain 23 1020 60 10000 5.7 100 22:58 30.06.2019
5662 Rain 23 1019 56 10000 5.1 100 22:37 30.06.2019
5663 Rain 23 1019 56 10000 5.1 100 22:18 30.06.2019
5664 Rain 22 1019 64 10000 5.1 100 21:41 30.06.2019
5665 Rain 22 1019 64 10000 5.1 100 21:18 30.06.2019
5666 Rain 21 1019 68 10000 4.6 110 20:42 30.06.2019
5667 Rain 21 1019 68 10000 4.6 110 20:23 30.06.2019
5668 Clouds 21 1018 73 10000 5.7 100 19:52 30.06.2019
5669 Clouds 22 1017 64 10000 5.7 110 19:26 30.06.2019
5670 Clouds 21 1017 68 10000 4.6 100 18:55 30.06.2019
5671 Rain 22 1017 60 10000 4.1 110 18:25 30.06.2019
5672 Rain 22 1017 60 10000 4.1 100 17:55 30.06.2019
5673 Rain 21 1017 64 10000 5.1 110 17:36 30.06.2019
5674 Rain 21 1017 64 10000 5.1 110 17:18 30.06.2019
5675 Rain 21 1017 64 10000 4.6 100 16:43 30.06.2019
5676 Rain 21 1017 64 10000 4.6 100 16:25 30.06.2019
5677 Rain 21 1017 68 10000 3.6 110 15:37 30.06.2019
5678 Rain 21 1017 68 10000 3.6 110 15:18 30.06.2019
5679 Rain 21 1017 73 10000 6.7 90 14:45 30.06.2019
5680 Rain 20 1017 77 10000 4.1 110 14:27 30.06.2019
5681 Rain 20 1018 77 10000 4.6 110 13:43 30.06.2019
5682 Rain 20 1018 77 10000 4.6 110 13:23 30.06.2019
5683 Rain 19 1019 88 10000 4.6 110 12:48 30.06.2019
5684 Rain 19 1019 88 4400 4.6 100 12:25 30.06.2019
5685 Rain 20 1019 82 9000 3.6 110 11:55 30.06.2019
5686 Rain 21 1019 73 10000 3.6 110 11:36 30.06.2019
5687 Rain 21 1019 73 10000 3.6 110 11:18 30.06.2019
5688 Rain 21 1020 68 10000 4.1 110 10:38 30.06.2019
5689 Rain 21 1020 68 10000 4.1 110 10:19 30.06.2019
5690 Rain 21 1020 68 10000 5.1 100 09:44 30.06.2019
5691 Rain 21 1020 68 10000 5.1 100 09:44 30.06.2019
5692 Rain 21 1020 68 10000 2.6 110 09:23 30.06.2019
5693 Rain 22 1019 64 10000 3.1 110 08:58 30.06.2019
5694 Rain 21 1019 64 10000 3.1 110 08:32 30.06.2019
5695 Rain 22 1019 64 10000 3.1 110 07:58 30.06.2019
5696 Rain 22 1018 60 10000 4.6 110 07:29 30.06.2019
5697 Rain 22 1018 60 10000 3.1 120 06:41 30.06.2019
5698 Rain 22 1018 60 10000 3.6 110 05:33 30.06.2019
5699 Rain 23 1018 56 10000 5.1 100 02:52 30.06.2019
5700 Rain 23 1019 56 10000 5.1 90 01:28 30.06.2019
5701 Rain 23 1020 53 10000 5.7 100 00:32 30.06.2019
5702 Clouds 23 1020 53 10000 5.1 110 23:55 29.06.2019
5703 Clouds 23 1020 49 10000 5.7 110 23:24 29.06.2019
5704 Clouds 23 1021 46 10000 5.7 110 22:57 29.06.2019
5705 Clouds 23 1021 49 10000 4.1 110 22:37 29.06.2019
5706 Clouds 23 1021 49 10000 4.1 110 22:18 29.06.2019
5707 Rain 22 1020 53 10000 3.6 100 21:41 29.06.2019
5708 Rain 22 1020 53 10000 3.6 100 21:22 29.06.2019
5709 Rain 21 1019 52 10000 3.6 120 20:41 29.06.2019
5710 Rain 21 1019 52 10000 3.6 120 20:22 29.06.2019
5711 Rain 21 1018 52 10000 3.1 110 19:48 29.06.2019
5712 Rain 21 1018 52 10000 3.1 110 19:23 29.06.2019
5713 Rain 21 1018 56 10000 3.1 110 18:51 29.06.2019
5714 Rain 20 1018 68 10000 2.1 120 18:26 29.06.2019
5715 Rain 19 1019 77 10000 4.6 110 17:42 29.06.2019
5716 Rain 19 1019 77 10000 4.6 110 17:22 29.06.2019
5717 Rain 20 1018 68 10000 3.1 120 16:57 29.06.2019
5718 Rain 21 1018 64 10000 2.6 120 16:36 29.06.2019
5719 Rain 21 1018 64 10000 2.6 130 15:48 29.06.2019
5720 Rain 21 1018 64 10000 4.6 110 15:24 29.06.2019
5721 Rain 21 1018 64 10000 4.1 110 14:44 29.06.2019
5722 Rain 21 1018 60 10000 4.1 100 14:25 29.06.2019
5723 Rain 21 1019 60 10000 4.1 100 13:46 29.06.2019
5724 Rain 22 1019 56 10000 4.6 100 13:26 29.06.2019
5725 Rain 22 1019 56 10000 5.1 100 12:51 29.06.2019
5726 Rain 21 1019 64 10000 3.6 100 12:33 29.06.2019
5727 Rain 22 1019 60 10000 5.7 100 11:54 29.06.2019
5728 Rain 22 1019 56 10000 4.6 100 11:33 29.06.2019
5729 Rain 22 1019 60 10000 5.1 100 10:56 29.06.2019
5730 Rain 22 1019 60 10000 6.2 100 10:36 29.06.2019
5731 Rain 22 1019 60 10000 6.2 100 10:36 29.06.2019
5732 Rain 22 1019 60 10000 4.6 100 09:59 29.06.2019
5733 Rain 22 1019 56 10000 5.7 100 09:38 29.06.2019
5734 Rain 21 1018 64 10000 5.1 100 08:42 29.06.2019
5735 Rain 21 1018 64 10000 5.7 100 07:46 29.06.2019
5736 Rain 21 1018 64 10000 2.6 110 07:21 29.06.2019
5737 Rain 22 1017 60 10000 4.6 100 06:44 29.06.2019
5738 Rain 22 1017 60 10000 4.6 100 06:21 29.06.2019
5739 Rain 23 1017 60 10000 3.1 100 02:37 29.06.2019
5740 Rain 21 1019 73 10000 2.6 130 00:57 29.06.2019
5741 Rain 20 1019 82 10000 3.1 130 00:23 29.06.2019
5742 Rain 22 1019 73 10000 4.1 120 23:26 28.06.2019
5743 Rain 21 1019 83 10000 3.1 140 22:57 28.06.2019
5744 Rain 22 1019 73 10000 4.1 100 22:36 28.06.2019
5745 Rain 23 1019 69 10000 4.1 110 21:48 28.06.2019
5746 Rain 23 1018 69 10000 3.1 120 21:21 28.06.2019
5747 Rain 22 1018 68 10000 2.6 130 20:46 28.06.2019
5748 Rain 20 1018 72 10000 1.5 130 20:26 28.06.2019
5749 Rain 21 1018 68 10000 1.5 100 19:53 28.06.2019
5750 Rain 20 1017 77 10000 1 120 19:28 28.06.2019
5751 Rain 21 1017 73 10000 1.5 80 18:57 28.06.2019
5752 Rain 21 1017 64 10000 2.1 90 18:38 28.06.2019
5753 Clouds 21 1017 64 10000 2.1 90 18:20 28.06.2019
5754 Clouds 22 1016 60 10000 2.6 130 17:29 28.06.2019
5755 Clouds 22 1016 64 10000 3.6 150 16:50 28.06.2019
5756 Clouds 21 1017 73 10000 2.1 130 16:27 28.06.2019
5757 Clouds 20 1017 77 10000 1.5 100 15:48 28.06.2019
5758 Clouds 20 1017 82 10000 2.1 80 15:23 28.06.2019
5759 Clouds 21 1017 77 10000 2.1 110 14:45 28.06.2019
5760 Clouds 20 1017 77 10000 1.5 110 14:23 28.06.2019
5761 Clouds 21 1017 73 10000 2.6 110 13:58 28.06.2019
5762 Clouds 21 1017 73 10000 2.6 110 13:58 28.06.2019
5763 Clouds 21 1017 77 10000 3.1 110 13:39 28.06.2019
5764 Clouds 21 1017 77 10000 3.1 110 13:19 28.06.2019
5765 Clouds 21 1017 77 10000 3.6 120 12:45 28.06.2019
5766 Clouds 20 1017 82 10000 4.6 140 11:54 28.06.2019
5767 Rain 20 1017 82 10000 4.6 140 11:22 28.06.2019
5768 Rain 20 1018 88 7000 3.1 150 10:45 28.06.2019
5769 Rain 21 1017 77 10000 1.5 150 10:21 28.06.2019
5770 Rain 20 1017 82 10000 2.1 130 09:48 28.06.2019
5771 Rain 21 1017 83 10000 2.6 120 09:29 28.06.2019
5772 Rain 21 1016 83 10000 3.6 120 08:47 28.06.2019
5773 Rain 21 1016 77 10000 3.1 120 08:26 28.06.2019
5774 Rain 21 1016 77 10000 3.6 130 07:46 28.06.2019
5775 Rain 21 1015 88 8000 2.6 110 06:58 28.06.2019
5776 Rain 21 1015 88 10000 3.1 90 05:55 28.06.2019
5777 Rain 22 1015 83 10000 2.1 90 01:22 28.06.2019
5778 Rain 24 1016 73 10000 3.1 120 00:33 28.06.2019
5779 Rain 25 1016 69 10000 2.1 120 23:49 27.06.2019
5780 Rain 24 1016 69 10000 3.6 130 23:25 27.06.2019
5781 Rain 24 1016 69 10000 3.6 110 22:55 27.06.2019
5782 Rain 23 1016 78 10000 3.1 120 22:36 27.06.2019
5783 Rain 23 1016 78 10000 3.1 120 22:18 27.06.2019
5784 Rain 24 1016 69 10000 3.1 140 21:42 27.06.2019
5785 Rain 24 1016 69 10000 3.1 140 21:24 27.06.2019
5786 Rain 23 1016 78 10000 2.6 140 20:52 27.06.2019
5787 Rain 22 1015 78 10000 3.1 140 20:32 27.06.2019
5788 Rain 21 1015 83 10000 1.5 150 19:59 27.06.2019
5789 Rain 22 1015 73 10000 3.6 150 19:40 27.06.2019
5790 Rain 22 1015 73 10000 3.6 150 19:22 27.06.2019
5791 Rain 22 1014 78 10000 2.6 150 18:42 27.06.2019
5792 Clouds 22 1014 78 10000 2.6 150 18:19 27.06.2019
5793 Clouds 22 1014 78 10000 2.6 140 17:41 27.06.2019
5794 Clouds 22 1014 78 10000 2.6 140 17:22 27.06.2019
5795 Clouds 22 1014 73 10000 1.5 150 16:39 27.06.2019
5796 Clouds 22 1014 73 10000 1.5 150 16:19 27.06.2019
5797 Clouds 22 1014 73 10000 1.5 150 16:19 27.06.2019
5798 Clouds 22 1014 73 10000 1.5 150 16:19 27.06.2019
5799 Clouds 22 1014 78 10000 1 130 15:50 27.06.2019
5800 Clouds 22 1014 78 10000 2.1 130 15:30 27.06.2019
5801 Clouds 21 1014 83 10000 1 160 14:52 27.06.2019
5802 Clouds 20 1014 88 10000 1.5 140 14:31 27.06.2019
5803 Clouds 19 1014 93 10000 1 180 13:56 27.06.2019
5804 Clouds 19 1014 93 10000 1 180 13:56 27.06.2019
5805 Clouds 20 1015 88 10000 0.5 130 13:36 27.06.2019
5806 Clouds 20 1015 88 10000 0.5 120 13:18 27.06.2019
5807 Clouds 21 1015 83 10000 1 120 12:40 27.06.2019
5808 Clear 21 1015 83 10000 1 120 12:21 27.06.2019
5809 Clear 23 1015 73 10000 1.5 100 11:42 27.06.2019
5810 Clear 23 1015 73 10000 1.5 100 11:21 27.06.2019
5811 Clear 22 1015 78 10000 1.5 110 10:55 27.06.2019
5812 Clear 23 1015 73 10000 1.5 100 10:36 27.06.2019
5813 Clear 23 1015 73 10000 1.5 100 10:18 27.06.2019
5814 Clear 23 1015 73 10000 1.5 10 09:37 27.06.2019
5815 Rain 23 1015 73 10000 1.5 10 09:19 27.06.2019
5816 Rain 23 1014 69 10000 1.5 30 08:44 27.06.2019
5817 Rain 23 1014 69 10000 1.5 30 08:22 27.06.2019
5818 Rain 23 1014 69 10000 1.5 20 07:39 27.06.2019
5819 Rain 23 1014 69 10000 1.5 100 06:54 27.06.2019
5820 Rain 23 1013 78 10000 3.1 140 06:28 27.06.2019
5821 Rain 24 1013 78 10000 2.6 60 03:22 27.06.2019
5822 Rain 24 1013 73 10000 1.5 120 02:39 27.06.2019
5823 Rain 24 1014 78 10000 3.1 180 01:18 27.06.2019
5824 Rain 25 1015 69 10000 2.1 160 00:42 27.06.2019
5825 Rain 25 1015 69 10000 2.1 160 00:19 27.06.2019
5826 Rain 24 1015 78 10000 2.1 40 23:42 26.06.2019
5827 Rain 24 1015 78 10000 2.1 40 23:22 26.06.2019
5828 Rain 24 1016 73 10000 2.1 70 22:46 26.06.2019
5829 Rain 23 1016 78 10000 3.1 130 22:27 26.06.2019
5830 Rain 22 1015 83 10000 2.1 90 21:59 26.06.2019
5831 Rain 22 1015 83 10000 1.5 70 21:39 26.06.2019
5832 Rain 22 1015 83 10000 1.5 70 21:19 26.06.2019
5833 Rain 22 1015 83 10000 1.5 70 21:19 26.06.2019
5834 Rain 21 1015 94 10000 0.5 130 20:44 26.06.2019
5835 Rain 21 1015 94 10000 0.5 100 20:26 26.06.2019
5836 Rain 21 1014 94 10000 1 140 19:50 26.06.2019
5837 Rain 21 1014 94 10000 0.5 130 19:31 26.06.2019
5838 Rain 21 1014 94 10000 2.1 90 18:57 26.06.2019
5839 Rain 21 1014 94 10000 2.1 90 18:57 26.06.2019
5840 Rain 21 1014 94 10000 0.5 90 18:39 26.06.2019
5841 Rain 21 1014 94 10000 0.5 90 18:19 26.06.2019
5842 Rain 21 1014 94 10000 1 130 17:43 26.06.2019
5843 Rain 21 1014 94 10000 1 130 17:23 26.06.2019
5844 Rain 21 1014 94 10000 3.84 130.263 16:51 26.06.2019
5845 Rain 21 1014 88 10000 1 230 16:28 26.06.2019
5846 Rain 21 1014 88 10000 2.1 110 15:51 26.06.2019
5847 Rain 21 1015 88 10000 3.1 120 15:28 26.06.2019
5848 Rain 21 1015 94 10000 2.1 90 14:42 26.06.2019
5849 Rain 21 1015 94 10000 2.1 90 14:21 26.06.2019
5850 Rain 21 1015 100 10000 0.5 40 13:45 26.06.2019
5851 Rain 21 1015 94 3800 4.1 60 13:21 26.06.2019
5852 Clouds 21 1015 94 10000 1 120 12:52 26.06.2019
5853 Clouds 21 1016 94 10000 1.5 140 12:33 26.06.2019
5854 Clouds 20 1016 100 10000 1 190 11:55 26.06.2019
5855 Clouds 21 1015 94 10000 1 200 11:24 26.06.2019
5856 Rain 21 1016 88 10000 2.6 90 10:49 26.06.2019
5857 Clouds 20 1015 94 10000 1 140 10:31 26.06.2019
5858 Clouds 20 1015 94 10000 1 140 10:31 26.06.2019
5859 Clouds 21 1016 94 10000 0.5 120 09:51 26.06.2019
5860 Rain 22 1016 88 10000 0.5 210 09:27 26.06.2019
5861 Rain 22 1015 88 10000 2.6 20 08:52 26.06.2019
5862 Clouds 22 1015 83 10000 1.5 80 08:21 26.06.2019
5863 Clouds 22 1015 78 10000 1 150 07:55 26.06.2019
5864 Clouds 22 1015 78 10000 1.5 110 07:35 26.06.2019
5865 Clouds 23 1015 73 10000 2.1 120 06:32 26.06.2019
5866 Clouds 25 1016 65 10000 5.7 80 01:36 26.06.2019
5867 Clouds 25 1017 65 10000 4.6 90 00:27 26.06.2019
5868 Clouds 25 1018 61 10000 6.7 80 23:49 25.06.2019
5869 Clouds 25 1017 61 10000 6.2 80 23:29 25.06.2019
5870 Clouds 25 1017 61 10000 6.2 80 22:59 25.06.2019
5871 Clouds 25 1018 65 10000 6.7 80 22:40 25.06.2019
5872 Clouds 25 1018 65 10000 6.7 80 22:21 25.06.2019
5873 Clouds 25 1017 65 10000 4.6 90 21:45 25.06.2019
5874 Rain 24 1018 69 10000 4.1 90 21:24 25.06.2019
5875 Rain 24 1017 69 10000 2.6 110 20:48 25.06.2019
5876 Rain 24 1017 69 10000 2.6 110 20:48 25.06.2019
5877 Rain 24 1017 69 10000 2.6 110 20:47 25.06.2019
5878 Rain 23 1017 73 10000 2.6 100 20:23 25.06.2019
5879 Rain 22 1017 83 10000 2.6 100 19:55 25.06.2019
5880 Rain 22 1017 83 10000 2.1 110 19:37 25.06.2019
5881 Rain 22 1017 83 10000 2.1 110 19:18 25.06.2019
5882 Rain 22 1017 83 10000 2.1 110 19:18 25.06.2019
5883 Rain 23 1017 73 10000 2.6 100 18:40 25.06.2019
5884 Clouds 23 1017 73 10000 2.6 100 18:21 25.06.2019
5885 -273 0 0 0 0 0 17:38 25.06.2019
5886 Clouds 22 1017 78 10000 1.5 110 17:20 25.06.2019
5887 Clouds 22 1017 78 10000 1.5 110 17:20 25.06.2019
5888 Clouds 22 1017 78 10000 1.5 110 17:20 25.06.2019
5889 Clouds 22 1017 78 10000 1.5 110 17:20 25.06.2019
5890 -273 0 0 0 0 0 17:20 25.06.2019
5891 Clouds 22 1017 78 10000 2.6 100 16:42 25.06.2019
5892 Clouds 22 1017 78 10000 2.6 100 16:24 25.06.2019
5893 Clouds 22 1017 78 10000 2.1 110 15:43 25.06.2019
5894 Clouds 22 1017 78 10000 2.1 110 15:24 25.06.2019
5895 Clouds 22 1018 78 10000 2.1 110 14:55 25.06.2019
5896 Clouds 21 1018 83 10000 1.5 120 14:35 25.06.2019
5897 Clouds 21 1018 88 10000 1.5 130 13:47 25.06.2019
5898 Clouds 21 1018 88 10000 1.5 130 13:47 25.06.2019
5899 Rain 22 1019 83 10000 4.6 90 13:29 25.06.2019
5900 Clouds 23 1019 73 10000 2.6 120 12:55 25.06.2019
5901 Clouds 22 1019 73 10000 1.5 120 12:37 25.06.2019
5902 Clear 22 1019 73 10000 1.5 120 12:18 25.06.2019
5903 Clear 23 1019 69 10000 2.1 100 11:43 25.06.2019
5904 Clear 23 1019 69 10000 2.1 100 11:21 25.06.2019
5905 Clear 23 1019 69 10000 2.1 100 11:21 25.06.2019
5906 Clear 22 1019 68 10000 2.1 110 10:45 25.06.2019
5907 Clear 22 1019 68 10000 2.1 110 10:23 25.06.2019
5908 Clear 22 1019 68 10000 1.5 110 09:55 25.06.2019
5909 Clear 23 1019 64 10000 3.1 90 09:37 25.06.2019
5910 Clouds 23 1019 64 10000 3.1 90 09:18 25.06.2019
5911 Clouds 23 1019 64 10000 2.6 110 08:43 25.06.2019
5912 Clouds 23 1019 64 10000 2.6 110 08:24 25.06.2019
5913 Clouds 23 1019 60 10000 3.1 100 07:40 25.06.2019
5914 Clouds 23 1019 60 10000 4.1 90 06:57 25.06.2019
5915 Clouds 24 1018 57 10000 4.1 100 06:39 25.06.2019
5916 Clouds 25 1019 57 10000 7.2 80 02:47 25.06.2019
5917 Clouds 25 1020 57 10000 7.7 70 01:41 25.06.2019
5918 Clouds 25 1021 57 10000 6.7 90 00:37 25.06.2019
5919 Clouds 25 1021 57 10000 7.7 80 23:56 24.06.2019
5920 Clouds 25 1022 57 10000 7.2 80 23:38 24.06.2019
5921 Clouds 25 1022 57 10000 7.2 80 23:38 24.06.2019
5922 Clouds 25 1022 57 10000 7.2 80 23:20 24.06.2019
5923 Clouds 25 1022 61 10000 5.7 90 22:41 24.06.2019
5924 Clouds 25 1022 61 10000 5.7 90 22:19 24.06.2019
5925 Clouds 24 1022 64 10000 4.1 100 21:39 24.06.2019
5926 Rain 24 1022 64 10000 4.1 100 21:19 24.06.2019
5927 Rain 23 1022 73 10000 2.1 110 20:56 24.06.2019
5928 Rain 23 1022 73 10000 3.1 100 20:38 24.06.2019
5929 Rain 23 1022 73 10000 3.1 100 20:20 24.06.2019
5930 Rain 23 1021 73 10000 3.6 90 19:44 24.06.2019
5931 Rain 23 1021 73 10000 3.6 90 19:21 24.06.2019
5932 Rain 23 1020 73 10000 5.1 90 18:45 24.06.2019
5933 Clouds 23 1020 73 10000 5.1 90 18:26 24.06.2019
5934 Clouds 22 1020 73 10000 3.6 90 17:47 24.06.2019
5935 Clouds 23 1020 69 10000 4.6 90 17:25 24.06.2019
5936 Clouds 23 1020 69 10000 3.6 90 16:48 24.06.2019
5937 Clouds 23 1020 69 10000 4.6 90 16:20 24.06.2019
5938 Clouds 23 1020 69 10000 6.7 90 15:49 24.06.2019
5939 Clouds 23 1020 69 10000 6.7 80 15:30 24.06.2019
5940 Clouds 23 1020 69 10000 5.7 90 14:55 24.06.2019
5941 Clouds 23 1021 64 10000 4.1 90 14:31 24.06.2019
5942 Clouds 23 1021 64 10000 4.6 90 13:46 24.06.2019
5943 Clouds 23 1021 64 10000 6.2 80 13:24 24.06.2019
5944 Clouds 23 1022 60 10000 5.7 90 12:43 24.06.2019
5945 Clouds 23 1022 60 10000 5.7 90 12:21 24.06.2019
5946 Clouds 23 1022 60 10000 4.1 90 11:46 24.06.2019
5947 Clouds 23 1022 60 10000 4.1 90 11:28 24.06.2019
5948 Clouds 23 1022 60 10000 4.1 100 10:57 24.06.2019
5949 Clouds 23 1022 60 10000 6.2 90 10:36 24.06.2019
5950 Clouds 23 1022 60 10000 6.2 90 10:18 24.06.2019
5951 Clouds 23 1022 60 10000 5.7 90 09:43 24.06.2019
5952 Clouds 23 1022 60 10000 5.7 90 09:19 24.06.2019
5953 Clouds 23 1022 56 10000 5.7 90 08:50 24.06.2019
5954 Clouds 23 1022 56 10000 4.1 90 08:18 24.06.2019
5955 Clouds 23 1021 56 10000 4.6 90 07:41 24.06.2019
5956 Clouds 23 1021 56 10000 4.6 90 07:22 24.06.2019
5957 Clouds 23 1021 60 10000 5.7 90 06:24 24.06.2019
5958 Clouds 23 1020 64 10000 6.7 90 05:41 24.06.2019
5959 Clouds 24 1020 60 10000 7.2 80 04:43 24.06.2019
5960 Clouds 24 1020 57 10000 8.7 90 03:48 24.06.2019
5961 Clouds 24 1020 53 10000 8.2 80 02:47 24.06.2019
5962 Clouds 25 1021 50 10000 8.2 90 01:55 24.06.2019
5963 Clouds 24 1021 47 10000 8.2 90 01:33 24.06.2019
5964 Clouds 24 1022 47 10000 8.7 80 00:50 24.06.2019
5965 Clouds 24 1022 50 10000 9.3 80 00:20 24.06.2019
5966 Clouds 24 1022 53 10000 8.7 80 23:48 23.06.2019
5967 Clouds 24 1022 53 10000 8.7 80 23:28 23.06.2019
5968 Clouds 24 1023 57 10000 7.7 80 22:58 23.06.2019
5969 Clouds 24 1023 53 10000 8.2 80 22:39 23.06.2019
5970 Clouds 24 1023 53 10000 8.2 80 22:19 23.06.2019
5971 Clouds 23 1023 60 10000 3.6 90 21:41 23.06.2019
5972 Clouds 23 1023 60 10000 3.6 90 21:22 23.06.2019
5973 Clouds 23 1023 60 10000 3.6 90 21:22 23.06.2019
5974 Clouds 22 1022 56 10000 2.6 120 20:49 23.06.2019
5975 Clouds 22 1022 53 10000 4.1 100 20:29 23.06.2019
5976 Clouds 22 1022 49 10000 4.1 100 19:50 23.06.2019
5977 Clouds 22 1022 53 10000 4.6 110 19:23 23.06.2019
5978 Clouds 22 1021 53 10000 3.1 110 18:55 23.06.2019
5979 Clouds 22 1021 53 10000 4.6 100 18:37 23.06.2019
5980 Rain 22 1021 53 10000 4.6 100 18:18 23.06.2019
5981 Rain 23 1021 49 10000 3.6 120 17:39 23.06.2019
5982 Rain 23 1021 49 10000 3.6 120 17:21 23.06.2019
5983 Rain 22 1021 64 10000 3.1 120 16:43 23.06.2019
5984 Rain 22 1021 64 10000 3.1 120 16:24 23.06.2019
5985 Rain 22 1021 64 10000 3.6 110 15:42 23.06.2019
5986 Rain 22 1021 64 10000 3.6 110 15:23 23.06.2019
5987 Rain 22 1021 64 10000 1.5 120 14:56 23.06.2019
5988 Rain 22 1021 64 10000 4.6 110 14:37 23.06.2019
5989 Rain 22 1021 64 10000 4.6 110 14:18 23.06.2019
5990 Rain 22 1022 64 10000 1.5 100 13:42 23.06.2019
5991 Rain 22 1022 64 10000 1.5 100 13:20 23.06.2019
5992 Rain 22 1022 64 10000 2.6 120 12:54 23.06.2019
5993 Rain 22 1021 60 10000 3.1 110 12:36 23.06.2019
5994 Rain 22 1021 60 10000 3.1 110 12:18 23.06.2019
5995 Rain 22 1021 64 10000 4.1 110 11:42 23.06.2019
5996 Rain 22 1021 64 10000 4.1 110 11:24 23.06.2019
5997 Rain 22 1021 64 10000 3.6 110 10:47 23.06.2019
5998 Rain 22 1021 64 10000 4.1 90 10:20 23.06.2019
5999 Rain 22 1021 64 10000 3.6 110 09:53 23.06.2019
6000 Rain 23 1021 56 10000 3.6 110 09:21 23.06.2019
6001 Rain 22 1021 60 10000 2.6 110 08:46 23.06.2019
6002 Rain 22 1020 64 10000 3.1 110 08:27 23.06.2019
6003 Rain 22 1020 64 10000 3.1 110 08:27 23.06.2019
6004 Drizzle 22 1020 64 10000 2.6 110 07:55 23.06.2019
6005 Rain 22 1020 56 10000 2.1 130 07:24 23.06.2019
6006 Rain 22 1019 56 10000 3.1 110 06:54 23.06.2019
6007 Clear 23 1019 56 10000 4.1 100 05:55 23.06.2019
6008 Clear 24 1018 57 10000 5.1 90 04:38 23.06.2019
6009 Clouds 24 1019 50 10000 3.1 110 01:57 23.06.2019
6010 Clouds 24 1019 50 10000 4.1 110 01:36 23.06.2019
6011 Clear 24 1020 47 10000 4.6 90 00:36 23.06.2019
6012 Clear 23 1020 53 10000 3.6 100 23:55 22.06.2019
6013 Clear 23 1020 53 10000 3.6 100 23:55 22.06.2019
6014 Clear 23 1020 46 10000 3.6 100 23:37 22.06.2019
6015 Clear 23 1020 46 10000 3.6 100 23:18 22.06.2019
6016 Clear 22 1020 53 10000 2.1 110 22:38 22.06.2019
6017 Clear 22 1020 53 10000 2.1 110 22:19 22.06.2019
6018 Clear 22 1020 53 10000 2.6 110 21:37 22.06.2019
6019 Clear 22 1020 53 10000 2.6 110 21:19 22.06.2019
6020 Clear 22 1019 53 10000 3.1 110 20:50 22.06.2019
6021 Clear 22 1019 53 10000 3.1 110 20:50 22.06.2019
6022 Clear 21 1019 60 10000 2.6 120 20:25 22.06.2019
6023 Clear 21 1018 60 10000 2.1 120 19:47 22.06.2019
6024 Clear 20 1018 56 10000 2.1 120 19:23 22.06.2019
6025 Clear 20 1018 52 10000 1.5 130 18:48 22.06.2019
6026 Clear 18 1018 63 10000 1.5 130 18:30 22.06.2019
6027 Clear 19 1017 59 10000 2.1 110 17:56 22.06.2019
6028 Clear 20 1017 52 10000 1.5 150 17:34 22.06.2019
6029 Clear 21 1017 49 10000 2.6 130 16:50 22.06.2019
6030 Clear 21 1017 46 10000 2.6 120 16:24 22.06.2019
6031 Clear 21 1017 46 10000 3.6 130 15:56 22.06.2019
6032 Clear 22 1017 49 10000 3.6 140 15:37 22.06.2019
6033 Clear 22 1017 49 10000 3.6 140 15:19 22.06.2019
6034 Clear 21 1017 56 10000 2.6 120 14:35 22.06.2019
6035 Clear 21 1017 56 10000 2.6 120 14:00 22.06.2019
6036 Clear 21 1016 60 10000 2.6 130 13:40 22.06.2019
6037 Clear 21 1016 60 10000 2.6 130 13:19 22.06.2019
6038 Clear 21 1016 60 10000 3.1 120 12:50 22.06.2019
6039 Clear 21 1016 60 10000 2.6 130 12:31 22.06.2019
6040 Clear 21 1016 64 10000 2.6 130 11:57 22.06.2019
6041 Rain 21 1016 68 10000 3.1 160 11:31 22.06.2019
6042 Clear 21 1016 68 10000 3.6 150 10:48 22.06.2019
6043 Rain 21 1016 64 10000 2.6 140 10:19 22.06.2019
6044 Clear 21 1016 64 10000 2.6 140 09:46 22.06.2019
6045 Rain 21 1016 68 10000 3.6 160 08:58 22.06.2019
6046 Rain 21 1016 68 10000 2.1 120 08:40 22.06.2019
6047 Rain 21 1015 64 10000 2.1 140 07:56 22.06.2019
6048 Rain 21 1015 64 10000 2.6 130 07:30 22.06.2019
6049 Drizzle 21 1015 64 10000 2.1 130 06:46 22.06.2019
6050 Clouds 23 1013 56 10000 3.1 110 04:38 22.06.2019
6051 Rain 24 1013 50 10000 1.5 150 02:27 22.06.2019
6052 Clouds 24 1014 50 10000 3.1 100 00:57 22.06.2019
6053 Clouds 23 1015 49 10000 2.1 180 00:31 22.06.2019
6054 Clouds 24 1015 44 10000 2.1 130 23:50 21.06.2019
6055 Clouds 23 1015 46 10000 2.1 120 23:24 21.06.2019
6056 Clouds 24 1015 44 10000 2.1 220 22:58 21.06.2019
6057 Clouds 24 1015 44 10000 2.1 220 22:58 21.06.2019
6058 Clouds 23 1015 46 10000 1.5 140 22:39 21.06.2019
6059 Clouds 23 1015 46 10000 1.5 140 22:20 21.06.2019
6060 Clouds 23 1015 49 10000 2.6 160 21:40 21.06.2019
6061 Clear 23 1015 49 10000 2.6 160 21:20 21.06.2019
6062 Clear 22 1014 53 10000 2.1 150 20:48 21.06.2019
6063 Clear 22 1014 49 10000 3.6 140 20:26 21.06.2019
6064 Clear 22 1014 53 10000 3.6 150 19:48 21.06.2019
6065 Clear 21 1013 56 10000 3.1 160 19:22 21.06.2019
6066 Clear 22 1012 56 10000 3.1 140 18:41 21.06.2019
6067 Rain 22 1012 56 10000 3.1 140 18:23 21.06.2019
6068 Rain 22 1012 60 10000 3.1 140 17:31 21.06.2019
6069 Rain 21 1012 64 10000 3.1 140 16:56 21.06.2019
6070 Rain 22 1012 60 10000 3.6 150 16:36 21.06.2019
6071 Rain 22 1012 60 10000 3.6 150 16:18 21.06.2019
6072 -273 0 0 0 0 0 15:37 21.06.2019
6073 Clear 22 1012 64 10000 3.1 150 14:57 21.06.2019
6074 Clear 22 1012 64 10000 3.1 140 14:38 21.06.2019
6075 Clear 22 1012 64 10000 3.1 140 14:20 21.06.2019
6076 Clear 22 1013 60 10000 3.6 140 13:39 21.06.2019
6077 Clear 22 1013 60 10000 3.6 140 13:21 21.06.2019
6078 Clear 22 1012 60 10000 3.6 160 12:49 21.06.2019
6079 Clear 23 1012 56 10000 3.6 130 12:22 21.06.2019
6080 Clear 22 1012 64 10000 2.6 150 11:48 21.06.2019
6081 Clear 23 1012 60 10000 4.1 140 11:28 21.06.2019
6082 Clear 23 1012 64 10000 3.6 150 10:58 21.06.2019
6083 Clear 23 1012 60 10000 4.1 140 10:39 21.06.2019
6084 Clear 23 1012 60 10000 4.1 140 10:20 21.06.2019
6085 Clear 23 1012 69 10000 3.6 140 09:42 21.06.2019
6086 Rain 23 1012 69 10000 3.6 140 09:21 21.06.2019
6087 Rain 23 1012 64 10000 4.6 150 08:45 21.06.2019
6088 Clear 23 1012 69 10000 4.6 160 08:27 21.06.2019
6089 Clear 23 1011 69 10000 4.1 150 07:57 21.06.2019
6090 Rain 23 1011 73 10000 4.1 150 07:38 21.06.2019
6091 Clear 23 1011 73 10000 3.6 150 06:59 21.06.2019
6092 Rain 23 1011 73 10000 4.1 130 06:24 21.06.2019
6093 Rain 24 1010 64 10000 2.6 140 05:32 21.06.2019
6094 Rain 24 1010 64 10000 4.1 140 04:31 21.06.2019
6095 Rain 24 1010 69 10000 4.1 130 03:35 21.06.2019
6096 Rain 25 1010 69 10000 4.6 140 02:53 21.06.2019
6097 Rain 25 1010 69 10000 4.1 140 01:56 21.06.2019
6098 Rain 25 1011 65 10000 6.2 150 00:58 21.06.2019
6099 Rain 24 1011 69 10000 6.2 140 00:27 21.06.2019
6100 Clouds 25 1011 69 10000 3.1 170 23:49 20.06.2019
6101 Clouds 24 1011 78 10000 4.1 140 23:23 20.06.2019
6102 Clouds 23 1012 78 10000 3.6 150 22:58 20.06.2019
6103 Clouds 24 1012 73 10000 4.1 170 22:39 20.06.2019
6104 Clouds 24 1012 73 10000 4.1 170 22:20 20.06.2019
6105 Rain 23 1012 78 10000 6.2 170 21:49 20.06.2019
6106 Rain 24 1011 73 10000 5.7 170 21:19 20.06.2019
6107 Rain 23 1011 78 10000 5.7 180 20:50 20.06.2019
6108 Rain 23 1011 78 10000 4.6 170 20:27 20.06.2019
6109 Rain 22 1010 83 10000 4.1 150 19:59 20.06.2019
6110 Rain 22 1010 88 10000 4.6 170 19:39 20.06.2019
6111 Rain 22 1010 88 10000 4.6 170 19:18 20.06.2019
6112 Rain 23 1010 88 10000 3.1 170 18:43 20.06.2019
6113 Rain 23 1010 88 10000 3.1 170 18:23 20.06.2019
6114 Rain 24 1010 78 10000 3.6 160 17:56 20.06.2019
6115 Rain 24 1010 83 10000 3.1 180 17:38 20.06.2019
6116 Rain 24 1010 83 10000 2.1 160 16:57 20.06.2019
6117 Rain 24 1010 83 10000 2.6 180 16:39 20.06.2019
6118 Rain 24 1010 83 10000 2.6 180 16:18 20.06.2019
6119 Rain 24 1011 83 10000 2.1 170 15:42 20.06.2019
6120 Rain 24 1011 83 10000 2.1 170 15:22 20.06.2019
6121 Rain 24 1010 83 10000 1 180 14:50 20.06.2019
6122 Rain 24 1011 83 10000 1 150 14:23 20.06.2019
6123 Rain 22 1011 94 10000 1.5 190 13:42 20.06.2019
6124 Rain 22 1011 94 10000 1.5 190 13:42 20.06.2019
6125 Rain 22 1011 94 10000 1.5 190 13:21 20.06.2019
6126 Rain 24 1011 83 10000 1 180 12:50 20.06.2019
6127 Rain 24 1011 83 10000 1.5 180 12:25 20.06.2019
6128 Rain 24 1012 83 10000 2.1 190 11:58 20.06.2019
6129 Rain 23 1011 94 10000 1.5 190 11:38 20.06.2019
6130 Rain 23 1011 94 10000 1.5 190 11:20 20.06.2019
6131 Rain 23 1012 94 8000 1.5 210 10:41 20.06.2019
6132 Rain 23 1012 94 8000 1.5 210 10:22 20.06.2019
6133 Rain 23 1012 94 10000 1.5 200 09:40 20.06.2019
6134 Rain 23 1012 94 10000 1.5 200 09:22 20.06.2019
6135 Rain 23 1012 94 10000 1 150 08:47 20.06.2019
6136 Rain 23 1012 94 10000 1.5 190 08:27 20.06.2019
6137 Rain 23 1011 94 10000 1.5 170 07:55 20.06.2019
6138 Rain 23 1011 94 8000 1 150 07:31 20.06.2019
6139 Rain 25 1011 83 10000 1 150 06:43 20.06.2019
6140 Clouds 25 1011 83 10000 1 150 06:18 20.06.2019
6141 Clouds 26 1011 78 10000 1.5 40 03:37 20.06.2019
6142 Clouds 26 1013 74 10000 3.6 40 00:34 20.06.2019
6143 Clouds 27 1013 69 10000 3.1 50 23:59 19.06.2019
6144 Clouds 26 1013 78 10000 5.1 50 23:41 19.06.2019
6145 Clouds 26 1013 78 10000 5.1 50 23:23 19.06.2019
6146 Clouds 25 1013 78 10000 6.2 60 22:47 19.06.2019
6147 Clouds 25 1013 78 10000 5.7 60 22:20 19.06.2019
6148 Clouds 24 1013 83 10000 4.1 60 21:47 19.06.2019
6149 Clear 24 1013 83 10000 2.6 90 21:26 19.06.2019
6150 Clear 23 1013 88 10000 4.25 80.868 20:57 19.06.2019
6151 Clear 23 1013 88 10000 2.6 100 20:37 19.06.2019
6152 Clear 23 1013 88 10000 2.6 100 20:37 19.06.2019
6153 Clear 23 1013 88 10000 2.6 100 20:37 19.06.2019
6154 Clear 23 1013 88 10000 2.6 100 20:19 19.06.2019
6155 Clear 23 1012 88 10000 1.5 120 19:41 19.06.2019
6156 Clear 23 1012 88 10000 1.5 120 19:20 19.06.2019
6157 Clear 23 1012 88 10000 2.6 100 18:48 19.06.2019
6158 Clear 23 1011 94 10000 2.6 100 18:21 19.06.2019
6159 Clear 23 1011 94 10000 2.6 90 17:38 19.06.2019
6160 Clear 24 1012 88 10000 3.1 100 16:59 19.06.2019
6161 Clear 23 1012 94 10000 3.1 90 16:39 19.06.2019
6162 Clear 23 1012 94 10000 3.1 90 16:21 19.06.2019
6163 Clear 23 1013 94 10000 2.1 90 15:53 19.06.2019
6164 Clear 23 1013 94 10000 2.1 80 15:27 19.06.2019
6165 Drizzle 24 1013 94 10000 1.5 110 14:51 19.06.2019
6166 Clear 24 1014 94 10000 1.5 110 14:32 19.06.2019
6167 Clear 23 1014 94 10000 1.5 110 13:59 19.06.2019
6168 Clear 23 1014 94 10000 1.5 100 13:41 19.06.2019
6169 Clear 23 1014 94 10000 1.5 100 13:23 19.06.2019
6170 Rain 23 1015 94 10000 3.1 100 12:44 19.06.2019
6171 Rain 23 1015 94 10000 3.1 100 12:22 19.06.2019
6172 Rain 24 1015 94 10000 2.1 100 11:55 19.06.2019
6173 Rain 24 1015 94 4900 2.6 140 11:37 19.06.2019
6174 Rain 24 1015 94 4900 2.6 140 11:18 19.06.2019
6175 Clear 24 1015 94 10000 1.5 100 10:41 19.06.2019
6176 Clear 24 1015 94 10000 1.5 100 10:23 19.06.2019
6177 Clear 24 1015 94 10000 2.1 100 09:41 19.06.2019
6178 Rain 24 1015 94 10000 2.1 100 09:20 19.06.2019
6179 Clear 24 1015 88 10000 2.1 80 08:50 19.06.2019
6180 Clear 24 1014 94 10000 2.1 100 08:28 19.06.2019
6181 Clear 24 1014 88 10000 1.5 90 07:47 19.06.2019
6182 Clear 24 1014 88 10000 1.5 90 07:47 19.06.2019
6183 Clear 24 1014 94 10000 1.5 90 07:25 19.06.2019
6184 Clear 25 1014 88 10000 2.1 90 06:52 19.06.2019
6185 Rain 26 1014 83 10000 4.1 80 06:28 19.06.2019
6186 Rain 26 1013 83 10000 5.1 80 05:49 19.06.2019
6187 Rain 27 1013 78 10000 4.1 60 04:34 19.06.2019
6188 Rain 27 1013 78 10000 4.1 60 03:30 19.06.2019
6189 Rain 27 1014 83 10000 4.1 70 01:53 19.06.2019
6190 Rain 27 1014 83 10000 4.6 70 01:18 19.06.2019
6191 Rain 26 1015 83 10000 5.1 70 00:43 19.06.2019
6192 Rain 26 1015 83 10000 5.1 70 00:43 19.06.2019
6193 Rain 26 1015 83 10000 5.1 70 00:20 19.06.2019
6194 Rain 27 1015 78 10000 4.6 60 23:52 18.06.2019
6195 Rain 26 1016 83 10000 5.1 70 23:27 18.06.2019
6196 Rain 27 1016 83 10000 4.6 70 22:46 18.06.2019
6197 Rain 26 1016 83 10000 5.1 80 22:24 18.06.2019
6198 Rain 25 1016 88 10000 4.1 80 21:57 18.06.2019
6199 Rain 25 1015 88 10000 2.6 80 21:38 18.06.2019
6200 Clear 25 1015 88 10000 2.6 80 21:20 18.06.2019
6201 Clear 22 1015 100 10000 1.5 90 20:43 18.06.2019
6202 Clear 22 1015 100 10000 1.5 90 20:25 18.06.2019
6203 Clear 21 1015 100 10000 1.5 90 19:42 18.06.2019
6204 Clear 21 1015 100 10000 1.5 90 19:23 18.06.2019
6205 Clear 21 1014 100 10000 1.5 80 18:59 18.06.2019
6206 Clear 22 1014 94 10000 2.1 80 18:37 18.06.2019
6207 Clear 22 1014 94 10000 2.1 80 18:18 18.06.2019
6208 Clear 22 1014 94 10000 3.1 80 17:38 18.06.2019
6209 Clear 22 1014 94 10000 3.1 80 17:19 18.06.2019
6210 Clear 23 1014 88 10000 2.1 90 16:43 18.06.2019
6211 Clear 23 1014 88 10000 2.1 90 16:24 18.06.2019
6212 Clear 23 1015 88 10000 2.1 100 15:43 18.06.2019
6213 Clear 23 1015 88 10000 2.1 100 15:24 18.06.2019
6214 Clear 23 1015 94 10000 1.5 110 14:58 18.06.2019
6215 Rain 23 1015 94 8000 2.6 100 14:39 18.06.2019
6216 Rain 23 1015 94 8000 2.6 100 14:19 18.06.2019
6217 Clear 23 1015 94 10000 2.1 100 13:50 18.06.2019
6218 Clouds 23 1015 94 10000 2.1 100 13:31 18.06.2019
6219 Mist 23 1016 94 4000 3.1 90 12:46 18.06.2019
6220 Mist 23 1016 94 4000 3.1 90 12:28 18.06.2019
6221 Clouds 23 1016 94 10000 2.1 80 11:56 18.06.2019
6222 Clouds 23 1016 88 10000 1.5 90 11:38 18.06.2019
6223 Clouds 23 1016 88 10000 1.5 90 11:18 18.06.2019
6224 Clouds 23 1016 88 10000 0.5 70 10:43 18.06.2019
6225 Clouds 23 1016 88 10000 0.5 70 10:22 18.06.2019
6226 Clouds 23 1016 88 10000 1 130 09:51 18.06.2019
6227 Clear 23 1016 88 10000 0.5 160 09:25 18.06.2019
6228 Clear 24 1016 83 10000 1 120 08:50 18.06.2019
6229 Clear 24 1015 83 10000 1.5 100 08:30 18.06.2019
6230 Clear 24 1015 83 10000 1 110 07:56 18.06.2019
6231 Clear 24 1015 83 10000 1.5 110 07:26 18.06.2019
6232 Clear 24 1014 83 10000 1.5 120 06:55 18.06.2019
6233 Clear 26 1014 74 10000 5.7 80 05:25 18.06.2019
6234 Clear 26 1014 74 10000 6.2 80 04:21 18.06.2019
6235 Clear 26 1014 78 10000 6.7 80 02:48 18.06.2019
6236 Clear 27 1015 78 10000 7.7 70 01:27 18.06.2019
6237 Clear 27 1016 74 10000 5.7 80 00:58 18.06.2019
6238 Clear 26 1016 78 10000 6.7 80 00:30 18.06.2019
6239 Clear 26 1016 78 10000 7.7 70 23:43 17.06.2019
6240 Clear 26 1016 78 10000 7.7 70 23:24 17.06.2019
6241 Clear 26 1016 83 10000 6.7 80 22:58 17.06.2019
6242 Clear 25 1016 88 10000 3.1 70 22:39 17.06.2019
6243 Clear 25 1016 88 10000 3.1 70 22:20 17.06.2019
6244 Rain 24 1016 94 7000 5.1 60 21:45 17.06.2019
6245 Rain 24 1016 94 7000 5.1 60 21:23 17.06.2019
6246 Rain 24 1016 94 7000 5.1 60 21:23 17.06.2019
6247 Rain 24 1016 94 10000 2.6 90 20:42 17.06.2019
6248 Clear 24 1016 94 10000 2.6 90 20:23 17.06.2019
6249 Rain 23 1015 94 10000 3.1 90 19:57 17.06.2019
6250 Clear 23 1015 94 10000 1.5 100 19:39 17.06.2019
6251 Clear 23 1015 94 10000 1.5 100 19:20 17.06.2019
6252 Clear 23 1015 94 10000 1.5 100 18:39 17.06.2019
6253 Rain 24 1015 88 10000 1.5 110 18:18 17.06.2019
6254 Rain 24 1015 88 10000 1.5 110 18:18 17.06.2019
6255 Rain 24 1015 88 10000 1.5 110 17:48 17.06.2019
6256 Rain 24 1015 88 10000 1.5 110 17:48 17.06.2019
6257 Rain 24 1015 88 10000 1.5 110 17:29 17.06.2019
6258 Rain 23 1015 94 10000 1.5 100 16:56 17.06.2019
6259 Rain 24 1015 88 6000 2.1 100 16:38 17.06.2019
6260 Rain 24 1015 88 10000 2.1 100 16:20 17.06.2019
6261 Rain 24 1015 88 10000 1.5 110 15:43 17.06.2019
6262 Rain 24 1015 88 10000 2.1 100 15:20 17.06.2019
6263 Rain 24 1015 88 10000 2.1 100 14:56 17.06.2019
6264 Rain 24 1015 88 10000 2.6 90 14:36 17.06.2019
6265 Rain 24 1015 88 10000 2.6 90 14:36 17.06.2019
6266 Rain 24 1015 83 10000 3.1 90 14:18 17.06.2019
6267 Rain 24 1015 88 10000 2.1 100 13:40 17.06.2019
6268 Rain 25 1015 83 10000 2.1 100 13:20 17.06.2019
6269 Rain 25 1015 83 10000 4.6 90 12:39 17.06.2019
6270 Clouds 25 1015 83 10000 3.6 90 12:19 17.06.2019
6271 Clouds 25 1015 83 10000 3.6 90 11:43 17.06.2019
6272 Clouds 25 1015 83 10000 3.6 90 11:24 17.06.2019
6273 Clouds 25 1015 83 10000 4.6 90 10:47 17.06.2019
6274 Clouds 25 1015 83 10000 4.6 90 10:28 17.06.2019
6275 Clouds 24 1016 88 10000 2.1 90 09:56 17.06.2019
6276 Clouds 24 1016 88 10000 2.1 90 09:56 17.06.2019
6277 Clouds 24 1016 88 10000 1 130 09:33 17.06.2019
6278 Clear 25 1015 83 10000 2.1 110 08:48 17.06.2019
6279 Clear 25 1015 83 10000 2.1 110 08:25 17.06.2019
6280 Clear 24 1014 88 10000 3.6 80 07:58 17.06.2019
6281 Clear 25 1015 83 10000 2.6 100 07:32 17.06.2019
6282 Clear 25 1014 83 10000 2.6 90 06:59 17.06.2019
6283 Clear 25 1014 83 10000 3.1 90 06:18 17.06.2019
6284 Clear 25 1014 78 10000 3.6 80 05:26 17.06.2019
6285 Clear 26 1014 78 10000 6.2 80 04:23 17.06.2019
6286 Clear 26 1013 83 10000 6.2 60 03:31 17.06.2019
6287 Clear 26 1014 78 10000 7.2 70 02:43 17.06.2019
6288 Clear 26 1014 78 10000 7.2 70 02:25 17.06.2019
6289 Clear 27 1015 78 10000 4.6 50 01:35 17.06.2019
6290 Clear 26 1016 78 10000 3.6 60 00:57 17.06.2019
6291 Clear 26 1016 78 10000 4.1 60 00:36 17.06.2019
6292 Clear 26 1017 78 10000 4.6 70 00:18 17.06.2019
6293 Clear 26 1017 78 10000 4.6 70 23:39 16.06.2019
6294 Clear 26 1017 78 10000 4.6 70 23:19 16.06.2019
6295 Clear 26 1017 78 10000 4.6 80 22:44 16.06.2019
6296 Clear 25 1017 83 10000 3.1 90 22:20 16.06.2019
6297 Clear 25 1017 83 10000 3.1 90 21:57 16.06.2019
6298 Clear 25 1017 83 10000 5.7 70 21:39 16.06.2019
6299 Rain 25 1016 88 10000 4.6 80 21:20 16.06.2019
6300 Rain 25 1016 83 10000 5.7 70 20:39 16.06.2019
6301 Rain 25 1016 83 10000 4.1 70 20:19 16.06.2019
6302 Rain 25 1016 83 10000 4.1 70 20:19 16.06.2019
6303 Rain 25 1016 83 10000 4.1 70 19:58 16.06.2019
6304 Rain 25 1016 83 10000 4.1 70 19:58 16.06.2019
6305 Rain 25 1015 83 10000 5.7 70 19:39 16.06.2019
6306 Rain 25 1015 88 10000 5.1 60 19:19 16.06.2019
6307 Rain 25 1014 83 10000 5.7 70 18:42 16.06.2019
6308 Rain 25 1014 88 10000 4.6 70 18:21 16.06.2019
6309 Rain 25 1014 88 10000 5.7 60 17:49 16.06.2019
6310 Rain 25 1014 88 10000 5.7 60 17:25 16.06.2019
6311 Rain 25 1014 88 10000 5.1 60 16:58 16.06.2019
6312 Rain 25 1014 88 10000 5.1 60 16:40 16.06.2019
6313 Rain 25 1014 88 10000 5.1 60 16:21 16.06.2019
6314 Rain 25 1014 88 10000 5.1 60 15:57 16.06.2019
6315 Rain 25 1015 88 10000 5.7 60 15:38 16.06.2019
6316 Rain 24 1015 94 10000 3.6 70 15:19 16.06.2019
6317 Rain 25 1015 94 10000 3.1 50 14:37 16.06.2019
6318 Rain 24 1015 94 7000 5.1 20 14:19 16.06.2019
6319 Rain 24 1015 94 2600 4.6 20 13:46 16.06.2019
6320 Rain 24 1015 94 2600 4.6 20 13:25 16.06.2019
6321 Rain 25 1015 83 10000 5.1 80 12:45 16.06.2019
6322 Rain 25 1015 83 10000 5.1 80 12:23 16.06.2019
6323 Rain 25 1015 88 10000 4.1 80 11:56 16.06.2019
6324 Rain 25 1016 88 10000 3.6 80 11:38 16.06.2019
6325 Rain 25 1016 88 10000 4.1 70 11:18 16.06.2019
6326 Rain 25 1015 88 10000 4.1 80 10:44 16.06.2019
6327 Rain 25 1015 88 10000 3.6 90 10:19 16.06.2019
6328 Rain 25 1015 88 10000 3.6 90 09:43 16.06.2019
6329 Rain 25 1015 88 10000 3.6 90 09:23 16.06.2019
6330 Rain 25 1015 88 10000 3.6 90 08:46 16.06.2019
6331 Rain 25 1015 88 10000 3.6 90 08:21 16.06.2019
6332 Rain 25 1014 88 6000 3.1 80 07:45 16.06.2019
6333 Rain 25 1014 88 6000 3.1 80 07:27 16.06.2019
6334 Rain 26 1014 83 10000 4.6 70 06:53 16.06.2019
6335 Rain 26 1014 83 10000 5.7 60 05:56 16.06.2019
6336 Rain 26 1014 88 10000 5.1 60 05:22 16.06.2019
6337 Rain 27 1014 83 10000 4.6 60 04:21 16.06.2019
6338 Rain 27 1014 83 10000 5.1 60 03:40 16.06.2019
6339 Rain 27 1014 83 10000 5.7 60 03:20 16.06.2019
6340 Rain 27 1014 83 10000 4.6 60 01:48 16.06.2019
6341 Rain 27 1014 83 10000 4.6 60 01:30 16.06.2019
6342 Rain 27 1015 83 10000 5.1 60 00:44 16.06.2019
6343 Rain 27 1015 83 10000 5.1 60 00:25 16.06.2019
6344 Rain 27 1015 83 10000 5.1 60 23:56 15.06.2019
6345 Rain 27 1016 83 10000 4.6 60 23:38 15.06.2019
6346 Rain 27 1016 83 10000 4.6 60 23:19 15.06.2019
6347 Rain 27 1016 83 10000 4.6 60 22:43 15.06.2019
6348 Rain 27 1016 83 10000 4.6 60 22:25 15.06.2019
6349 Rain 26 1015 88 10000 5.1 60 21:44 15.06.2019
6350 Rain 26 1015 83 10000 5.7 60 21:21 15.06.2019
6351 Rain 26 1015 83 10000 5.7 60 20:45 15.06.2019
6352 Rain 25 1015 88 10000 5.7 70 20:23 15.06.2019
6353 Rain 25 1014 94 10000 5.1 70 19:50 15.06.2019
6354 Rain 25 1014 94 10000 5.1 70 19:28 15.06.2019
6355 Rain 25 1014 88 10000 3.6 90 18:45 15.06.2019
6356 Rain 25 1014 88 10000 3.6 90 18:26 15.06.2019
6357 Rain 25 1013 94 10000 5.1 70 17:47 15.06.2019
6358 Rain 25 1013 94 10000 5.1 70 17:29 15.06.2019
6359 Rain 25 1013 94 10000 5.7 60 16:49 15.06.2019
6360 Rain 25 1013 94 10000 5.7 60 16:22 15.06.2019
6361 Rain 25 1013 94 10000 5.7 70 15:56 15.06.2019
6362 Rain 25 1013 94 10000 6.2 60 15:37 15.06.2019
6363 Rain 25 1014 94 10000 5.7 60 15:18 15.06.2019
6364 Rain 25 1014 94 10000 6.7 60 14:37 15.06.2019
6365 Rain 25 1014 94 10000 6.2 70 14:18 15.06.2019
6366 Rain 25 1014 94 10000 5.7 60 13:42 15.06.2019
6367 Rain 25 1014 88 10000 6.2 70 13:20 15.06.2019
6368 Rain 25 1014 88 10000 6.2 70 12:53 15.06.2019
6369 Rain 25 1015 88 10000 6.2 70 12:27 15.06.2019
6370 -273 0 0 0 0 0 12:27 15.06.2019
6371 Rain 25 1015 94 10000 5.1 80 11:54 15.06.2019
6372 Rain 25 1015 94 10000 4.6 80 11:35 15.06.2019
6373 Rain 25 1015 94 10000 5.1 80 10:55 15.06.2019
6374 Rain 25 1015 94 10000 5.7 70 10:37 15.06.2019
6375 Rain 26 1015 88 10000 6.2 70 10:19 15.06.2019
6376 Rain 25 1015 94 10000 6.2 70 09:43 15.06.2019
6377 Clear 25 1015 94 10000 6.2 70 09:23 15.06.2019
6378 Clear 25 1014 94 10000 5.7 80 08:50 15.06.2019
6379 Clear 25 1014 94 10000 5.7 80 08:31 15.06.2019
6380 -273 0 0 0 0 0 07:50 15.06.2019
6381 Clear 25 1014 94 10000 6.7 80 07:22 15.06.2019
6382 Clear 26 1013 88 10000 6.7 80 06:39 15.06.2019
6383 Clear 26 1013 88 10000 6.2 80 06:18 15.06.2019
6384 Clear 26 1013 83 10000 6.7 80 05:25 15.06.2019
6385 Clear 27 1013 83 10000 6.7 70 04:44 15.06.2019
6386 Clear 27 1014 83 10000 5.7 70 03:44 15.06.2019
6387 Clouds 27 1014 83 10000 5.7 60 02:56 15.06.2019
6388 Clouds 28 1014 78 10000 6.2 60 02:22 15.06.2019
6389 Clouds 27 1014 83 10000 6.2 70 01:44 15.06.2019
6390 Clouds 27 1014 83 10000 7.2 60 00:56 15.06.2019
6391 Clouds 27 1015 83 10000 7.7 60 00:37 15.06.2019
6392 Rain 27 1015 83 10000 9.3 70 23:54 14.06.2019
6393 Clear 27 1015 83 10000 8.7 70 23:26 14.06.2019
6394 Clear 26 1015 83 10000 9.3 70 22:45 14.06.2019
6395 Clear 26 1015 83 10000 9.3 70 22:23 14.06.2019
6396 Clear 26 1014 83 10000 9.8 70 21:59 14.06.2019
6397 Clear 25 1014 88 10000 9.3 70 21:40 14.06.2019
6398 Rain 25 1014 88 10000 8.7 70 21:21 14.06.2019
6399 Rain 25 1014 88 10000 9.3 70 20:42 14.06.2019
6400 Rain 25 1014 88 10000 8.7 70 20:18 14.06.2019
6401 Rain 25 1014 88 10000 8.7 70 20:18 14.06.2019
6402 Rain 25 1013 88 10000 8.2 80 19:53 14.06.2019
6403 Rain 25 1013 88 10000 8.2 80 19:23 14.06.2019
6404 Rain 25 1014 88 10000 5.7 80 18:58 14.06.2019
6405 Rain 25 1014 88 10000 6.2 80 18:40 14.06.2019
6406 Clouds 25 1013 88 10000 6.7 70 18:22 14.06.2019
6407 Clouds 25 1013 88 10000 7.2 70 17:47 14.06.2019
6408 Clouds 25 1013 88 10000 7.2 70 17:27 14.06.2019
6409 Clouds 25 1013 88 10000 7.7 70 16:56 14.06.2019
6410 Clouds 25 1013 88 10000 7.7 70 16:38 14.06.2019
6411 Clouds 25 1014 88 10000 7.2 70 16:18 14.06.2019
6412 Clouds 25 1014 88 10000 8.2 70 15:39 14.06.2019
6413 Rain 25 1014 88 10000 7.2 70 15:21 14.06.2019
6414 Rain 25 1014 88 10000 7.2 70 14:54 14.06.2019
6415 Rain 25 1015 88 10000 6.2 80 14:32 14.06.2019
6416 Rain 25 1015 88 10000 6.2 80 14:32 14.06.2019
6417 Rain 25 1015 88 10000 6.7 70 13:56 14.06.2019
6418 Rain 25 1015 88 10000 6.7 70 13:55 14.06.2019
6419 Rain 25 1015 88 10000 6.7 70 13:55 14.06.2019
6420 Rain 25 1015 88 10000 6.7 70 13:36 14.06.2019
6421 Rain 25 1015 88 10000 5.7 70 13:18 14.06.2019
6422 Rain 25 1015 83 10000 5.1 70 12:41 14.06.2019
6423 Clouds 25 1015 83 10000 5.1 70 12:22 14.06.2019
6424 -273 0 0 0 0 0 11:46 14.06.2019
6425 Clouds 25 1016 83 10000 7.2 70 11:24 14.06.2019
6426 Clouds 25 1016 88 10000 5.1 60 10:50 14.06.2019
6427 Clouds 25 1016 88 10000 5.1 60 10:23 14.06.2019
6428 Clouds 25 1016 83 10000 5.1 60 09:56 14.06.2019
6429 Clouds 26 1016 78 10000 5.7 60 09:38 14.06.2019
6430 Clouds 25 1016 83 10000 3.6 80 09:19 14.06.2019
6431 Clouds 25 1016 83 10000 5.1 70 08:41 14.06.2019
6432 Clouds 26 1015 78 10000 6.2 60 08:18 14.06.2019
6433 Clouds 25 1015 83 10000 6.7 70 07:45 14.06.2019
6434 Clouds 25 1015 83 10000 6.2 70 07:19 14.06.2019
6435 Clouds 25 1015 83 10000 5.7 70 06:27 14.06.2019
6436 Clouds 25 1014 88 10000 4.6 70 05:54 14.06.2019
6437 Clouds 25 1014 83 10000 6.7 80 04:56 14.06.2019
6438 Clouds 26 1014 83 10000 7.2 80 04:32 14.06.2019
6439 Clouds 26 1015 78 10000 7.2 70 03:46 14.06.2019
6440 Clouds 26 1015 78 10000 7.2 70 03:23 14.06.2019
6441 Clouds 26 1015 83 10000 6.7 80 02:43 14.06.2019
6442 Clouds 26 1016 83 10000 8.7 70 01:54 14.06.2019
6443 Clouds 26 1016 78 10000 8.2 80 00:45 14.06.2019
6444 Clouds 26 1016 83 10000 8.7 80 00:22 14.06.2019
6445 Clouds 27 1016 78 10000 9.8 80 23:51 13.06.2019
6446 Clouds 27 1016 78 10000 9.8 80 23:26 13.06.2019
6447 Clouds 26 1016 83 10000 8.7 80 22:58 13.06.2019
6448 Clouds 26 1016 83 10000 8.2 80 22:38 13.06.2019
6449 Clouds 26 1016 83 10000 8.2 80 22:19 13.06.2019
6450 Clouds 26 1016 78 10000 7.7 80 21:38 13.06.2019
6451 Clouds 26 1016 78 10000 7.7 80 21:38 13.06.2019
6452 Clouds 25 1016 83 10000 6.2 90 21:19 13.06.2019
6453 Clouds 25 1016 83 10000 5.7 80 20:45 13.06.2019
6454 Clouds 25 1016 83 10000 5.7 90 20:21 13.06.2019
6455 Clouds 25 1016 83 10000 5.7 90 19:55 13.06.2019
6456 Clouds 25 1015 83 10000 5.1 90 19:36 13.06.2019
6457 Clouds 25 1015 83 10000 6.2 80 19:18 13.06.2019
6458 Clouds 25 1015 83 10000 6.2 80 18:42 13.06.2019
6459 Clouds 25 1015 83 10000 6.2 80 18:23 13.06.2019
6460 Clouds 25 1015 83 10000 6.2 80 17:56 13.06.2019
6461 Clouds 25 1015 83 10000 5.7 80 17:36 13.06.2019
6462 Clouds 25 1015 83 10000 5.7 80 17:18 13.06.2019
6463 Clouds 25 1015 83 10000 6.7 80 16:41 13.06.2019
6464 Clouds 25 1015 83 10000 7.2 80 16:20 13.06.2019
6465 Clouds 25 1015 83 10000 7.7 70 15:43 13.06.2019
6466 Clouds 25 1015 83 10000 8.2 80 15:24 13.06.2019
6467 Clouds 25 1015 83 10000 8.2 80 14:54 13.06.2019
6468 Clouds 25 1015 83 10000 7.7 80 14:31 13.06.2019
6469 Clouds 25 1015 83 10000 8.2 80 13:59 13.06.2019
6470 Clouds 25 1015 83 10000 7.7 80 13:39 13.06.2019
6471 Clouds 25 1015 83 10000 7.2 80 13:21 13.06.2019
6472 Clouds 25 1015 83 10000 7.7 80 12:41 13.06.2019
6473 Clouds 25 1015 83 10000 7.7 80 12:22 13.06.2019
6474 Clouds 25 1015 83 10000 7.7 80 11:46 13.06.2019
6475 Clouds 25 1015 83 10000 7.7 80 11:28 13.06.2019
6476 Clouds 25 1015 83 10000 9.8 80 10:51 13.06.2019
6477 Clouds 25 1015 83 10000 9.3 80 10:31 13.06.2019
6478 Clouds 25 1015 83 10000 7.7 80 09:56 13.06.2019
6479 Clouds 25 1016 83 10000 7.2 80 09:38 13.06.2019
6480 Rain 25 1015 88 10000 8.7 70 09:20 13.06.2019
6481 Clouds 25 1015 78 10000 9.3 70 08:43 13.06.2019
6482 Clouds 25 1015 78 10000 8.7 70 08:22 13.06.2019
6483 Clouds 25 1015 83 10000 8.2 70 07:41 13.06.2019
6484 Clouds 25 1014 83 10000 8.2 70 07:22 13.06.2019
6485 Clouds 25 1014 83 10000 7.7 70 06:45 13.06.2019
6486 Clouds 26 1014 78 10000 8.2 70 06:22 13.06.2019
6487 Clouds 26 1014 78 10000 8.2 70 05:52 13.06.2019
6488 Clouds 26 1014 74 10000 8.2 70 05:34 13.06.2019
6489 Clouds 26 1014 74 10000 7.2 70 03:50 13.06.2019
6490 Clouds 27 1015 74 10000 8.2 60 02:22 13.06.2019
6491 Clouds 27 1017 69 10000 7.7 60 00:44 13.06.2019
6492 Clouds 27 1018 69 10000 7.7 60 23:38 12.06.2019
6493 Clouds 27 1018 74 10000 8.2 60 23:20 12.06.2019
6494 Clouds 26 1018 74 10000 7.7 60 22:41 12.06.2019
6495 Clouds 26 1018 74 10000 7.7 60 22:22 12.06.2019
6496 Clouds 26 1017 74 10000 8.2 60 21:47 12.06.2019
6497 Clouds 26 1017 74 10000 8.2 60 21:29 12.06.2019
6498 Clouds 25 1017 83 10000 7.7 70 20:49 12.06.2019
6499 Clouds 25 1017 83 10000 7.7 70 20:31 12.06.2019
6500 Clouds 24 1016 94 10000 7.7 70 19:59 12.06.2019
6501 Clouds 24 1016 94 10000 5.1 90 19:41 12.06.2019
6502 Rain 24 1016 94 9000 6.2 80 19:22 12.06.2019
6503 Clouds 24 1016 88 10000 6.7 80 18:49 12.06.2019
6504 Clouds 24 1016 88 10000 6.7 80 18:28 12.06.2019
6505 Rain 24 1016 94 7000 7.2 70 17:51 12.06.2019
6506 Rain 24 1016 94 7000 7.2 70 17:23 12.06.2019
6507 Rain 24 1016 88 10000 6.2 90 16:59 12.06.2019
6508 Rain 25 1016 83 10000 7.2 80 16:39 12.06.2019
6509 Rain 25 1016 83 10000 8.2 80 16:20 12.06.2019
6510 Rain 24 1016 88 10000 7.7 80 15:46 12.06.2019
6511 Rain 24 1016 88 10000 7.7 80 15:28 12.06.2019
6512 Rain 24 1017 88 10000 7.7 80 14:39 12.06.2019
6513 Rain 24 1017 88 10000 7.7 80 14:20 12.06.2019
6514 Rain 25 1018 88 10000 6.7 80 13:42 12.06.2019
6515 Rain 24 1018 88 10000 7.2 80 13:20 12.06.2019
6516 Rain 24 1018 88 10000 7.2 80 12:56 12.06.2019
6517 Rain 24 1018 88 10000 5.7 80 12:37 12.06.2019
6518 Rain 24 1019 88 10000 5.7 90 12:18 12.06.2019
6519 Rain 25 1019 83 10000 5.7 90 11:43 12.06.2019
6520 Rain 25 1019 83 10000 5.7 90 11:43 12.06.2019
6521 Rain 25 1019 83 10000 5.7 90 11:25 12.06.2019
6522 Rain 24 1019 88 10000 5.1 90 10:46 12.06.2019
6523 Rain 24 1019 88 10000 5.1 90 10:23 12.06.2019
6524 Rain 24 1019 88 8000 4.1 90 09:43 12.06.2019
6525 Rain 24 1019 88 8000 4.1 90 09:23 12.06.2019
6526 Rain 24 1019 88 8000 4.1 90 09:23 12.06.2019
6527 Rain 25 1018 83 10000 5.7 90 08:47 12.06.2019
6528 Rain 25 1018 83 10000 5.1 90 08:20 12.06.2019
6529 Rain 25 1018 88 10000 5.7 90 07:37 12.06.2019
6530 Rain 25 1017 83 10000 5.7 90 06:43 12.06.2019
6531 Rain 25 1017 83 10000 6.7 90 05:27 12.06.2019
6532 Rain 26 1017 83 10000 7.7 80 03:55 12.06.2019
6533 Rain 26 1018 83 10000 7.7 80 01:26 12.06.2019
6534 Rain 27 1019 78 10000 9.3 70 00:38 12.06.2019
6535 Clear 26 1019 83 10000 9.3 80 23:45 11.06.2019
6536 Clear 26 1019 83 10000 9.3 80 23:27 11.06.2019
6537 Rain 26 1019 83 10000 9.8 80 22:43 11.06.2019
6538 Rain 25 1019 88 10000 9.3 80 22:19 11.06.2019
6539 Rain 25 1019 88 10000 9.3 80 21:57 11.06.2019
6540 Rain 25 1019 83 10000 7.7 80 21:37 11.06.2019
6541 Clouds 25 1019 83 10000 7.7 80 21:19 11.06.2019
6542 Clouds 25 1018 83 10000 6.2 80 20:47 11.06.2019
6543 Clouds 24 1018 88 10000 6.2 90 20:24 11.06.2019
6544 Clouds 24 1018 88 10000 6.2 90 19:54 11.06.2019
6545 -273 0 0 0 0 0 19:31 11.06.2019
6546 Clouds 24 1017 88 10000 6.7 80 18:56 11.06.2019
6547 Clouds 24 1017 88 10000 6.7 80 18:56 11.06.2019
6548 Rain 24 1017 88 10000 6.2 80 18:21 11.06.2019
6549 Rain 24 1017 88 10000 5.7 90 17:42 11.06.2019
6550 Rain 24 1017 88 10000 6.7 90 17:22 11.06.2019
6551 Rain 24 1017 88 10000 6.7 90 16:56 11.06.2019
6552 Rain 24 1017 88 10000 6.7 90 16:37 11.06.2019
6553 Rain 24 1017 88 10000 5.7 90 16:19 11.06.2019
6554 Rain 24 1017 88 10000 5.1 90 15:41 11.06.2019
6555 Rain 24 1017 88 10000 5.7 90 15:20 11.06.2019
6556 Rain 24 1018 88 10000 5.7 90 14:44 11.06.2019
6557 Rain 24 1018 88 10000 4.6 90 14:21 11.06.2019
6558 Rain 24 1018 88 10000 4.1 90 13:50 11.06.2019
6559 Rain 24 1018 88 10000 4.1 90 13:23 11.06.2019
6560 Rain 24 1018 88 10000 4.6 90 12:43 11.06.2019
6561 Rain 24 1018 88 10000 4.6 90 12:22 11.06.2019
6562 Rain 24 1018 94 10000 3.6 80 11:58 11.06.2019
6563 Rain 23 1019 94 6000 5.7 80 11:36 11.06.2019
6564 Rain 23 1018 94 10000 5.1 90 11:18 11.06.2019
6565 Rain 23 1019 94 10000 4.6 90 10:43 11.06.2019
6566 Rain 23 1019 94 10000 4.6 90 10:24 11.06.2019
6567 Rain 23 1019 94 10000 3.6 90 09:46 11.06.2019
6568 Rain 23 1019 94 10000 3.6 90 09:23 11.06.2019
6569 Rain 24 1019 94 7000 4.6 90 08:42 11.06.2019
6570 Rain 24 1019 94 7000 4.6 90 08:23 11.06.2019
6571 Rain 23 1018 94 10000 5.1 90 07:37 11.06.2019
6572 Rain 24 1017 88 10000 4.1 90 06:54 11.06.2019
6573 Rain 24 1017 94 10000 5.1 90 06:24 11.06.2019
6574 Haze 24 1017 94 5000 6.2 90 04:49 11.06.2019
6575 Rain 25 1017 88 10000 6.2 90 02:44 11.06.2019
6576 Rain 25 1018 83 6000 6.2 90 01:23 11.06.2019
6577 Rain 25 1018 83 6000 6.2 90 01:23 11.06.2019
6578 Rain 25 1019 83 10000 6.2 90 00:44 11.06.2019
6579 Rain 26 1020 74 10000 5.1 100 23:47 10.06.2019
6580 Rain 26 1020 74 10000 4.6 90 23:21 10.06.2019
6581 Rain 25 1020 78 10000 4.1 100 22:47 10.06.2019
6582 Rain 25 1020 78 10000 4.1 100 22:29 10.06.2019
6583 Rain 25 1020 78 10000 4.1 110 21:58 10.06.2019
6584 Rain 25 1020 78 10000 4.6 90 21:38 10.06.2019
6585 Rain 24 1019 83 10000 5.7 100 21:20 10.06.2019
6586 Rain 24 1019 83 10000 4.6 100 20:44 10.06.2019
6587 Rain 24 1019 83 10000 4.1 100 20:21 10.06.2019
6588 Rain 23 1019 88 10000 2.1 100 19:48 10.06.2019
6589 Rain 23 1019 88 10000 2.1 100 19:26 10.06.2019
6590 Rain 23 1019 88 10000 1.5 140 18:58 10.06.2019
6591 Rain 23 1018 88 10000 2.1 80 18:40 10.06.2019
6592 Clouds 23 1018 83 10000 3.1 110 18:20 10.06.2019
6593 Clouds 23 1018 88 10000 2.1 120 17:44 10.06.2019
6594 Clouds 23 1018 88 10000 2.1 120 17:24 10.06.2019
6595 Clouds 23 1018 83 10000 2.6 100 16:49 10.06.2019
6596 Clouds 23 1018 83 10000 2.6 100 16:30 10.06.2019
6597 Clouds 23 1018 83 10000 2.6 100 16:30 10.06.2019
6598 Clouds 23 1018 83 10000 3.1 110 15:59 10.06.2019
6599 Clouds 24 1019 78 10000 3.6 110 15:40 10.06.2019
6600 Clouds 24 1019 78 10000 4.1 100 15:22 10.06.2019
6601 Clouds 24 1019 73 10000 3.1 90 14:45 10.06.2019
6602 Clouds 24 1019 73 10000 3.6 120 14:25 10.06.2019
6603 Clouds 24 1019 73 10000 3.6 110 13:47 10.06.2019
6604 Clouds 24 1019 73 10000 3.6 110 13:28 10.06.2019
6605 Clouds 24 1019 73 10000 1.5 130 12:54 10.06.2019
6606 Clouds 24 1019 73 10000 2.6 120 12:31 10.06.2019
6607 Clouds 24 1019 73 10000 2.6 110 11:58 10.06.2019
6608 Clouds 24 1019 78 10000 2.1 120 11:38 10.06.2019
6609 Clouds 23 1019 83 10000 3.6 120 11:18 10.06.2019
6610 Clouds 24 1019 73 10000 3.1 120 10:41 10.06.2019
6611 Clouds 24 1019 73 10000 3.6 110 10:19 10.06.2019
6612 Clouds 24 1019 73 10000 3.6 110 09:51 10.06.2019
6613 Clouds 24 1019 73 10000 3.1 110 09:29 10.06.2019
6614 Clouds 23 1018 83 10000 2.6 100 08:50 10.06.2019
6615 Clouds 23 1018 83 10000 2.6 100 08:27 10.06.2019
6616 Clouds 24 1018 78 10000 2.6 120 07:42 10.06.2019
6617 Clouds 25 1016 73 10000 4.6 140 04:43 10.06.2019
6618 Clouds 25 1016 73 10000 4.1 140 03:29 10.06.2019
6619 Clouds 25 1017 73 10000 3.6 150 01:55 10.06.2019
6620 Clouds 26 1018 69 10000 2.6 160 01:19 10.06.2019
6621 Clouds 25 1018 78 10000 3.6 150 00:47 10.06.2019
6622 Clouds 26 1018 69 10000 2.1 160 23:48 09.06.2019
6623 Clouds 26 1018 69 10000 2.1 160 23:48 09.06.2019
6624 Clouds 26 1018 69 10000 2.1 160 23:23 09.06.2019
6625 Clouds 26 1018 74 10000 2.1 190 22:48 09.06.2019
6626 Clouds 26 1018 74 10000 2.1 190 22:26 09.06.2019
6627 Clouds 26 1018 74 10000 1 250 21:57 09.06.2019
6628 Clouds 25 1018 78 10000 1.5 230 21:37 09.06.2019
6629 Clouds 24 1017 83 10000 1.5 130 21:18 09.06.2019
6630 Clouds 23 1017 88 10000 1 330 20:41 09.06.2019
6631 Clouds 23 1017 88 10000 1 330 20:21 09.06.2019
6632 Clouds 23 1017 88 10000 1 330 20:21 09.06.2019
6633 Clouds 22 1016 100 10000 1 170 19:43 09.06.2019
6634 Clouds 23 1016 94 10000 1 180 19:18 09.06.2019
6635 Clouds 23 1016 94 10000 1 180 19:18 09.06.2019
6636 Clouds 23 1015 94 10000 0.5 10 18:43 09.06.2019
6637 Clouds 23 1015 94 10000 0.5 10 18:25 09.06.2019
6638 Clouds 24 1015 94 10000 1 190 17:56 09.06.2019
6639 Clouds 24 1015 88 10000 1 170 17:30 09.06.2019
6640 Clouds 24 1015 94 10000 2.1 290 16:58 09.06.2019
6641 Clouds 24 1015 88 10000 1 90 16:40 09.06.2019
6642 Clouds 24 1015 88 10000 1.5 270 16:20 09.06.2019
6643 Clouds 24 1015 88 10000 1.5 270 15:50 09.06.2019
6644 Clouds 24 1015 88 10000 1.5 270 15:29 09.06.2019
6645 Rain 24 1015 88 10000 1 250 14:54 09.06.2019
6646 Rain 24 1015 94 10000 3.1 180 14:34 09.06.2019
6647 Rain 24 1015 94 10000 2.6 200 13:57 09.06.2019
6648 Rain 24 1015 94 10000 3.6 210 13:39 09.06.2019
6649 Rain 24 1015 94 10000 2.6 190 12:56 09.06.2019
6650 Rain 24 1015 94 10000 3.1 190 12:34 09.06.2019
6651 Rain 24 1015 94 10000 3.1 190 12:34 09.06.2019
6652 Rain 25 1015 94 10000 2.1 210 11:51 09.06.2019
6653 Rain 25 1015 94 10000 2.1 210 11:30 09.06.2019
6654 -273 0 0 0 0 0 10:58 09.06.2019
6655 -273 0 0 0 0 0 10:58 09.06.2019
6656 Clear 25 1014 88 10000 3.1 190 10:39 09.06.2019
6657 Clear 25 1014 88 10000 2.6 200 10:19 09.06.2019
6658 Clear 25 1014 88 10000 2.6 200 10:19 09.06.2019
6659 Clear 25 1014 94 10000 2.1 210 09:38 09.06.2019
6660 Clouds 25 1014 94 10000 2.1 210 09:19 09.06.2019
6661 Clouds 25 1013 94 10000 2.1 210 08:44 09.06.2019
6662 Clouds 25 1013 94 10000 2.6 210 07:52 09.06.2019
6663 Clouds 27 1012 88 10000 2.6 280 06:44 09.06.2019
6664 Rain 27 1012 88 10000 2.6 290 05:55 09.06.2019
6665 Rain 28 1011 83 10000 2.1 330 02:55 09.06.2019
6666 Rain 27 1012 88 10000 2.6 310 01:37 09.06.2019
6667 Rain 27 1013 88 10000 1.5 300 01:19 09.06.2019
6668 Rain 27 1013 88 10000 2.6 330 00:29 09.06.2019
6669 Rain 27 1013 88 10000 3.1 330 23:41 08.06.2019
6670 Rain 27 1013 88 10000 3.1 330 23:22 08.06.2019
6671 Rain 27 1013 88 10000 3.6 300 22:45 08.06.2019
6672 Rain 27 1013 88 10000 3.6 300 22:26 08.06.2019
6673 Rain 27 1013 88 10000 3.6 310 21:58 08.06.2019
6674 Rain 27 1013 88 10000 3.6 320 21:39 08.06.2019
6675 Rain 26 1012 94 10000 3.6 320 21:20 08.06.2019
6676 Rain 26 1012 94 10000 4.1 330 20:43 08.06.2019
6677 Rain 26 1012 94 10000 4.1 330 20:24 08.06.2019
6678 Rain 26 1011 94 10000 4.1 340 19:44 08.06.2019
6679 Rain 26 1011 94 10000 4.1 340 19:23 08.06.2019
6680 Rain 26 1011 94 10000 4.1 340 18:59 08.06.2019
6681 Rain 26 1011 94 10000 4.6 340 18:40 08.06.2019
6682 Clouds 26 1011 94 10000 3.6 360 18:20 08.06.2019
6683 Clouds 26 1011 94 10000 3.6 350 17:42 08.06.2019
6684 Clouds 26 1011 94 10000 3.1 340 17:19 08.06.2019
6685 Clouds 26 1011 94 10000 3.6 350 16:45 08.06.2019
6686 Clouds 26 1011 94 10000 2.6 10 16:24 08.06.2019
6687 -273 0 0 0 0 0 15:40 08.06.2019
6688 Clouds 26 1011 94 10000 3.1 10 15:21 08.06.2019
6689 Clouds 26 1011 94 10000 4.1 30 14:42 08.06.2019
6690 Clouds 26 1011 94 10000 4.1 30 14:24 08.06.2019
6691 Clouds 26 1011 94 10000 3.6 20 13:38 08.06.2019
6692 Clouds 26 1011 88 10000 4.1 20 12:47 08.06.2019
6693 Clouds 26 1011 88 10000 4.1 20 12:27 08.06.2019
6694 Clouds 26 1011 88 10000 4.1 40 11:44 08.06.2019
6695 Clouds 26 1011 88 10000 4.1 40 11:24 08.06.2019
6696 Clouds 26 1012 88 10000 3.1 30 10:45 08.06.2019
6697 Clouds 26 1012 88 10000 3.1 30 10:24 08.06.2